<?xml version='1.0' encoding='UTF-8'?><gpx version="1.1" creator="JPX - https://github.com/jenetics/jpx" xmlns="http://www.topografix.com/GPX/1/1"><trk><trkseg><trkpt lat="45.5769638" lon="10.7543305"><ele>210.0</ele><time>2026-03-28T12:42:39.754Z</time></trkpt><trkpt lat="45.5769591" lon="10.7542326"><ele>210.0</ele><time>2026-03-28T12:42:43.754Z</time></trkpt><trkpt lat="45.5770255" lon="10.7542213"><ele>210.0</ele><time>2026-03-28T12:42:48.756Z</time></trkpt><trkpt lat="45.5770484" lon="10.7543352"><ele>210.0</ele><time>2026-03-28T12:43:15.755Z</time></trkpt><trkpt lat="45.5770732" lon="10.7544549"><ele>210.0</ele><time>2026-03-28T12:43:17.754Z</time></trkpt><trkpt lat="45.5771116" lon="10.7546107"><ele>210.0</ele><time>2026-03-28T12:43:19.755Z</time></trkpt><trkpt lat="45.5771283" lon="10.7547122"><ele>209.4</ele><time>2026-03-28T12:43:20.755Z</time></trkpt><trkpt lat="45.5771525" lon="10.7548767"><ele>208.8</ele><time>2026-03-28T12:43:22.754Z</time></trkpt><trkpt lat="45.5771744" lon="10.7550193"><ele>208.2</ele><time>2026-03-28T12:43:24.754Z</time></trkpt><trkpt lat="45.5771876" lon="10.7551443"><ele>207.6</ele><time>2026-03-28T12:43:26.755Z</time></trkpt><trkpt lat="45.5772073" lon="10.755314"><ele>207.0</ele><time>2026-03-28T12:43:28.754Z</time></trkpt><trkpt lat="45.577219" lon="10.7554055"><ele>206.83333333333334</ele><time>2026-03-28T12:43:29.754Z</time></trkpt><trkpt lat="45.5772372" lon="10.755579"><ele>206.66666666666669</ele><time>2026-03-28T12:43:31.755Z</time></trkpt><trkpt lat="45.577243" lon="10.7556721"><ele>206.5</ele><time>2026-03-28T12:43:32.756Z</time></trkpt><trkpt lat="45.5772437" lon="10.755768"><ele>206.33333333333334</ele><time>2026-03-28T12:43:33.754Z</time></trkpt><trkpt lat="45.5772382" lon="10.755868"><ele>206.16666666666669</ele><time>2026-03-28T12:43:34.754Z</time></trkpt><trkpt lat="45.5772241" lon="10.7559702"><ele>206.0</ele><time>2026-03-28T12:43:35.755Z</time></trkpt><trkpt lat="45.5772059" lon="10.7560636"><ele>206.0</ele><time>2026-03-28T12:43:36.755Z</time></trkpt><trkpt lat="45.5771638" lon="10.7562238"><ele>206.0</ele><time>2026-03-28T12:43:38.754Z</time></trkpt><trkpt lat="45.5771188" lon="10.7563532"><ele>206.0</ele><time>2026-03-28T12:43:40.755Z</time></trkpt><trkpt lat="45.5770668" lon="10.7564557"><ele>206.0</ele><time>2026-03-28T12:43:42.755Z</time></trkpt><trkpt lat="45.5770131" lon="10.7565407"><ele>206.0</ele><time>2026-03-28T12:43:44.754Z</time></trkpt><trkpt lat="45.5769902" lon="10.7566247"><ele>206.0</ele><time>2026-03-28T12:44:03.754Z</time></trkpt><trkpt lat="45.5770243" lon="10.7567318"><ele>206.0</ele><time>2026-03-28T12:44:07.754Z</time></trkpt><trkpt lat="45.5771025" lon="10.7567326"><ele>206.0</ele><time>2026-03-28T12:44:08.753Z</time></trkpt><trkpt lat="45.5771845" lon="10.7567163"><ele>206.0</ele><time>2026-03-28T12:44:09.753Z</time></trkpt><trkpt lat="45.577277" lon="10.7566908"><ele>206.0</ele><time>2026-03-28T12:44:10.753Z</time></trkpt><trkpt lat="45.5773919" lon="10.7566569"><ele>206.0</ele><time>2026-03-28T12:44:11.753Z</time></trkpt><trkpt lat="45.5775283" lon="10.7566115"><ele>206.0</ele><time>2026-03-28T12:44:12.753Z</time></trkpt><trkpt lat="45.5776649" lon="10.7565634"><ele>206.0</ele><time>2026-03-28T12:44:13.753Z</time></trkpt><trkpt lat="45.5778089" lon="10.7565139"><ele>206.0</ele><time>2026-03-28T12:44:14.753Z</time></trkpt><trkpt lat="45.577943" lon="10.7564683"><ele>205.75</ele><time>2026-03-28T12:44:15.753Z</time></trkpt><trkpt lat="45.5780736" lon="10.7564217"><ele>205.5</ele><time>2026-03-28T12:44:16.753Z</time></trkpt><trkpt lat="45.5782006" lon="10.7563772"><ele>205.25</ele><time>2026-03-28T12:44:17.754Z</time></trkpt><trkpt lat="45.5783303" lon="10.7563355"><ele>205.0</ele><time>2026-03-28T12:44:18.754Z</time></trkpt><trkpt lat="45.5784616" lon="10.7562867"><ele>205.0</ele><time>2026-03-28T12:44:19.754Z</time></trkpt><trkpt lat="45.5785938" lon="10.7562289"><ele>205.0</ele><time>2026-03-28T12:44:20.754Z</time></trkpt><trkpt lat="45.5787377" lon="10.7561549"><ele>205.0</ele><time>2026-03-28T12:44:21.754Z</time></trkpt><trkpt lat="45.5788917" lon="10.7560722"><ele>206.0</ele><time>2026-03-28T12:44:22.754Z</time></trkpt><trkpt lat="45.5790415" lon="10.7559773"><ele>207.0</ele><time>2026-03-28T12:44:23.754Z</time></trkpt><trkpt lat="45.5791834" lon="10.7558747"><ele>208.0</ele><time>2026-03-28T12:44:24.754Z</time></trkpt><trkpt lat="45.5793155" lon="10.7557707"><ele>208.0</ele><time>2026-03-28T12:44:25.754Z</time></trkpt><trkpt lat="45.5794479" lon="10.7556597"><ele>208.0</ele><time>2026-03-28T12:44:26.754Z</time></trkpt><trkpt lat="45.57959" lon="10.7555393"><ele>208.0</ele><time>2026-03-28T12:44:27.754Z</time></trkpt><trkpt lat="45.5797291" lon="10.7554127"><ele>208.0</ele><time>2026-03-28T12:44:28.755Z</time></trkpt><trkpt lat="45.57987" lon="10.755276"><ele>208.0</ele><time>2026-03-28T12:44:29.753Z</time></trkpt><trkpt lat="45.5800135" lon="10.7551389"><ele>208.0</ele><time>2026-03-28T12:44:30.753Z</time></trkpt><trkpt lat="45.5801609" lon="10.755005"><ele>208.0</ele><time>2026-03-28T12:44:31.753Z</time></trkpt><trkpt lat="45.5803087" lon="10.7548688"><ele>208.0</ele><time>2026-03-28T12:44:32.754Z</time></trkpt><trkpt lat="45.5804605" lon="10.754728"><ele>208.0</ele><time>2026-03-28T12:44:33.754Z</time></trkpt><trkpt lat="45.5806188" lon="10.7545805"><ele>208.0</ele><time>2026-03-28T12:44:34.754Z</time></trkpt><trkpt lat="45.5807893" lon="10.754418"><ele>208.0</ele><time>2026-03-28T12:44:35.754Z</time></trkpt><trkpt lat="45.5809774" lon="10.7542417"><ele>208.0</ele><time>2026-03-28T12:44:36.753Z</time></trkpt><trkpt lat="45.5811883" lon="10.7540507"><ele>208.5</ele><time>2026-03-28T12:44:37.753Z</time></trkpt><trkpt lat="45.5813942" lon="10.7538664"><ele>209.0</ele><time>2026-03-28T12:44:38.753Z</time></trkpt><trkpt lat="45.5815819" lon="10.7536969"><ele>209.0</ele><time>2026-03-28T12:44:39.754Z</time></trkpt><trkpt lat="45.5817592" lon="10.7535431"><ele>209.0</ele><time>2026-03-28T12:44:40.754Z</time></trkpt><trkpt lat="45.5819217" lon="10.7534029"><ele>209.0</ele><time>2026-03-28T12:44:41.754Z</time></trkpt><trkpt lat="45.5820727" lon="10.7532711"><ele>209.5</ele><time>2026-03-28T12:44:42.753Z</time></trkpt><trkpt lat="45.5822042" lon="10.7531516"><ele>210.0</ele><time>2026-03-28T12:44:43.754Z</time></trkpt><trkpt lat="45.5823116" lon="10.7530573"><ele>210.5</ele><time>2026-03-28T12:44:44.754Z</time></trkpt><trkpt lat="45.5824001" lon="10.7529964"><ele>211.0</ele><time>2026-03-28T12:44:45.754Z</time></trkpt><trkpt lat="45.5824745" lon="10.7529916"><ele>210.99999999999997</ele><time>2026-03-28T12:44:46.754Z</time></trkpt><trkpt lat="45.5825416" lon="10.7530289"><ele>211.0</ele><time>2026-03-28T12:44:47.754Z</time></trkpt><trkpt lat="45.5825952" lon="10.7531063"><ele>211.0</ele><time>2026-03-28T12:44:48.753Z</time></trkpt><trkpt lat="45.5826443" lon="10.7532048"><ele>211.0</ele><time>2026-03-28T12:44:49.753Z</time></trkpt><trkpt lat="45.5826989" lon="10.7533139"><ele>210.99999999999997</ele><time>2026-03-28T12:44:50.753Z</time></trkpt><trkpt lat="45.5827618" lon="10.7534266"><ele>211.0</ele><time>2026-03-28T12:44:51.753Z</time></trkpt><trkpt lat="45.5828302" lon="10.7535491"><ele>210.25</ele><time>2026-03-28T12:44:52.753Z</time></trkpt><trkpt lat="45.5829024" lon="10.7536806"><ele>209.5</ele><time>2026-03-28T12:44:53.753Z</time></trkpt><trkpt lat="45.5829789" lon="10.7538259"><ele>208.75</ele><time>2026-03-28T12:44:54.753Z</time></trkpt><trkpt lat="45.5830584" lon="10.7539789"><ele>208.0</ele><time>2026-03-28T12:44:55.754Z</time></trkpt><trkpt lat="45.583143" lon="10.7541402"><ele>208.0</ele><time>2026-03-28T12:44:56.754Z</time></trkpt><trkpt lat="45.5832346" lon="10.7543047"><ele>208.0</ele><time>2026-03-28T12:44:57.753Z</time></trkpt><trkpt lat="45.5833296" lon="10.7544693"><ele>208.0</ele><time>2026-03-28T12:44:58.754Z</time></trkpt><trkpt lat="45.5834201" lon="10.7546236"><ele>208.0</ele><time>2026-03-28T12:44:59.754Z</time></trkpt><trkpt lat="45.5835046" lon="10.7547703"><ele>208.5</ele><time>2026-03-28T12:45:00.753Z</time></trkpt><trkpt lat="45.5835815" lon="10.7549103"><ele>209.0</ele><time>2026-03-28T12:45:01.754Z</time></trkpt><trkpt lat="45.583652" lon="10.7550541"><ele>209.5</ele><time>2026-03-28T12:45:02.754Z</time></trkpt><trkpt lat="45.5837175" lon="10.755215"><ele>210.0</ele><time>2026-03-28T12:45:03.754Z</time></trkpt><trkpt lat="45.5837756" lon="10.7553639"><ele>210.25</ele><time>2026-03-28T12:45:04.754Z</time></trkpt><trkpt lat="45.5838392" lon="10.755515"><ele>210.5</ele><time>2026-03-28T12:45:05.753Z</time></trkpt><trkpt lat="45.5839066" lon="10.7556652"><ele>210.75</ele><time>2026-03-28T12:45:06.753Z</time></trkpt><trkpt lat="45.5839818" lon="10.7558108"><ele>211.0</ele><time>2026-03-28T12:45:07.755Z</time></trkpt><trkpt lat="45.5840662" lon="10.7559546"><ele>210.75</ele><time>2026-03-28T12:45:08.753Z</time></trkpt><trkpt lat="45.5841569" lon="10.7561055"><ele>210.5</ele><time>2026-03-28T12:45:09.753Z</time></trkpt><trkpt lat="45.584246" lon="10.7562552"><ele>210.25</ele><time>2026-03-28T12:45:10.753Z</time></trkpt><trkpt lat="45.5843371" lon="10.7564045"><ele>210.0</ele><time>2026-03-28T12:45:11.754Z</time></trkpt><trkpt lat="45.5844269" lon="10.7565448"><ele>210.0</ele><time>2026-03-28T12:45:12.754Z</time></trkpt><trkpt lat="45.5845084" lon="10.7566727"><ele>210.0</ele><time>2026-03-28T12:45:13.754Z</time></trkpt><trkpt lat="45.5845836" lon="10.7567901"><ele>210.0</ele><time>2026-03-28T12:45:14.754Z</time></trkpt><trkpt lat="45.5846489" lon="10.7568995"><ele>210.0</ele><time>2026-03-28T12:45:15.753Z</time></trkpt><trkpt lat="45.5847119" lon="10.7569975"><ele>210.0</ele><time>2026-03-28T12:45:16.753Z</time></trkpt><trkpt lat="45.5847769" lon="10.7570857"><ele>209.8</ele><time>2026-03-28T12:45:17.754Z</time></trkpt><trkpt lat="45.5848552" lon="10.7571791"><ele>209.6</ele><time>2026-03-28T12:45:18.754Z</time></trkpt><trkpt lat="45.5849399" lon="10.7572593"><ele>209.39999999999998</ele><time>2026-03-28T12:45:19.754Z</time></trkpt><trkpt lat="45.5850152" lon="10.7573293"><ele>209.2</ele><time>2026-03-28T12:45:20.754Z</time></trkpt><trkpt lat="45.5850973" lon="10.7573972"><ele>209.0</ele><time>2026-03-28T12:45:21.754Z</time></trkpt><trkpt lat="45.5851779" lon="10.757442"><ele>209.0</ele><time>2026-03-28T12:45:22.753Z</time></trkpt><trkpt lat="45.5852613" lon="10.7574719"><ele>209.0</ele><time>2026-03-28T12:45:23.753Z</time></trkpt><trkpt lat="45.5853462" lon="10.7575119"><ele>209.0</ele><time>2026-03-28T12:45:24.753Z</time></trkpt><trkpt lat="45.5854324" lon="10.7575669"><ele>209.0</ele><time>2026-03-28T12:45:25.753Z</time></trkpt><trkpt lat="45.5855224" lon="10.7576365"><ele>209.0</ele><time>2026-03-28T12:45:26.753Z</time></trkpt><trkpt lat="45.5856171" lon="10.7577172"><ele>209.2</ele><time>2026-03-28T12:45:27.754Z</time></trkpt><trkpt lat="45.5857007" lon="10.7577923"><ele>209.39999999999998</ele><time>2026-03-28T12:45:28.753Z</time></trkpt><trkpt lat="45.5857844" lon="10.7578643"><ele>209.6</ele><time>2026-03-28T12:45:29.753Z</time></trkpt><trkpt lat="45.5858709" lon="10.7579179"><ele>209.8</ele><time>2026-03-28T12:45:30.753Z</time></trkpt><trkpt lat="45.5859602" lon="10.7579546"><ele>210.0</ele><time>2026-03-28T12:45:31.753Z</time></trkpt><trkpt lat="45.5860634" lon="10.7579869"><ele>210.0</ele><time>2026-03-28T12:45:32.753Z</time></trkpt><trkpt lat="45.5861842" lon="10.7580164"><ele>210.0</ele><time>2026-03-28T12:45:33.753Z</time></trkpt><trkpt lat="45.5863169" lon="10.7580545"><ele>210.0</ele><time>2026-03-28T12:45:34.753Z</time></trkpt><trkpt lat="45.58644" lon="10.7580823"><ele>210.0</ele><time>2026-03-28T12:45:35.753Z</time></trkpt><trkpt lat="45.5865631" lon="10.7581126"><ele>210.0</ele><time>2026-03-28T12:45:36.753Z</time></trkpt><trkpt lat="45.5866831" lon="10.7581461"><ele>210.0</ele><time>2026-03-28T12:45:37.754Z</time></trkpt><trkpt lat="45.5868064" lon="10.7581801"><ele>210.0</ele><time>2026-03-28T12:45:38.754Z</time></trkpt><trkpt lat="45.5869331" lon="10.7582117"><ele>210.0</ele><time>2026-03-28T12:45:39.753Z</time></trkpt><trkpt lat="45.5870489" lon="10.758242"><ele>210.2</ele><time>2026-03-28T12:45:40.753Z</time></trkpt><trkpt lat="45.587165" lon="10.7582725"><ele>210.4</ele><time>2026-03-28T12:45:41.753Z</time></trkpt><trkpt lat="45.5872726" lon="10.7583055"><ele>210.60000000000002</ele><time>2026-03-28T12:45:42.755Z</time></trkpt><trkpt lat="45.5873636" lon="10.7583408"><ele>210.8</ele><time>2026-03-28T12:45:43.753Z</time></trkpt><trkpt lat="45.587438" lon="10.758389"><ele>211.0</ele><time>2026-03-28T12:45:44.754Z</time></trkpt><trkpt lat="45.5874981" lon="10.7584525"><ele>211.0</ele><time>2026-03-28T12:45:45.754Z</time></trkpt><trkpt lat="45.5875478" lon="10.7585249"><ele>211.0</ele><time>2026-03-28T12:45:46.754Z</time></trkpt><trkpt lat="45.5875937" lon="10.7586616"><ele>211.0</ele><time>2026-03-28T12:45:48.754Z</time></trkpt><trkpt lat="45.5875886" lon="10.7588413"><ele>211.0</ele><time>2026-03-28T12:45:50.753Z</time></trkpt><trkpt lat="45.5875758" lon="10.7589728"><ele>211.0</ele><time>2026-03-28T12:45:51.753Z</time></trkpt><trkpt lat="45.5875669" lon="10.7591152"><ele>210.75</ele><time>2026-03-28T12:45:52.755Z</time></trkpt><trkpt lat="45.587565" lon="10.7592758"><ele>210.5</ele><time>2026-03-28T12:45:53.754Z</time></trkpt><trkpt lat="45.5875617" lon="10.7594486"><ele>210.25</ele><time>2026-03-28T12:45:54.753Z</time></trkpt><trkpt lat="45.58756" lon="10.7596304"><ele>210.0</ele><time>2026-03-28T12:45:55.753Z</time></trkpt><trkpt lat="45.5875589" lon="10.7598244"><ele>210.0</ele><time>2026-03-28T12:45:56.754Z</time></trkpt><trkpt lat="45.5875576" lon="10.7600283"><ele>210.0</ele><time>2026-03-28T12:45:57.754Z</time></trkpt><trkpt lat="45.5875555" lon="10.7602406"><ele>210.0</ele><time>2026-03-28T12:45:58.753Z</time></trkpt><trkpt lat="45.5875487" lon="10.7604599"><ele>210.0</ele><time>2026-03-28T12:45:59.753Z</time></trkpt><trkpt lat="45.5875482" lon="10.7606835"><ele>210.0</ele><time>2026-03-28T12:46:00.753Z</time></trkpt><trkpt lat="45.5875506" lon="10.7609082"><ele>210.0</ele><time>2026-03-28T12:46:01.753Z</time></trkpt><trkpt lat="45.5875451" lon="10.7611298"><ele>210.0</ele><time>2026-03-28T12:46:02.753Z</time></trkpt><trkpt lat="45.587535" lon="10.7613473"><ele>210.25</ele><time>2026-03-28T12:46:03.754Z</time></trkpt><trkpt lat="45.5875164" lon="10.7615498"><ele>210.5</ele><time>2026-03-28T12:46:04.754Z</time></trkpt><trkpt lat="45.5874872" lon="10.7617456"><ele>210.75</ele><time>2026-03-28T12:46:05.753Z</time></trkpt><trkpt lat="45.5874493" lon="10.7619482"><ele>211.0</ele><time>2026-03-28T12:46:06.754Z</time></trkpt><trkpt lat="45.5873956" lon="10.7621433"><ele>211.25</ele><time>2026-03-28T12:46:07.754Z</time></trkpt><trkpt lat="45.5873273" lon="10.7623317"><ele>211.5</ele><time>2026-03-28T12:46:08.754Z</time></trkpt><trkpt lat="45.5872501" lon="10.7625088"><ele>211.75</ele><time>2026-03-28T12:46:09.753Z</time></trkpt><trkpt lat="45.5871721" lon="10.7626548"><ele>212.0</ele><time>2026-03-28T12:46:10.753Z</time></trkpt><trkpt lat="45.5871086" lon="10.7627638"><ele>212.0</ele><time>2026-03-28T12:46:11.754Z</time></trkpt><trkpt lat="45.587053" lon="10.7628556"><ele>212.0</ele><time>2026-03-28T12:46:12.753Z</time></trkpt><trkpt lat="45.5869993" lon="10.7629413"><ele>212.0</ele><time>2026-03-28T12:46:13.753Z</time></trkpt><trkpt lat="45.5869352" lon="10.7630297"><ele>212.0</ele><time>2026-03-28T12:46:14.754Z</time></trkpt><trkpt lat="45.5868522" lon="10.7631213"><ele>212.0</ele><time>2026-03-28T12:46:15.754Z</time></trkpt><trkpt lat="45.5867523" lon="10.7632221"><ele>212.0</ele><time>2026-03-28T12:46:16.754Z</time></trkpt><trkpt lat="45.5866389" lon="10.7633336"><ele>212.0</ele><time>2026-03-28T12:46:17.754Z</time></trkpt><trkpt lat="45.5865208" lon="10.7634553"><ele>212.0</ele><time>2026-03-28T12:46:18.754Z</time></trkpt><trkpt lat="45.5863982" lon="10.7635913"><ele>212.0</ele><time>2026-03-28T12:46:19.754Z</time></trkpt><trkpt lat="45.5862771" lon="10.7637407"><ele>212.0</ele><time>2026-03-28T12:46:20.754Z</time></trkpt><trkpt lat="45.5861628" lon="10.7639079"><ele>212.0</ele><time>2026-03-28T12:46:21.754Z</time></trkpt><trkpt lat="45.5860493" lon="10.7640743"><ele>212.0</ele><time>2026-03-28T12:46:22.754Z</time></trkpt><trkpt lat="45.5859375" lon="10.7642445"><ele>212.33333333333334</ele><time>2026-03-28T12:46:23.754Z</time></trkpt><trkpt lat="45.5858344" lon="10.7644311"><ele>212.66666666666669</ele><time>2026-03-28T12:46:24.754Z</time></trkpt><trkpt lat="45.5857307" lon="10.7646347"><ele>213.0</ele><time>2026-03-28T12:46:25.754Z</time></trkpt><trkpt lat="45.5856318" lon="10.7648494"><ele>213.0</ele><time>2026-03-28T12:46:26.754Z</time></trkpt><trkpt lat="45.5855283" lon="10.7650719"><ele>213.0</ele><time>2026-03-28T12:46:27.753Z</time></trkpt><trkpt lat="45.5854075" lon="10.7652963"><ele>213.0</ele><time>2026-03-28T12:46:28.754Z</time></trkpt><trkpt lat="45.5852792" lon="10.7655361"><ele>213.0</ele><time>2026-03-28T12:46:29.754Z</time></trkpt><trkpt lat="45.5851418" lon="10.7658052"><ele>213.0</ele><time>2026-03-28T12:46:30.753Z</time></trkpt><trkpt lat="45.5849898" lon="10.7660789"><ele>213.33333333333331</ele><time>2026-03-28T12:46:31.753Z</time></trkpt><trkpt lat="45.5848544" lon="10.7663109"><ele>213.66666666666666</ele><time>2026-03-28T12:46:32.753Z</time></trkpt><trkpt lat="45.584726" lon="10.7665309"><ele>214.0</ele><time>2026-03-28T12:46:33.755Z</time></trkpt><trkpt lat="45.5846054" lon="10.7667302"><ele>214.0</ele><time>2026-03-28T12:46:34.754Z</time></trkpt><trkpt lat="45.5844957" lon="10.7668874"><ele>214.0</ele><time>2026-03-28T12:46:35.754Z</time></trkpt><trkpt lat="45.5843876" lon="10.7670017"><ele>214.0</ele><time>2026-03-28T12:46:36.753Z</time></trkpt><trkpt lat="45.5842896" lon="10.7671118"><ele>214.0</ele><time>2026-03-28T12:46:37.753Z</time></trkpt><trkpt lat="45.5842044" lon="10.7672188"><ele>214.0</ele><time>2026-03-28T12:46:38.754Z</time></trkpt><trkpt lat="45.5841264" lon="10.767345"><ele>214.0</ele><time>2026-03-28T12:46:39.753Z</time></trkpt><trkpt lat="45.5840673" lon="10.7675095"><ele>214.0</ele><time>2026-03-28T12:46:40.754Z</time></trkpt><trkpt lat="45.5840187" lon="10.7677073"><ele>214.0</ele><time>2026-03-28T12:46:41.754Z</time></trkpt><trkpt lat="45.5839699" lon="10.7679126"><ele>213.66666666666666</ele><time>2026-03-28T12:46:42.754Z</time></trkpt><trkpt lat="45.5839293" lon="10.7681364"><ele>213.33333333333331</ele><time>2026-03-28T12:46:43.754Z</time></trkpt><trkpt lat="45.5839023" lon="10.7683896"><ele>213.0</ele><time>2026-03-28T12:46:44.754Z</time></trkpt><trkpt lat="45.5838875" lon="10.7686667"><ele>214.0</ele><time>2026-03-28T12:46:45.753Z</time></trkpt><trkpt lat="45.5838689" lon="10.7689572"><ele>215.0</ele><time>2026-03-28T12:46:46.753Z</time></trkpt><trkpt lat="45.5838401" lon="10.7692554"><ele>216.0</ele><time>2026-03-28T12:46:47.754Z</time></trkpt><trkpt lat="45.5838043" lon="10.769556"><ele>217.0</ele><time>2026-03-28T12:46:48.753Z</time></trkpt><trkpt lat="45.5837613" lon="10.7698547"><ele>218.0</ele><time>2026-03-28T12:46:49.753Z</time></trkpt><trkpt lat="45.583718" lon="10.7701563"><ele>219.0</ele><time>2026-03-28T12:46:50.753Z</time></trkpt><trkpt lat="45.5836866" lon="10.7704578"><ele>218.66666666666669</ele><time>2026-03-28T12:46:51.753Z</time></trkpt><trkpt lat="45.5836658" lon="10.7707589"><ele>218.33333333333334</ele><time>2026-03-28T12:46:52.753Z</time></trkpt><trkpt lat="45.5836448" lon="10.7710471"><ele>218.0</ele><time>2026-03-28T12:46:53.753Z</time></trkpt><trkpt lat="45.5836251" lon="10.7713169"><ele>218.66666666666669</ele><time>2026-03-28T12:46:54.754Z</time></trkpt><trkpt lat="45.583608" lon="10.771589"><ele>219.33333333333331</ele><time>2026-03-28T12:46:55.754Z</time></trkpt><trkpt lat="45.5835895" lon="10.7718578"><ele>220.0</ele><time>2026-03-28T12:46:56.754Z</time></trkpt><trkpt lat="45.5835589" lon="10.7721191"><ele>221.0</ele><time>2026-03-28T12:46:57.754Z</time></trkpt><trkpt lat="45.5835016" lon="10.7723655"><ele>222.0</ele><time>2026-03-28T12:46:58.754Z</time></trkpt><trkpt lat="45.5834205" lon="10.7726"><ele>223.0</ele><time>2026-03-28T12:46:59.753Z</time></trkpt><trkpt lat="45.5833164" lon="10.7728173"><ele>223.66666666666666</ele><time>2026-03-28T12:47:00.753Z</time></trkpt><trkpt lat="45.5831925" lon="10.7730189"><ele>224.33333333333331</ele><time>2026-03-28T12:47:01.754Z</time></trkpt><trkpt lat="45.5830551" lon="10.7732073"><ele>225.0</ele><time>2026-03-28T12:47:02.753Z</time></trkpt><trkpt lat="45.5829168" lon="10.7733925"><ele>225.66666666666669</ele><time>2026-03-28T12:47:03.753Z</time></trkpt><trkpt lat="45.5827946" lon="10.7735762"><ele>226.33333333333334</ele><time>2026-03-28T12:47:04.753Z</time></trkpt><trkpt lat="45.5826823" lon="10.7737917"><ele>227.0</ele><time>2026-03-28T12:47:05.754Z</time></trkpt><trkpt lat="45.5825943" lon="10.774029"><ele>227.0</ele><time>2026-03-28T12:47:06.754Z</time></trkpt><trkpt lat="45.5825334" lon="10.7742875"><ele>227.0</ele><time>2026-03-28T12:47:07.754Z</time></trkpt><trkpt lat="45.5824953" lon="10.7745574"><ele>227.0</ele><time>2026-03-28T12:47:08.754Z</time></trkpt><trkpt lat="45.5824686" lon="10.7748106"><ele>227.25</ele><time>2026-03-28T12:47:09.753Z</time></trkpt><trkpt lat="45.5824435" lon="10.7750414"><ele>227.5</ele><time>2026-03-28T12:47:10.753Z</time></trkpt><trkpt lat="45.5824185" lon="10.7752522"><ele>227.75</ele><time>2026-03-28T12:47:11.753Z</time></trkpt><trkpt lat="45.5823957" lon="10.7754287"><ele>228.0</ele><time>2026-03-28T12:47:12.754Z</time></trkpt><trkpt lat="45.5823714" lon="10.7755746"><ele>228.33333333333334</ele><time>2026-03-28T12:47:13.753Z</time></trkpt><trkpt lat="45.5823516" lon="10.775683"><ele>228.66666666666669</ele><time>2026-03-28T12:47:14.754Z</time></trkpt><trkpt lat="45.5823321" lon="10.7757818"><ele>229.0</ele><time>2026-03-28T12:47:16.754Z</time></trkpt><trkpt lat="45.5823316" lon="10.7758734"><ele>229.33333333333334</ele><time>2026-03-28T12:47:18.753Z</time></trkpt><trkpt lat="45.5823935" lon="10.776051"><ele>229.66666666666669</ele><time>2026-03-28T12:47:20.753Z</time></trkpt><trkpt lat="45.582459" lon="10.7761451"><ele>230.0</ele><time>2026-03-28T12:47:21.753Z</time></trkpt><trkpt lat="45.5825281" lon="10.7762443"><ele>230.0</ele><time>2026-03-28T12:47:22.754Z</time></trkpt><trkpt lat="45.5825988" lon="10.7763661"><ele>230.0</ele><time>2026-03-28T12:47:23.754Z</time></trkpt><trkpt lat="45.5826694" lon="10.776497"><ele>230.0</ele><time>2026-03-28T12:47:24.754Z</time></trkpt><trkpt lat="45.5827407" lon="10.7766377"><ele>230.0</ele><time>2026-03-28T12:47:25.753Z</time></trkpt><trkpt lat="45.582814" lon="10.7767868"><ele>231.25</ele><time>2026-03-28T12:47:26.753Z</time></trkpt><trkpt lat="45.58289" lon="10.7769425"><ele>232.5</ele><time>2026-03-28T12:47:27.753Z</time></trkpt><trkpt lat="45.5829677" lon="10.7771065"><ele>233.75</ele><time>2026-03-28T12:47:28.753Z</time></trkpt><trkpt lat="45.5830494" lon="10.7772792"><ele>235.0</ele><time>2026-03-28T12:47:29.753Z</time></trkpt><trkpt lat="45.5831327" lon="10.7774546"><ele>235.0</ele><time>2026-03-28T12:47:30.754Z</time></trkpt><trkpt lat="45.5832191" lon="10.7776357"><ele>235.0</ele><time>2026-03-28T12:47:31.755Z</time></trkpt><trkpt lat="45.5833075" lon="10.7778189"><ele>235.0</ele><time>2026-03-28T12:47:32.754Z</time></trkpt><trkpt lat="45.5834023" lon="10.7779986"><ele>234.66666666666666</ele><time>2026-03-28T12:47:33.753Z</time></trkpt><trkpt lat="45.5835067" lon="10.7781725"><ele>234.33333333333331</ele><time>2026-03-28T12:47:34.753Z</time></trkpt><trkpt lat="45.5836152" lon="10.7783433"><ele>234.0</ele><time>2026-03-28T12:47:35.753Z</time></trkpt><trkpt lat="45.5837329" lon="10.7785049"><ele>237.0</ele><time>2026-03-28T12:47:36.754Z</time></trkpt><trkpt lat="45.5838623" lon="10.778654"><ele>240.0</ele><time>2026-03-28T12:47:37.754Z</time></trkpt><trkpt lat="45.5840025" lon="10.778791"><ele>243.0</ele><time>2026-03-28T12:47:38.753Z</time></trkpt><trkpt lat="45.5841513" lon="10.7789222"><ele>243.0</ele><time>2026-03-28T12:47:39.753Z</time></trkpt><trkpt lat="45.584311" lon="10.7790507"><ele>243.0</ele><time>2026-03-28T12:47:40.753Z</time></trkpt><trkpt lat="45.584478" lon="10.7791743"><ele>243.0</ele><time>2026-03-28T12:47:41.754Z</time></trkpt><trkpt lat="45.5846521" lon="10.7792981"><ele>244.0</ele><time>2026-03-28T12:47:42.755Z</time></trkpt><trkpt lat="45.5848321" lon="10.7794177"><ele>245.0</ele><time>2026-03-28T12:47:43.754Z</time></trkpt><trkpt lat="45.5850118" lon="10.7795384"><ele>246.0</ele><time>2026-03-28T12:47:44.753Z</time></trkpt><trkpt lat="45.5851947" lon="10.7796627"><ele>245.66666666666669</ele><time>2026-03-28T12:47:45.753Z</time></trkpt><trkpt lat="45.5853819" lon="10.7797884"><ele>245.33333333333334</ele><time>2026-03-28T12:47:46.753Z</time></trkpt><trkpt lat="45.585571" lon="10.7799155"><ele>245.0</ele><time>2026-03-28T12:47:47.753Z</time></trkpt><trkpt lat="45.5857608" lon="10.7800479"><ele>245.0</ele><time>2026-03-28T12:47:48.754Z</time></trkpt><trkpt lat="45.585952" lon="10.7801816"><ele>245.0</ele><time>2026-03-28T12:47:49.753Z</time></trkpt><trkpt lat="45.5861451" lon="10.7803181"><ele>245.0</ele><time>2026-03-28T12:47:50.753Z</time></trkpt><trkpt lat="45.5863385" lon="10.7804564"><ele>246.0</ele><time>2026-03-28T12:47:51.753Z</time></trkpt><trkpt lat="45.5865339" lon="10.7805941"><ele>247.0</ele><time>2026-03-28T12:47:52.754Z</time></trkpt><trkpt lat="45.58673" lon="10.7807323"><ele>248.0</ele><time>2026-03-28T12:47:53.754Z</time></trkpt><trkpt lat="45.5869228" lon="10.7808717"><ele>246.66666666666669</ele><time>2026-03-28T12:47:54.754Z</time></trkpt><trkpt lat="45.5871128" lon="10.7810109"><ele>245.33333333333331</ele><time>2026-03-28T12:47:55.754Z</time></trkpt><trkpt lat="45.587303" lon="10.7811552"><ele>244.0</ele><time>2026-03-28T12:47:56.753Z</time></trkpt><trkpt lat="45.5874942" lon="10.7813019"><ele>244.33333333333331</ele><time>2026-03-28T12:47:57.754Z</time></trkpt><trkpt lat="45.5876877" lon="10.7814512"><ele>244.66666666666669</ele><time>2026-03-28T12:47:58.753Z</time></trkpt><trkpt lat="45.58788" lon="10.7815977"><ele>245.0</ele><time>2026-03-28T12:47:59.754Z</time></trkpt><trkpt lat="45.5880749" lon="10.7817388"><ele>248.66666666666669</ele><time>2026-03-28T12:48:00.754Z</time></trkpt><trkpt lat="45.5882587" lon="10.7818737"><ele>252.33333333333331</ele><time>2026-03-28T12:48:01.754Z</time></trkpt><trkpt lat="45.5884279" lon="10.7819987"><ele>256.0</ele><time>2026-03-28T12:48:02.754Z</time></trkpt><trkpt lat="45.5885903" lon="10.7821187"><ele>253.66666666666666</ele><time>2026-03-28T12:48:03.753Z</time></trkpt><trkpt lat="45.5887477" lon="10.7822354"><ele>251.33333333333331</ele><time>2026-03-28T12:48:04.753Z</time></trkpt><trkpt lat="45.5888995" lon="10.7823495"><ele>249.0</ele><time>2026-03-28T12:48:05.754Z</time></trkpt><trkpt lat="45.5890399" lon="10.7824506"><ele>249.0</ele><time>2026-03-28T12:48:06.753Z</time></trkpt><trkpt lat="45.5891667" lon="10.7825412"><ele>248.99999999999997</ele><time>2026-03-28T12:48:07.753Z</time></trkpt><trkpt lat="45.589262" lon="10.7826306"><ele>248.99999999999997</ele><time>2026-03-28T12:48:08.754Z</time></trkpt><trkpt lat="45.5893126" lon="10.7827271"><ele>249.0</ele><time>2026-03-28T12:48:09.753Z</time></trkpt><trkpt lat="45.5893288" lon="10.7828192"><ele>249.0</ele><time>2026-03-28T12:48:10.754Z</time></trkpt><trkpt lat="45.5893172" lon="10.7829198"><ele>250.39999999999998</ele><time>2026-03-28T12:48:11.754Z</time></trkpt><trkpt lat="45.5892709" lon="10.7830138"><ele>251.79999999999998</ele><time>2026-03-28T12:48:12.753Z</time></trkpt><trkpt lat="45.5892167" lon="10.7831071"><ele>253.20000000000002</ele><time>2026-03-28T12:48:13.753Z</time></trkpt><trkpt lat="45.5891636" lon="10.7832162"><ele>254.60000000000002</ele><time>2026-03-28T12:48:14.754Z</time></trkpt><trkpt lat="45.5891026" lon="10.7833383"><ele>256.0</ele><time>2026-03-28T12:48:15.754Z</time></trkpt><trkpt lat="45.5890373" lon="10.7834628"><ele>256.75</ele><time>2026-03-28T12:48:16.754Z</time></trkpt><trkpt lat="45.5889661" lon="10.7835938"><ele>257.5</ele><time>2026-03-28T12:48:17.753Z</time></trkpt><trkpt lat="45.5888918" lon="10.7837294"><ele>258.25</ele><time>2026-03-28T12:48:18.753Z</time></trkpt><trkpt lat="45.5888168" lon="10.783868"><ele>259.0</ele><time>2026-03-28T12:48:19.754Z</time></trkpt><trkpt lat="45.5887406" lon="10.7840025"><ele>258.8</ele><time>2026-03-28T12:48:20.753Z</time></trkpt><trkpt lat="45.5886672" lon="10.7841299"><ele>258.59999999999997</ele><time>2026-03-28T12:48:21.753Z</time></trkpt><trkpt lat="45.5886024" lon="10.7842461"><ele>258.4</ele><time>2026-03-28T12:48:22.753Z</time></trkpt><trkpt lat="45.5885553" lon="10.7843433"><ele>258.2</ele><time>2026-03-28T12:48:23.753Z</time></trkpt><trkpt lat="45.588547" lon="10.7844737"><ele>258.0</ele><time>2026-03-28T12:48:25.754Z</time></trkpt><trkpt lat="45.5886139" lon="10.784574"><ele>258.6</ele><time>2026-03-28T12:48:27.754Z</time></trkpt><trkpt lat="45.5886731" lon="10.7846205"><ele>259.20000000000005</ele><time>2026-03-28T12:48:28.754Z</time></trkpt><trkpt lat="45.5887525" lon="10.7846737"><ele>259.8</ele><time>2026-03-28T12:48:29.753Z</time></trkpt><trkpt lat="45.588846" lon="10.7847331"><ele>260.40000000000003</ele><time>2026-03-28T12:48:30.753Z</time></trkpt><trkpt lat="45.588941" lon="10.7848067"><ele>261.0</ele><time>2026-03-28T12:48:31.753Z</time></trkpt><trkpt lat="45.5890362" lon="10.7848913"><ele>261.0</ele><time>2026-03-28T12:48:32.754Z</time></trkpt><trkpt lat="45.5891358" lon="10.7849946"><ele>261.0</ele><time>2026-03-28T12:48:33.754Z</time></trkpt><trkpt lat="45.5892425" lon="10.7851257"><ele>261.0</ele><time>2026-03-28T12:48:34.754Z</time></trkpt><trkpt lat="45.5893497" lon="10.7852671"><ele>261.0</ele><time>2026-03-28T12:48:35.754Z</time></trkpt><trkpt lat="45.589451" lon="10.7854049"><ele>262.0</ele><time>2026-03-28T12:48:36.753Z</time></trkpt><trkpt lat="45.5895568" lon="10.7855474"><ele>263.0</ele><time>2026-03-28T12:48:37.753Z</time></trkpt><trkpt lat="45.5896638" lon="10.785686"><ele>264.0</ele><time>2026-03-28T12:48:38.754Z</time></trkpt><trkpt lat="45.589768" lon="10.7857995"><ele>265.0</ele><time>2026-03-28T12:48:39.753Z</time></trkpt><trkpt lat="45.5898769" lon="10.7859043"><ele>265.75</ele><time>2026-03-28T12:48:40.753Z</time></trkpt><trkpt lat="45.5899881" lon="10.7860147"><ele>266.5</ele><time>2026-03-28T12:48:41.753Z</time></trkpt><trkpt lat="45.5901025" lon="10.7861249"><ele>267.25</ele><time>2026-03-28T12:48:42.754Z</time></trkpt><trkpt lat="45.5902153" lon="10.7862378"><ele>268.0</ele><time>2026-03-28T12:48:43.754Z</time></trkpt><trkpt lat="45.5903291" lon="10.7863608"><ele>267.75</ele><time>2026-03-28T12:48:44.753Z</time></trkpt><trkpt lat="45.5904412" lon="10.7864871"><ele>267.5</ele><time>2026-03-28T12:48:45.754Z</time></trkpt><trkpt lat="45.5905499" lon="10.7866211"><ele>267.25</ele><time>2026-03-28T12:48:46.754Z</time></trkpt><trkpt lat="45.5906553" lon="10.7867517"><ele>267.0</ele><time>2026-03-28T12:48:47.754Z</time></trkpt><trkpt lat="45.5907569" lon="10.7868776"><ele>268.0</ele><time>2026-03-28T12:48:48.754Z</time></trkpt><trkpt lat="45.5908618" lon="10.7870102"><ele>269.0</ele><time>2026-03-28T12:48:49.754Z</time></trkpt><trkpt lat="45.5909588" lon="10.7871382"><ele>270.0</ele><time>2026-03-28T12:48:50.753Z</time></trkpt><trkpt lat="45.5910645" lon="10.7872723"><ele>271.0</ele><time>2026-03-28T12:48:51.753Z</time></trkpt><trkpt lat="45.5911813" lon="10.7874134"><ele>271.0</ele><time>2026-03-28T12:48:52.753Z</time></trkpt><trkpt lat="45.5913104" lon="10.7875693"><ele>271.0</ele><time>2026-03-28T12:48:53.754Z</time></trkpt><trkpt lat="45.5914289" lon="10.7877137"><ele>271.0</ele><time>2026-03-28T12:48:54.754Z</time></trkpt><trkpt lat="45.5915416" lon="10.7878583"><ele>271.25</ele><time>2026-03-28T12:48:55.753Z</time></trkpt><trkpt lat="45.5916526" lon="10.7879931"><ele>271.5</ele><time>2026-03-28T12:48:56.753Z</time></trkpt><trkpt lat="45.5917623" lon="10.7881186"><ele>271.75</ele><time>2026-03-28T12:48:57.754Z</time></trkpt><trkpt lat="45.5918761" lon="10.7882298"><ele>272.0</ele><time>2026-03-28T12:48:58.754Z</time></trkpt><trkpt lat="45.5919784" lon="10.7883308"><ele>272.2</ele><time>2026-03-28T12:48:59.754Z</time></trkpt><trkpt lat="45.592071" lon="10.7884275"><ele>272.4</ele><time>2026-03-28T12:49:00.753Z</time></trkpt><trkpt lat="45.5921497" lon="10.7885303"><ele>272.6</ele><time>2026-03-28T12:49:01.753Z</time></trkpt><trkpt lat="45.5922146" lon="10.7886349"><ele>272.8</ele><time>2026-03-28T12:49:02.753Z</time></trkpt><trkpt lat="45.5922799" lon="10.788725"><ele>273.0</ele><time>2026-03-28T12:49:03.754Z</time></trkpt><trkpt lat="45.5923535" lon="10.7888013"><ele>273.0</ele><time>2026-03-28T12:49:04.753Z</time></trkpt><trkpt lat="45.5924334" lon="10.7888563"><ele>273.0</ele><time>2026-03-28T12:49:05.753Z</time></trkpt><trkpt lat="45.5925234" lon="10.7889162"><ele>273.0</ele><time>2026-03-28T12:49:06.754Z</time></trkpt><trkpt lat="45.5926026" lon="10.7890015"><ele>273.0</ele><time>2026-03-28T12:49:07.753Z</time></trkpt><trkpt lat="45.5926784" lon="10.7890961"><ele>273.0</ele><time>2026-03-28T12:49:08.753Z</time></trkpt><trkpt lat="45.5927499" lon="10.7891848"><ele>273.0</ele><time>2026-03-28T12:49:09.755Z</time></trkpt><trkpt lat="45.5928295" lon="10.7892818"><ele>273.0</ele><time>2026-03-28T12:49:10.754Z</time></trkpt><trkpt lat="45.5929139" lon="10.7893889"><ele>273.0</ele><time>2026-03-28T12:49:11.753Z</time></trkpt><trkpt lat="45.5929919" lon="10.7894806"><ele>273.0</ele><time>2026-03-28T12:49:12.754Z</time></trkpt><trkpt lat="45.5930438" lon="10.7895437"><ele>273.0</ele><time>2026-03-28T12:49:13.754Z</time></trkpt><trkpt lat="45.593076" lon="10.7896786"><ele>273.8</ele><time>2026-03-28T12:49:15.754Z</time></trkpt><trkpt lat="45.5930343" lon="10.789798"><ele>274.6</ele><time>2026-03-28T12:49:17.754Z</time></trkpt><trkpt lat="45.5930463" lon="10.7899287"><ele>275.4</ele><time>2026-03-28T12:49:19.754Z</time></trkpt><trkpt lat="45.5930946" lon="10.7900184"><ele>276.2</ele><time>2026-03-28T12:49:20.754Z</time></trkpt><trkpt lat="45.59317" lon="10.7901212"><ele>277.0</ele><time>2026-03-28T12:49:21.753Z</time></trkpt><trkpt lat="45.5932622" lon="10.7902381"><ele>277.3333333333333</ele><time>2026-03-28T12:49:22.753Z</time></trkpt><trkpt lat="45.593327" lon="10.7903225"><ele>277.66666666666663</ele><time>2026-03-28T12:49:23.753Z</time></trkpt><trkpt lat="45.5933905" lon="10.7903745"><ele>278.0</ele><time>2026-03-28T12:49:24.753Z</time></trkpt><trkpt lat="45.5934568" lon="10.7903975"><ele>278.3333333333333</ele><time>2026-03-28T12:49:25.753Z</time></trkpt><trkpt lat="45.5935752" lon="10.7903077"><ele>278.6666666666667</ele><time>2026-03-28T12:49:27.754Z</time></trkpt><trkpt lat="45.5936256" lon="10.7902312"><ele>279.0</ele><time>2026-03-28T12:49:28.753Z</time></trkpt><trkpt lat="45.5936808" lon="10.7901443"><ele>279.0</ele><time>2026-03-28T12:49:30.754Z</time></trkpt><trkpt lat="45.5936366" lon="10.7900766"><ele>279.0</ele><time>2026-03-28T12:49:35.753Z</time></trkpt><trkpt lat="45.5935644" lon="10.79017"><ele>279.0</ele><time>2026-03-28T12:49:39.753Z</time></trkpt><trkpt lat="45.5935312" lon="10.7902984"><ele>279.0</ele><time>2026-03-28T12:49:41.753Z</time></trkpt><trkpt lat="45.5934996" lon="10.7903968"><ele>279.0</ele><time>2026-03-28T12:49:43.753Z</time></trkpt><trkpt lat="45.5934659" lon="10.7905138"><ele>279.0</ele><time>2026-03-28T12:49:47.753Z</time></trkpt><trkpt lat="45.5934253" lon="10.7906085"><ele>279.0</ele><time>2026-03-28T12:49:49.753Z</time></trkpt><trkpt lat="45.5933826" lon="10.7906798"><ele>279.0</ele><time>2026-03-28T12:49:51.754Z</time></trkpt><trkpt lat="45.5933634" lon="10.7907893"><ele>279.0</ele><time>2026-03-28T12:49:54.754Z</time></trkpt><trkpt lat="45.5934155" lon="10.7909085"><ele>279.0</ele><time>2026-03-28T12:49:56.754Z</time></trkpt><trkpt lat="45.5934558" lon="10.790989"><ele>279.0</ele><time>2026-03-28T12:49:57.753Z</time></trkpt><trkpt lat="45.5935159" lon="10.791084"><ele>279.0</ele><time>2026-03-28T12:49:58.754Z</time></trkpt><trkpt lat="45.5935808" lon="10.7911767"><ele>279.59999999999997</ele><time>2026-03-28T12:49:59.753Z</time></trkpt><trkpt lat="45.5936472" lon="10.7912576"><ele>280.2</ele><time>2026-03-28T12:50:00.754Z</time></trkpt><trkpt lat="45.5937281" lon="10.7913579"><ele>280.79999999999995</ele><time>2026-03-28T12:50:01.754Z</time></trkpt><trkpt lat="45.5937973" lon="10.7914514"><ele>281.4</ele><time>2026-03-28T12:50:02.753Z</time></trkpt><trkpt lat="45.593866" lon="10.7915581"><ele>282.0</ele><time>2026-03-28T12:50:03.753Z</time></trkpt><trkpt lat="45.5939249" lon="10.7916755"><ele>282.0</ele><time>2026-03-28T12:50:04.754Z</time></trkpt><trkpt lat="45.5939739" lon="10.7918086"><ele>282.0</ele><time>2026-03-28T12:50:05.755Z</time></trkpt><trkpt lat="45.5940254" lon="10.7919446"><ele>282.0</ele><time>2026-03-28T12:50:06.754Z</time></trkpt><trkpt lat="45.5940844" lon="10.7920853"><ele>282.0</ele><time>2026-03-28T12:50:07.754Z</time></trkpt><trkpt lat="45.594155" lon="10.7921959"><ele>282.0</ele><time>2026-03-28T12:50:08.753Z</time></trkpt><trkpt lat="45.5942363" lon="10.7922936"><ele>282.6</ele><time>2026-03-28T12:50:09.753Z</time></trkpt><trkpt lat="45.5943092" lon="10.7923815"><ele>283.2</ele><time>2026-03-28T12:50:10.753Z</time></trkpt><trkpt lat="45.5943695" lon="10.7924668"><ele>283.8</ele><time>2026-03-28T12:50:11.754Z</time></trkpt><trkpt lat="45.5944282" lon="10.7925695"><ele>284.4</ele><time>2026-03-28T12:50:12.754Z</time></trkpt><trkpt lat="45.5944898" lon="10.7926686"><ele>285.0</ele><time>2026-03-28T12:50:13.754Z</time></trkpt><trkpt lat="45.5945734" lon="10.7928004"><ele>285.0</ele><time>2026-03-28T12:50:14.754Z</time></trkpt><trkpt lat="45.5946462" lon="10.792936"><ele>285.0</ele><time>2026-03-28T12:50:15.753Z</time></trkpt><trkpt lat="45.5947225" lon="10.7930673"><ele>285.0</ele><time>2026-03-28T12:50:16.754Z</time></trkpt><trkpt lat="45.5947758" lon="10.7931885"><ele>285.0</ele><time>2026-03-28T12:50:17.754Z</time></trkpt><trkpt lat="45.5948317" lon="10.7933135"><ele>285.0</ele><time>2026-03-28T12:50:18.753Z</time></trkpt><trkpt lat="45.5949182" lon="10.793448"><ele>286.0</ele><time>2026-03-28T12:50:19.754Z</time></trkpt><trkpt lat="45.5949994" lon="10.7935546"><ele>287.0</ele><time>2026-03-28T12:50:20.753Z</time></trkpt><trkpt lat="45.5950856" lon="10.7936625"><ele>288.0</ele><time>2026-03-28T12:50:21.753Z</time></trkpt><trkpt lat="45.5951799" lon="10.7937793"><ele>289.0</ele><time>2026-03-28T12:50:22.754Z</time></trkpt><trkpt lat="45.5952719" lon="10.7938993"><ele>289.0</ele><time>2026-03-28T12:50:23.754Z</time></trkpt><trkpt lat="45.5953352" lon="10.7940135"><ele>289.0</ele><time>2026-03-28T12:50:24.754Z</time></trkpt><trkpt lat="45.5954132" lon="10.7941325"><ele>289.0</ele><time>2026-03-28T12:50:25.754Z</time></trkpt><trkpt lat="45.5954854" lon="10.7942476"><ele>289.0</ele><time>2026-03-28T12:50:26.753Z</time></trkpt><trkpt lat="45.5955431" lon="10.7943441"><ele>289.0</ele><time>2026-03-28T12:50:27.754Z</time></trkpt><trkpt lat="45.5955951" lon="10.7944235"><ele>288.0</ele><time>2026-03-28T12:50:28.753Z</time></trkpt><trkpt lat="45.5956756" lon="10.7945249"><ele>287.0</ele><time>2026-03-28T12:50:30.754Z</time></trkpt><trkpt lat="45.5957445" lon="10.7945173"><ele>286.0</ele><time>2026-03-28T12:50:31.754Z</time></trkpt><trkpt lat="45.5958428" lon="10.7944977"><ele>285.0</ele><time>2026-03-28T12:50:33.753Z</time></trkpt><trkpt lat="45.5959735" lon="10.79448"><ele>284.0</ele><time>2026-03-28T12:50:35.753Z</time></trkpt><trkpt lat="45.5960671" lon="10.7944714"><ele>284.0</ele><time>2026-03-28T12:50:36.754Z</time></trkpt><trkpt lat="45.5961613" lon="10.7944511"><ele>284.0</ele><time>2026-03-28T12:50:37.753Z</time></trkpt><trkpt lat="45.5962615" lon="10.7944226"><ele>284.0</ele><time>2026-03-28T12:50:38.753Z</time></trkpt><trkpt lat="45.5963677" lon="10.7943874"><ele>284.0</ele><time>2026-03-28T12:50:39.753Z</time></trkpt><trkpt lat="45.5964763" lon="10.7943392"><ele>284.0</ele><time>2026-03-28T12:50:40.754Z</time></trkpt><trkpt lat="45.59658" lon="10.7943197"><ele>282.0</ele><time>2026-03-28T12:50:41.754Z</time></trkpt><trkpt lat="45.5966875" lon="10.7943012"><ele>280.0</ele><time>2026-03-28T12:50:42.753Z</time></trkpt><trkpt lat="45.5967908" lon="10.794289"><ele>278.0</ele><time>2026-03-28T12:50:43.753Z</time></trkpt><trkpt lat="45.5968896" lon="10.7942908"><ele>276.0</ele><time>2026-03-28T12:50:44.753Z</time></trkpt><trkpt lat="45.5969558" lon="10.7942954"><ele>274.0</ele><time>2026-03-28T12:50:45.754Z</time></trkpt><trkpt lat="45.5970603" lon="10.7943018"><ele>272.66666666666663</ele><time>2026-03-28T12:50:47.753Z</time></trkpt><trkpt lat="45.5971266" lon="10.7943076"><ele>271.3333333333333</ele><time>2026-03-28T12:50:48.754Z</time></trkpt><trkpt lat="45.5972014" lon="10.7943302"><ele>270.0</ele><time>2026-03-28T12:50:49.753Z</time></trkpt><trkpt lat="45.5972751" lon="10.7943692"><ele>268.6666666666667</ele><time>2026-03-28T12:50:50.753Z</time></trkpt><trkpt lat="45.5973455" lon="10.7944182"><ele>267.33333333333337</ele><time>2026-03-28T12:50:51.753Z</time></trkpt><trkpt lat="45.5974208" lon="10.7944734"><ele>266.0</ele><time>2026-03-28T12:50:52.754Z</time></trkpt><trkpt lat="45.5975098" lon="10.7945309"><ele>266.0</ele><time>2026-03-28T12:50:53.754Z</time></trkpt><trkpt lat="45.5976014" lon="10.7945938"><ele>266.0</ele><time>2026-03-28T12:50:54.753Z</time></trkpt><trkpt lat="45.5976941" lon="10.794655"><ele>266.0</ele><time>2026-03-28T12:50:55.753Z</time></trkpt><trkpt lat="45.5977892" lon="10.7947121"><ele>266.0</ele><time>2026-03-28T12:50:56.753Z</time></trkpt><trkpt lat="45.5978841" lon="10.7947671"><ele>266.0</ele><time>2026-03-28T12:50:57.754Z</time></trkpt><trkpt lat="45.5979733" lon="10.7948156"><ele>264.83333333333337</ele><time>2026-03-28T12:50:58.754Z</time></trkpt><trkpt lat="45.5980508" lon="10.7948735"><ele>263.6666666666667</ele><time>2026-03-28T12:50:59.753Z</time></trkpt><trkpt lat="45.5981183" lon="10.7949475"><ele>262.5</ele><time>2026-03-28T12:51:00.753Z</time></trkpt><trkpt lat="45.5981696" lon="10.7950227"><ele>261.3333333333333</ele><time>2026-03-28T12:51:01.753Z</time></trkpt><trkpt lat="45.5982432" lon="10.7951218"><ele>260.16666666666663</ele><time>2026-03-28T12:51:03.754Z</time></trkpt><trkpt lat="45.5982255" lon="10.7952226"><ele>259.0</ele><time>2026-03-28T12:51:05.754Z</time></trkpt><trkpt lat="45.5981211" lon="10.795329"><ele>259.0</ele><time>2026-03-28T12:51:07.753Z</time></trkpt><trkpt lat="45.5980464" lon="10.7953647"><ele>259.0</ele><time>2026-03-28T12:51:08.753Z</time></trkpt><trkpt lat="45.5979652" lon="10.7953678"><ele>259.0</ele><time>2026-03-28T12:51:09.753Z</time></trkpt><trkpt lat="45.5978734" lon="10.795367"><ele>259.0</ele><time>2026-03-28T12:51:10.754Z</time></trkpt><trkpt lat="45.5977687" lon="10.7953822"><ele>259.0</ele><time>2026-03-28T12:51:11.754Z</time></trkpt><trkpt lat="45.5976628" lon="10.7954063"><ele>262.0</ele><time>2026-03-28T12:51:12.753Z</time></trkpt><trkpt lat="45.5975641" lon="10.7954366"><ele>265.0</ele><time>2026-03-28T12:51:13.753Z</time></trkpt><trkpt lat="45.5974606" lon="10.7954767"><ele>268.0</ele><time>2026-03-28T12:51:14.754Z</time></trkpt><trkpt lat="45.5973907" lon="10.7955606"><ele>271.0</ele><time>2026-03-28T12:51:15.755Z</time></trkpt><trkpt lat="45.5973252" lon="10.7956506"><ele>274.0</ele><time>2026-03-28T12:51:16.753Z</time></trkpt><trkpt lat="45.5972661" lon="10.7957489"><ele>274.0</ele><time>2026-03-28T12:51:17.754Z</time></trkpt><trkpt lat="45.5972099" lon="10.7958574"><ele>274.0</ele><time>2026-03-28T12:51:18.753Z</time></trkpt><trkpt lat="45.5971488" lon="10.7959807"><ele>274.0</ele><time>2026-03-28T12:51:19.753Z</time></trkpt><trkpt lat="45.5970861" lon="10.796116"><ele>274.0</ele><time>2026-03-28T12:51:20.753Z</time></trkpt><trkpt lat="45.5970263" lon="10.7962506"><ele>274.0</ele><time>2026-03-28T12:51:21.754Z</time></trkpt><trkpt lat="45.596968" lon="10.796382"><ele>274.8333333333333</ele><time>2026-03-28T12:51:22.754Z</time></trkpt><trkpt lat="45.5969135" lon="10.7965138"><ele>275.66666666666663</ele><time>2026-03-28T12:51:23.753Z</time></trkpt><trkpt lat="45.5968701" lon="10.7966419"><ele>276.5</ele><time>2026-03-28T12:51:24.753Z</time></trkpt><trkpt lat="45.5968445" lon="10.7967607"><ele>277.3333333333333</ele><time>2026-03-28T12:51:25.754Z</time></trkpt><trkpt lat="45.5968319" lon="10.7968721"><ele>278.1666666666667</ele><time>2026-03-28T12:51:26.753Z</time></trkpt><trkpt lat="45.5968191" lon="10.7969793"><ele>279.0</ele><time>2026-03-28T12:51:27.753Z</time></trkpt><trkpt lat="45.5968131" lon="10.7970905"><ele>280.3333333333333</ele><time>2026-03-28T12:51:28.753Z</time></trkpt><trkpt lat="45.5968186" lon="10.7972088"><ele>281.6666666666667</ele><time>2026-03-28T12:51:29.753Z</time></trkpt><trkpt lat="45.5968262" lon="10.7973248"><ele>283.0</ele><time>2026-03-28T12:51:30.754Z</time></trkpt><trkpt lat="45.596838" lon="10.797449"><ele>284.33333333333337</ele><time>2026-03-28T12:51:31.753Z</time></trkpt><trkpt lat="45.5968609" lon="10.7975552"><ele>285.6666666666667</ele><time>2026-03-28T12:51:32.753Z</time></trkpt><trkpt lat="45.5968756" lon="10.7976466"><ele>287.0</ele><time>2026-03-28T12:51:33.754Z</time></trkpt><trkpt lat="45.596873" lon="10.7978195"><ele>287.33333333333337</ele><time>2026-03-28T12:51:35.753Z</time></trkpt><trkpt lat="45.5968615" lon="10.7979211"><ele>287.6666666666667</ele><time>2026-03-28T12:51:36.753Z</time></trkpt><trkpt lat="45.5968616" lon="10.7980993"><ele>288.0</ele><time>2026-03-28T12:51:38.753Z</time></trkpt><trkpt lat="45.596836" lon="10.7981893"><ele>288.3333333333333</ele><time>2026-03-28T12:51:39.754Z</time></trkpt><trkpt lat="45.5967975" lon="10.7983169"><ele>288.66666666666663</ele><time>2026-03-28T12:51:40.753Z</time></trkpt><trkpt lat="45.5967677" lon="10.7983994"><ele>289.0</ele><time>2026-03-28T12:51:41.753Z</time></trkpt><trkpt lat="45.5967113" lon="10.798572"><ele>289.42857142857144</ele><time>2026-03-28T12:51:43.754Z</time></trkpt><trkpt lat="45.5966907" lon="10.7986689"><ele>289.85714285714283</ele><time>2026-03-28T12:51:44.753Z</time></trkpt><trkpt lat="45.5966569" lon="10.798763"><ele>290.2857142857143</ele><time>2026-03-28T12:51:45.753Z</time></trkpt><trkpt lat="45.5966199" lon="10.798862"><ele>290.7142857142857</ele><time>2026-03-28T12:51:46.754Z</time></trkpt><trkpt lat="45.5966038" lon="10.7989522"><ele>291.14285714285717</ele><time>2026-03-28T12:51:47.754Z</time></trkpt><trkpt lat="45.5965762" lon="10.7990375"><ele>291.57142857142856</ele><time>2026-03-28T12:51:48.753Z</time></trkpt><trkpt lat="45.5965436" lon="10.7991238"><ele>292.0</ele><time>2026-03-28T12:51:49.753Z</time></trkpt><trkpt lat="45.5964521" lon="10.7992745"><ele>293.0</ele><time>2026-03-28T12:51:51.754Z</time></trkpt><trkpt lat="45.5963989" lon="10.7993796"><ele>294.0</ele><time>2026-03-28T12:51:52.754Z</time></trkpt><trkpt lat="45.5963421" lon="10.7995151"><ele>295.0</ele><time>2026-03-28T12:51:53.754Z</time></trkpt><trkpt lat="45.5962635" lon="10.7996618"><ele>296.0</ele><time>2026-03-28T12:51:54.753Z</time></trkpt><trkpt lat="45.5961808" lon="10.7997677"><ele>297.0</ele><time>2026-03-28T12:51:55.754Z</time></trkpt><trkpt lat="45.5960929" lon="10.7998445"><ele>298.8</ele><time>2026-03-28T12:51:56.754Z</time></trkpt><trkpt lat="45.5960086" lon="10.7999123"><ele>300.6</ele><time>2026-03-28T12:51:57.753Z</time></trkpt><trkpt lat="45.5959196" lon="10.7999721"><ele>302.40000000000003</ele><time>2026-03-28T12:51:58.753Z</time></trkpt><trkpt lat="45.5958167" lon="10.8000383"><ele>304.2</ele><time>2026-03-28T12:51:59.754Z</time></trkpt><trkpt lat="45.5957061" lon="10.8001098"><ele>306.0</ele><time>2026-03-28T12:52:00.754Z</time></trkpt><trkpt lat="45.5956084" lon="10.8001694"><ele>306.3333333333333</ele><time>2026-03-28T12:52:01.753Z</time></trkpt><trkpt lat="45.5955157" lon="10.8002315"><ele>306.6666666666667</ele><time>2026-03-28T12:52:02.753Z</time></trkpt><trkpt lat="45.5954311" lon="10.8002993"><ele>307.0</ele><time>2026-03-28T12:52:03.754Z</time></trkpt><trkpt lat="45.5953627" lon="10.8003771"><ele>307.33333333333337</ele><time>2026-03-28T12:52:04.754Z</time></trkpt><trkpt lat="45.595309" lon="10.8004618"><ele>307.6666666666667</ele><time>2026-03-28T12:52:05.753Z</time></trkpt><trkpt lat="45.5952741" lon="10.8005541"><ele>308.0</ele><time>2026-03-28T12:52:06.753Z</time></trkpt><trkpt lat="45.5952533" lon="10.8006552"><ele>307.33333333333337</ele><time>2026-03-28T12:52:07.754Z</time></trkpt><trkpt lat="45.5952501" lon="10.8007581"><ele>306.6666666666667</ele><time>2026-03-28T12:52:08.754Z</time></trkpt><trkpt lat="45.5952608" lon="10.8008642"><ele>306.0</ele><time>2026-03-28T12:52:09.753Z</time></trkpt><trkpt lat="45.5952819" lon="10.8009839"><ele>305.3333333333333</ele><time>2026-03-28T12:52:10.753Z</time></trkpt><trkpt lat="45.5953065" lon="10.8010913"><ele>304.66666666666663</ele><time>2026-03-28T12:52:11.753Z</time></trkpt><trkpt lat="45.595331" lon="10.8011943"><ele>304.0</ele><time>2026-03-28T12:52:12.754Z</time></trkpt><trkpt lat="45.5953571" lon="10.801321"><ele>304.0</ele><time>2026-03-28T12:52:13.754Z</time></trkpt><trkpt lat="45.5953749" lon="10.8014317"><ele>304.0</ele><time>2026-03-28T12:52:14.753Z</time></trkpt><trkpt lat="45.5953742" lon="10.8015402"><ele>304.0</ele><time>2026-03-28T12:52:15.755Z</time></trkpt><trkpt lat="45.5953601" lon="10.80165"><ele>304.0</ele><time>2026-03-28T12:52:16.754Z</time></trkpt><trkpt lat="45.5953236" lon="10.8017651"><ele>304.0</ele><time>2026-03-28T12:52:17.753Z</time></trkpt><trkpt lat="45.5953086" lon="10.8018855"><ele>304.0</ele><time>2026-03-28T12:52:18.753Z</time></trkpt><trkpt lat="45.5953109" lon="10.8019975"><ele>304.59999999999997</ele><time>2026-03-28T12:52:19.753Z</time></trkpt><trkpt lat="45.5953316" lon="10.8020978"><ele>305.2</ele><time>2026-03-28T12:52:20.753Z</time></trkpt><trkpt lat="45.5954132" lon="10.8021913"><ele>305.79999999999995</ele><time>2026-03-28T12:52:22.753Z</time></trkpt><trkpt lat="45.5955346" lon="10.8021731"><ele>306.4</ele><time>2026-03-28T12:52:24.754Z</time></trkpt><trkpt lat="45.5956243" lon="10.802135"><ele>307.0</ele><time>2026-03-28T12:52:25.754Z</time></trkpt><trkpt lat="45.5957145" lon="10.8020978"><ele>307.0</ele><time>2026-03-28T12:52:26.753Z</time></trkpt><trkpt lat="45.5958055" lon="10.8020843"><ele>307.0</ele><time>2026-03-28T12:52:27.753Z</time></trkpt><trkpt lat="45.5958925" lon="10.8020936"><ele>307.0</ele><time>2026-03-28T12:52:28.754Z</time></trkpt><trkpt lat="45.595969" lon="10.8021317"><ele>307.0</ele><time>2026-03-28T12:52:29.754Z</time></trkpt><trkpt lat="45.5960412" lon="10.8021841"><ele>307.0</ele><time>2026-03-28T12:52:30.754Z</time></trkpt><trkpt lat="45.5961022" lon="10.8022564"><ele>307.0</ele><time>2026-03-28T12:52:31.754Z</time></trkpt><trkpt lat="45.5961565" lon="10.802363"><ele>306.4</ele><time>2026-03-28T12:52:32.753Z</time></trkpt><trkpt lat="45.5962173" lon="10.8024735"><ele>305.79999999999995</ele><time>2026-03-28T12:52:33.754Z</time></trkpt><trkpt lat="45.5962713" lon="10.8026099"><ele>305.2</ele><time>2026-03-28T12:52:34.754Z</time></trkpt><trkpt lat="45.5963093" lon="10.8027405"><ele>304.59999999999997</ele><time>2026-03-28T12:52:35.754Z</time></trkpt><trkpt lat="45.5963438" lon="10.8028684"><ele>304.0</ele><time>2026-03-28T12:52:36.753Z</time></trkpt><trkpt lat="45.5963713" lon="10.8029909"><ele>303.59999999999997</ele><time>2026-03-28T12:52:37.753Z</time></trkpt><trkpt lat="45.5964043" lon="10.803125"><ele>303.2</ele><time>2026-03-28T12:52:38.753Z</time></trkpt><trkpt lat="45.5964391" lon="10.8032604"><ele>302.79999999999995</ele><time>2026-03-28T12:52:39.754Z</time></trkpt><trkpt lat="45.5964691" lon="10.80338"><ele>302.4</ele><time>2026-03-28T12:52:40.753Z</time></trkpt><trkpt lat="45.5965004" lon="10.8035021"><ele>302.0</ele><time>2026-03-28T12:52:41.754Z</time></trkpt><trkpt lat="45.5965358" lon="10.8036204"><ele>301.83333333333337</ele><time>2026-03-28T12:52:42.754Z</time></trkpt><trkpt lat="45.59655" lon="10.8037314"><ele>301.6666666666667</ele><time>2026-03-28T12:52:43.753Z</time></trkpt><trkpt lat="45.5965549" lon="10.8038415"><ele>301.5</ele><time>2026-03-28T12:52:44.753Z</time></trkpt><trkpt lat="45.5965727" lon="10.8039503"><ele>301.3333333333333</ele><time>2026-03-28T12:52:45.753Z</time></trkpt><trkpt lat="45.5965904" lon="10.8040536"><ele>301.16666666666663</ele><time>2026-03-28T12:52:46.753Z</time></trkpt><trkpt lat="45.5966125" lon="10.8041563"><ele>301.0</ele><time>2026-03-28T12:52:47.753Z</time></trkpt><trkpt lat="45.5966331" lon="10.8042644"><ele>300.0</ele><time>2026-03-28T12:52:48.754Z</time></trkpt><trkpt lat="45.5966563" lon="10.8043685"><ele>299.0</ele><time>2026-03-28T12:52:49.754Z</time></trkpt><trkpt lat="45.5966699" lon="10.8044762"><ele>298.0</ele><time>2026-03-28T12:52:50.753Z</time></trkpt><trkpt lat="45.5966806" lon="10.8045794"><ele>297.0</ele><time>2026-03-28T12:52:51.753Z</time></trkpt><trkpt lat="45.5966819" lon="10.804683"><ele>296.0</ele><time>2026-03-28T12:52:52.754Z</time></trkpt><trkpt lat="45.596694" lon="10.804787"><ele>295.0</ele><time>2026-03-28T12:52:53.754Z</time></trkpt><trkpt lat="45.5967367" lon="10.8049181"><ele>295.0</ele><time>2026-03-28T12:52:55.754Z</time></trkpt><trkpt lat="45.5967938" lon="10.8049666"><ele>295.0</ele><time>2026-03-28T12:52:57.753Z</time></trkpt><trkpt lat="45.5969071" lon="10.8049245"><ele>295.0</ele><time>2026-03-28T12:52:59.754Z</time></trkpt><trkpt lat="45.5969911" lon="10.8049045"><ele>295.0</ele><time>2026-03-28T12:53:00.754Z</time></trkpt><trkpt lat="45.5970756" lon="10.8048656"><ele>295.0</ele><time>2026-03-28T12:53:01.754Z</time></trkpt><trkpt lat="45.5971503" lon="10.8048097"><ele>295.0</ele><time>2026-03-28T12:53:02.754Z</time></trkpt><trkpt lat="45.5972072" lon="10.8047532"><ele>293.4</ele><time>2026-03-28T12:53:03.754Z</time></trkpt><trkpt lat="45.5972619" lon="10.8046779"><ele>291.8</ele><time>2026-03-28T12:53:04.754Z</time></trkpt><trkpt lat="45.5973091" lon="10.8045868"><ele>290.2</ele><time>2026-03-28T12:53:05.754Z</time></trkpt><trkpt lat="45.597353" lon="10.804465"><ele>288.6</ele><time>2026-03-28T12:53:06.753Z</time></trkpt><trkpt lat="45.5974033" lon="10.8043375"><ele>287.0</ele><time>2026-03-28T12:53:07.754Z</time></trkpt><trkpt lat="45.5974629" lon="10.8041957"><ele>287.0</ele><time>2026-03-28T12:53:08.753Z</time></trkpt><trkpt lat="45.5975275" lon="10.8040512"><ele>287.0</ele><time>2026-03-28T12:53:09.754Z</time></trkpt><trkpt lat="45.5975981" lon="10.8039106"><ele>287.0</ele><time>2026-03-28T12:53:10.753Z</time></trkpt><trkpt lat="45.597672" lon="10.8037822"><ele>287.0</ele><time>2026-03-28T12:53:11.754Z</time></trkpt><trkpt lat="45.5977501" lon="10.8036766"><ele>287.0</ele><time>2026-03-28T12:53:12.753Z</time></trkpt><trkpt lat="45.5978349" lon="10.8035968"><ele>287.0</ele><time>2026-03-28T12:53:13.753Z</time></trkpt><trkpt lat="45.5979431" lon="10.8035458"><ele>287.0</ele><time>2026-03-28T12:53:14.754Z</time></trkpt><trkpt lat="45.5980621" lon="10.8035259"><ele>287.0</ele><time>2026-03-28T12:53:15.754Z</time></trkpt><trkpt lat="45.5981875" lon="10.80352"><ele>285.25</ele><time>2026-03-28T12:53:16.753Z</time></trkpt><trkpt lat="45.5983073" lon="10.8035225"><ele>283.5</ele><time>2026-03-28T12:53:17.753Z</time></trkpt><trkpt lat="45.5984299" lon="10.8035477"><ele>281.75</ele><time>2026-03-28T12:53:18.753Z</time></trkpt><trkpt lat="45.5985497" lon="10.8035745"><ele>280.0</ele><time>2026-03-28T12:53:19.754Z</time></trkpt><trkpt lat="45.5986737" lon="10.8035645"><ele>278.0</ele><time>2026-03-28T12:53:20.754Z</time></trkpt><trkpt lat="45.5988016" lon="10.8035507"><ele>276.0</ele><time>2026-03-28T12:53:21.753Z</time></trkpt><trkpt lat="45.5989321" lon="10.8035462"><ele>274.0</ele><time>2026-03-28T12:53:22.753Z</time></trkpt><trkpt lat="45.5990402" lon="10.803539"><ele>272.0</ele><time>2026-03-28T12:53:23.754Z</time></trkpt><trkpt lat="45.5991337" lon="10.8034857"><ele>271.4</ele><time>2026-03-28T12:53:24.753Z</time></trkpt><trkpt lat="45.5991968" lon="10.8033937"><ele>270.79999999999995</ele><time>2026-03-28T12:53:25.753Z</time></trkpt><trkpt lat="45.599268" lon="10.8032956"><ele>270.2</ele><time>2026-03-28T12:53:26.753Z</time></trkpt><trkpt lat="45.599367" lon="10.803232"><ele>269.59999999999997</ele><time>2026-03-28T12:53:27.754Z</time></trkpt><trkpt lat="45.5994809" lon="10.8031837"><ele>269.0</ele><time>2026-03-28T12:53:28.754Z</time></trkpt><trkpt lat="45.5996093" lon="10.8031397"><ele>267.75</ele><time>2026-03-28T12:53:29.754Z</time></trkpt><trkpt lat="45.5997353" lon="10.8030859"><ele>266.5</ele><time>2026-03-28T12:53:30.754Z</time></trkpt><trkpt lat="45.5998504" lon="10.8030524"><ele>265.25</ele><time>2026-03-28T12:53:31.755Z</time></trkpt><trkpt lat="45.599961" lon="10.8030505"><ele>264.0</ele><time>2026-03-28T12:53:32.753Z</time></trkpt><trkpt lat="45.6000639" lon="10.8030746"><ele>264.0</ele><time>2026-03-28T12:53:33.753Z</time></trkpt><trkpt lat="45.6001637" lon="10.8031167"><ele>264.0</ele><time>2026-03-28T12:53:34.753Z</time></trkpt><trkpt lat="45.6002634" lon="10.8031465"><ele>264.0</ele><time>2026-03-28T12:53:35.754Z</time></trkpt><trkpt lat="45.6003621" lon="10.803162"><ele>264.0</ele><time>2026-03-28T12:53:36.754Z</time></trkpt><trkpt lat="45.6004617" lon="10.8031718"><ele>264.0</ele><time>2026-03-28T12:53:37.754Z</time></trkpt><trkpt lat="45.6005553" lon="10.8031793"><ele>262.8</ele><time>2026-03-28T12:53:38.753Z</time></trkpt><trkpt lat="45.6006461" lon="10.8031825"><ele>261.59999999999997</ele><time>2026-03-28T12:53:39.753Z</time></trkpt><trkpt lat="45.6007215" lon="10.8031806"><ele>260.4</ele><time>2026-03-28T12:53:40.755Z</time></trkpt><trkpt lat="45.6008113" lon="10.8031107"><ele>259.2</ele><time>2026-03-28T12:53:42.753Z</time></trkpt><trkpt lat="45.6008165" lon="10.8029056"><ele>258.0</ele><time>2026-03-28T12:53:44.754Z</time></trkpt><trkpt lat="45.6007858" lon="10.802751"><ele>257.25</ele><time>2026-03-28T12:53:45.754Z</time></trkpt><trkpt lat="45.6007372" lon="10.8025828"><ele>256.5</ele><time>2026-03-28T12:53:46.754Z</time></trkpt><trkpt lat="45.6006903" lon="10.8024007"><ele>255.75</ele><time>2026-03-28T12:53:47.754Z</time></trkpt><trkpt lat="45.6006454" lon="10.8022192"><ele>255.0</ele><time>2026-03-28T12:53:48.753Z</time></trkpt><trkpt lat="45.6005984" lon="10.8020202"><ele>254.66666666666669</ele><time>2026-03-28T12:53:49.753Z</time></trkpt><trkpt lat="45.6005486" lon="10.8018093"><ele>254.33333333333334</ele><time>2026-03-28T12:53:50.753Z</time></trkpt><trkpt lat="45.600495" lon="10.8015947"><ele>254.0</ele><time>2026-03-28T12:53:51.754Z</time></trkpt><trkpt lat="45.6004377" lon="10.8013808"><ele>254.0</ele><time>2026-03-28T12:53:52.754Z</time></trkpt><trkpt lat="45.6003833" lon="10.8011656"><ele>254.0</ele><time>2026-03-28T12:53:53.754Z</time></trkpt><trkpt lat="45.6003325" lon="10.8009501"><ele>254.0</ele><time>2026-03-28T12:53:54.753Z</time></trkpt><trkpt lat="45.6002823" lon="10.8007345"><ele>255.33333333333334</ele><time>2026-03-28T12:53:55.754Z</time></trkpt><trkpt lat="45.6002249" lon="10.8005044"><ele>256.6666666666667</ele><time>2026-03-28T12:53:56.754Z</time></trkpt><trkpt lat="45.6001632" lon="10.8002619"><ele>258.0</ele><time>2026-03-28T12:53:57.754Z</time></trkpt><trkpt lat="45.6001038" lon="10.8000087"><ele>258.0</ele><time>2026-03-28T12:53:58.754Z</time></trkpt><trkpt lat="45.6000524" lon="10.7997417"><ele>258.0</ele><time>2026-03-28T12:53:59.753Z</time></trkpt><trkpt lat="45.6000108" lon="10.7994587"><ele>258.0</ele><time>2026-03-28T12:54:00.754Z</time></trkpt><trkpt lat="45.5999719" lon="10.7991672"><ele>257.0</ele><time>2026-03-28T12:54:01.754Z</time></trkpt><trkpt lat="45.5999302" lon="10.7988685"><ele>256.0</ele><time>2026-03-28T12:54:02.754Z</time></trkpt><trkpt lat="45.5998906" lon="10.7985674"><ele>255.0</ele><time>2026-03-28T12:54:03.753Z</time></trkpt><trkpt lat="45.5998567" lon="10.7982639"><ele>254.0</ele><time>2026-03-28T12:54:04.753Z</time></trkpt><trkpt lat="45.5998257" lon="10.797979"><ele>253.0</ele><time>2026-03-28T12:54:05.753Z</time></trkpt><trkpt lat="45.5997947" lon="10.7977168"><ele>252.0</ele><time>2026-03-28T12:54:06.754Z</time></trkpt><trkpt lat="45.59977" lon="10.7974661"><ele>252.0</ele><time>2026-03-28T12:54:07.754Z</time></trkpt><trkpt lat="45.5997609" lon="10.7972059"><ele>252.0</ele><time>2026-03-28T12:54:08.753Z</time></trkpt><trkpt lat="45.5997722" lon="10.7969379"><ele>252.0</ele><time>2026-03-28T12:54:09.753Z</time></trkpt><trkpt lat="45.5997883" lon="10.7966632"><ele>251.66666666666669</ele><time>2026-03-28T12:54:10.753Z</time></trkpt><trkpt lat="45.5997999" lon="10.7963874"><ele>251.33333333333334</ele><time>2026-03-28T12:54:11.754Z</time></trkpt><trkpt lat="45.5998044" lon="10.7961338"><ele>251.0</ele><time>2026-03-28T12:54:12.753Z</time></trkpt><trkpt lat="45.5998144" lon="10.7958943"><ele>250.75</ele><time>2026-03-28T12:54:13.753Z</time></trkpt><trkpt lat="45.5998256" lon="10.7956709"><ele>250.5</ele><time>2026-03-28T12:54:14.754Z</time></trkpt><trkpt lat="45.5998332" lon="10.7954554"><ele>250.25</ele><time>2026-03-28T12:54:15.753Z</time></trkpt><trkpt lat="45.5998386" lon="10.7952532"><ele>250.0</ele><time>2026-03-28T12:54:16.754Z</time></trkpt><trkpt lat="45.5998428" lon="10.7950618"><ele>249.8</ele><time>2026-03-28T12:54:17.754Z</time></trkpt><trkpt lat="45.5998569" lon="10.7948892"><ele>249.6</ele><time>2026-03-28T12:54:18.754Z</time></trkpt><trkpt lat="45.5998933" lon="10.7947723"><ele>249.39999999999998</ele><time>2026-03-28T12:54:19.754Z</time></trkpt><trkpt lat="45.599956" lon="10.7947021"><ele>249.2</ele><time>2026-03-28T12:54:20.754Z</time></trkpt><trkpt lat="45.6000403" lon="10.7946688"><ele>249.0</ele><time>2026-03-28T12:54:21.754Z</time></trkpt><trkpt lat="45.6001409" lon="10.7946526"><ele>249.0</ele><time>2026-03-28T12:54:22.753Z</time></trkpt><trkpt lat="45.6002506" lon="10.7946254"><ele>248.99999999999997</ele><time>2026-03-28T12:54:23.753Z</time></trkpt><trkpt lat="45.6003619" lon="10.794598"><ele>248.99999999999997</ele><time>2026-03-28T12:54:24.754Z</time></trkpt><trkpt lat="45.6004628" lon="10.7945785"><ele>249.0</ele><time>2026-03-28T12:54:25.754Z</time></trkpt><trkpt lat="45.6005558" lon="10.7945577"><ele>249.0</ele><time>2026-03-28T12:54:26.753Z</time></trkpt><trkpt lat="45.60063" lon="10.7945344"><ele>249.0</ele><time>2026-03-28T12:54:27.753Z</time></trkpt><trkpt lat="45.6007055" lon="10.7945105"><ele>249.0</ele><time>2026-03-28T12:54:29.754Z</time></trkpt><trkpt lat="45.6007956" lon="10.7945286"><ele>249.0</ele><time>2026-03-28T12:54:51.754Z</time></trkpt><trkpt lat="45.6008494" lon="10.794585"><ele>249.0</ele><time>2026-03-28T12:54:52.754Z</time></trkpt><trkpt lat="45.6009123" lon="10.7946676"><ele>249.0</ele><time>2026-03-28T12:54:53.753Z</time></trkpt><trkpt lat="45.6009869" lon="10.7947534"><ele>249.0</ele><time>2026-03-28T12:54:54.754Z</time></trkpt><trkpt lat="45.6010726" lon="10.7948503"><ele>248.75</ele><time>2026-03-28T12:54:55.754Z</time></trkpt><trkpt lat="45.6011664" lon="10.7949511"><ele>248.5</ele><time>2026-03-28T12:54:56.754Z</time></trkpt><trkpt lat="45.6012685" lon="10.7950464"><ele>248.25</ele><time>2026-03-28T12:54:57.753Z</time></trkpt><trkpt lat="45.6013755" lon="10.7951147"><ele>248.0</ele><time>2026-03-28T12:54:58.754Z</time></trkpt><trkpt lat="45.60149" lon="10.7951558"><ele>248.4</ele><time>2026-03-28T12:54:59.754Z</time></trkpt><trkpt lat="45.6016124" lon="10.7951748"><ele>248.8</ele><time>2026-03-28T12:55:00.753Z</time></trkpt><trkpt lat="45.601727" lon="10.7951784"><ele>249.2</ele><time>2026-03-28T12:55:01.753Z</time></trkpt><trkpt lat="45.601835" lon="10.7951798"><ele>249.6</ele><time>2026-03-28T12:55:02.753Z</time></trkpt><trkpt lat="45.6019372" lon="10.7951833"><ele>250.0</ele><time>2026-03-28T12:55:03.754Z</time></trkpt><trkpt lat="45.6020254" lon="10.7951844"><ele>250.16666666666666</ele><time>2026-03-28T12:55:04.754Z</time></trkpt><trkpt lat="45.6021089" lon="10.7951886"><ele>250.33333333333331</ele><time>2026-03-28T12:55:05.754Z</time></trkpt><trkpt lat="45.6021936" lon="10.7951949"><ele>250.5</ele><time>2026-03-28T12:55:06.753Z</time></trkpt><trkpt lat="45.6022745" lon="10.795199"><ele>250.66666666666669</ele><time>2026-03-28T12:55:07.753Z</time></trkpt><trkpt lat="45.6023461" lon="10.7952075"><ele>250.83333333333334</ele><time>2026-03-28T12:55:08.753Z</time></trkpt><trkpt lat="45.6024126" lon="10.7952191"><ele>251.0</ele><time>2026-03-28T12:55:09.753Z</time></trkpt><trkpt lat="45.6024788" lon="10.7952437"><ele>251.00000000000003</ele><time>2026-03-28T12:55:10.754Z</time></trkpt><trkpt lat="45.6025403" lon="10.7952979"><ele>251.0</ele><time>2026-03-28T12:55:11.755Z</time></trkpt><trkpt lat="45.6026038" lon="10.7953699"><ele>251.0</ele><time>2026-03-28T12:55:12.753Z</time></trkpt><trkpt lat="45.6026676" lon="10.7954554"><ele>251.0</ele><time>2026-03-28T12:55:13.753Z</time></trkpt><trkpt lat="45.6027125" lon="10.7955666"><ele>251.00000000000003</ele><time>2026-03-28T12:55:14.753Z</time></trkpt><trkpt lat="45.6027249" lon="10.7956915"><ele>251.0</ele><time>2026-03-28T12:55:15.754Z</time></trkpt><trkpt lat="45.6027279" lon="10.7958133"><ele>251.00000000000003</ele><time>2026-03-28T12:55:16.754Z</time></trkpt><trkpt lat="45.6027342" lon="10.7959303"><ele>251.0</ele><time>2026-03-28T12:55:17.753Z</time></trkpt><trkpt lat="45.6027375" lon="10.7960587"><ele>251.0</ele><time>2026-03-28T12:55:18.753Z</time></trkpt><trkpt lat="45.6027404" lon="10.7961859"><ele>251.0</ele><time>2026-03-28T12:55:19.753Z</time></trkpt><trkpt lat="45.6027448" lon="10.7963082"><ele>251.00000000000003</ele><time>2026-03-28T12:55:20.754Z</time></trkpt><trkpt lat="45.602749" lon="10.7964198"><ele>251.0</ele><time>2026-03-28T12:55:21.754Z</time></trkpt><trkpt lat="45.6027549" lon="10.7965228"><ele>251.00000000000003</ele><time>2026-03-28T12:55:22.754Z</time></trkpt><trkpt lat="45.6027617" lon="10.7966265"><ele>251.0</ele><time>2026-03-28T12:55:23.755Z</time></trkpt><trkpt lat="45.602771" lon="10.7967397"><ele>251.0</ele><time>2026-03-28T12:55:24.753Z</time></trkpt><trkpt lat="45.6027792" lon="10.7968579"><ele>251.0</ele><time>2026-03-28T12:55:25.753Z</time></trkpt><trkpt lat="45.602789" lon="10.7969631"><ele>251.00000000000003</ele><time>2026-03-28T12:55:26.753Z</time></trkpt><trkpt lat="45.6028028" lon="10.7970557"><ele>251.0</ele><time>2026-03-28T12:55:27.754Z</time></trkpt><trkpt lat="45.6028814" lon="10.7972041"><ele>250.83333333333334</ele><time>2026-03-28T12:55:29.754Z</time></trkpt><trkpt lat="45.6029475" lon="10.7972589"><ele>250.66666666666669</ele><time>2026-03-28T12:55:30.754Z</time></trkpt><trkpt lat="45.6030246" lon="10.7973038"><ele>250.5</ele><time>2026-03-28T12:55:31.753Z</time></trkpt><trkpt lat="45.6031" lon="10.7973472"><ele>250.33333333333331</ele><time>2026-03-28T12:55:32.753Z</time></trkpt><trkpt lat="45.6031661" lon="10.797416"><ele>250.16666666666666</ele><time>2026-03-28T12:55:33.754Z</time></trkpt><trkpt lat="45.6032019" lon="10.7975123"><ele>250.0</ele><time>2026-03-28T12:55:34.754Z</time></trkpt><trkpt lat="45.6032097" lon="10.7976211"><ele>250.16666666666666</ele><time>2026-03-28T12:55:35.754Z</time></trkpt><trkpt lat="45.6032053" lon="10.7977271"><ele>250.33333333333331</ele><time>2026-03-28T12:55:36.754Z</time></trkpt><trkpt lat="45.6032043" lon="10.7978288"><ele>250.5</ele><time>2026-03-28T12:55:37.753Z</time></trkpt><trkpt lat="45.6032027" lon="10.7979422"><ele>250.66666666666669</ele><time>2026-03-28T12:55:38.753Z</time></trkpt><trkpt lat="45.6032337" lon="10.7980502"><ele>250.83333333333334</ele><time>2026-03-28T12:55:39.753Z</time></trkpt><trkpt lat="45.6033023" lon="10.7981393"><ele>251.0</ele><time>2026-03-28T12:55:40.754Z</time></trkpt><trkpt lat="45.6033919" lon="10.7981913"><ele>251.0</ele><time>2026-03-28T12:55:41.754Z</time></trkpt><trkpt lat="45.6034785" lon="10.7982306"><ele>251.00000000000003</ele><time>2026-03-28T12:55:42.754Z</time></trkpt><trkpt lat="45.6035666" lon="10.7982788"><ele>251.00000000000003</ele><time>2026-03-28T12:55:43.753Z</time></trkpt><trkpt lat="45.6036583" lon="10.7983276"><ele>251.0</ele><time>2026-03-28T12:55:44.754Z</time></trkpt><trkpt lat="45.6037499" lon="10.7983732"><ele>251.0</ele><time>2026-03-28T12:55:45.754Z</time></trkpt><trkpt lat="45.6038445" lon="10.7984208"><ele>251.20000000000002</ele><time>2026-03-28T12:55:46.753Z</time></trkpt><trkpt lat="45.6039376" lon="10.7984736"><ele>251.40000000000003</ele><time>2026-03-28T12:55:47.754Z</time></trkpt><trkpt lat="45.6040328" lon="10.7985299"><ele>251.6</ele><time>2026-03-28T12:55:48.754Z</time></trkpt><trkpt lat="45.6041259" lon="10.7985855"><ele>251.8</ele><time>2026-03-28T12:55:49.753Z</time></trkpt><trkpt lat="45.6042084" lon="10.7986289"><ele>252.0</ele><time>2026-03-28T12:55:50.753Z</time></trkpt><trkpt lat="45.6042887" lon="10.7986722"><ele>252.0</ele><time>2026-03-28T12:55:51.753Z</time></trkpt><trkpt lat="45.6043715" lon="10.7987208"><ele>252.0</ele><time>2026-03-28T12:55:52.754Z</time></trkpt><trkpt lat="45.6044548" lon="10.7987701"><ele>252.0</ele><time>2026-03-28T12:55:53.753Z</time></trkpt><trkpt lat="45.6045437" lon="10.7988197"><ele>252.0</ele><time>2026-03-28T12:55:54.753Z</time></trkpt><trkpt lat="45.6046295" lon="10.7988657"><ele>252.0</ele><time>2026-03-28T12:55:55.754Z</time></trkpt><trkpt lat="45.6047121" lon="10.7989131"><ele>252.0</ele><time>2026-03-28T12:55:56.753Z</time></trkpt><trkpt lat="45.6047931" lon="10.7989599"><ele>252.0</ele><time>2026-03-28T12:55:57.753Z</time></trkpt><trkpt lat="45.6048762" lon="10.7990118"><ele>252.0</ele><time>2026-03-28T12:55:58.754Z</time></trkpt><trkpt lat="45.6049597" lon="10.7990613"><ele>252.0</ele><time>2026-03-28T12:55:59.754Z</time></trkpt><trkpt lat="45.6050438" lon="10.7991088"><ele>252.0</ele><time>2026-03-28T12:56:00.753Z</time></trkpt><trkpt lat="45.6051217" lon="10.7991571"><ele>252.0</ele><time>2026-03-28T12:56:01.753Z</time></trkpt><trkpt lat="45.6051964" lon="10.7992064"><ele>252.0</ele><time>2026-03-28T12:56:02.754Z</time></trkpt><trkpt lat="45.6052668" lon="10.799253"><ele>252.0</ele><time>2026-03-28T12:56:03.754Z</time></trkpt><trkpt lat="45.6053298" lon="10.7992956"><ele>252.0</ele><time>2026-03-28T12:56:04.753Z</time></trkpt><trkpt lat="45.6053891" lon="10.7993356"><ele>252.0</ele><time>2026-03-28T12:56:05.753Z</time></trkpt><trkpt lat="45.6054443" lon="10.7993894"><ele>252.0</ele><time>2026-03-28T12:56:06.753Z</time></trkpt><trkpt lat="45.6054887" lon="10.799469"><ele>252.0</ele><time>2026-03-28T12:56:07.754Z</time></trkpt><trkpt lat="45.6055145" lon="10.7995719"><ele>252.0</ele><time>2026-03-28T12:56:08.753Z</time></trkpt><trkpt lat="45.6055303" lon="10.7996783"><ele>253.5</ele><time>2026-03-28T12:56:09.754Z</time></trkpt><trkpt lat="45.6055366" lon="10.7997912"><ele>255.0</ele><time>2026-03-28T12:56:10.754Z</time></trkpt><trkpt lat="45.6055381" lon="10.7998948"><ele>256.5</ele><time>2026-03-28T12:56:11.754Z</time></trkpt><trkpt lat="45.6055317" lon="10.7999913"><ele>258.0</ele><time>2026-03-28T12:56:12.753Z</time></trkpt><trkpt lat="45.6055201" lon="10.8000888"><ele>259.5</ele><time>2026-03-28T12:56:13.753Z</time></trkpt><trkpt lat="45.6055061" lon="10.8002044"><ele>261.0</ele><time>2026-03-28T12:56:14.753Z</time></trkpt><trkpt lat="45.6054869" lon="10.8003675"><ele>261.5</ele><time>2026-03-28T12:56:15.754Z</time></trkpt><trkpt lat="45.6054639" lon="10.8005653"><ele>262.0</ele><time>2026-03-28T12:56:16.753Z</time></trkpt><trkpt lat="45.6054407" lon="10.8007772"><ele>262.5</ele><time>2026-03-28T12:56:17.753Z</time></trkpt><trkpt lat="45.6054215" lon="10.8009736"><ele>263.0</ele><time>2026-03-28T12:56:18.753Z</time></trkpt><trkpt lat="45.6054008" lon="10.8011624"><ele>264.25</ele><time>2026-03-28T12:56:19.753Z</time></trkpt><trkpt lat="45.6053809" lon="10.8013471"><ele>265.5</ele><time>2026-03-28T12:56:20.754Z</time></trkpt><trkpt lat="45.6053594" lon="10.8015382"><ele>266.75</ele><time>2026-03-28T12:56:21.754Z</time></trkpt><trkpt lat="45.6053432" lon="10.8017196"><ele>268.0</ele><time>2026-03-28T12:56:22.753Z</time></trkpt><trkpt lat="45.605326" lon="10.8018917"><ele>265.0</ele><time>2026-03-28T12:56:23.753Z</time></trkpt><trkpt lat="45.6053096" lon="10.8020548"><ele>262.0</ele><time>2026-03-28T12:56:24.754Z</time></trkpt><trkpt lat="45.6052852" lon="10.8022213"><ele>259.0</ele><time>2026-03-28T12:56:25.753Z</time></trkpt><trkpt lat="45.6052491" lon="10.8023974"><ele>256.0</ele><time>2026-03-28T12:56:26.753Z</time></trkpt><trkpt lat="45.6052115" lon="10.8025631"><ele>256.2</ele><time>2026-03-28T12:56:27.754Z</time></trkpt><trkpt lat="45.605183" lon="10.8027116"><ele>256.40000000000003</ele><time>2026-03-28T12:56:28.753Z</time></trkpt><trkpt lat="45.6051729" lon="10.8028393"><ele>256.6</ele><time>2026-03-28T12:56:29.754Z</time></trkpt><trkpt lat="45.6051902" lon="10.8029645"><ele>256.8</ele><time>2026-03-28T12:56:30.755Z</time></trkpt><trkpt lat="45.6052171" lon="10.8030905"><ele>257.0</ele><time>2026-03-28T12:56:31.753Z</time></trkpt><trkpt lat="45.605235" lon="10.8032253"><ele>257.0</ele><time>2026-03-28T12:56:32.754Z</time></trkpt><trkpt lat="45.6052355" lon="10.8033799"><ele>257.0</ele><time>2026-03-28T12:56:33.753Z</time></trkpt><trkpt lat="45.6052191" lon="10.8035574"><ele>257.0</ele><time>2026-03-28T12:56:34.753Z</time></trkpt><trkpt lat="45.6052024" lon="10.8037549"><ele>257.0</ele><time>2026-03-28T12:56:35.754Z</time></trkpt><trkpt lat="45.6051839" lon="10.8039595"><ele>257.75</ele><time>2026-03-28T12:56:36.754Z</time></trkpt><trkpt lat="45.6051602" lon="10.8041629"><ele>258.5</ele><time>2026-03-28T12:56:37.753Z</time></trkpt><trkpt lat="45.605141" lon="10.8043519"><ele>259.25</ele><time>2026-03-28T12:56:38.754Z</time></trkpt><trkpt lat="45.6051371" lon="10.8045464"><ele>260.0</ele><time>2026-03-28T12:56:39.754Z</time></trkpt><trkpt lat="45.6051361" lon="10.8047326"><ele>260.1666666666667</ele><time>2026-03-28T12:56:40.754Z</time></trkpt><trkpt lat="45.6051336" lon="10.8048791"><ele>260.33333333333337</ele><time>2026-03-28T12:56:41.753Z</time></trkpt><trkpt lat="45.6051335" lon="10.8049934"><ele>260.5</ele><time>2026-03-28T12:56:42.754Z</time></trkpt><trkpt lat="45.605142" lon="10.8050957"><ele>260.6666666666667</ele><time>2026-03-28T12:56:43.754Z</time></trkpt><trkpt lat="45.6051565" lon="10.8051927"><ele>260.8333333333333</ele><time>2026-03-28T12:56:44.754Z</time></trkpt><trkpt lat="45.6051938" lon="10.8052798"><ele>261.0</ele><time>2026-03-28T12:56:45.753Z</time></trkpt><trkpt lat="45.6052629" lon="10.8053708"><ele>262.75</ele><time>2026-03-28T12:56:46.753Z</time></trkpt><trkpt lat="45.6053444" lon="10.8054671"><ele>264.5</ele><time>2026-03-28T12:56:47.753Z</time></trkpt><trkpt lat="45.6054334" lon="10.8055702"><ele>266.25</ele><time>2026-03-28T12:56:48.753Z</time></trkpt><trkpt lat="45.6055184" lon="10.8057158"><ele>268.0</ele><time>2026-03-28T12:56:49.754Z</time></trkpt><trkpt lat="45.6055867" lon="10.8059127"><ele>267.0</ele><time>2026-03-28T12:56:50.754Z</time></trkpt><trkpt lat="45.6056539" lon="10.8061287"><ele>266.0</ele><time>2026-03-28T12:56:51.753Z</time></trkpt><trkpt lat="45.6057191" lon="10.8063568"><ele>265.0</ele><time>2026-03-28T12:56:52.753Z</time></trkpt><trkpt lat="45.6057797" lon="10.8066006"><ele>264.66666666666663</ele><time>2026-03-28T12:56:53.754Z</time></trkpt><trkpt lat="45.6058413" lon="10.8068484"><ele>264.3333333333333</ele><time>2026-03-28T12:56:54.754Z</time></trkpt><trkpt lat="45.6059054" lon="10.8070939"><ele>264.0</ele><time>2026-03-28T12:56:55.753Z</time></trkpt><trkpt lat="45.6059701" lon="10.8073333"><ele>264.0</ele><time>2026-03-28T12:56:56.753Z</time></trkpt><trkpt lat="45.6060279" lon="10.8075528"><ele>264.0</ele><time>2026-03-28T12:56:57.754Z</time></trkpt><trkpt lat="45.6060904" lon="10.8077704"><ele>264.0</ele><time>2026-03-28T12:56:58.754Z</time></trkpt><trkpt lat="45.606146" lon="10.8079759"><ele>264.75</ele><time>2026-03-28T12:56:59.754Z</time></trkpt><trkpt lat="45.6061853" lon="10.8081671"><ele>265.5</ele><time>2026-03-28T12:57:00.753Z</time></trkpt><trkpt lat="45.6062189" lon="10.8083519"><ele>266.25</ele><time>2026-03-28T12:57:01.754Z</time></trkpt><trkpt lat="45.6062696" lon="10.8085208"><ele>267.0</ele><time>2026-03-28T12:57:02.753Z</time></trkpt><trkpt lat="45.6063467" lon="10.8086734"><ele>267.0</ele><time>2026-03-28T12:57:03.754Z</time></trkpt><trkpt lat="45.6064395" lon="10.8088185"><ele>267.0</ele><time>2026-03-28T12:57:04.754Z</time></trkpt><trkpt lat="45.6065404" lon="10.8089599"><ele>267.0</ele><time>2026-03-28T12:57:05.753Z</time></trkpt><trkpt lat="45.6066441" lon="10.8090954"><ele>267.0</ele><time>2026-03-28T12:57:06.754Z</time></trkpt><trkpt lat="45.6067432" lon="10.8092133"><ele>267.0</ele><time>2026-03-28T12:57:07.754Z</time></trkpt><trkpt lat="45.6068328" lon="10.8093202"><ele>267.0</ele><time>2026-03-28T12:57:08.753Z</time></trkpt><trkpt lat="45.6069013" lon="10.8094219"><ele>267.0</ele><time>2026-03-28T12:57:09.753Z</time></trkpt><trkpt lat="45.6069577" lon="10.8095172"><ele>267.0</ele><time>2026-03-28T12:57:10.753Z</time></trkpt><trkpt lat="45.6070019" lon="10.8095958"><ele>267.0</ele><time>2026-03-28T12:57:11.754Z</time></trkpt><trkpt lat="45.6070499" lon="10.809695"><ele>267.0</ele><time>2026-03-28T12:57:13.754Z</time></trkpt><trkpt lat="45.6070087" lon="10.809821"><ele>267.0</ele><time>2026-03-28T12:57:16.754Z</time></trkpt><trkpt lat="45.6069034" lon="10.8099145"><ele>267.0</ele><time>2026-03-28T12:57:18.754Z</time></trkpt><trkpt lat="45.6068385" lon="10.8099522"><ele>267.0</ele><time>2026-03-28T12:57:19.753Z</time></trkpt><trkpt lat="45.6067661" lon="10.8099872"><ele>267.0</ele><time>2026-03-28T12:57:20.753Z</time></trkpt><trkpt lat="45.6066953" lon="10.8100299"><ele>267.0</ele><time>2026-03-28T12:57:21.753Z</time></trkpt><trkpt lat="45.6066313" lon="10.8100772"><ele>267.2</ele><time>2026-03-28T12:57:22.753Z</time></trkpt><trkpt lat="45.6065309" lon="10.8102044"><ele>267.4</ele><time>2026-03-28T12:57:24.754Z</time></trkpt><trkpt lat="45.6064706" lon="10.8103657"><ele>267.6</ele><time>2026-03-28T12:57:26.754Z</time></trkpt><trkpt lat="45.6064274" lon="10.8104633"><ele>267.8</ele><time>2026-03-28T12:57:27.753Z</time></trkpt><trkpt lat="45.6063772" lon="10.8105635"><ele>268.0</ele><time>2026-03-28T12:57:28.753Z</time></trkpt><trkpt lat="45.6063193" lon="10.8106764"><ele>268.0</ele><time>2026-03-28T12:57:30.753Z</time></trkpt><trkpt lat="45.6062777" lon="10.8107503"><ele>268.0</ele><time>2026-03-28T12:57:33.754Z</time></trkpt><trkpt lat="45.6062396" lon="10.8108269"><ele>268.0</ele><time>2026-03-28T12:57:35.753Z</time></trkpt><trkpt lat="45.6061688" lon="10.8109426"><ele>268.0</ele><time>2026-03-28T12:57:37.754Z</time></trkpt><trkpt lat="45.6060971" lon="10.8110723"><ele>268.0</ele><time>2026-03-28T12:57:39.754Z</time></trkpt><trkpt lat="45.6060527" lon="10.8111494"><ele>268.0</ele><time>2026-03-28T12:57:40.753Z</time></trkpt><trkpt lat="45.6060037" lon="10.8112316"><ele>268.14285714285717</ele><time>2026-03-28T12:57:41.754Z</time></trkpt><trkpt lat="45.605953" lon="10.8113096"><ele>268.2857142857143</ele><time>2026-03-28T12:57:42.753Z</time></trkpt><trkpt lat="45.6059019" lon="10.811388"><ele>268.42857142857144</ele><time>2026-03-28T12:57:43.753Z</time></trkpt><trkpt lat="45.6058511" lon="10.8114688"><ele>268.57142857142856</ele><time>2026-03-28T12:57:44.754Z</time></trkpt><trkpt lat="45.6058018" lon="10.8115483"><ele>268.7142857142857</ele><time>2026-03-28T12:57:45.754Z</time></trkpt><trkpt lat="45.6057519" lon="10.8116293"><ele>268.8571428571429</ele><time>2026-03-28T12:57:46.753Z</time></trkpt><trkpt lat="45.6057127" lon="10.8117173"><ele>269.0</ele><time>2026-03-28T12:57:47.753Z</time></trkpt><trkpt lat="45.6056834" lon="10.8118127"><ele>269.1666666666667</ele><time>2026-03-28T12:57:48.754Z</time></trkpt><trkpt lat="45.6056588" lon="10.8119259"><ele>269.33333333333337</ele><time>2026-03-28T12:57:49.753Z</time></trkpt><trkpt lat="45.6056364" lon="10.812049"><ele>269.5</ele><time>2026-03-28T12:57:50.755Z</time></trkpt><trkpt lat="45.6056169" lon="10.8121425"><ele>269.6666666666667</ele><time>2026-03-28T12:57:51.753Z</time></trkpt><trkpt lat="45.6055857" lon="10.8122705"><ele>269.8333333333333</ele><time>2026-03-28T12:57:53.753Z</time></trkpt><trkpt lat="45.6055697" lon="10.8123708"><ele>270.0</ele><time>2026-03-28T12:57:55.753Z</time></trkpt><trkpt lat="45.6055133" lon="10.8124839"><ele>270.0</ele><time>2026-03-28T12:57:57.753Z</time></trkpt><trkpt lat="45.6054475" lon="10.8125806"><ele>270.0</ele><time>2026-03-28T12:57:59.754Z</time></trkpt><trkpt lat="45.6053627" lon="10.812705"><ele>270.0</ele><time>2026-03-28T12:58:01.753Z</time></trkpt><trkpt lat="45.6053197" lon="10.8128068"><ele>270.0</ele><time>2026-03-28T12:58:02.754Z</time></trkpt><trkpt lat="45.6052682" lon="10.812926"><ele>270.0</ele><time>2026-03-28T12:58:03.753Z</time></trkpt><trkpt lat="45.6052189" lon="10.8130701"><ele>269.5</ele><time>2026-03-28T12:58:04.754Z</time></trkpt><trkpt lat="45.6051709" lon="10.8132186"><ele>269.0</ele><time>2026-03-28T12:58:05.753Z</time></trkpt><trkpt lat="45.6051194" lon="10.8133736"><ele>268.5</ele><time>2026-03-28T12:58:06.753Z</time></trkpt><trkpt lat="45.6050757" lon="10.8135203"><ele>268.0</ele><time>2026-03-28T12:58:07.754Z</time></trkpt><trkpt lat="45.6050414" lon="10.8136698"><ele>268.0</ele><time>2026-03-28T12:58:08.754Z</time></trkpt><trkpt lat="45.6050066" lon="10.8138086"><ele>268.0</ele><time>2026-03-28T12:58:09.754Z</time></trkpt><trkpt lat="45.6049682" lon="10.8139509"><ele>268.0</ele><time>2026-03-28T12:58:10.753Z</time></trkpt><trkpt lat="45.6049283" lon="10.8141136"><ele>268.0</ele><time>2026-03-28T12:58:11.754Z</time></trkpt><trkpt lat="45.6048872" lon="10.8142792"><ele>268.25</ele><time>2026-03-28T12:58:12.754Z</time></trkpt><trkpt lat="45.6048475" lon="10.8144302"><ele>268.5</ele><time>2026-03-28T12:58:13.754Z</time></trkpt><trkpt lat="45.6048139" lon="10.814594"><ele>268.75</ele><time>2026-03-28T12:58:14.753Z</time></trkpt><trkpt lat="45.6047807" lon="10.8147634"><ele>269.0</ele><time>2026-03-28T12:58:15.754Z</time></trkpt><trkpt lat="45.604745" lon="10.8149291"><ele>269.0</ele><time>2026-03-28T12:58:16.754Z</time></trkpt><trkpt lat="45.604714" lon="10.8150894"><ele>269.0</ele><time>2026-03-28T12:58:17.754Z</time></trkpt><trkpt lat="45.6046891" lon="10.8152393"><ele>269.0</ele><time>2026-03-28T12:58:18.754Z</time></trkpt><trkpt lat="45.6046705" lon="10.8153777"><ele>269.0</ele><time>2026-03-28T12:58:19.754Z</time></trkpt><trkpt lat="45.6046586" lon="10.8155054"><ele>269.0</ele><time>2026-03-28T12:58:20.753Z</time></trkpt><trkpt lat="45.6046518" lon="10.8156198"><ele>269.0</ele><time>2026-03-28T12:58:21.753Z</time></trkpt><trkpt lat="45.604648" lon="10.815713"><ele>269.0</ele><time>2026-03-28T12:58:22.755Z</time></trkpt><trkpt lat="45.6046525" lon="10.8158651"><ele>269.0</ele><time>2026-03-28T12:58:24.753Z</time></trkpt><trkpt lat="45.6046815" lon="10.8159824"><ele>269.0</ele><time>2026-03-28T12:58:27.754Z</time></trkpt><trkpt lat="45.6046925" lon="10.8161549"><ele>269.0</ele><time>2026-03-28T12:58:29.753Z</time></trkpt><trkpt lat="45.6046828" lon="10.8162756"><ele>269.0</ele><time>2026-03-28T12:58:30.753Z</time></trkpt><trkpt lat="45.6046736" lon="10.8164198"><ele>269.0</ele><time>2026-03-28T12:58:31.754Z</time></trkpt><trkpt lat="45.6046737" lon="10.81658"><ele>269.0</ele><time>2026-03-28T12:58:32.754Z</time></trkpt><trkpt lat="45.6046796" lon="10.8167529"><ele>269.0</ele><time>2026-03-28T12:58:33.754Z</time></trkpt><trkpt lat="45.6046972" lon="10.8169155"><ele>269.8</ele><time>2026-03-28T12:58:34.754Z</time></trkpt><trkpt lat="45.6047242" lon="10.8170685"><ele>270.59999999999997</ele><time>2026-03-28T12:58:35.753Z</time></trkpt><trkpt lat="45.6047604" lon="10.8172261"><ele>271.4</ele><time>2026-03-28T12:58:36.753Z</time></trkpt><trkpt lat="45.604788" lon="10.8173679"><ele>272.2</ele><time>2026-03-28T12:58:37.753Z</time></trkpt><trkpt lat="45.6048033" lon="10.817513"><ele>273.0</ele><time>2026-03-28T12:58:38.753Z</time></trkpt><trkpt lat="45.6048001" lon="10.8176604"><ele>273.25</ele><time>2026-03-28T12:58:39.754Z</time></trkpt><trkpt lat="45.6047774" lon="10.8178061"><ele>273.5</ele><time>2026-03-28T12:58:40.753Z</time></trkpt><trkpt lat="45.6047309" lon="10.8179524"><ele>273.75</ele><time>2026-03-28T12:58:41.753Z</time></trkpt><trkpt lat="45.6046618" lon="10.8181225"><ele>274.0</ele><time>2026-03-28T12:58:42.753Z</time></trkpt><trkpt lat="45.6045841" lon="10.8183091"><ele>274.75</ele><time>2026-03-28T12:58:43.752Z</time></trkpt><trkpt lat="45.6045249" lon="10.8184957"><ele>275.5</ele><time>2026-03-28T12:58:44.752Z</time></trkpt><trkpt lat="45.6044726" lon="10.8186708"><ele>276.25</ele><time>2026-03-28T12:58:45.752Z</time></trkpt><trkpt lat="45.6044153" lon="10.8188328"><ele>277.0</ele><time>2026-03-28T12:58:46.752Z</time></trkpt><trkpt lat="45.6043563" lon="10.8189859"><ele>276.0</ele><time>2026-03-28T12:58:47.753Z</time></trkpt><trkpt lat="45.6042984" lon="10.8190956"><ele>275.0</ele><time>2026-03-28T12:58:48.752Z</time></trkpt><trkpt lat="45.6042368" lon="10.8191688"><ele>274.0</ele><time>2026-03-28T12:58:49.752Z</time></trkpt><trkpt lat="45.6041787" lon="10.8192092"><ele>273.0</ele><time>2026-03-28T12:58:50.753Z</time></trkpt><trkpt lat="45.6040516" lon="10.8191754"><ele>272.0</ele><time>2026-03-28T12:58:52.752Z</time></trkpt><trkpt lat="45.6039795" lon="10.8191294"><ele>271.0</ele><time>2026-03-28T12:58:53.752Z</time></trkpt><trkpt lat="45.6038584" lon="10.8191507"><ele>271.0</ele><time>2026-03-28T12:58:55.752Z</time></trkpt><trkpt lat="45.6037934" lon="10.8192155"><ele>271.0</ele><time>2026-03-28T12:58:56.752Z</time></trkpt><trkpt lat="45.6037192" lon="10.8193122"><ele>271.0</ele><time>2026-03-28T12:58:57.753Z</time></trkpt><trkpt lat="45.6036249" lon="10.8194382"><ele>271.0</ele><time>2026-03-28T12:58:58.752Z</time></trkpt><trkpt lat="45.6035135" lon="10.8195715"><ele>270.75</ele><time>2026-03-28T12:58:59.752Z</time></trkpt><trkpt lat="45.603408" lon="10.8196959"><ele>270.5</ele><time>2026-03-28T12:59:00.752Z</time></trkpt><trkpt lat="45.6032991" lon="10.8198244"><ele>270.25</ele><time>2026-03-28T12:59:01.753Z</time></trkpt><trkpt lat="45.6031854" lon="10.8199569"><ele>270.0</ele><time>2026-03-28T12:59:02.752Z</time></trkpt><trkpt lat="45.6030723" lon="10.8200887"><ele>270.0</ele><time>2026-03-28T12:59:03.753Z</time></trkpt><trkpt lat="45.6029526" lon="10.8202241"><ele>270.0</ele><time>2026-03-28T12:59:04.752Z</time></trkpt><trkpt lat="45.6028369" lon="10.820361"><ele>270.0</ele><time>2026-03-28T12:59:05.752Z</time></trkpt><trkpt lat="45.6027223" lon="10.8204995"><ele>270.0</ele><time>2026-03-28T12:59:06.752Z</time></trkpt><trkpt lat="45.6026094" lon="10.8206372"><ele>270.0</ele><time>2026-03-28T12:59:07.753Z</time></trkpt><trkpt lat="45.6025062" lon="10.8207661"><ele>270.0</ele><time>2026-03-28T12:59:08.753Z</time></trkpt><trkpt lat="45.6024065" lon="10.8208804"><ele>270.0</ele><time>2026-03-28T12:59:09.753Z</time></trkpt><trkpt lat="45.6023082" lon="10.8209984"><ele>269.75</ele><time>2026-03-28T12:59:10.752Z</time></trkpt><trkpt lat="45.6022056" lon="10.8211193"><ele>269.5</ele><time>2026-03-28T12:59:11.752Z</time></trkpt><trkpt lat="45.6021011" lon="10.8212411"><ele>269.25</ele><time>2026-03-28T12:59:12.752Z</time></trkpt><trkpt lat="45.6020044" lon="10.8213602"><ele>269.0</ele><time>2026-03-28T12:59:13.753Z</time></trkpt><trkpt lat="45.6019064" lon="10.821476"><ele>269.0</ele><time>2026-03-28T12:59:14.752Z</time></trkpt><trkpt lat="45.601805" lon="10.8215908"><ele>269.0</ele><time>2026-03-28T12:59:15.752Z</time></trkpt><trkpt lat="45.6017222" lon="10.8216938"><ele>269.0</ele><time>2026-03-28T12:59:16.752Z</time></trkpt><trkpt lat="45.6016541" lon="10.8217775"><ele>269.0</ele><time>2026-03-28T12:59:17.753Z</time></trkpt><trkpt lat="45.6015968" lon="10.821846"><ele>269.0</ele><time>2026-03-28T12:59:18.752Z</time></trkpt><trkpt lat="45.6015483" lon="10.8219088"><ele>270.0</ele><time>2026-03-28T12:59:19.754Z</time></trkpt><trkpt lat="45.6014938" lon="10.8220179"><ele>271.0</ele><time>2026-03-28T12:59:21.752Z</time></trkpt><trkpt lat="45.6015125" lon="10.8221478"><ele>272.0</ele><time>2026-03-28T12:59:23.753Z</time></trkpt><trkpt lat="45.6015633" lon="10.8222402"><ele>273.0</ele><time>2026-03-28T12:59:24.752Z</time></trkpt><trkpt lat="45.6016316" lon="10.822344"><ele>274.0</ele><time>2026-03-28T12:59:25.752Z</time></trkpt><trkpt lat="45.6016948" lon="10.8224503"><ele>274.0</ele><time>2026-03-28T12:59:26.752Z</time></trkpt><trkpt lat="45.6017443" lon="10.8225438"><ele>274.0</ele><time>2026-03-28T12:59:27.752Z</time></trkpt><trkpt lat="45.6017856" lon="10.8226331"><ele>274.0</ele><time>2026-03-28T12:59:28.753Z</time></trkpt><trkpt lat="45.6018315" lon="10.8227247"><ele>274.0</ele><time>2026-03-28T12:59:29.754Z</time></trkpt><trkpt lat="45.6019071" lon="10.8228719"><ele>274.0</ele><time>2026-03-28T12:59:31.752Z</time></trkpt><trkpt lat="45.6019603" lon="10.822936"><ele>274.0</ele><time>2026-03-28T12:59:32.753Z</time></trkpt><trkpt lat="45.6020718" lon="10.8229554"><ele>275.4</ele><time>2026-03-28T12:59:34.752Z</time></trkpt><trkpt lat="45.6022007" lon="10.8228902"><ele>276.79999999999995</ele><time>2026-03-28T12:59:36.752Z</time></trkpt><trkpt lat="45.6022808" lon="10.8228374"><ele>278.20000000000005</ele><time>2026-03-28T12:59:37.753Z</time></trkpt><trkpt lat="45.6023732" lon="10.8227656"><ele>279.6</ele><time>2026-03-28T12:59:38.753Z</time></trkpt><trkpt lat="45.6024549" lon="10.8227081"><ele>281.0</ele><time>2026-03-28T12:59:39.753Z</time></trkpt><trkpt lat="45.6025127" lon="10.8226665"><ele>280.5</ele><time>2026-03-28T12:59:40.752Z</time></trkpt><trkpt lat="45.6026047" lon="10.8226043"><ele>280.0</ele><time>2026-03-28T12:59:42.753Z</time></trkpt><trkpt lat="45.6026929" lon="10.8225488"><ele>279.5</ele><time>2026-03-28T12:59:44.752Z</time></trkpt><trkpt lat="45.6027546" lon="10.8225164"><ele>279.0</ele><time>2026-03-28T12:59:45.752Z</time></trkpt><trkpt lat="45.6028269" lon="10.8224812"><ele>278.5</ele><time>2026-03-28T12:59:46.752Z</time></trkpt><trkpt lat="45.6029097" lon="10.8224374"><ele>278.0</ele><time>2026-03-28T12:59:47.753Z</time></trkpt><trkpt lat="45.6029999" lon="10.8223912"><ele>278.0</ele><time>2026-03-28T12:59:48.753Z</time></trkpt><trkpt lat="45.6030916" lon="10.8223427"><ele>278.0</ele><time>2026-03-28T12:59:49.753Z</time></trkpt><trkpt lat="45.6031762" lon="10.8223017"><ele>278.0</ele><time>2026-03-28T12:59:50.752Z</time></trkpt><trkpt lat="45.603264" lon="10.8222658"><ele>278.0</ele><time>2026-03-28T12:59:51.752Z</time></trkpt><trkpt lat="45.6033588" lon="10.8222298"><ele>278.0</ele><time>2026-03-28T12:59:52.752Z</time></trkpt><trkpt lat="45.6034556" lon="10.822199"><ele>278.0</ele><time>2026-03-28T12:59:53.752Z</time></trkpt><trkpt lat="45.6035506" lon="10.8221739"><ele>278.0</ele><time>2026-03-28T12:59:54.752Z</time></trkpt><trkpt lat="45.6036322" lon="10.8221514"><ele>278.0</ele><time>2026-03-28T12:59:55.752Z</time></trkpt><trkpt lat="45.6037134" lon="10.822131"><ele>278.0</ele><time>2026-03-28T12:59:56.753Z</time></trkpt><trkpt lat="45.6037999" lon="10.8221052"><ele>278.0</ele><time>2026-03-28T12:59:57.753Z</time></trkpt><trkpt lat="45.6038932" lon="10.8220878"><ele>278.0</ele><time>2026-03-28T12:59:58.752Z</time></trkpt><trkpt lat="45.6039814" lon="10.8220845"><ele>279.0</ele><time>2026-03-28T12:59:59.753Z</time></trkpt><trkpt lat="45.6040552" lon="10.8220829"><ele>280.0</ele><time>2026-03-28T13:00:00.753Z</time></trkpt><trkpt lat="45.6041191" lon="10.8220803"><ele>281.0</ele><time>2026-03-28T13:00:01.753Z</time></trkpt><trkpt lat="45.6041822" lon="10.8220784"><ele>282.0</ele><time>2026-03-28T13:00:02.752Z</time></trkpt><trkpt lat="45.6042928" lon="10.8220319"><ele>283.0</ele><time>2026-03-28T13:00:04.752Z</time></trkpt><trkpt lat="45.6043678" lon="10.8219227"><ele>284.0</ele><time>2026-03-28T13:00:06.752Z</time></trkpt><trkpt lat="45.6044386" lon="10.8218646"><ele>286.4</ele><time>2026-03-28T13:00:08.752Z</time></trkpt><trkpt lat="45.6045334" lon="10.8218186"><ele>288.79999999999995</ele><time>2026-03-28T13:00:10.752Z</time></trkpt><trkpt lat="45.6046454" lon="10.8217757"><ele>291.20000000000005</ele><time>2026-03-28T13:00:12.753Z</time></trkpt><trkpt lat="45.6047564" lon="10.8217575"><ele>293.6</ele><time>2026-03-28T13:00:14.752Z</time></trkpt><trkpt lat="45.6048721" lon="10.8217506"><ele>296.0</ele><time>2026-03-28T13:00:16.752Z</time></trkpt><trkpt lat="45.6049372" lon="10.8217581"><ele>296.0</ele><time>2026-03-28T13:00:17.753Z</time></trkpt><trkpt lat="45.6050233" lon="10.8217739"><ele>296.0</ele><time>2026-03-28T13:00:18.753Z</time></trkpt><trkpt lat="45.6051069" lon="10.8217508"><ele>296.0</ele><time>2026-03-28T13:00:19.752Z</time></trkpt><trkpt lat="45.6051763" lon="10.821693"><ele>296.0</ele><time>2026-03-28T13:00:20.752Z</time></trkpt><trkpt lat="45.6052316" lon="10.8216162"><ele>296.0</ele><time>2026-03-28T13:00:21.753Z</time></trkpt><trkpt lat="45.6052702" lon="10.8214912"><ele>296.0</ele><time>2026-03-28T13:00:23.753Z</time></trkpt><trkpt lat="45.605328" lon="10.8214547"><ele>296.0</ele><time>2026-03-28T13:00:30.753Z</time></trkpt><trkpt lat="45.6053422" lon="10.8215565"><ele>296.0</ele><time>2026-03-28T13:00:32.752Z</time></trkpt><trkpt lat="45.6053365" lon="10.8216559"><ele>296.0</ele><time>2026-03-28T13:00:33.752Z</time></trkpt><trkpt lat="45.6053289" lon="10.8217938"><ele>296.0</ele><time>2026-03-28T13:00:34.753Z</time></trkpt><trkpt lat="45.6053263" lon="10.8219673"><ele>296.0</ele><time>2026-03-28T13:00:35.753Z</time></trkpt><trkpt lat="45.6053353" lon="10.8221535"><ele>300.33333333333337</ele><time>2026-03-28T13:00:36.752Z</time></trkpt><trkpt lat="45.605349" lon="10.822354"><ele>304.6666666666667</ele><time>2026-03-28T13:00:37.752Z</time></trkpt><trkpt lat="45.6053578" lon="10.822568"><ele>309.0</ele><time>2026-03-28T13:00:38.753Z</time></trkpt><trkpt lat="45.6053662" lon="10.8227948"><ele>309.3333333333333</ele><time>2026-03-28T13:00:39.753Z</time></trkpt><trkpt lat="45.6053799" lon="10.8230292"><ele>309.66666666666663</ele><time>2026-03-28T13:00:40.752Z</time></trkpt><trkpt lat="45.6053958" lon="10.8232717"><ele>310.0</ele><time>2026-03-28T13:00:41.752Z</time></trkpt><trkpt lat="45.6054074" lon="10.8235154"><ele>309.3333333333333</ele><time>2026-03-28T13:00:42.752Z</time></trkpt><trkpt lat="45.6054166" lon="10.8237534"><ele>308.6666666666667</ele><time>2026-03-28T13:00:43.752Z</time></trkpt><trkpt lat="45.6054236" lon="10.8239758"><ele>308.0</ele><time>2026-03-28T13:00:44.752Z</time></trkpt><trkpt lat="45.6054293" lon="10.8241877"><ele>307.75</ele><time>2026-03-28T13:00:45.753Z</time></trkpt><trkpt lat="45.6054018" lon="10.8243745"><ele>307.5</ele><time>2026-03-28T13:00:46.752Z</time></trkpt><trkpt lat="45.6053408" lon="10.8245119"><ele>307.25</ele><time>2026-03-28T13:00:47.753Z</time></trkpt><trkpt lat="45.6052534" lon="10.8246267"><ele>307.0</ele><time>2026-03-28T13:00:48.752Z</time></trkpt><trkpt lat="45.6051422" lon="10.8247336"><ele>305.25</ele><time>2026-03-28T13:00:49.752Z</time></trkpt><trkpt lat="45.605008" lon="10.8248283"><ele>303.5</ele><time>2026-03-28T13:00:50.753Z</time></trkpt><trkpt lat="45.604874" lon="10.8248691"><ele>301.75</ele><time>2026-03-28T13:00:51.753Z</time></trkpt><trkpt lat="45.6047557" lon="10.82492"><ele>300.0</ele><time>2026-03-28T13:00:52.752Z</time></trkpt><trkpt lat="45.6046539" lon="10.8250197"><ele>300.0</ele><time>2026-03-28T13:00:53.753Z</time></trkpt><trkpt lat="45.6045804" lon="10.8251984"><ele>300.0</ele><time>2026-03-28T13:00:54.752Z</time></trkpt><trkpt lat="45.6045247" lon="10.825395"><ele>300.0</ele><time>2026-03-28T13:00:55.752Z</time></trkpt><trkpt lat="45.6044685" lon="10.8256082"><ele>300.0</ele><time>2026-03-28T13:00:56.752Z</time></trkpt><trkpt lat="45.6043745" lon="10.8258014"><ele>300.0</ele><time>2026-03-28T13:00:57.752Z</time></trkpt><trkpt lat="45.6042472" lon="10.8259487"><ele>300.0</ele><time>2026-03-28T13:00:58.753Z</time></trkpt><trkpt lat="45.6041165" lon="10.8260587"><ele>300.75</ele><time>2026-03-28T13:00:59.752Z</time></trkpt><trkpt lat="45.6039914" lon="10.8261618"><ele>301.5</ele><time>2026-03-28T13:01:00.752Z</time></trkpt><trkpt lat="45.6038744" lon="10.8262554"><ele>302.25</ele><time>2026-03-28T13:01:01.752Z</time></trkpt><trkpt lat="45.6037567" lon="10.8263265"><ele>303.0</ele><time>2026-03-28T13:01:02.752Z</time></trkpt><trkpt lat="45.6036472" lon="10.8263901"><ele>303.0</ele><time>2026-03-28T13:01:03.753Z</time></trkpt><trkpt lat="45.6035442" lon="10.8264488"><ele>303.0</ele><time>2026-03-28T13:01:04.752Z</time></trkpt><trkpt lat="45.6034518" lon="10.8264985"><ele>303.0</ele><time>2026-03-28T13:01:05.752Z</time></trkpt><trkpt lat="45.6033491" lon="10.8265466"><ele>303.0</ele><time>2026-03-28T13:01:06.753Z</time></trkpt><trkpt lat="45.6032575" lon="10.8265784"><ele>303.0</ele><time>2026-03-28T13:01:07.752Z</time></trkpt><trkpt lat="45.6031812" lon="10.8265948"><ele>303.0</ele><time>2026-03-28T13:01:08.752Z</time></trkpt><trkpt lat="45.6031121" lon="10.8265988"><ele>303.0</ele><time>2026-03-28T13:01:09.753Z</time></trkpt><trkpt lat="45.6030497" lon="10.8266195"><ele>303.0</ele><time>2026-03-28T13:01:10.753Z</time></trkpt><trkpt lat="45.6030159" lon="10.8267559"><ele>303.0</ele><time>2026-03-28T13:01:12.752Z</time></trkpt><trkpt lat="45.6030683" lon="10.8268274"><ele>303.0</ele><time>2026-03-28T13:01:14.752Z</time></trkpt><trkpt lat="45.6031408" lon="10.8269184"><ele>303.0</ele><time>2026-03-28T13:01:16.753Z</time></trkpt><trkpt lat="45.6032537" lon="10.827011"><ele>305.0</ele><time>2026-03-28T13:01:18.752Z</time></trkpt><trkpt lat="45.6033229" lon="10.827042"><ele>307.0</ele><time>2026-03-28T13:01:19.752Z</time></trkpt><trkpt lat="45.6033947" lon="10.8270747"><ele>309.0</ele><time>2026-03-28T13:01:20.752Z</time></trkpt><trkpt lat="45.6034664" lon="10.827111"><ele>311.0</ele><time>2026-03-28T13:01:21.752Z</time></trkpt><trkpt lat="45.6035382" lon="10.8271506"><ele>313.0</ele><time>2026-03-28T13:01:22.752Z</time></trkpt><trkpt lat="45.6036128" lon="10.8271902"><ele>315.0</ele><time>2026-03-28T13:01:23.752Z</time></trkpt><trkpt lat="45.6036926" lon="10.8272295"><ele>315.0</ele><time>2026-03-28T13:01:24.752Z</time></trkpt><trkpt lat="45.6037787" lon="10.8272634"><ele>315.0</ele><time>2026-03-28T13:01:25.753Z</time></trkpt><trkpt lat="45.6038705" lon="10.8272712"><ele>315.0</ele><time>2026-03-28T13:01:26.753Z</time></trkpt><trkpt lat="45.6039618" lon="10.8272658"><ele>315.0</ele><time>2026-03-28T13:01:27.752Z</time></trkpt><trkpt lat="45.6040531" lon="10.8272452"><ele>315.0</ele><time>2026-03-28T13:01:28.753Z</time></trkpt><trkpt lat="45.6041383" lon="10.8272148"><ele>315.0</ele><time>2026-03-28T13:01:29.753Z</time></trkpt><trkpt lat="45.6042324" lon="10.8271722"><ele>315.0</ele><time>2026-03-28T13:01:30.753Z</time></trkpt><trkpt lat="45.6043237" lon="10.827094"><ele>315.0</ele><time>2026-03-28T13:01:31.752Z</time></trkpt><trkpt lat="45.6044047" lon="10.8269929"><ele>315.0</ele><time>2026-03-28T13:01:32.752Z</time></trkpt><trkpt lat="45.6044842" lon="10.8268921"><ele>315.0</ele><time>2026-03-28T13:01:33.754Z</time></trkpt><trkpt lat="45.6045579" lon="10.8267973"><ele>314.5</ele><time>2026-03-28T13:01:34.753Z</time></trkpt><trkpt lat="45.6046154" lon="10.8267087"><ele>314.0</ele><time>2026-03-28T13:01:35.752Z</time></trkpt><trkpt lat="45.6046651" lon="10.8266128"><ele>313.5</ele><time>2026-03-28T13:01:36.752Z</time></trkpt><trkpt lat="45.6047305" lon="10.826555"><ele>313.0</ele><time>2026-03-28T13:01:37.752Z</time></trkpt><trkpt lat="45.6048036" lon="10.8265108"><ele>312.5</ele><time>2026-03-28T13:01:38.753Z</time></trkpt><trkpt lat="45.6048914" lon="10.8264922"><ele>312.0</ele><time>2026-03-28T13:01:39.752Z</time></trkpt><trkpt lat="45.6049782" lon="10.8264832"><ele>312.0</ele><time>2026-03-28T13:01:40.753Z</time></trkpt><trkpt lat="45.6050583" lon="10.8264632"><ele>312.0</ele><time>2026-03-28T13:01:41.753Z</time></trkpt><trkpt lat="45.6051286" lon="10.8264073"><ele>312.0</ele><time>2026-03-28T13:01:42.752Z</time></trkpt><trkpt lat="45.6051885" lon="10.8262946"><ele>312.0</ele><time>2026-03-28T13:01:43.753Z</time></trkpt><trkpt lat="45.6052509" lon="10.8261856"><ele>312.0</ele><time>2026-03-28T13:01:44.753Z</time></trkpt><trkpt lat="45.6053338" lon="10.8260987"><ele>313.5</ele><time>2026-03-28T13:01:45.752Z</time></trkpt><trkpt lat="45.6054274" lon="10.8260477"><ele>315.0</ele><time>2026-03-28T13:01:46.752Z</time></trkpt><trkpt lat="45.605525" lon="10.8260287"><ele>316.5</ele><time>2026-03-28T13:01:47.753Z</time></trkpt><trkpt lat="45.6056006" lon="10.8260146"><ele>318.0</ele><time>2026-03-28T13:01:48.753Z</time></trkpt><trkpt lat="45.6056715" lon="10.8260212"><ele>319.5</ele><time>2026-03-28T13:01:49.753Z</time></trkpt><trkpt lat="45.6057427" lon="10.8260605"><ele>321.0</ele><time>2026-03-28T13:01:50.753Z</time></trkpt><trkpt lat="45.605816" lon="10.8261273"><ele>321.0</ele><time>2026-03-28T13:01:51.753Z</time></trkpt><trkpt lat="45.605901" lon="10.826194"><ele>321.0</ele><time>2026-03-28T13:01:52.752Z</time></trkpt><trkpt lat="45.6060044" lon="10.8262486"><ele>321.0</ele><time>2026-03-28T13:01:53.752Z</time></trkpt><trkpt lat="45.6061168" lon="10.8262993"><ele>321.0</ele><time>2026-03-28T13:01:54.752Z</time></trkpt><trkpt lat="45.6062372" lon="10.8263577"><ele>322.0</ele><time>2026-03-28T13:01:55.753Z</time></trkpt><trkpt lat="45.6063596" lon="10.8264225"><ele>323.0</ele><time>2026-03-28T13:01:56.752Z</time></trkpt><trkpt lat="45.6064808" lon="10.8264891"><ele>324.0</ele><time>2026-03-28T13:01:57.753Z</time></trkpt><trkpt lat="45.6065998" lon="10.8265526"><ele>325.0</ele><time>2026-03-28T13:01:58.752Z</time></trkpt><trkpt lat="45.6067171" lon="10.8266163"><ele>325.0</ele><time>2026-03-28T13:01:59.753Z</time></trkpt><trkpt lat="45.6068329" lon="10.8266816"><ele>325.0</ele><time>2026-03-28T13:02:00.754Z</time></trkpt><trkpt lat="45.6069518" lon="10.8267506"><ele>325.0</ele><time>2026-03-28T13:02:01.752Z</time></trkpt><trkpt lat="45.6070692" lon="10.8268213"><ele>325.0</ele><time>2026-03-28T13:02:02.752Z</time></trkpt><trkpt lat="45.607185" lon="10.8268877"><ele>328.0</ele><time>2026-03-28T13:02:03.752Z</time></trkpt><trkpt lat="45.6072957" lon="10.8269428"><ele>331.0</ele><time>2026-03-28T13:02:04.752Z</time></trkpt><trkpt lat="45.6074045" lon="10.8269842"><ele>334.0</ele><time>2026-03-28T13:02:05.752Z</time></trkpt><trkpt lat="45.6075163" lon="10.8270134"><ele>337.0</ele><time>2026-03-28T13:02:06.753Z</time></trkpt><trkpt lat="45.6076262" lon="10.8270279"><ele>337.0</ele><time>2026-03-28T13:02:07.752Z</time></trkpt><trkpt lat="45.6077286" lon="10.8270419"><ele>337.0</ele><time>2026-03-28T13:02:08.752Z</time></trkpt><trkpt lat="45.6078165" lon="10.8270624"><ele>337.0</ele><time>2026-03-28T13:02:09.753Z</time></trkpt><trkpt lat="45.6078981" lon="10.8270823"><ele>337.0</ele><time>2026-03-28T13:02:10.753Z</time></trkpt><trkpt lat="45.6079633" lon="10.8270983"><ele>337.0</ele><time>2026-03-28T13:02:11.752Z</time></trkpt><trkpt lat="45.6080501" lon="10.8271251"><ele>337.0</ele><time>2026-03-28T13:02:13.753Z</time></trkpt><trkpt lat="45.608135" lon="10.8271693"><ele>336.6</ele><time>2026-03-28T13:02:16.752Z</time></trkpt><trkpt lat="45.6082133" lon="10.827194"><ele>336.20000000000005</ele><time>2026-03-28T13:02:18.752Z</time></trkpt><trkpt lat="45.6083246" lon="10.8271425"><ele>335.8</ele><time>2026-03-28T13:02:20.752Z</time></trkpt><trkpt lat="45.6083912" lon="10.8270686"><ele>335.4</ele><time>2026-03-28T13:02:21.752Z</time></trkpt><trkpt lat="45.6084504" lon="10.8269608"><ele>335.0</ele><time>2026-03-28T13:02:22.753Z</time></trkpt><trkpt lat="45.608495" lon="10.8268297"><ele>333.8</ele><time>2026-03-28T13:02:23.753Z</time></trkpt><trkpt lat="45.6085245" lon="10.8266828"><ele>332.6</ele><time>2026-03-28T13:02:24.753Z</time></trkpt><trkpt lat="45.6085391" lon="10.8265234"><ele>331.4</ele><time>2026-03-28T13:02:25.753Z</time></trkpt><trkpt lat="45.6085348" lon="10.8263562"><ele>330.2</ele><time>2026-03-28T13:02:26.753Z</time></trkpt><trkpt lat="45.6085261" lon="10.8262023"><ele>329.0</ele><time>2026-03-28T13:02:27.753Z</time></trkpt><trkpt lat="45.6085238" lon="10.8260564"><ele>329.0</ele><time>2026-03-28T13:02:28.752Z</time></trkpt><trkpt lat="45.6085295" lon="10.8259173"><ele>329.0</ele><time>2026-03-28T13:02:29.752Z</time></trkpt><trkpt lat="45.6085365" lon="10.825777"><ele>329.0</ele><time>2026-03-28T13:02:30.753Z</time></trkpt><trkpt lat="45.6085478" lon="10.8256317"><ele>329.0</ele><time>2026-03-28T13:02:31.753Z</time></trkpt><trkpt lat="45.6085638" lon="10.825479"><ele>329.0</ele><time>2026-03-28T13:02:32.753Z</time></trkpt><trkpt lat="45.6085784" lon="10.8253146"><ele>328.5</ele><time>2026-03-28T13:02:33.753Z</time></trkpt><trkpt lat="45.6085967" lon="10.825144"><ele>328.0</ele><time>2026-03-28T13:02:34.753Z</time></trkpt><trkpt lat="45.6086209" lon="10.8249657"><ele>327.5</ele><time>2026-03-28T13:02:35.753Z</time></trkpt><trkpt lat="45.6086266" lon="10.8247912"><ele>327.0</ele><time>2026-03-28T13:02:36.753Z</time></trkpt><trkpt lat="45.6086107" lon="10.8246233"><ele>327.0</ele><time>2026-03-28T13:02:37.753Z</time></trkpt><trkpt lat="45.6085822" lon="10.8244644"><ele>327.0</ele><time>2026-03-28T13:02:38.753Z</time></trkpt><trkpt lat="45.6085332" lon="10.8243244"><ele>327.0</ele><time>2026-03-28T13:02:39.753Z</time></trkpt><trkpt lat="45.6084709" lon="10.8242076"><ele>327.0</ele><time>2026-03-28T13:02:40.753Z</time></trkpt><trkpt lat="45.6083999" lon="10.8240745"><ele>327.0</ele><time>2026-03-28T13:02:41.752Z</time></trkpt><trkpt lat="45.6083301" lon="10.823937"><ele>326.5</ele><time>2026-03-28T13:02:42.753Z</time></trkpt><trkpt lat="45.6082596" lon="10.8237917"><ele>326.0</ele><time>2026-03-28T13:02:43.752Z</time></trkpt><trkpt lat="45.608189" lon="10.8236388"><ele>325.5</ele><time>2026-03-28T13:02:44.752Z</time></trkpt><trkpt lat="45.6081149" lon="10.8234849"><ele>325.0</ele><time>2026-03-28T13:02:45.752Z</time></trkpt><trkpt lat="45.6080348" lon="10.8233314"><ele>324.66666666666663</ele><time>2026-03-28T13:02:46.753Z</time></trkpt><trkpt lat="45.6079474" lon="10.8231652"><ele>324.3333333333333</ele><time>2026-03-28T13:02:47.752Z</time></trkpt><trkpt lat="45.6078615" lon="10.8229816"><ele>324.0</ele><time>2026-03-28T13:02:48.753Z</time></trkpt><trkpt lat="45.6077774" lon="10.8227764"><ele>322.0</ele><time>2026-03-28T13:02:49.752Z</time></trkpt><trkpt lat="45.6076942" lon="10.8225624"><ele>320.0</ele><time>2026-03-28T13:02:50.752Z</time></trkpt><trkpt lat="45.6076113" lon="10.8223523"><ele>318.0</ele><time>2026-03-28T13:02:51.753Z</time></trkpt><trkpt lat="45.607535" lon="10.8221467"><ele>318.0</ele><time>2026-03-28T13:02:52.752Z</time></trkpt><trkpt lat="45.6074742" lon="10.8219393"><ele>318.0</ele><time>2026-03-28T13:02:53.752Z</time></trkpt><trkpt lat="45.6074262" lon="10.8217367"><ele>318.0</ele><time>2026-03-28T13:02:54.752Z</time></trkpt><trkpt lat="45.6073788" lon="10.8215446"><ele>318.0</ele><time>2026-03-28T13:02:55.754Z</time></trkpt><trkpt lat="45.6073274" lon="10.8213555"><ele>315.75</ele><time>2026-03-28T13:02:56.752Z</time></trkpt><trkpt lat="45.6072751" lon="10.8211676"><ele>313.5</ele><time>2026-03-28T13:02:57.752Z</time></trkpt><trkpt lat="45.6072222" lon="10.8209832"><ele>311.25</ele><time>2026-03-28T13:02:58.752Z</time></trkpt><trkpt lat="45.6071729" lon="10.8207947"><ele>309.0</ele><time>2026-03-28T13:02:59.752Z</time></trkpt><trkpt lat="45.6071329" lon="10.820602"><ele>307.75</ele><time>2026-03-28T13:03:00.752Z</time></trkpt><trkpt lat="45.6071135" lon="10.8204004"><ele>306.5</ele><time>2026-03-28T13:03:01.752Z</time></trkpt><trkpt lat="45.6071085" lon="10.8202025"><ele>305.25</ele><time>2026-03-28T13:03:02.752Z</time></trkpt><trkpt lat="45.6071643" lon="10.8200059"><ele>304.0</ele><time>2026-03-28T13:03:03.752Z</time></trkpt><trkpt lat="45.6072233" lon="10.819819"><ele>303.0</ele><time>2026-03-28T13:03:04.752Z</time></trkpt><trkpt lat="45.6072889" lon="10.8196443"><ele>302.0</ele><time>2026-03-28T13:03:05.752Z</time></trkpt><trkpt lat="45.6073404" lon="10.8195003"><ele>301.0</ele><time>2026-03-28T13:03:06.752Z</time></trkpt><trkpt lat="45.60738" lon="10.819389"><ele>300.0</ele><time>2026-03-28T13:03:07.753Z</time></trkpt><trkpt lat="45.6074204" lon="10.8192678"><ele>299.0</ele><time>2026-03-28T13:03:08.752Z</time></trkpt><trkpt lat="45.607461" lon="10.8191426"><ele>298.0</ele><time>2026-03-28T13:03:09.752Z</time></trkpt><trkpt lat="45.6075025" lon="10.8190009"><ele>297.0</ele><time>2026-03-28T13:03:10.752Z</time></trkpt><trkpt lat="45.6075427" lon="10.8188489"><ele>296.0</ele><time>2026-03-28T13:03:11.753Z</time></trkpt><trkpt lat="45.6075794" lon="10.8186855"><ele>295.0</ele><time>2026-03-28T13:03:12.753Z</time></trkpt><trkpt lat="45.6076143" lon="10.8185103"><ele>294.25</ele><time>2026-03-28T13:03:13.753Z</time></trkpt><trkpt lat="45.6076504" lon="10.8183285"><ele>293.5</ele><time>2026-03-28T13:03:14.753Z</time></trkpt><trkpt lat="45.6076846" lon="10.8181509"><ele>292.75</ele><time>2026-03-28T13:03:15.753Z</time></trkpt><trkpt lat="45.6077208" lon="10.8179727"><ele>292.0</ele><time>2026-03-28T13:03:16.752Z</time></trkpt><trkpt lat="45.607757" lon="10.817795"><ele>290.25</ele><time>2026-03-28T13:03:17.752Z</time></trkpt><trkpt lat="45.6077912" lon="10.8176176"><ele>288.5</ele><time>2026-03-28T13:03:18.752Z</time></trkpt><trkpt lat="45.6078271" lon="10.8174462"><ele>286.75</ele><time>2026-03-28T13:03:19.752Z</time></trkpt><trkpt lat="45.6078605" lon="10.8172956"><ele>285.0</ele><time>2026-03-28T13:03:20.753Z</time></trkpt><trkpt lat="45.6078927" lon="10.8171751"><ele>285.0</ele><time>2026-03-28T13:03:21.753Z</time></trkpt><trkpt lat="45.6079221" lon="10.817071"><ele>285.0</ele><time>2026-03-28T13:03:22.753Z</time></trkpt><trkpt lat="45.6079501" lon="10.8169799"><ele>285.0</ele><time>2026-03-28T13:03:23.753Z</time></trkpt><trkpt lat="45.6079868" lon="10.8168631"><ele>285.0</ele><time>2026-03-28T13:03:25.752Z</time></trkpt><trkpt lat="45.608028" lon="10.8167776"><ele>285.0</ele><time>2026-03-28T13:03:28.753Z</time></trkpt><trkpt lat="45.608064" lon="10.8167021"><ele>285.0</ele><time>2026-03-28T13:03:33.752Z</time></trkpt><trkpt lat="45.60814" lon="10.8165737"><ele>284.8333333333333</ele><time>2026-03-28T13:03:42.753Z</time></trkpt><trkpt lat="45.6081848" lon="10.8164991"><ele>284.6666666666667</ele><time>2026-03-28T13:03:43.753Z</time></trkpt><trkpt lat="45.6082328" lon="10.8164086"><ele>284.5</ele><time>2026-03-28T13:03:44.753Z</time></trkpt><trkpt lat="45.6082738" lon="10.8163013"><ele>284.33333333333337</ele><time>2026-03-28T13:03:45.752Z</time></trkpt><trkpt lat="45.6083174" lon="10.8161873"><ele>284.1666666666667</ele><time>2026-03-28T13:03:46.752Z</time></trkpt><trkpt lat="45.6083667" lon="10.816067"><ele>284.0</ele><time>2026-03-28T13:03:47.752Z</time></trkpt><trkpt lat="45.6084184" lon="10.8159346"><ele>284.0</ele><time>2026-03-28T13:03:48.752Z</time></trkpt><trkpt lat="45.6084702" lon="10.8158007"><ele>284.0</ele><time>2026-03-28T13:03:49.752Z</time></trkpt><trkpt lat="45.6085239" lon="10.8156785"><ele>284.0</ele><time>2026-03-28T13:03:50.753Z</time></trkpt><trkpt lat="45.6086088" lon="10.8155656"><ele>284.0</ele><time>2026-03-28T13:03:51.753Z</time></trkpt><trkpt lat="45.6087063" lon="10.8154542"><ele>284.0</ele><time>2026-03-28T13:03:52.753Z</time></trkpt><trkpt lat="45.608775" lon="10.815303"><ele>283.5</ele><time>2026-03-28T13:03:53.752Z</time></trkpt><trkpt lat="45.6088212" lon="10.8151287"><ele>283.0</ele><time>2026-03-28T13:03:54.753Z</time></trkpt><trkpt lat="45.608851" lon="10.8149283"><ele>282.5</ele><time>2026-03-28T13:03:55.752Z</time></trkpt><trkpt lat="45.6088712" lon="10.8147155"><ele>282.0</ele><time>2026-03-28T13:03:56.752Z</time></trkpt><trkpt lat="45.6088953" lon="10.8144884"><ele>281.6666666666667</ele><time>2026-03-28T13:03:57.752Z</time></trkpt><trkpt lat="45.6089279" lon="10.8142503"><ele>281.33333333333337</ele><time>2026-03-28T13:03:58.752Z</time></trkpt><trkpt lat="45.6089688" lon="10.8139762"><ele>281.0</ele><time>2026-03-28T13:03:59.753Z</time></trkpt><trkpt lat="45.6090164" lon="10.8136823"><ele>280.6666666666667</ele><time>2026-03-28T13:04:00.753Z</time></trkpt><trkpt lat="45.6090702" lon="10.8133893"><ele>280.3333333333333</ele><time>2026-03-28T13:04:01.752Z</time></trkpt><trkpt lat="45.6091245" lon="10.8131381"><ele>280.0</ele><time>2026-03-28T13:04:02.752Z</time></trkpt><trkpt lat="45.6091671" lon="10.8129059"><ele>280.0</ele><time>2026-03-28T13:04:03.752Z</time></trkpt><trkpt lat="45.6091884" lon="10.8126926"><ele>280.0</ele><time>2026-03-28T13:04:04.753Z</time></trkpt><trkpt lat="45.6091976" lon="10.8124929"><ele>280.0</ele><time>2026-03-28T13:04:05.753Z</time></trkpt><trkpt lat="45.6092037" lon="10.8123081"><ele>280.0</ele><time>2026-03-28T13:04:06.752Z</time></trkpt><trkpt lat="45.609222" lon="10.8121375"><ele>280.8</ele><time>2026-03-28T13:04:07.752Z</time></trkpt><trkpt lat="45.6092624" lon="10.8119796"><ele>281.6</ele><time>2026-03-28T13:04:08.752Z</time></trkpt><trkpt lat="45.609328" lon="10.8118482"><ele>282.4</ele><time>2026-03-28T13:04:09.753Z</time></trkpt><trkpt lat="45.6094078" lon="10.8117516"><ele>283.2</ele><time>2026-03-28T13:04:10.753Z</time></trkpt><trkpt lat="45.6095059" lon="10.8116747"><ele>284.0</ele><time>2026-03-28T13:04:11.753Z</time></trkpt><trkpt lat="45.6096043" lon="10.8115997"><ele>284.8</ele><time>2026-03-28T13:04:12.752Z</time></trkpt><trkpt lat="45.6096967" lon="10.8115128"><ele>285.59999999999997</ele><time>2026-03-28T13:04:13.753Z</time></trkpt><trkpt lat="45.6097745" lon="10.8114274"><ele>286.4</ele><time>2026-03-28T13:04:14.753Z</time></trkpt><trkpt lat="45.6098439" lon="10.8113449"><ele>287.2</ele><time>2026-03-28T13:04:15.753Z</time></trkpt><trkpt lat="45.6099036" lon="10.8112676"><ele>288.0</ele><time>2026-03-28T13:04:16.753Z</time></trkpt><trkpt lat="45.6099591" lon="10.8112059"><ele>288.0</ele><time>2026-03-28T13:04:17.752Z</time></trkpt><trkpt lat="45.6100753" lon="10.8112074"><ele>288.0</ele><time>2026-03-28T13:04:19.752Z</time></trkpt><trkpt lat="45.6101588" lon="10.8112437"><ele>288.0</ele><time>2026-03-28T13:04:21.752Z</time></trkpt><trkpt lat="45.610282" lon="10.811284"><ele>288.0</ele><time>2026-03-28T13:04:23.753Z</time></trkpt><trkpt lat="45.6103761" lon="10.8113088"><ele>288.0</ele><time>2026-03-28T13:04:24.753Z</time></trkpt><trkpt lat="45.6104822" lon="10.8113323"><ele>289.0</ele><time>2026-03-28T13:04:25.753Z</time></trkpt><trkpt lat="45.6105946" lon="10.811356"><ele>290.0</ele><time>2026-03-28T13:04:26.753Z</time></trkpt><trkpt lat="45.610716" lon="10.8113826"><ele>291.0</ele><time>2026-03-28T13:04:27.753Z</time></trkpt><trkpt lat="45.6108502" lon="10.8114117"><ele>292.0</ele><time>2026-03-28T13:04:28.752Z</time></trkpt><trkpt lat="45.6109831" lon="10.8114362"><ele>292.0</ele><time>2026-03-28T13:04:29.753Z</time></trkpt><trkpt lat="45.6110948" lon="10.8114555"><ele>292.0</ele><time>2026-03-28T13:04:30.753Z</time></trkpt><trkpt lat="45.611182" lon="10.8114777"><ele>292.0</ele><time>2026-03-28T13:04:31.752Z</time></trkpt><trkpt lat="45.6112445" lon="10.8115043"><ele>292.0</ele><time>2026-03-28T13:04:32.752Z</time></trkpt><trkpt lat="45.6113325" lon="10.8115341"><ele>292.0</ele><time>2026-03-28T13:04:34.753Z</time></trkpt><trkpt lat="45.611408" lon="10.8114778"><ele>292.0</ele><time>2026-03-28T13:04:36.752Z</time></trkpt><trkpt lat="45.6113923" lon="10.8112886"><ele>294.6</ele><time>2026-03-28T13:04:38.753Z</time></trkpt><trkpt lat="45.6113419" lon="10.8111636"><ele>297.2</ele><time>2026-03-28T13:04:39.753Z</time></trkpt><trkpt lat="45.6113089" lon="10.8110294"><ele>299.8</ele><time>2026-03-28T13:04:40.753Z</time></trkpt><trkpt lat="45.6112879" lon="10.8108715"><ele>302.4</ele><time>2026-03-28T13:04:41.752Z</time></trkpt><trkpt lat="45.611268" lon="10.8107243"><ele>305.0</ele><time>2026-03-28T13:04:42.752Z</time></trkpt><trkpt lat="45.6112437" lon="10.810584"><ele>307.4</ele><time>2026-03-28T13:04:43.753Z</time></trkpt><trkpt lat="45.6112382" lon="10.8104497"><ele>309.8</ele><time>2026-03-28T13:04:44.753Z</time></trkpt><trkpt lat="45.6112489" lon="10.810321"><ele>312.2</ele><time>2026-03-28T13:04:45.753Z</time></trkpt><trkpt lat="45.6112561" lon="10.8101918"><ele>314.6</ele><time>2026-03-28T13:04:46.752Z</time></trkpt><trkpt lat="45.6112645" lon="10.8100439"><ele>317.0</ele><time>2026-03-28T13:04:47.752Z</time></trkpt><trkpt lat="45.6112788" lon="10.8098838"><ele>319.0</ele><time>2026-03-28T13:04:48.753Z</time></trkpt><trkpt lat="45.6113022" lon="10.8097109"><ele>321.0</ele><time>2026-03-28T13:04:49.753Z</time></trkpt><trkpt lat="45.6113318" lon="10.809536"><ele>323.0</ele><time>2026-03-28T13:04:50.753Z</time></trkpt><trkpt lat="45.6113742" lon="10.8093587"><ele>325.0</ele><time>2026-03-28T13:04:51.752Z</time></trkpt><trkpt lat="45.6114214" lon="10.8091914"><ele>325.0</ele><time>2026-03-28T13:04:52.753Z</time></trkpt><trkpt lat="45.6114669" lon="10.809037"><ele>325.0</ele><time>2026-03-28T13:04:53.752Z</time></trkpt><trkpt lat="45.6115087" lon="10.80889"><ele>325.0</ele><time>2026-03-28T13:04:54.752Z</time></trkpt><trkpt lat="45.61154" lon="10.8087577"><ele>325.0</ele><time>2026-03-28T13:04:55.753Z</time></trkpt><trkpt lat="45.6115625" lon="10.8086354"><ele>325.0</ele><time>2026-03-28T13:04:56.752Z</time></trkpt><trkpt lat="45.6115792" lon="10.8085077"><ele>323.6</ele><time>2026-03-28T13:04:57.752Z</time></trkpt><trkpt lat="45.6115986" lon="10.8083467"><ele>322.2</ele><time>2026-03-28T13:04:58.752Z</time></trkpt><trkpt lat="45.6116211" lon="10.8081987"><ele>320.8</ele><time>2026-03-28T13:04:59.753Z</time></trkpt><trkpt lat="45.6116611" lon="10.8080771"><ele>319.4</ele><time>2026-03-28T13:05:00.752Z</time></trkpt><trkpt lat="45.6117082" lon="10.808015"><ele>318.0</ele><time>2026-03-28T13:05:01.752Z</time></trkpt><trkpt lat="45.6117772" lon="10.8079488"><ele>318.0</ele><time>2026-03-28T13:05:04.754Z</time></trkpt><trkpt lat="45.6118342" lon="10.8078709"><ele>318.0</ele><time>2026-03-28T13:05:06.753Z</time></trkpt><trkpt lat="45.6118698" lon="10.8077868"><ele>318.0</ele><time>2026-03-28T13:05:07.752Z</time></trkpt><trkpt lat="45.6119092" lon="10.8077021"><ele>318.0</ele><time>2026-03-28T13:05:08.752Z</time></trkpt><trkpt lat="45.6119633" lon="10.8076469"><ele>318.0</ele><time>2026-03-28T13:05:09.752Z</time></trkpt><trkpt lat="45.6120474" lon="10.8076107"><ele>318.0</ele><time>2026-03-28T13:05:10.752Z</time></trkpt><trkpt lat="45.612149" lon="10.8075856"><ele>318.25</ele><time>2026-03-28T13:05:11.752Z</time></trkpt><trkpt lat="45.6122658" lon="10.8075689"><ele>318.5</ele><time>2026-03-28T13:05:12.753Z</time></trkpt><trkpt lat="45.6123968" lon="10.8075475"><ele>318.75</ele><time>2026-03-28T13:05:13.752Z</time></trkpt><trkpt lat="45.6125325" lon="10.8075285"><ele>319.0</ele><time>2026-03-28T13:05:14.752Z</time></trkpt><trkpt lat="45.6126695" lon="10.8075163"><ele>319.0</ele><time>2026-03-28T13:05:15.753Z</time></trkpt><trkpt lat="45.6128093" lon="10.8075074"><ele>319.0</ele><time>2026-03-28T13:05:16.752Z</time></trkpt><trkpt lat="45.6129479" lon="10.8074859"><ele>319.0</ele><time>2026-03-28T13:05:17.753Z</time></trkpt><trkpt lat="45.6130762" lon="10.8074576"><ele>319.0</ele><time>2026-03-28T13:05:18.753Z</time></trkpt><trkpt lat="45.6131917" lon="10.8074353"><ele>321.0</ele><time>2026-03-28T13:05:19.753Z</time></trkpt><trkpt lat="45.6132995" lon="10.8074186"><ele>323.0</ele><time>2026-03-28T13:05:20.752Z</time></trkpt><trkpt lat="45.613412" lon="10.8074119"><ele>325.0</ele><time>2026-03-28T13:05:21.752Z</time></trkpt><trkpt lat="45.6135286" lon="10.8074331"><ele>327.0</ele><time>2026-03-28T13:05:22.753Z</time></trkpt><trkpt lat="45.6136393" lon="10.8074835"><ele>327.6</ele><time>2026-03-28T13:05:23.752Z</time></trkpt><trkpt lat="45.6137388" lon="10.8075454"><ele>328.20000000000005</ele><time>2026-03-28T13:05:24.753Z</time></trkpt><trkpt lat="45.6138192" lon="10.8075947"><ele>328.8</ele><time>2026-03-28T13:05:25.753Z</time></trkpt><trkpt lat="45.6138858" lon="10.8076368"><ele>329.4</ele><time>2026-03-28T13:05:26.752Z</time></trkpt><trkpt lat="45.613989" lon="10.8076816"><ele>330.0</ele><time>2026-03-28T13:05:28.752Z</time></trkpt><trkpt lat="45.6140947" lon="10.8076236"><ele>330.0</ele><time>2026-03-28T13:05:30.753Z</time></trkpt><trkpt lat="45.6141604" lon="10.8075438"><ele>330.0</ele><time>2026-03-28T13:05:31.752Z</time></trkpt><trkpt lat="45.6142284" lon="10.8074546"><ele>330.0</ele><time>2026-03-28T13:05:32.752Z</time></trkpt><trkpt lat="45.6142914" lon="10.8073844"><ele>330.0</ele><time>2026-03-28T13:05:33.752Z</time></trkpt><trkpt lat="45.6143644" lon="10.8073305"><ele>330.0</ele><time>2026-03-28T13:05:34.753Z</time></trkpt><trkpt lat="45.6144412" lon="10.8073164"><ele>330.0</ele><time>2026-03-28T13:05:35.752Z</time></trkpt><trkpt lat="45.6145243" lon="10.8073332"><ele>333.0</ele><time>2026-03-28T13:05:36.753Z</time></trkpt><trkpt lat="45.6146219" lon="10.8073633"><ele>336.0</ele><time>2026-03-28T13:05:37.754Z</time></trkpt><trkpt lat="45.6147247" lon="10.8074081"><ele>339.0</ele><time>2026-03-28T13:05:38.752Z</time></trkpt><trkpt lat="45.6148362" lon="10.8074495"><ele>342.0</ele><time>2026-03-28T13:05:39.752Z</time></trkpt><trkpt lat="45.6149717" lon="10.8074994"><ele>342.0</ele><time>2026-03-28T13:05:40.752Z</time></trkpt><trkpt lat="45.6150958" lon="10.8075666"><ele>342.0</ele><time>2026-03-28T13:05:41.752Z</time></trkpt><trkpt lat="45.6151928" lon="10.8076582"><ele>342.0</ele><time>2026-03-28T13:05:42.753Z</time></trkpt><trkpt lat="45.6152741" lon="10.8077297"><ele>342.0</ele><time>2026-03-28T13:05:43.752Z</time></trkpt><trkpt lat="45.6153615" lon="10.807817"><ele>344.5</ele><time>2026-03-28T13:05:44.753Z</time></trkpt><trkpt lat="45.6154639" lon="10.8078843"><ele>347.0</ele><time>2026-03-28T13:05:45.753Z</time></trkpt><trkpt lat="45.6155929" lon="10.8079412"><ele>349.5</ele><time>2026-03-28T13:05:46.753Z</time></trkpt><trkpt lat="45.6157545" lon="10.8079828"><ele>352.0</ele><time>2026-03-28T13:05:47.752Z</time></trkpt><trkpt lat="45.615931" lon="10.8080234"><ele>352.0</ele><time>2026-03-28T13:05:48.753Z</time></trkpt><trkpt lat="45.6160922" lon="10.8080763"><ele>352.0</ele><time>2026-03-28T13:05:49.752Z</time></trkpt><trkpt lat="45.6162349" lon="10.8081674"><ele>352.0</ele><time>2026-03-28T13:05:50.752Z</time></trkpt><trkpt lat="45.6163718" lon="10.8082745"><ele>355.66666666666663</ele><time>2026-03-28T13:05:51.753Z</time></trkpt><trkpt lat="45.6165091" lon="10.80839"><ele>359.3333333333333</ele><time>2026-03-28T13:05:52.752Z</time></trkpt><trkpt lat="45.6166396" lon="10.8085114"><ele>363.0</ele><time>2026-03-28T13:05:53.752Z</time></trkpt><trkpt lat="45.6167591" lon="10.8086472"><ele>364.75</ele><time>2026-03-28T13:05:54.753Z</time></trkpt><trkpt lat="45.6168676" lon="10.8087787"><ele>366.5</ele><time>2026-03-28T13:05:55.752Z</time></trkpt><trkpt lat="45.616965" lon="10.8088886"><ele>368.25</ele><time>2026-03-28T13:05:56.752Z</time></trkpt><trkpt lat="45.617052" lon="10.8089764"><ele>370.0</ele><time>2026-03-28T13:05:57.753Z</time></trkpt><trkpt lat="45.6171427" lon="10.809043"><ele>370.6</ele><time>2026-03-28T13:05:58.752Z</time></trkpt><trkpt lat="45.6172334" lon="10.8090911"><ele>371.2</ele><time>2026-03-28T13:05:59.752Z</time></trkpt><trkpt lat="45.6173257" lon="10.8091338"><ele>371.79999999999995</ele><time>2026-03-28T13:06:00.753Z</time></trkpt><trkpt lat="45.6174188" lon="10.8091852"><ele>372.4</ele><time>2026-03-28T13:06:01.752Z</time></trkpt><trkpt lat="45.6175106" lon="10.8092568"><ele>373.0</ele><time>2026-03-28T13:06:02.752Z</time></trkpt><trkpt lat="45.6175994" lon="10.8093479"><ele>373.59999999999997</ele><time>2026-03-28T13:06:03.753Z</time></trkpt><trkpt lat="45.6176909" lon="10.8094433"><ele>374.2</ele><time>2026-03-28T13:06:04.753Z</time></trkpt><trkpt lat="45.6177893" lon="10.8095314"><ele>374.8</ele><time>2026-03-28T13:06:05.752Z</time></trkpt><trkpt lat="45.6178844" lon="10.8096069"><ele>375.4</ele><time>2026-03-28T13:06:06.752Z</time></trkpt><trkpt lat="45.6179655" lon="10.8096741"><ele>376.0</ele><time>2026-03-28T13:06:07.753Z</time></trkpt><trkpt lat="45.6180456" lon="10.8097494"><ele>377.20000000000005</ele><time>2026-03-28T13:06:08.752Z</time></trkpt><trkpt lat="45.6181238" lon="10.8098424"><ele>378.40000000000003</ele><time>2026-03-28T13:06:09.752Z</time></trkpt><trkpt lat="45.6181915" lon="10.8099625"><ele>379.6</ele><time>2026-03-28T13:06:10.752Z</time></trkpt><trkpt lat="45.6182475" lon="10.8101008"><ele>380.8</ele><time>2026-03-28T13:06:11.752Z</time></trkpt><trkpt lat="45.618308" lon="10.8102383"><ele>382.0</ele><time>2026-03-28T13:06:12.752Z</time></trkpt><trkpt lat="45.6183874" lon="10.8103677"><ele>382.0</ele><time>2026-03-28T13:06:13.753Z</time></trkpt><trkpt lat="45.6184917" lon="10.8104761"><ele>382.0</ele><time>2026-03-28T13:06:14.753Z</time></trkpt><trkpt lat="45.6186282" lon="10.8105736"><ele>382.0</ele><time>2026-03-28T13:06:15.753Z</time></trkpt><trkpt lat="45.6187704" lon="10.8106946"><ele>382.0</ele><time>2026-03-28T13:06:16.753Z</time></trkpt><trkpt lat="45.6189307" lon="10.8108547"><ele>386.3333333333333</ele><time>2026-03-28T13:06:17.753Z</time></trkpt><trkpt lat="45.619091" lon="10.8110415"><ele>390.66666666666663</ele><time>2026-03-28T13:06:18.753Z</time></trkpt><trkpt lat="45.6192338" lon="10.8112144"><ele>395.0</ele><time>2026-03-28T13:06:19.753Z</time></trkpt><trkpt lat="45.6193619" lon="10.8113759"><ele>395.0</ele><time>2026-03-28T13:06:20.753Z</time></trkpt><trkpt lat="45.6194565" lon="10.811554"><ele>395.0</ele><time>2026-03-28T13:06:21.752Z</time></trkpt><trkpt lat="45.6195529" lon="10.8117351"><ele>395.0</ele><time>2026-03-28T13:06:22.754Z</time></trkpt><trkpt lat="45.6196162" lon="10.8119227"><ele>400.66666666666663</ele><time>2026-03-28T13:06:23.753Z</time></trkpt><trkpt lat="45.619724" lon="10.8121127"><ele>406.33333333333337</ele><time>2026-03-28T13:06:24.752Z</time></trkpt><trkpt lat="45.6198507" lon="10.8123126"><ele>412.0</ele><time>2026-03-28T13:06:25.753Z</time></trkpt><trkpt lat="45.619998" lon="10.8125337"><ele>415.33333333333337</ele><time>2026-03-28T13:06:26.753Z</time></trkpt><trkpt lat="45.6201498" lon="10.8127732"><ele>418.66666666666663</ele><time>2026-03-28T13:06:27.753Z</time></trkpt><trkpt lat="45.6202638" lon="10.8130129"><ele>422.0</ele><time>2026-03-28T13:06:28.752Z</time></trkpt><trkpt lat="45.6203604" lon="10.8132372"><ele>423.0</ele><time>2026-03-28T13:06:29.752Z</time></trkpt><trkpt lat="45.6204605" lon="10.8134155"><ele>424.0</ele><time>2026-03-28T13:06:30.752Z</time></trkpt><trkpt lat="45.620568" lon="10.8135533"><ele>425.0</ele><time>2026-03-28T13:06:31.752Z</time></trkpt><trkpt lat="45.6206952" lon="10.8136691"><ele>426.0</ele><time>2026-03-28T13:06:32.753Z</time></trkpt><trkpt lat="45.6208298" lon="10.8137482"><ele>427.0</ele><time>2026-03-28T13:06:33.753Z</time></trkpt><trkpt lat="45.6209925" lon="10.8137955"><ele>428.0</ele><time>2026-03-28T13:06:34.752Z</time></trkpt><trkpt lat="45.6211619" lon="10.8138521"><ele>430.0</ele><time>2026-03-28T13:06:35.754Z</time></trkpt><trkpt lat="45.6213026" lon="10.8139314"><ele>432.0</ele><time>2026-03-28T13:06:36.753Z</time></trkpt><trkpt lat="45.6213966" lon="10.8140209"><ele>434.0</ele><time>2026-03-28T13:06:37.753Z</time></trkpt><trkpt lat="45.6214387" lon="10.814136"><ele>436.0</ele><time>2026-03-28T13:06:38.752Z</time></trkpt><trkpt lat="45.6214438" lon="10.8142837"><ele>436.0</ele><time>2026-03-28T13:06:39.752Z</time></trkpt><trkpt lat="45.6214313" lon="10.8144829"><ele>436.0</ele><time>2026-03-28T13:06:40.753Z</time></trkpt><trkpt lat="45.621425" lon="10.8147225"><ele>436.0</ele><time>2026-03-28T13:06:41.753Z</time></trkpt><trkpt lat="45.6214499" lon="10.8149605"><ele>437.6666666666667</ele><time>2026-03-28T13:06:42.752Z</time></trkpt><trkpt lat="45.6215059" lon="10.815213"><ele>439.33333333333337</ele><time>2026-03-28T13:06:43.752Z</time></trkpt><trkpt lat="45.6215529" lon="10.8154399"><ele>441.0</ele><time>2026-03-28T13:06:44.753Z</time></trkpt><trkpt lat="45.6215963" lon="10.8156492"><ele>441.0</ele><time>2026-03-28T13:06:45.753Z</time></trkpt><trkpt lat="45.621647" lon="10.8158331"><ele>441.0</ele><time>2026-03-28T13:06:46.753Z</time></trkpt><trkpt lat="45.6216976" lon="10.815995"><ele>441.0</ele><time>2026-03-28T13:06:47.753Z</time></trkpt><trkpt lat="45.6217487" lon="10.8161417"><ele>441.0</ele><time>2026-03-28T13:06:48.753Z</time></trkpt><trkpt lat="45.6218019" lon="10.8162759"><ele>442.4</ele><time>2026-03-28T13:06:49.752Z</time></trkpt><trkpt lat="45.621861" lon="10.8164064"><ele>443.8</ele><time>2026-03-28T13:06:50.752Z</time></trkpt><trkpt lat="45.6219254" lon="10.8165242"><ele>445.19999999999993</ele><time>2026-03-28T13:06:51.752Z</time></trkpt><trkpt lat="45.6219957" lon="10.8166344"><ele>446.59999999999997</ele><time>2026-03-28T13:06:52.752Z</time></trkpt><trkpt lat="45.6220631" lon="10.8167308"><ele>448.0</ele><time>2026-03-28T13:06:53.753Z</time></trkpt><trkpt lat="45.6221502" lon="10.8167822"><ele>447.83333333333337</ele><time>2026-03-28T13:06:54.752Z</time></trkpt><trkpt lat="45.6222333" lon="10.8168419"><ele>447.6666666666667</ele><time>2026-03-28T13:06:55.752Z</time></trkpt><trkpt lat="45.622308" lon="10.8168999"><ele>447.5</ele><time>2026-03-28T13:06:56.752Z</time></trkpt><trkpt lat="45.6223719" lon="10.8169552"><ele>447.33333333333337</ele><time>2026-03-28T13:06:57.752Z</time></trkpt><trkpt lat="45.6224568" lon="10.8169596"><ele>447.1666666666667</ele><time>2026-03-28T13:06:59.753Z</time></trkpt><trkpt lat="45.6224852" lon="10.8168095"><ele>447.0</ele><time>2026-03-28T13:07:01.753Z</time></trkpt><trkpt lat="45.6225089" lon="10.816687"><ele>448.25</ele><time>2026-03-28T13:07:02.752Z</time></trkpt><trkpt lat="45.6225286" lon="10.8165225"><ele>449.5</ele><time>2026-03-28T13:07:03.752Z</time></trkpt><trkpt lat="45.6225412" lon="10.8163525"><ele>450.75</ele><time>2026-03-28T13:07:04.752Z</time></trkpt><trkpt lat="45.6225311" lon="10.8161854"><ele>452.0</ele><time>2026-03-28T13:07:05.752Z</time></trkpt><trkpt lat="45.6225188" lon="10.8160156"><ele>451.75</ele><time>2026-03-28T13:07:06.752Z</time></trkpt><trkpt lat="45.6225025" lon="10.815854"><ele>451.5</ele><time>2026-03-28T13:07:07.752Z</time></trkpt><trkpt lat="45.6224617" lon="10.8157098"><ele>451.25</ele><time>2026-03-28T13:07:08.752Z</time></trkpt><trkpt lat="45.6224146" lon="10.8155559"><ele>451.0</ele><time>2026-03-28T13:07:09.752Z</time></trkpt><trkpt lat="45.6223781" lon="10.8153978"><ele>451.0</ele><time>2026-03-28T13:07:10.752Z</time></trkpt><trkpt lat="45.6223704" lon="10.8152491"><ele>451.0</ele><time>2026-03-28T13:07:11.752Z</time></trkpt><trkpt lat="45.6223799" lon="10.8151208"><ele>451.0</ele><time>2026-03-28T13:07:12.752Z</time></trkpt><trkpt lat="45.6223785" lon="10.8149975"><ele>451.0</ele><time>2026-03-28T13:07:13.752Z</time></trkpt><trkpt lat="45.6223658" lon="10.814867"><ele>451.0</ele><time>2026-03-28T13:07:14.752Z</time></trkpt><trkpt lat="45.6223666" lon="10.8147284"><ele>451.50000000000006</ele><time>2026-03-28T13:07:15.753Z</time></trkpt><trkpt lat="45.6223696" lon="10.8146022"><ele>452.0</ele><time>2026-03-28T13:07:16.753Z</time></trkpt><trkpt lat="45.6223712" lon="10.8144864"><ele>452.5</ele><time>2026-03-28T13:07:17.752Z</time></trkpt><trkpt lat="45.6223749" lon="10.8143801"><ele>453.0</ele><time>2026-03-28T13:07:18.752Z</time></trkpt><trkpt lat="45.6223832" lon="10.8142806"><ele>453.50000000000006</ele><time>2026-03-28T13:07:19.752Z</time></trkpt><trkpt lat="45.6224358" lon="10.8141252"><ele>454.0</ele><time>2026-03-28T13:07:21.752Z</time></trkpt><trkpt lat="45.62248" lon="10.8140592"><ele>454.1666666666667</ele><time>2026-03-28T13:07:22.753Z</time></trkpt><trkpt lat="45.6225149" lon="10.8139775"><ele>454.33333333333337</ele><time>2026-03-28T13:07:23.753Z</time></trkpt><trkpt lat="45.6225426" lon="10.8138907"><ele>454.5</ele><time>2026-03-28T13:07:24.753Z</time></trkpt><trkpt lat="45.6225238" lon="10.8137876"><ele>454.66666666666663</ele><time>2026-03-28T13:07:26.753Z</time></trkpt><trkpt lat="45.6224755" lon="10.8136736"><ele>454.8333333333333</ele><time>2026-03-28T13:07:28.753Z</time></trkpt><trkpt lat="45.6224078" lon="10.8136527"><ele>455.0</ele><time>2026-03-28T13:07:29.752Z</time></trkpt><trkpt lat="45.6223232" lon="10.8135318"><ele>456.2</ele><time>2026-03-28T13:07:31.753Z</time></trkpt><trkpt lat="45.6223045" lon="10.8133919"><ele>457.4</ele><time>2026-03-28T13:07:33.752Z</time></trkpt><trkpt lat="45.6223031" lon="10.8132482"><ele>458.6</ele><time>2026-03-28T13:07:35.752Z</time></trkpt><trkpt lat="45.6223034" lon="10.8130853"><ele>459.8</ele><time>2026-03-28T13:07:37.753Z</time></trkpt><trkpt lat="45.622344" lon="10.8129753"><ele>461.0</ele><time>2026-03-28T13:07:39.752Z</time></trkpt><trkpt lat="45.622437" lon="10.8128584"><ele>461.0</ele><time>2026-03-28T13:07:41.753Z</time></trkpt><trkpt lat="45.6224863" lon="10.8127129"><ele>461.0</ele><time>2026-03-28T13:07:43.752Z</time></trkpt><trkpt lat="45.6224042" lon="10.8125337"><ele>461.0</ele><time>2026-03-28T13:07:45.753Z</time></trkpt><trkpt lat="45.6223688" lon="10.8124292"><ele>461.0</ele><time>2026-03-28T13:07:46.753Z</time></trkpt><trkpt lat="45.6223339" lon="10.8123025"><ele>461.0</ele><time>2026-03-28T13:07:47.753Z</time></trkpt><trkpt lat="45.6222995" lon="10.812176"><ele>462.8333333333333</ele><time>2026-03-28T13:07:48.753Z</time></trkpt><trkpt lat="45.6222713" lon="10.8120468"><ele>464.66666666666663</ele><time>2026-03-28T13:07:49.753Z</time></trkpt><trkpt lat="45.6222445" lon="10.8119081"><ele>466.5</ele><time>2026-03-28T13:07:50.753Z</time></trkpt><trkpt lat="45.6222151" lon="10.8117879"><ele>468.33333333333337</ele><time>2026-03-28T13:07:51.753Z</time></trkpt><trkpt lat="45.6221877" lon="10.8116727"><ele>470.1666666666667</ele><time>2026-03-28T13:07:52.753Z</time></trkpt><trkpt lat="45.6221611" lon="10.8115736"><ele>472.0</ele><time>2026-03-28T13:07:53.753Z</time></trkpt><trkpt lat="45.6221367" lon="10.8114858"><ele>472.83333333333337</ele><time>2026-03-28T13:07:54.753Z</time></trkpt><trkpt lat="45.622094" lon="10.8113546"><ele>473.6666666666667</ele><time>2026-03-28T13:07:56.753Z</time></trkpt><trkpt lat="45.6220546" lon="10.8112635"><ele>474.5</ele><time>2026-03-28T13:07:58.752Z</time></trkpt><trkpt lat="45.622097" lon="10.8113864"><ele>475.33333333333337</ele><time>2026-03-28T13:08:39.753Z</time></trkpt><trkpt lat="45.6221419" lon="10.8114741"><ele>476.1666666666667</ele><time>2026-03-28T13:08:41.752Z</time></trkpt><trkpt lat="45.6221485" lon="10.8115717"><ele>477.0</ele><time>2026-03-28T13:08:42.753Z</time></trkpt><trkpt lat="45.6221718" lon="10.8116758"><ele>477.0</ele><time>2026-03-28T13:08:43.753Z</time></trkpt><trkpt lat="45.6221955" lon="10.8117806"><ele>477.0</ele><time>2026-03-28T13:08:44.752Z</time></trkpt><trkpt lat="45.6222207" lon="10.8118993"><ele>477.0</ele><time>2026-03-28T13:08:45.752Z</time></trkpt><trkpt lat="45.6222445" lon="10.8120093"><ele>477.0</ele><time>2026-03-28T13:08:46.752Z</time></trkpt><trkpt lat="45.6222659" lon="10.8121077"><ele>477.0</ele><time>2026-03-28T13:08:47.752Z</time></trkpt><trkpt lat="45.6222881" lon="10.8121957"><ele>477.0</ele><time>2026-03-28T13:08:48.753Z</time></trkpt><trkpt lat="45.6223171" lon="10.8122871"><ele>476.0</ele><time>2026-03-28T13:08:49.753Z</time></trkpt><trkpt lat="45.6223444" lon="10.8123714"><ele>475.00000000000006</ele><time>2026-03-28T13:08:50.752Z</time></trkpt><trkpt lat="45.6224072" lon="10.8125351"><ele>474.00000000000006</ele><time>2026-03-28T13:08:52.753Z</time></trkpt><trkpt lat="45.6224579" lon="10.8126882"><ele>473.0</ele><time>2026-03-28T13:08:54.752Z</time></trkpt><trkpt lat="45.622447" lon="10.8128318"><ele>472.0</ele><time>2026-03-28T13:08:56.752Z</time></trkpt><trkpt lat="45.6223791" lon="10.8129199"><ele>470.1666666666667</ele><time>2026-03-28T13:08:58.752Z</time></trkpt><trkpt lat="45.6223109" lon="10.8130047"><ele>468.33333333333337</ele><time>2026-03-28T13:09:00.752Z</time></trkpt><trkpt lat="45.6222884" lon="10.8130931"><ele>466.5</ele><time>2026-03-28T13:09:02.752Z</time></trkpt><trkpt lat="45.6222928" lon="10.8131856"><ele>464.66666666666663</ele><time>2026-03-28T13:09:07.752Z</time></trkpt><trkpt lat="45.6222417" lon="10.8131285"><ele>462.8333333333333</ele><time>2026-03-28T13:09:18.753Z</time></trkpt><trkpt lat="45.6221569" lon="10.813038"><ele>461.0</ele><time>2026-03-28T13:09:20.752Z</time></trkpt><trkpt lat="45.6221136" lon="10.8129181"><ele>461.0</ele><time>2026-03-28T13:09:22.753Z</time></trkpt><trkpt lat="45.6220739" lon="10.8127882"><ele>461.0</ele><time>2026-03-28T13:09:24.753Z</time></trkpt><trkpt lat="45.6220279" lon="10.8126523"><ele>461.0</ele><time>2026-03-28T13:09:26.753Z</time></trkpt><trkpt lat="45.6219648" lon="10.812512"><ele>461.0</ele><time>2026-03-28T13:09:28.753Z</time></trkpt><trkpt lat="45.6219305" lon="10.8124298"><ele>461.0</ele><time>2026-03-28T13:09:29.752Z</time></trkpt><trkpt lat="45.621896" lon="10.8123525"><ele>459.8333333333333</ele><time>2026-03-28T13:09:30.754Z</time></trkpt><trkpt lat="45.6218677" lon="10.8122648"><ele>458.66666666666663</ele><time>2026-03-28T13:09:31.753Z</time></trkpt><trkpt lat="45.6218409" lon="10.8121801"><ele>457.5</ele><time>2026-03-28T13:09:32.752Z</time></trkpt><trkpt lat="45.6217735" lon="10.812028"><ele>456.33333333333337</ele><time>2026-03-28T13:09:34.752Z</time></trkpt><trkpt lat="45.6217488" lon="10.8119429"><ele>455.1666666666667</ele><time>2026-03-28T13:09:35.753Z</time></trkpt><trkpt lat="45.6217234" lon="10.8118533"><ele>454.0</ele><time>2026-03-28T13:09:36.753Z</time></trkpt><trkpt lat="45.6216898" lon="10.8117433"><ele>454.00000000000006</ele><time>2026-03-28T13:09:37.753Z</time></trkpt><trkpt lat="45.6216474" lon="10.8116302"><ele>454.0</ele><time>2026-03-28T13:09:38.753Z</time></trkpt><trkpt lat="45.6216122" lon="10.811519"><ele>454.0</ele><time>2026-03-28T13:09:39.753Z</time></trkpt><trkpt lat="45.6215716" lon="10.8114092"><ele>454.0</ele><time>2026-03-28T13:09:40.753Z</time></trkpt><trkpt lat="45.6215329" lon="10.8113051"><ele>454.00000000000006</ele><time>2026-03-28T13:09:41.753Z</time></trkpt><trkpt lat="45.6215015" lon="10.8111937"><ele>454.0</ele><time>2026-03-28T13:09:42.753Z</time></trkpt><trkpt lat="45.6214671" lon="10.8110878"><ele>456.2</ele><time>2026-03-28T13:09:43.753Z</time></trkpt><trkpt lat="45.6214546" lon="10.8109865"><ele>458.4</ele><time>2026-03-28T13:09:44.753Z</time></trkpt><trkpt lat="45.6214254" lon="10.810829"><ele>460.6</ele><time>2026-03-28T13:09:46.752Z</time></trkpt><trkpt lat="45.6214016" lon="10.8106568"><ele>462.8</ele><time>2026-03-28T13:09:48.753Z</time></trkpt><trkpt lat="45.6213623" lon="10.8105611"><ele>465.0</ele><time>2026-03-28T13:09:49.752Z</time></trkpt><trkpt lat="45.6213218" lon="10.810451"><ele>465.0</ele><time>2026-03-28T13:09:50.753Z</time></trkpt><trkpt lat="45.6212832" lon="10.8103631"><ele>465.0</ele><time>2026-03-28T13:09:51.753Z</time></trkpt><trkpt lat="45.6212412" lon="10.8102823"><ele>465.0</ele><time>2026-03-28T13:09:52.752Z</time></trkpt><trkpt lat="45.6211542" lon="10.8101764"><ele>465.0</ele><time>2026-03-28T13:09:54.752Z</time></trkpt><trkpt lat="45.6210572" lon="10.8100601"><ele>465.0</ele><time>2026-03-28T13:09:56.752Z</time></trkpt><trkpt lat="45.6209961" lon="10.8099948"><ele>462.6666666666667</ele><time>2026-03-28T13:09:57.752Z</time></trkpt><trkpt lat="45.6209336" lon="10.8099506"><ele>460.33333333333337</ele><time>2026-03-28T13:09:58.752Z</time></trkpt><trkpt lat="45.620864" lon="10.8099031"><ele>458.0</ele><time>2026-03-28T13:09:59.753Z</time></trkpt><trkpt lat="45.6207599" lon="10.8098141"><ele>455.6666666666667</ele><time>2026-03-28T13:10:01.752Z</time></trkpt><trkpt lat="45.6206967" lon="10.8097423"><ele>453.33333333333337</ele><time>2026-03-28T13:10:02.752Z</time></trkpt><trkpt lat="45.6206468" lon="10.8096791"><ele>451.0</ele><time>2026-03-28T13:10:03.753Z</time></trkpt><trkpt lat="45.6205825" lon="10.809639"><ele>451.00000000000006</ele><time>2026-03-28T13:10:04.752Z</time></trkpt><trkpt lat="45.6205309" lon="10.8095613"><ele>451.0</ele><time>2026-03-28T13:10:05.752Z</time></trkpt><trkpt lat="45.62046" lon="10.8095007"><ele>451.0</ele><time>2026-03-28T13:10:06.753Z</time></trkpt><trkpt lat="45.6203801" lon="10.8094391"><ele>451.0</ele><time>2026-03-28T13:10:07.754Z</time></trkpt><trkpt lat="45.6203019" lon="10.8093874"><ele>451.00000000000006</ele><time>2026-03-28T13:10:08.753Z</time></trkpt><trkpt lat="45.6202243" lon="10.8093406"><ele>451.0</ele><time>2026-03-28T13:10:09.752Z</time></trkpt><trkpt lat="45.6201437" lon="10.8092963"><ele>450.83333333333337</ele><time>2026-03-28T13:10:10.752Z</time></trkpt><trkpt lat="45.6200657" lon="10.8092448"><ele>450.6666666666667</ele><time>2026-03-28T13:10:11.752Z</time></trkpt><trkpt lat="45.6199955" lon="10.8091849"><ele>450.5</ele><time>2026-03-28T13:10:12.753Z</time></trkpt><trkpt lat="45.6199237" lon="10.8091232"><ele>450.33333333333337</ele><time>2026-03-28T13:10:13.753Z</time></trkpt><trkpt lat="45.6198504" lon="10.8090596"><ele>450.1666666666667</ele><time>2026-03-28T13:10:14.752Z</time></trkpt><trkpt lat="45.6197833" lon="10.8089865"><ele>450.0</ele><time>2026-03-28T13:10:15.752Z</time></trkpt><trkpt lat="45.6197173" lon="10.8089049"><ele>450.0</ele><time>2026-03-28T13:10:16.752Z</time></trkpt><trkpt lat="45.6196502" lon="10.808817"><ele>450.0</ele><time>2026-03-28T13:10:17.753Z</time></trkpt><trkpt lat="45.6195861" lon="10.8087256"><ele>450.0</ele><time>2026-03-28T13:10:18.753Z</time></trkpt><trkpt lat="45.6195303" lon="10.8086344"><ele>450.0</ele><time>2026-03-28T13:10:19.753Z</time></trkpt><trkpt lat="45.6194843" lon="10.8085361"><ele>450.0</ele><time>2026-03-28T13:10:20.752Z</time></trkpt><trkpt lat="45.6194441" lon="10.8084363"><ele>450.0</ele><time>2026-03-28T13:10:21.752Z</time></trkpt><trkpt lat="45.6194048" lon="10.8083335"><ele>449.6666666666667</ele><time>2026-03-28T13:10:22.752Z</time></trkpt><trkpt lat="45.619354" lon="10.8082354"><ele>449.33333333333337</ele><time>2026-03-28T13:10:23.752Z</time></trkpt><trkpt lat="45.6192962" lon="10.8081374"><ele>449.0</ele><time>2026-03-28T13:10:24.752Z</time></trkpt><trkpt lat="45.6192429" lon="10.8080379"><ele>448.6666666666667</ele><time>2026-03-28T13:10:25.752Z</time></trkpt><trkpt lat="45.619197" lon="10.8079534"><ele>448.33333333333337</ele><time>2026-03-28T13:10:26.752Z</time></trkpt><trkpt lat="45.6191548" lon="10.8078757"><ele>448.0</ele><time>2026-03-28T13:10:27.753Z</time></trkpt><trkpt lat="45.6190945" lon="10.8078065"><ele>448.0</ele><time>2026-03-28T13:10:28.754Z</time></trkpt><trkpt lat="45.6190141" lon="10.8077304"><ele>447.99999999999994</ele><time>2026-03-28T13:10:29.753Z</time></trkpt><trkpt lat="45.6189472" lon="10.8076552"><ele>447.99999999999994</ele><time>2026-03-28T13:10:30.752Z</time></trkpt><trkpt lat="45.6188819" lon="10.8075811"><ele>448.0</ele><time>2026-03-28T13:10:31.752Z</time></trkpt><trkpt lat="45.6188077" lon="10.8074701"><ele>448.0</ele><time>2026-03-28T13:10:33.753Z</time></trkpt><trkpt lat="45.6187523" lon="10.8073287"><ele>446.83333333333337</ele><time>2026-03-28T13:10:35.753Z</time></trkpt><trkpt lat="45.6186752" lon="10.8071684"><ele>445.6666666666667</ele><time>2026-03-28T13:10:37.752Z</time></trkpt><trkpt lat="45.6186395" lon="10.8070831"><ele>444.5</ele><time>2026-03-28T13:10:38.753Z</time></trkpt><trkpt lat="45.6185926" lon="10.8070039"><ele>443.33333333333337</ele><time>2026-03-28T13:10:39.752Z</time></trkpt><trkpt lat="45.6185562" lon="10.8068999"><ele>442.1666666666667</ele><time>2026-03-28T13:10:41.753Z</time></trkpt><trkpt lat="45.6185232" lon="10.8068179"><ele>441.0</ele><time>2026-03-28T13:10:44.752Z</time></trkpt><trkpt lat="45.6184865" lon="10.8067418"><ele>441.0</ele><time>2026-03-28T13:11:19.752Z</time></trkpt><trkpt lat="45.6184592" lon="10.8066499"><ele>441.0</ele><time>2026-03-28T13:11:21.753Z</time></trkpt><trkpt lat="45.618427" lon="10.8065531"><ele>441.0</ele><time>2026-03-28T13:11:23.752Z</time></trkpt><trkpt lat="45.6183863" lon="10.8064753"><ele>441.0</ele><time>2026-03-28T13:11:25.753Z</time></trkpt><trkpt lat="45.6183539" lon="10.8063937"><ele>441.0</ele><time>2026-03-28T13:11:27.753Z</time></trkpt><trkpt lat="45.6183191" lon="10.8063095"><ele>441.0</ele><time>2026-03-28T13:11:29.752Z</time></trkpt><trkpt lat="45.6182819" lon="10.8062053"><ele>441.0</ele><time>2026-03-28T13:11:32.752Z</time></trkpt><trkpt lat="45.6182427" lon="10.8060958"><ele>441.0</ele><time>2026-03-28T13:12:21.752Z</time></trkpt><trkpt lat="45.6182072" lon="10.8060083"><ele>441.0</ele><time>2026-03-28T13:12:24.753Z</time></trkpt><trkpt lat="45.6181449" lon="10.8058828"><ele>441.0</ele><time>2026-03-28T13:17:36.751Z</time></trkpt><trkpt lat="45.6180997" lon="10.805742"><ele>441.0</ele><time>2026-03-28T13:17:39.752Z</time></trkpt><trkpt lat="45.6180589" lon="10.805638"><ele>441.0</ele><time>2026-03-28T13:17:41.751Z</time></trkpt><trkpt lat="45.6180384" lon="10.8055369"><ele>441.0</ele><time>2026-03-28T13:19:40.752Z</time></trkpt><trkpt lat="45.6180354" lon="10.8054216"><ele>442.6666666666667</ele><time>2026-03-28T13:21:15.751Z</time></trkpt><trkpt lat="45.618026" lon="10.8053058"><ele>444.33333333333337</ele><time>2026-03-28T13:21:18.751Z</time></trkpt><trkpt lat="45.61799" lon="10.8052106"><ele>446.0</ele><time>2026-03-28T13:21:21.752Z</time></trkpt><trkpt lat="45.6179575" lon="10.8051147"><ele>447.6666666666667</ele><time>2026-03-28T13:21:40.751Z</time></trkpt><trkpt lat="45.6179713" lon="10.8050236"><ele>449.33333333333337</ele><time>2026-03-28T13:21:59.752Z</time></trkpt><trkpt lat="45.6178982" lon="10.8049759"><ele>451.0</ele><time>2026-03-28T13:22:16.751Z</time></trkpt><trkpt lat="45.6178351" lon="10.804882"><ele>448.0</ele><time>2026-03-28T13:22:18.752Z</time></trkpt><trkpt lat="45.6177526" lon="10.8047521"><ele>445.0</ele><time>2026-03-28T13:22:20.752Z</time></trkpt><trkpt lat="45.6176494" lon="10.8046181"><ele>442.0</ele><time>2026-03-28T13:22:22.752Z</time></trkpt><trkpt lat="45.6175802" lon="10.8045615"><ele>439.0</ele><time>2026-03-28T13:22:23.751Z</time></trkpt><trkpt lat="45.6175077" lon="10.8045003"><ele>436.0</ele><time>2026-03-28T13:22:24.751Z</time></trkpt><trkpt lat="45.6174502" lon="10.8044455"><ele>436.0</ele><time>2026-03-28T13:22:25.751Z</time></trkpt><trkpt lat="45.6173901" lon="10.8043841"><ele>436.0</ele><time>2026-03-28T13:22:26.751Z</time></trkpt><trkpt lat="45.6173269" lon="10.8043089"><ele>436.0</ele><time>2026-03-28T13:22:27.751Z</time></trkpt><trkpt lat="45.6172634" lon="10.8042571"><ele>436.0</ele><time>2026-03-28T13:22:28.751Z</time></trkpt><trkpt lat="45.6171994" lon="10.8042161"><ele>436.0</ele><time>2026-03-28T13:22:29.751Z</time></trkpt><trkpt lat="45.6171389" lon="10.8041778"><ele>436.0</ele><time>2026-03-28T13:22:30.751Z</time></trkpt><trkpt lat="45.6170843" lon="10.8041282"><ele>436.0</ele><time>2026-03-28T13:22:31.751Z</time></trkpt><trkpt lat="45.6169791" lon="10.8040419"><ele>437.2857142857143</ele><time>2026-03-28T13:22:33.752Z</time></trkpt><trkpt lat="45.6169224" lon="10.8039864"><ele>438.57142857142856</ele><time>2026-03-28T13:22:34.751Z</time></trkpt><trkpt lat="45.6168682" lon="10.8039216"><ele>439.8571428571429</ele><time>2026-03-28T13:22:35.751Z</time></trkpt><trkpt lat="45.6168099" lon="10.8038652"><ele>441.1428571428571</ele><time>2026-03-28T13:22:36.751Z</time></trkpt><trkpt lat="45.6167499" lon="10.8038054"><ele>442.4285714285714</ele><time>2026-03-28T13:22:37.753Z</time></trkpt><trkpt lat="45.6166968" lon="10.8037504"><ele>443.7142857142857</ele><time>2026-03-28T13:22:38.751Z</time></trkpt><trkpt lat="45.616623" lon="10.8036889"><ele>445.0</ele><time>2026-03-28T13:22:40.752Z</time></trkpt><trkpt lat="45.6165601" lon="10.8036549"><ele>445.0</ele><time>2026-03-28T13:22:42.751Z</time></trkpt><trkpt lat="45.6164858" lon="10.8035908"><ele>445.0</ele><time>2026-03-28T13:22:44.752Z</time></trkpt><trkpt lat="45.6164244" lon="10.8035098"><ele>445.0</ele><time>2026-03-28T13:22:46.752Z</time></trkpt><trkpt lat="45.616357" lon="10.8034198"><ele>445.0</ele><time>2026-03-28T13:22:48.751Z</time></trkpt><trkpt lat="45.6162967" lon="10.8033133"><ele>445.0</ele><time>2026-03-28T13:22:50.751Z</time></trkpt><trkpt lat="45.6162181" lon="10.8032301"><ele>445.4</ele><time>2026-03-28T13:22:52.751Z</time></trkpt><trkpt lat="45.616134" lon="10.803154"><ele>445.8</ele><time>2026-03-28T13:22:54.752Z</time></trkpt><trkpt lat="45.616052" lon="10.8030468"><ele>446.20000000000005</ele><time>2026-03-28T13:22:56.751Z</time></trkpt><trkpt lat="45.6159701" lon="10.8029652"><ele>446.6</ele><time>2026-03-28T13:22:58.751Z</time></trkpt><trkpt lat="45.6158986" lon="10.8028906"><ele>447.0</ele><time>2026-03-28T13:23:00.752Z</time></trkpt><trkpt lat="45.6158211" lon="10.8028148"><ele>447.0</ele><time>2026-03-28T13:23:02.751Z</time></trkpt><trkpt lat="45.6157674" lon="10.8027201"><ele>447.00000000000006</ele><time>2026-03-28T13:23:04.752Z</time></trkpt><trkpt lat="45.6157205" lon="10.8026065"><ele>447.00000000000006</ele><time>2026-03-28T13:23:06.751Z</time></trkpt><trkpt lat="45.6156688" lon="10.8024819"><ele>447.0</ele><time>2026-03-28T13:23:08.752Z</time></trkpt><trkpt lat="45.6156319" lon="10.8023403"><ele>447.0</ele><time>2026-03-28T13:23:10.751Z</time></trkpt><trkpt lat="45.6156003" lon="10.8022071"><ele>445.6</ele><time>2026-03-28T13:23:12.751Z</time></trkpt><trkpt lat="45.6155551" lon="10.8020471"><ele>444.20000000000005</ele><time>2026-03-28T13:23:14.751Z</time></trkpt><trkpt lat="45.6155311" lon="10.8019611"><ele>442.8</ele><time>2026-03-28T13:23:15.751Z</time></trkpt><trkpt lat="45.6155013" lon="10.8018751"><ele>441.4</ele><time>2026-03-28T13:23:16.752Z</time></trkpt><trkpt lat="45.6154305" lon="10.8017313"><ele>440.0</ele><time>2026-03-28T13:23:18.751Z</time></trkpt><trkpt lat="45.6153505" lon="10.8016046"><ele>438.0</ele><time>2026-03-28T13:23:20.752Z</time></trkpt><trkpt lat="45.6152853" lon="10.8014864"><ele>436.0</ele><time>2026-03-28T13:23:22.751Z</time></trkpt><trkpt lat="45.6152505" lon="10.8013512"><ele>434.0</ele><time>2026-03-28T13:23:24.752Z</time></trkpt><trkpt lat="45.6152372" lon="10.8011933"><ele>432.0</ele><time>2026-03-28T13:23:26.751Z</time></trkpt><trkpt lat="45.6152292" lon="10.8010198"><ele>430.0</ele><time>2026-03-28T13:23:28.752Z</time></trkpt><trkpt lat="45.6152154" lon="10.8008521"><ele>428.4</ele><time>2026-03-28T13:23:30.751Z</time></trkpt><trkpt lat="45.6151972" lon="10.800709"><ele>426.8</ele><time>2026-03-28T13:23:32.752Z</time></trkpt><trkpt lat="45.6151763" lon="10.8005657"><ele>425.20000000000005</ele><time>2026-03-28T13:23:34.751Z</time></trkpt><trkpt lat="45.6151736" lon="10.800418"><ele>423.6</ele><time>2026-03-28T13:23:36.751Z</time></trkpt><trkpt lat="45.6151826" lon="10.8002537"><ele>422.0</ele><time>2026-03-28T13:23:38.751Z</time></trkpt><trkpt lat="45.615232" lon="10.8001208"><ele>420.0</ele><time>2026-03-28T13:23:40.752Z</time></trkpt><trkpt lat="45.6152725" lon="10.7999748"><ele>418.0</ele><time>2026-03-28T13:23:42.752Z</time></trkpt><trkpt lat="45.615323" lon="10.7998406"><ele>416.0</ele><time>2026-03-28T13:23:44.751Z</time></trkpt><trkpt lat="45.6153756" lon="10.799713"><ele>414.0</ele><time>2026-03-28T13:23:46.752Z</time></trkpt><trkpt lat="45.6153789" lon="10.7995621"><ele>412.0</ele><time>2026-03-28T13:23:48.751Z</time></trkpt><trkpt lat="45.6153834" lon="10.7994131"><ele>411.1428571428571</ele><time>2026-03-28T13:23:50.752Z</time></trkpt><trkpt lat="45.61537" lon="10.7993085"><ele>410.2857142857143</ele><time>2026-03-28T13:23:51.751Z</time></trkpt><trkpt lat="45.6153628" lon="10.799214"><ele>409.42857142857144</ele><time>2026-03-28T13:23:52.752Z</time></trkpt><trkpt lat="45.6153217" lon="10.7991334"><ele>408.57142857142856</ele><time>2026-03-28T13:23:53.751Z</time></trkpt><trkpt lat="45.6152995" lon="10.7990387"><ele>407.7142857142857</ele><time>2026-03-28T13:23:54.752Z</time></trkpt><trkpt lat="45.6152854" lon="10.7989484"><ele>406.85714285714283</ele><time>2026-03-28T13:23:55.752Z</time></trkpt><trkpt lat="45.6152628" lon="10.7988476"><ele>406.0</ele><time>2026-03-28T13:23:56.751Z</time></trkpt><trkpt lat="45.6152377" lon="10.7987515"><ele>406.00000000000006</ele><time>2026-03-28T13:23:57.751Z</time></trkpt><trkpt lat="45.6152014" lon="10.7986571"><ele>406.0</ele><time>2026-03-28T13:23:58.753Z</time></trkpt><trkpt lat="45.6151731" lon="10.7985474"><ele>406.0</ele><time>2026-03-28T13:23:59.751Z</time></trkpt><trkpt lat="45.6151597" lon="10.7984402"><ele>406.0</ele><time>2026-03-28T13:24:00.751Z</time></trkpt><trkpt lat="45.6151235" lon="10.7983417"><ele>406.00000000000006</ele><time>2026-03-28T13:24:01.751Z</time></trkpt><trkpt lat="45.61509" lon="10.7982495"><ele>406.0</ele><time>2026-03-28T13:24:02.752Z</time></trkpt><trkpt lat="45.6150594" lon="10.7981568"><ele>406.2857142857143</ele><time>2026-03-28T13:24:03.752Z</time></trkpt><trkpt lat="45.6150264" lon="10.7980644"><ele>406.57142857142856</ele><time>2026-03-28T13:24:04.752Z</time></trkpt><trkpt lat="45.6150017" lon="10.7979653"><ele>406.8571428571429</ele><time>2026-03-28T13:24:05.752Z</time></trkpt><trkpt lat="45.6149806" lon="10.7978595"><ele>407.1428571428571</ele><time>2026-03-28T13:24:06.751Z</time></trkpt><trkpt lat="45.6149631" lon="10.7977618"><ele>407.42857142857144</ele><time>2026-03-28T13:24:07.751Z</time></trkpt><trkpt lat="45.6149399" lon="10.7976658"><ele>407.7142857142857</ele><time>2026-03-28T13:24:08.751Z</time></trkpt><trkpt lat="45.6149172" lon="10.7975703"><ele>408.0</ele><time>2026-03-28T13:24:09.751Z</time></trkpt><trkpt lat="45.6148939" lon="10.7974593"><ele>408.0</ele><time>2026-03-28T13:24:10.752Z</time></trkpt><trkpt lat="45.6148744" lon="10.7973661"><ele>408.0</ele><time>2026-03-28T13:24:11.752Z</time></trkpt><trkpt lat="45.6148578" lon="10.797274"><ele>408.0</ele><time>2026-03-28T13:24:12.751Z</time></trkpt><trkpt lat="45.6148529" lon="10.7971784"><ele>408.0</ele><time>2026-03-28T13:24:13.752Z</time></trkpt><trkpt lat="45.6148495" lon="10.7969878"><ele>408.0</ele><time>2026-03-28T13:24:15.751Z</time></trkpt><trkpt lat="45.6148502" lon="10.7968873"><ele>408.0</ele><time>2026-03-28T13:24:16.752Z</time></trkpt><trkpt lat="45.6148459" lon="10.7967876"><ele>407.6666666666667</ele><time>2026-03-28T13:24:17.752Z</time></trkpt><trkpt lat="45.6148385" lon="10.7966902"><ele>407.33333333333337</ele><time>2026-03-28T13:24:18.751Z</time></trkpt><trkpt lat="45.6148221" lon="10.7965961"><ele>407.0</ele><time>2026-03-28T13:24:19.751Z</time></trkpt><trkpt lat="45.6148047" lon="10.7965068"><ele>406.6666666666667</ele><time>2026-03-28T13:24:20.751Z</time></trkpt><trkpt lat="45.6147586" lon="10.7963523"><ele>406.33333333333337</ele><time>2026-03-28T13:24:22.752Z</time></trkpt><trkpt lat="45.6147161" lon="10.7962179"><ele>406.0</ele><time>2026-03-28T13:24:24.752Z</time></trkpt><trkpt lat="45.6146113" lon="10.7961528"><ele>406.0</ele><time>2026-03-28T13:24:26.752Z</time></trkpt><trkpt lat="45.6145366" lon="10.7961366"><ele>406.0</ele><time>2026-03-28T13:24:27.752Z</time></trkpt><trkpt lat="45.6144666" lon="10.7961163"><ele>406.0</ele><time>2026-03-28T13:24:28.751Z</time></trkpt><trkpt lat="45.6143935" lon="10.7961047"><ele>406.0</ele><time>2026-03-28T13:24:29.752Z</time></trkpt><trkpt lat="45.6143239" lon="10.7961065"><ele>406.0</ele><time>2026-03-28T13:24:30.752Z</time></trkpt><trkpt lat="45.6142579" lon="10.7960927"><ele>406.0</ele><time>2026-03-28T13:24:31.751Z</time></trkpt><trkpt lat="45.6141896" lon="10.7960573"><ele>406.0</ele><time>2026-03-28T13:24:32.751Z</time></trkpt><trkpt lat="45.6141243" lon="10.7960113"><ele>401.6</ele><time>2026-03-28T13:24:33.751Z</time></trkpt><trkpt lat="45.614058" lon="10.7959641"><ele>397.20000000000005</ele><time>2026-03-28T13:24:34.751Z</time></trkpt><trkpt lat="45.6139987" lon="10.7959296"><ele>392.79999999999995</ele><time>2026-03-28T13:24:35.752Z</time></trkpt><trkpt lat="45.6139007" lon="10.7958728"><ele>388.4</ele><time>2026-03-28T13:24:37.752Z</time></trkpt><trkpt lat="45.6138688" lon="10.7957632"><ele>384.0</ele><time>2026-03-28T13:24:39.751Z</time></trkpt><trkpt lat="45.6138273" lon="10.7955779"><ele>384.0</ele><time>2026-03-28T13:24:41.751Z</time></trkpt><trkpt lat="45.613794" lon="10.7954288"><ele>384.0</ele><time>2026-03-28T13:24:42.751Z</time></trkpt><trkpt lat="45.6137693" lon="10.7952924"><ele>384.0</ele><time>2026-03-28T13:24:43.751Z</time></trkpt><trkpt lat="45.613739" lon="10.7951789"><ele>384.0</ele><time>2026-03-28T13:24:44.751Z</time></trkpt><trkpt lat="45.6136927" lon="10.7950555"><ele>384.0</ele><time>2026-03-28T13:24:45.752Z</time></trkpt><trkpt lat="45.6136542" lon="10.7949468"><ele>383.5</ele><time>2026-03-28T13:24:46.752Z</time></trkpt><trkpt lat="45.6136228" lon="10.7948358"><ele>383.0</ele><time>2026-03-28T13:24:47.751Z</time></trkpt><trkpt lat="45.6135955" lon="10.7947108"><ele>382.5</ele><time>2026-03-28T13:24:48.752Z</time></trkpt><trkpt lat="45.6135804" lon="10.7946154"><ele>382.0</ele><time>2026-03-28T13:24:49.751Z</time></trkpt><trkpt lat="45.6135587" lon="10.7945185"><ele>381.5</ele><time>2026-03-28T13:24:50.751Z</time></trkpt><trkpt lat="45.6135298" lon="10.7943942"><ele>381.0</ele><time>2026-03-28T13:24:51.752Z</time></trkpt><trkpt lat="45.6135057" lon="10.7942521"><ele>381.0</ele><time>2026-03-28T13:24:52.752Z</time></trkpt><trkpt lat="45.6134752" lon="10.7941253"><ele>381.0</ele><time>2026-03-28T13:24:53.751Z</time></trkpt><trkpt lat="45.61343" lon="10.7939899"><ele>381.0</ele><time>2026-03-28T13:24:54.752Z</time></trkpt><trkpt lat="45.6133757" lon="10.7938569"><ele>381.0</ele><time>2026-03-28T13:24:55.752Z</time></trkpt><trkpt lat="45.6133182" lon="10.7937351"><ele>381.0</ele><time>2026-03-28T13:24:56.751Z</time></trkpt><trkpt lat="45.6132549" lon="10.7936293"><ele>381.0</ele><time>2026-03-28T13:24:57.752Z</time></trkpt><trkpt lat="45.6132018" lon="10.7935256"><ele>381.0</ele><time>2026-03-28T13:24:58.751Z</time></trkpt><trkpt lat="45.6131399" lon="10.7934422"><ele>381.0</ele><time>2026-03-28T13:24:59.752Z</time></trkpt><trkpt lat="45.6130586" lon="10.7933778"><ele>381.0</ele><time>2026-03-28T13:25:00.752Z</time></trkpt><trkpt lat="45.6129728" lon="10.7933121"><ele>381.0</ele><time>2026-03-28T13:25:01.751Z</time></trkpt><trkpt lat="45.6129022" lon="10.7932371"><ele>380.1666666666667</ele><time>2026-03-28T13:25:02.751Z</time></trkpt><trkpt lat="45.6128374" lon="10.7931556"><ele>379.3333333333333</ele><time>2026-03-28T13:25:03.752Z</time></trkpt><trkpt lat="45.6127782" lon="10.7930605"><ele>378.5</ele><time>2026-03-28T13:25:04.752Z</time></trkpt><trkpt lat="45.6127155" lon="10.7929704"><ele>377.66666666666663</ele><time>2026-03-28T13:25:05.752Z</time></trkpt><trkpt lat="45.6126649" lon="10.7928813"><ele>376.8333333333333</ele><time>2026-03-28T13:25:06.751Z</time></trkpt><trkpt lat="45.6126256" lon="10.7928008"><ele>376.0</ele><time>2026-03-28T13:25:07.751Z</time></trkpt><trkpt lat="45.61258" lon="10.7926562"><ele>376.0</ele><time>2026-03-28T13:25:09.752Z</time></trkpt><trkpt lat="45.6125644" lon="10.7925508"><ele>376.0</ele><time>2026-03-28T13:25:11.751Z</time></trkpt><trkpt lat="45.6125514" lon="10.7924275"><ele>376.0</ele><time>2026-03-28T13:25:13.751Z</time></trkpt><trkpt lat="45.6125531" lon="10.7923133"><ele>376.0</ele><time>2026-03-28T13:25:15.752Z</time></trkpt><trkpt lat="45.6125606" lon="10.7921822"><ele>376.0</ele><time>2026-03-28T13:25:17.751Z</time></trkpt><trkpt lat="45.6126065" lon="10.7920417"><ele>376.0</ele><time>2026-03-28T13:25:19.751Z</time></trkpt><trkpt lat="45.6126688" lon="10.7919253"><ele>375.4</ele><time>2026-03-28T13:25:21.752Z</time></trkpt><trkpt lat="45.6126885" lon="10.791822"><ele>374.8</ele><time>2026-03-28T13:25:23.751Z</time></trkpt><trkpt lat="45.6126848" lon="10.7916586"><ele>374.2</ele><time>2026-03-28T13:25:25.751Z</time></trkpt><trkpt lat="45.6126782" lon="10.7915361"><ele>373.59999999999997</ele><time>2026-03-28T13:25:26.751Z</time></trkpt><trkpt lat="45.6126677" lon="10.7913966"><ele>373.0</ele><time>2026-03-28T13:25:27.751Z</time></trkpt><trkpt lat="45.6126613" lon="10.7912508"><ele>373.0</ele><time>2026-03-28T13:25:28.751Z</time></trkpt><trkpt lat="45.6126444" lon="10.7910943"><ele>373.0</ele><time>2026-03-28T13:25:29.751Z</time></trkpt><trkpt lat="45.6126294" lon="10.7909383"><ele>373.0</ele><time>2026-03-28T13:25:30.751Z</time></trkpt><trkpt lat="45.6126206" lon="10.7907853"><ele>373.0</ele><time>2026-03-28T13:25:31.752Z</time></trkpt><trkpt lat="45.6126123" lon="10.7906398"><ele>373.0</ele><time>2026-03-28T13:25:32.751Z</time></trkpt><trkpt lat="45.6125912" lon="10.7904968"><ele>372.5</ele><time>2026-03-28T13:25:33.752Z</time></trkpt><trkpt lat="45.6125536" lon="10.7903529"><ele>372.0</ele><time>2026-03-28T13:25:34.752Z</time></trkpt><trkpt lat="45.6125005" lon="10.7902106"><ele>371.5</ele><time>2026-03-28T13:25:35.752Z</time></trkpt><trkpt lat="45.6124493" lon="10.7900632"><ele>371.0</ele><time>2026-03-28T13:25:36.752Z</time></trkpt><trkpt lat="45.6123853" lon="10.7899237"><ele>371.0</ele><time>2026-03-28T13:25:37.751Z</time></trkpt><trkpt lat="45.6123117" lon="10.7897953"><ele>371.0</ele><time>2026-03-28T13:25:38.751Z</time></trkpt><trkpt lat="45.6122235" lon="10.7896801"><ele>371.0</ele><time>2026-03-28T13:25:39.753Z</time></trkpt><trkpt lat="45.6121446" lon="10.7895728"><ele>371.0</ele><time>2026-03-28T13:25:40.751Z</time></trkpt><trkpt lat="45.6120712" lon="10.7894672"><ele>371.0</ele><time>2026-03-28T13:25:41.752Z</time></trkpt><trkpt lat="45.6119982" lon="10.7893681"><ele>368.20000000000005</ele><time>2026-03-28T13:25:42.752Z</time></trkpt><trkpt lat="45.6119256" lon="10.7892594"><ele>365.40000000000003</ele><time>2026-03-28T13:25:43.751Z</time></trkpt><trkpt lat="45.6118498" lon="10.7891647"><ele>362.6</ele><time>2026-03-28T13:25:44.752Z</time></trkpt><trkpt lat="45.6117852" lon="10.7890647"><ele>359.8</ele><time>2026-03-28T13:25:45.751Z</time></trkpt><trkpt lat="45.6117372" lon="10.7889482"><ele>357.0</ele><time>2026-03-28T13:25:46.751Z</time></trkpt><trkpt lat="45.611703" lon="10.7888084"><ele>357.0</ele><time>2026-03-28T13:25:47.753Z</time></trkpt><trkpt lat="45.6116867" lon="10.7886813"><ele>357.0</ele><time>2026-03-28T13:25:48.751Z</time></trkpt><trkpt lat="45.6116889" lon="10.7885421"><ele>357.0</ele><time>2026-03-28T13:25:49.752Z</time></trkpt><trkpt lat="45.611702" lon="10.7883957"><ele>357.0</ele><time>2026-03-28T13:25:50.751Z</time></trkpt><trkpt lat="45.6117133" lon="10.7882577"><ele>357.0</ele><time>2026-03-28T13:25:51.751Z</time></trkpt><trkpt lat="45.6117309" lon="10.7881193"><ele>357.0</ele><time>2026-03-28T13:25:52.751Z</time></trkpt><trkpt lat="45.6117805" lon="10.7879763"><ele>357.0</ele><time>2026-03-28T13:25:53.752Z</time></trkpt><trkpt lat="45.611858" lon="10.7878381"><ele>357.0</ele><time>2026-03-28T13:25:54.751Z</time></trkpt><trkpt lat="45.6119275" lon="10.787696"><ele>357.0</ele><time>2026-03-28T13:25:55.751Z</time></trkpt><trkpt lat="45.6119709" lon="10.7875407"><ele>355.8</ele><time>2026-03-28T13:25:56.752Z</time></trkpt><trkpt lat="45.6119868" lon="10.7873863"><ele>354.6</ele><time>2026-03-28T13:25:57.751Z</time></trkpt><trkpt lat="45.6119765" lon="10.7872176"><ele>353.40000000000003</ele><time>2026-03-28T13:25:58.752Z</time></trkpt><trkpt lat="45.6119596" lon="10.7870685"><ele>352.20000000000005</ele><time>2026-03-28T13:25:59.752Z</time></trkpt><trkpt lat="45.6119164" lon="10.7869458"><ele>351.0</ele><time>2026-03-28T13:26:00.752Z</time></trkpt><trkpt lat="45.6118404" lon="10.786848"><ele>351.25</ele><time>2026-03-28T13:26:01.752Z</time></trkpt><trkpt lat="45.6117479" lon="10.7867759"><ele>351.5</ele><time>2026-03-28T13:26:02.752Z</time></trkpt><trkpt lat="45.6116352" lon="10.7866923"><ele>351.75</ele><time>2026-03-28T13:26:03.751Z</time></trkpt><trkpt lat="45.6115268" lon="10.786564"><ele>352.0</ele><time>2026-03-28T13:26:04.751Z</time></trkpt><trkpt lat="45.6114131" lon="10.7864248"><ele>352.0</ele><time>2026-03-28T13:26:05.751Z</time></trkpt><trkpt lat="45.6113079" lon="10.786274"><ele>352.0</ele><time>2026-03-28T13:26:06.752Z</time></trkpt><trkpt lat="45.6112223" lon="10.7861368"><ele>352.0</ele><time>2026-03-28T13:26:07.752Z</time></trkpt><trkpt lat="45.6111618" lon="10.7859978"><ele>352.0</ele><time>2026-03-28T13:26:08.752Z</time></trkpt><trkpt lat="45.6111178" lon="10.785832"><ele>350.16666666666663</ele><time>2026-03-28T13:26:09.751Z</time></trkpt><trkpt lat="45.6110746" lon="10.7856882"><ele>348.3333333333333</ele><time>2026-03-28T13:26:10.752Z</time></trkpt><trkpt lat="45.6110322" lon="10.7855814"><ele>346.5</ele><time>2026-03-28T13:26:11.752Z</time></trkpt><trkpt lat="45.6109728" lon="10.7854625"><ele>344.6666666666667</ele><time>2026-03-28T13:26:13.752Z</time></trkpt><trkpt lat="45.610972" lon="10.7853607"><ele>342.83333333333337</ele><time>2026-03-28T13:26:19.751Z</time></trkpt><trkpt lat="45.6110483" lon="10.7853928"><ele>341.0</ele><time>2026-03-28T13:26:21.752Z</time></trkpt><trkpt lat="45.6111151" lon="10.7854224"><ele>343.83333333333337</ele><time>2026-03-28T13:26:22.752Z</time></trkpt><trkpt lat="45.611196" lon="10.7854497"><ele>346.6666666666667</ele><time>2026-03-28T13:26:23.751Z</time></trkpt><trkpt lat="45.611278" lon="10.7854626"><ele>349.5</ele><time>2026-03-28T13:26:24.751Z</time></trkpt><trkpt lat="45.6113595" lon="10.7854503"><ele>352.3333333333333</ele><time>2026-03-28T13:26:25.751Z</time></trkpt><trkpt lat="45.6114475" lon="10.7854208"><ele>355.16666666666663</ele><time>2026-03-28T13:26:26.751Z</time></trkpt><trkpt lat="45.6115359" lon="10.7853688"><ele>358.0</ele><time>2026-03-28T13:26:27.752Z</time></trkpt><trkpt lat="45.6116197" lon="10.7852948"><ele>358.0</ele><time>2026-03-28T13:26:28.752Z</time></trkpt><trkpt lat="45.6116914" lon="10.7851878"><ele>358.0</ele><time>2026-03-28T13:26:29.751Z</time></trkpt><trkpt lat="45.6117412" lon="10.7850524"><ele>358.0</ele><time>2026-03-28T13:26:30.752Z</time></trkpt><trkpt lat="45.6117652" lon="10.7848923"><ele>358.0</ele><time>2026-03-28T13:26:31.751Z</time></trkpt><trkpt lat="45.6117675" lon="10.7847175"><ele>358.0</ele><time>2026-03-28T13:26:32.752Z</time></trkpt><trkpt lat="45.611761" lon="10.7845333"><ele>359.0</ele><time>2026-03-28T13:26:33.751Z</time></trkpt><trkpt lat="45.6117471" lon="10.7843322"><ele>360.0</ele><time>2026-03-28T13:26:34.751Z</time></trkpt><trkpt lat="45.6117277" lon="10.7841184"><ele>361.0</ele><time>2026-03-28T13:26:35.751Z</time></trkpt><trkpt lat="45.6117082" lon="10.7838876"><ele>361.0</ele><time>2026-03-28T13:26:36.752Z</time></trkpt><trkpt lat="45.6116884" lon="10.7836467"><ele>361.0</ele><time>2026-03-28T13:26:37.752Z</time></trkpt><trkpt lat="45.6116662" lon="10.7833945"><ele>361.0</ele><time>2026-03-28T13:26:38.751Z</time></trkpt><trkpt lat="45.6116423" lon="10.7831336"><ele>362.0</ele><time>2026-03-28T13:26:39.752Z</time></trkpt><trkpt lat="45.6116225" lon="10.7828672"><ele>363.0</ele><time>2026-03-28T13:26:40.752Z</time></trkpt><trkpt lat="45.611608" lon="10.7825943"><ele>364.0</ele><time>2026-03-28T13:26:41.752Z</time></trkpt><trkpt lat="45.6115982" lon="10.7823159"><ele>366.0</ele><time>2026-03-28T13:26:42.751Z</time></trkpt><trkpt lat="45.6115929" lon="10.7820335"><ele>368.0</ele><time>2026-03-28T13:26:43.751Z</time></trkpt><trkpt lat="45.6115935" lon="10.7817572"><ele>370.0</ele><time>2026-03-28T13:26:44.751Z</time></trkpt><trkpt lat="45.6115914" lon="10.7814908"><ele>370.66666666666663</ele><time>2026-03-28T13:26:45.751Z</time></trkpt><trkpt lat="45.611587" lon="10.781218"><ele>371.3333333333333</ele><time>2026-03-28T13:26:46.751Z</time></trkpt><trkpt lat="45.6115756" lon="10.7809578"><ele>372.0</ele><time>2026-03-28T13:26:47.751Z</time></trkpt><trkpt lat="45.6115176" lon="10.7807043"><ele>373.3333333333333</ele><time>2026-03-28T13:26:48.752Z</time></trkpt><trkpt lat="45.6114341" lon="10.7804664"><ele>374.66666666666663</ele><time>2026-03-28T13:26:49.751Z</time></trkpt><trkpt lat="45.6113501" lon="10.7802669"><ele>376.0</ele><time>2026-03-28T13:26:50.751Z</time></trkpt><trkpt lat="45.6112917" lon="10.7800693"><ele>378.3333333333333</ele><time>2026-03-28T13:26:51.751Z</time></trkpt><trkpt lat="45.611275" lon="10.7798559"><ele>380.6666666666667</ele><time>2026-03-28T13:26:52.751Z</time></trkpt><trkpt lat="45.6112793" lon="10.7796219"><ele>383.0</ele><time>2026-03-28T13:26:53.752Z</time></trkpt><trkpt lat="45.6112904" lon="10.7793747"><ele>383.79999999999995</ele><time>2026-03-28T13:26:54.751Z</time></trkpt><trkpt lat="45.6113073" lon="10.7791398"><ele>384.6</ele><time>2026-03-28T13:26:55.751Z</time></trkpt><trkpt lat="45.6113154" lon="10.7789866"><ele>385.4</ele><time>2026-03-28T13:26:56.752Z</time></trkpt><trkpt lat="45.6113206" lon="10.778893"><ele>386.20000000000005</ele><time>2026-03-28T13:26:57.752Z</time></trkpt><trkpt lat="45.6113265" lon="10.7788017"><ele>387.0</ele><time>2026-03-28T13:26:58.751Z</time></trkpt><trkpt lat="45.6113562" lon="10.7786294"><ele>387.0</ele><time>2026-03-28T13:27:00.751Z</time></trkpt><trkpt lat="45.6113891" lon="10.7785019"><ele>387.0</ele><time>2026-03-28T13:27:01.751Z</time></trkpt><trkpt lat="45.6114566" lon="10.77839"><ele>387.0</ele><time>2026-03-28T13:27:02.752Z</time></trkpt><trkpt lat="45.6115428" lon="10.778286"><ele>387.0</ele><time>2026-03-28T13:27:03.751Z</time></trkpt><trkpt lat="45.6116366" lon="10.7782084"><ele>387.0</ele><time>2026-03-28T13:27:04.752Z</time></trkpt><trkpt lat="45.6117319" lon="10.7781354"><ele>387.0</ele><time>2026-03-28T13:27:05.751Z</time></trkpt><trkpt lat="45.6118071" lon="10.7780757"><ele>387.0</ele><time>2026-03-28T13:27:06.751Z</time></trkpt><trkpt lat="45.6118889" lon="10.7780015"><ele>387.0</ele><time>2026-03-28T13:27:08.751Z</time></trkpt><trkpt lat="45.6118147" lon="10.7779917"><ele>387.0</ele><time>2026-03-28T13:27:12.752Z</time></trkpt><trkpt lat="45.6117341" lon="10.7780968"><ele>387.0</ele><time>2026-03-28T13:27:14.751Z</time></trkpt><trkpt lat="45.6116548" lon="10.7781609"><ele>387.0</ele><time>2026-03-28T13:27:15.751Z</time></trkpt><trkpt lat="45.6115574" lon="10.7782328"><ele>387.0</ele><time>2026-03-28T13:27:16.751Z</time></trkpt><trkpt lat="45.611456" lon="10.7783328"><ele>387.0</ele><time>2026-03-28T13:27:17.751Z</time></trkpt><trkpt lat="45.6113805" lon="10.7784721"><ele>387.0</ele><time>2026-03-28T13:27:18.752Z</time></trkpt><trkpt lat="45.6113393" lon="10.7786499"><ele>387.0</ele><time>2026-03-28T13:27:19.752Z</time></trkpt><trkpt lat="45.6113143" lon="10.7788671"><ele>387.0</ele><time>2026-03-28T13:27:20.752Z</time></trkpt><trkpt lat="45.6112962" lon="10.7791022"><ele>387.0</ele><time>2026-03-28T13:27:21.752Z</time></trkpt><trkpt lat="45.6112783" lon="10.7793277"><ele>386.0</ele><time>2026-03-28T13:27:22.752Z</time></trkpt><trkpt lat="45.6112669" lon="10.7795382"><ele>385.0</ele><time>2026-03-28T13:27:23.752Z</time></trkpt><trkpt lat="45.6112569" lon="10.7797272"><ele>384.0</ele><time>2026-03-28T13:27:24.753Z</time></trkpt><trkpt lat="45.6112532" lon="10.7798804"><ele>383.0</ele><time>2026-03-28T13:27:25.752Z</time></trkpt><trkpt lat="45.6112692" lon="10.7799958"><ele>383.0</ele><time>2026-03-28T13:27:26.751Z</time></trkpt><trkpt lat="45.6112397" lon="10.78014"><ele>383.0</ele><time>2026-03-28T13:27:28.751Z</time></trkpt><trkpt lat="45.6111796" lon="10.7801766"><ele>383.0</ele><time>2026-03-28T13:27:29.752Z</time></trkpt><trkpt lat="45.6110802" lon="10.7801952"><ele>383.0</ele><time>2026-03-28T13:27:30.751Z</time></trkpt><trkpt lat="45.6109879" lon="10.7802034"><ele>383.0</ele><time>2026-03-28T13:27:31.752Z</time></trkpt><trkpt lat="45.6109107" lon="10.780198"><ele>383.0</ele><time>2026-03-28T13:27:32.751Z</time></trkpt><trkpt lat="45.6108335" lon="10.7801462"><ele>379.75</ele><time>2026-03-28T13:27:33.752Z</time></trkpt><trkpt lat="45.610741" lon="10.780073"><ele>376.5</ele><time>2026-03-28T13:27:34.752Z</time></trkpt><trkpt lat="45.610625" lon="10.7800113"><ele>373.25</ele><time>2026-03-28T13:27:35.752Z</time></trkpt><trkpt lat="45.6105114" lon="10.7799702"><ele>370.0</ele><time>2026-03-28T13:27:36.752Z</time></trkpt><trkpt lat="45.6104099" lon="10.7799339"><ele>367.2</ele><time>2026-03-28T13:27:37.751Z</time></trkpt><trkpt lat="45.6103092" lon="10.7798988"><ele>364.4</ele><time>2026-03-28T13:27:38.751Z</time></trkpt><trkpt lat="45.6102125" lon="10.7798661"><ele>361.6</ele><time>2026-03-28T13:27:39.751Z</time></trkpt><trkpt lat="45.6101286" lon="10.7798393"><ele>358.8</ele><time>2026-03-28T13:27:40.751Z</time></trkpt><trkpt lat="45.6100402" lon="10.779806"><ele>356.0</ele><time>2026-03-28T13:27:41.751Z</time></trkpt><trkpt lat="45.609949" lon="10.7797665"><ele>356.0</ele><time>2026-03-28T13:27:42.751Z</time></trkpt><trkpt lat="45.6098493" lon="10.7797487"><ele>356.0</ele><time>2026-03-28T13:27:43.751Z</time></trkpt><trkpt lat="45.6097417" lon="10.7797636"><ele>356.0</ele><time>2026-03-28T13:27:44.752Z</time></trkpt><trkpt lat="45.6096316" lon="10.7798001"><ele>356.0</ele><time>2026-03-28T13:27:45.751Z</time></trkpt><trkpt lat="45.609517" lon="10.7798296"><ele>356.0</ele><time>2026-03-28T13:27:46.751Z</time></trkpt><trkpt lat="45.6094014" lon="10.7798368"><ele>351.5</ele><time>2026-03-28T13:27:47.751Z</time></trkpt><trkpt lat="45.6092862" lon="10.7798148"><ele>347.0</ele><time>2026-03-28T13:27:48.752Z</time></trkpt><trkpt lat="45.6091685" lon="10.7797859"><ele>342.5</ele><time>2026-03-28T13:27:49.751Z</time></trkpt><trkpt lat="45.609044" lon="10.7797609"><ele>338.0</ele><time>2026-03-28T13:27:50.751Z</time></trkpt><trkpt lat="45.608926" lon="10.7797231"><ele>338.0</ele><time>2026-03-28T13:27:51.751Z</time></trkpt><trkpt lat="45.6088114" lon="10.7796698"><ele>338.0</ele><time>2026-03-28T13:27:52.751Z</time></trkpt><trkpt lat="45.6087062" lon="10.7795978"><ele>338.0</ele><time>2026-03-28T13:27:53.751Z</time></trkpt><trkpt lat="45.6085927" lon="10.7795154"><ele>338.0</ele><time>2026-03-28T13:27:54.751Z</time></trkpt><trkpt lat="45.6084671" lon="10.779448"><ele>336.0</ele><time>2026-03-28T13:27:55.752Z</time></trkpt><trkpt lat="45.608335" lon="10.7793912"><ele>334.0</ele><time>2026-03-28T13:27:56.752Z</time></trkpt><trkpt lat="45.6082082" lon="10.779334"><ele>332.0</ele><time>2026-03-28T13:27:57.751Z</time></trkpt><trkpt lat="45.6080834" lon="10.7792736"><ele>330.0</ele><time>2026-03-28T13:27:58.752Z</time></trkpt><trkpt lat="45.607962" lon="10.779214"><ele>330.0</ele><time>2026-03-28T13:27:59.751Z</time></trkpt><trkpt lat="45.6078463" lon="10.7791494"><ele>330.0</ele><time>2026-03-28T13:28:00.751Z</time></trkpt><trkpt lat="45.607738" lon="10.7790782"><ele>330.0</ele><time>2026-03-28T13:28:01.752Z</time></trkpt><trkpt lat="45.6076275" lon="10.7790147"><ele>330.0</ele><time>2026-03-28T13:28:02.752Z</time></trkpt><trkpt lat="45.607513" lon="10.7789537"><ele>328.5</ele><time>2026-03-28T13:28:03.752Z</time></trkpt><trkpt lat="45.6073944" lon="10.7789019"><ele>327.0</ele><time>2026-03-28T13:28:04.751Z</time></trkpt><trkpt lat="45.6072652" lon="10.778859"><ele>325.5</ele><time>2026-03-28T13:28:05.751Z</time></trkpt><trkpt lat="45.6071321" lon="10.7788349"><ele>324.0</ele><time>2026-03-28T13:28:06.751Z</time></trkpt><trkpt lat="45.6069999" lon="10.7788325"><ele>321.59999999999997</ele><time>2026-03-28T13:28:07.752Z</time></trkpt><trkpt lat="45.6068827" lon="10.7788303"><ele>319.2</ele><time>2026-03-28T13:28:08.751Z</time></trkpt><trkpt lat="45.6067757" lon="10.7788118"><ele>316.79999999999995</ele><time>2026-03-28T13:28:09.751Z</time></trkpt><trkpt lat="45.6066791" lon="10.7787792"><ele>314.4</ele><time>2026-03-28T13:28:10.751Z</time></trkpt><trkpt lat="45.6065851" lon="10.7787493"><ele>312.0</ele><time>2026-03-28T13:28:11.751Z</time></trkpt><trkpt lat="45.6065105" lon="10.7787175"><ele>312.0</ele><time>2026-03-28T13:28:12.751Z</time></trkpt><trkpt lat="45.6064385" lon="10.7786855"><ele>312.0</ele><time>2026-03-28T13:28:13.75Z</time></trkpt><trkpt lat="45.6063717" lon="10.778663"><ele>312.0</ele><time>2026-03-28T13:28:14.751Z</time></trkpt><trkpt lat="45.6063101" lon="10.7786407"><ele>312.0</ele><time>2026-03-28T13:28:15.752Z</time></trkpt><trkpt lat="45.6061902" lon="10.7785962"><ele>312.0</ele><time>2026-03-28T13:28:17.751Z</time></trkpt><trkpt lat="45.6060754" lon="10.7785664"><ele>312.0</ele><time>2026-03-28T13:28:19.75Z</time></trkpt><trkpt lat="45.6059712" lon="10.7785371"><ele>307.6</ele><time>2026-03-28T13:28:21.751Z</time></trkpt><trkpt lat="45.6058757" lon="10.7785143"><ele>303.2</ele><time>2026-03-28T13:28:23.751Z</time></trkpt><trkpt lat="45.6057923" lon="10.7784838"><ele>298.8</ele><time>2026-03-28T13:28:25.75Z</time></trkpt><trkpt lat="45.6057062" lon="10.7784792"><ele>294.4</ele><time>2026-03-28T13:28:27.75Z</time></trkpt><trkpt lat="45.6056196" lon="10.7784719"><ele>290.0</ele><time>2026-03-28T13:28:29.751Z</time></trkpt><trkpt lat="45.6055227" lon="10.7784699"><ele>290.0</ele><time>2026-03-28T13:28:31.75Z</time></trkpt><trkpt lat="45.6054279" lon="10.7784627"><ele>290.0</ele><time>2026-03-28T13:28:33.75Z</time></trkpt><trkpt lat="45.6053295" lon="10.778464"><ele>290.0</ele><time>2026-03-28T13:28:35.75Z</time></trkpt><trkpt lat="45.6052236" lon="10.778457"><ele>290.0</ele><time>2026-03-28T13:28:37.751Z</time></trkpt><trkpt lat="45.6051016" lon="10.7784394"><ele>290.0</ele><time>2026-03-28T13:28:39.75Z</time></trkpt><trkpt lat="45.6050357" lon="10.7784133"><ele>287.33333333333337</ele><time>2026-03-28T13:28:40.75Z</time></trkpt><trkpt lat="45.6049705" lon="10.778384"><ele>284.6666666666667</ele><time>2026-03-28T13:28:41.751Z</time></trkpt><trkpt lat="45.6049091" lon="10.7783509"><ele>282.0</ele><time>2026-03-28T13:28:42.751Z</time></trkpt><trkpt lat="45.6047937" lon="10.7783177"><ele>279.3333333333333</ele><time>2026-03-28T13:28:44.75Z</time></trkpt><trkpt lat="45.6047005" lon="10.7782895"><ele>276.66666666666663</ele><time>2026-03-28T13:28:46.751Z</time></trkpt><trkpt lat="45.6046133" lon="10.7782799"><ele>274.0</ele><time>2026-03-28T13:28:48.751Z</time></trkpt><trkpt lat="45.6045429" lon="10.778232"><ele>271.59999999999997</ele><time>2026-03-28T13:28:50.751Z</time></trkpt><trkpt lat="45.6044889" lon="10.7781236"><ele>269.2</ele><time>2026-03-28T13:28:52.75Z</time></trkpt><trkpt lat="45.6043937" lon="10.7781145"><ele>266.79999999999995</ele><time>2026-03-28T13:28:54.75Z</time></trkpt><trkpt lat="45.6042821" lon="10.7781798"><ele>264.4</ele><time>2026-03-28T13:28:56.751Z</time></trkpt><trkpt lat="45.6041528" lon="10.7781472"><ele>262.0</ele><time>2026-03-28T13:28:58.75Z</time></trkpt><trkpt lat="45.6040826" lon="10.7781534"><ele>262.0</ele><time>2026-03-28T13:28:59.75Z</time></trkpt><trkpt lat="45.604014" lon="10.7781648"><ele>262.0</ele><time>2026-03-28T13:29:00.751Z</time></trkpt><trkpt lat="45.6039304" lon="10.7781516"><ele>262.0</ele><time>2026-03-28T13:29:01.75Z</time></trkpt><trkpt lat="45.6038433" lon="10.7781164"><ele>262.0</ele><time>2026-03-28T13:29:02.751Z</time></trkpt><trkpt lat="45.6037547" lon="10.7780897"><ele>262.0</ele><time>2026-03-28T13:29:03.751Z</time></trkpt><trkpt lat="45.6036638" lon="10.7780723"><ele>262.0</ele><time>2026-03-28T13:29:04.75Z</time></trkpt><trkpt lat="45.6035758" lon="10.7780646"><ele>260.16666666666663</ele><time>2026-03-28T13:29:05.75Z</time></trkpt><trkpt lat="45.6034964" lon="10.778066"><ele>258.3333333333333</ele><time>2026-03-28T13:29:06.75Z</time></trkpt><trkpt lat="45.6034257" lon="10.7780654"><ele>256.5</ele><time>2026-03-28T13:29:07.75Z</time></trkpt><trkpt lat="45.6033259" lon="10.7780673"><ele>254.66666666666669</ele><time>2026-03-28T13:29:09.751Z</time></trkpt><trkpt lat="45.6032574" lon="10.7780742"><ele>252.83333333333334</ele><time>2026-03-28T13:29:12.75Z</time></trkpt><trkpt lat="45.6031931" lon="10.7780763"><ele>251.0</ele><time>2026-03-28T13:29:15.75Z</time></trkpt><trkpt lat="45.6031467" lon="10.7781747"><ele>251.0</ele><time>2026-03-28T13:29:19.75Z</time></trkpt><trkpt lat="45.6031948" lon="10.7783445"><ele>251.0</ele><time>2026-03-28T13:29:21.751Z</time></trkpt><trkpt lat="45.6032327" lon="10.7784622"><ele>251.0</ele><time>2026-03-28T13:29:22.751Z</time></trkpt><trkpt lat="45.6032807" lon="10.7786251"><ele>251.0</ele><time>2026-03-28T13:29:23.751Z</time></trkpt><trkpt lat="45.6033393" lon="10.7788346"><ele>250.0</ele><time>2026-03-28T13:29:24.75Z</time></trkpt><trkpt lat="45.603398" lon="10.7790531"><ele>249.0</ele><time>2026-03-28T13:29:25.751Z</time></trkpt><trkpt lat="45.6034601" lon="10.7793069"><ele>248.0</ele><time>2026-03-28T13:29:26.751Z</time></trkpt><trkpt lat="45.603508" lon="10.7795421"><ele>247.25</ele><time>2026-03-28T13:29:27.75Z</time></trkpt><trkpt lat="45.6035393" lon="10.779746"><ele>246.5</ele><time>2026-03-28T13:29:28.75Z</time></trkpt><trkpt lat="45.6035601" lon="10.779934"><ele>245.75</ele><time>2026-03-28T13:29:29.751Z</time></trkpt><trkpt lat="45.6035845" lon="10.7801065"><ele>245.0</ele><time>2026-03-28T13:29:30.752Z</time></trkpt><trkpt lat="45.6036115" lon="10.7802671"><ele>245.0</ele><time>2026-03-28T13:29:31.75Z</time></trkpt><trkpt lat="45.6036381" lon="10.7804155"><ele>245.0</ele><time>2026-03-28T13:29:32.75Z</time></trkpt><trkpt lat="45.6036596" lon="10.7805539"><ele>245.0</ele><time>2026-03-28T13:29:33.75Z</time></trkpt><trkpt lat="45.6036791" lon="10.7806818"><ele>245.0</ele><time>2026-03-28T13:29:34.751Z</time></trkpt><trkpt lat="45.6037009" lon="10.7807975"><ele>245.0</ele><time>2026-03-28T13:29:35.75Z</time></trkpt><trkpt lat="45.603718" lon="10.7809015"><ele>245.4</ele><time>2026-03-28T13:29:36.75Z</time></trkpt><trkpt lat="45.6037355" lon="10.781032"><ele>245.8</ele><time>2026-03-28T13:29:38.751Z</time></trkpt><trkpt lat="45.6037172" lon="10.7811333"><ele>246.2</ele><time>2026-03-28T13:29:40.75Z</time></trkpt><trkpt lat="45.603649" lon="10.7812488"><ele>246.6</ele><time>2026-03-28T13:29:42.751Z</time></trkpt><trkpt lat="45.6035284" lon="10.7813367"><ele>247.0</ele><time>2026-03-28T13:29:44.751Z</time></trkpt><trkpt lat="45.6034483" lon="10.7813433"><ele>246.99999999999997</ele><time>2026-03-28T13:29:45.751Z</time></trkpt><trkpt lat="45.6033735" lon="10.7813547"><ele>247.0</ele><time>2026-03-28T13:29:46.751Z</time></trkpt><trkpt lat="45.6033007" lon="10.7813733"><ele>247.0</ele><time>2026-03-28T13:29:47.75Z</time></trkpt><trkpt lat="45.6032345" lon="10.7813994"><ele>247.0</ele><time>2026-03-28T13:29:48.75Z</time></trkpt><trkpt lat="45.6031702" lon="10.7814196"><ele>246.99999999999997</ele><time>2026-03-28T13:29:49.751Z</time></trkpt><trkpt lat="45.6031016" lon="10.7814372"><ele>247.0</ele><time>2026-03-28T13:29:50.751Z</time></trkpt><trkpt lat="45.6029846" lon="10.7814607"><ele>246.99999999999997</ele><time>2026-03-28T13:29:52.751Z</time></trkpt><trkpt lat="45.6028891" lon="10.7814847"><ele>247.0</ele><time>2026-03-28T13:29:54.751Z</time></trkpt><trkpt lat="45.6028021" lon="10.7815049"><ele>247.0</ele><time>2026-03-28T13:29:56.752Z</time></trkpt><trkpt lat="45.6027268" lon="10.7815142"><ele>247.0</ele><time>2026-03-28T13:29:58.75Z</time></trkpt><trkpt lat="45.6026525" lon="10.7815192"><ele>246.99999999999997</ele><time>2026-03-28T13:30:01.75Z</time></trkpt><trkpt lat="45.6025691" lon="10.7815365"><ele>247.0</ele><time>2026-03-28T13:30:04.751Z</time></trkpt><trkpt lat="45.6024622" lon="10.7815879"><ele>246.2</ele><time>2026-03-28T13:30:06.75Z</time></trkpt><trkpt lat="45.6023775" lon="10.7816193"><ele>245.39999999999998</ele><time>2026-03-28T13:30:08.751Z</time></trkpt><trkpt lat="45.6022898" lon="10.7816491"><ele>244.60000000000002</ele><time>2026-03-28T13:30:10.75Z</time></trkpt><trkpt lat="45.6022066" lon="10.7817115"><ele>243.8</ele><time>2026-03-28T13:30:12.75Z</time></trkpt><trkpt lat="45.6021905" lon="10.7818304"><ele>243.0</ele><time>2026-03-28T13:30:14.751Z</time></trkpt><trkpt lat="45.6022222" lon="10.7819908"><ele>243.0</ele><time>2026-03-28T13:30:16.75Z</time></trkpt><trkpt lat="45.6022569" lon="10.7821568"><ele>243.0</ele><time>2026-03-28T13:30:18.751Z</time></trkpt><trkpt lat="45.6022769" lon="10.7822617"><ele>243.0</ele><time>2026-03-28T13:30:19.751Z</time></trkpt><trkpt lat="45.6022999" lon="10.7823618"><ele>243.0</ele><time>2026-03-28T13:30:20.751Z</time></trkpt><trkpt lat="45.6023285" lon="10.782512"><ele>243.0</ele><time>2026-03-28T13:30:22.75Z</time></trkpt><trkpt lat="45.6023055" lon="10.7826089"><ele>243.0</ele><time>2026-03-28T13:30:24.75Z</time></trkpt><trkpt lat="45.6021976" lon="10.7826621"><ele>243.0</ele><time>2026-03-28T13:30:26.75Z</time></trkpt><trkpt lat="45.6021099" lon="10.7826961"><ele>243.0</ele><time>2026-03-28T13:30:27.75Z</time></trkpt><trkpt lat="45.602029" lon="10.782742"><ele>243.0</ele><time>2026-03-28T13:30:28.75Z</time></trkpt><trkpt lat="45.6019374" lon="10.782788"><ele>243.0</ele><time>2026-03-28T13:30:29.75Z</time></trkpt><trkpt lat="45.6018408" lon="10.7828366"><ele>242.0</ele><time>2026-03-28T13:30:30.75Z</time></trkpt><trkpt lat="45.6017443" lon="10.7828864"><ele>241.0</ele><time>2026-03-28T13:30:31.75Z</time></trkpt><trkpt lat="45.6016477" lon="10.7829369"><ele>240.0</ele><time>2026-03-28T13:30:32.751Z</time></trkpt><trkpt lat="45.6015438" lon="10.7829924"><ele>239.0</ele><time>2026-03-28T13:30:33.751Z</time></trkpt><trkpt lat="45.6014365" lon="10.783048"><ele>238.0</ele><time>2026-03-28T13:30:34.751Z</time></trkpt><trkpt lat="45.6013378" lon="10.7830962"><ele>237.99999999999997</ele><time>2026-03-28T13:30:35.751Z</time></trkpt><trkpt lat="45.6012438" lon="10.7831453"><ele>238.0</ele><time>2026-03-28T13:30:36.751Z</time></trkpt><trkpt lat="45.6011609" lon="10.7831852"><ele>238.0</ele><time>2026-03-28T13:30:37.751Z</time></trkpt><trkpt lat="45.6011001" lon="10.7832184"><ele>238.0</ele><time>2026-03-28T13:30:38.751Z</time></trkpt><trkpt lat="45.6010285" lon="10.7832668"><ele>237.99999999999997</ele><time>2026-03-28T13:30:46.75Z</time></trkpt><trkpt lat="45.6009505" lon="10.7833439"><ele>238.0</ele><time>2026-03-28T13:30:48.751Z</time></trkpt><trkpt lat="45.6008425" lon="10.7834002"><ele>237.4</ele><time>2026-03-28T13:30:50.75Z</time></trkpt><trkpt lat="45.6007388" lon="10.7834658"><ele>236.8</ele><time>2026-03-28T13:30:52.751Z</time></trkpt><trkpt lat="45.6006596" lon="10.783487"><ele>236.2</ele><time>2026-03-28T13:31:06.75Z</time></trkpt><trkpt lat="45.60059" lon="10.7833315"><ele>235.6</ele><time>2026-03-28T13:31:08.751Z</time></trkpt><trkpt lat="45.6005434" lon="10.7831998"><ele>235.0</ele><time>2026-03-28T13:31:09.75Z</time></trkpt><trkpt lat="45.6004863" lon="10.7830467"><ele>235.0</ele><time>2026-03-28T13:31:10.75Z</time></trkpt><trkpt lat="45.6004246" lon="10.7828828"><ele>235.0</ele><time>2026-03-28T13:31:11.751Z</time></trkpt><trkpt lat="45.6003589" lon="10.7826984"><ele>235.0</ele><time>2026-03-28T13:31:12.75Z</time></trkpt><trkpt lat="45.6002847" lon="10.782487"><ele>235.0</ele><time>2026-03-28T13:31:13.75Z</time></trkpt><trkpt lat="45.6002039" lon="10.7822735"><ele>234.0</ele><time>2026-03-28T13:31:14.751Z</time></trkpt><trkpt lat="45.6001181" lon="10.7820502"><ele>233.0</ele><time>2026-03-28T13:31:15.75Z</time></trkpt><trkpt lat="45.600033" lon="10.78182"><ele>232.0</ele><time>2026-03-28T13:31:16.75Z</time></trkpt><trkpt lat="45.5999447" lon="10.7815855"><ele>231.66666666666666</ele><time>2026-03-28T13:31:17.75Z</time></trkpt><trkpt lat="45.5998544" lon="10.7813491"><ele>231.33333333333331</ele><time>2026-03-28T13:31:18.751Z</time></trkpt><trkpt lat="45.5997618" lon="10.7811119"><ele>231.0</ele><time>2026-03-28T13:31:19.751Z</time></trkpt><trkpt lat="45.5996674" lon="10.7808692"><ele>231.0</ele><time>2026-03-28T13:31:20.751Z</time></trkpt><trkpt lat="45.5995742" lon="10.7806213"><ele>231.0</ele><time>2026-03-28T13:31:21.75Z</time></trkpt><trkpt lat="45.5994863" lon="10.7803823"><ele>231.0</ele><time>2026-03-28T13:31:22.75Z</time></trkpt><trkpt lat="45.5993976" lon="10.780147"><ele>231.0</ele><time>2026-03-28T13:31:23.751Z</time></trkpt><trkpt lat="45.5993034" lon="10.7799063"><ele>231.0</ele><time>2026-03-28T13:31:24.751Z</time></trkpt><trkpt lat="45.5992019" lon="10.7796688"><ele>231.0</ele><time>2026-03-28T13:31:25.751Z</time></trkpt><trkpt lat="45.5990984" lon="10.7794325"><ele>231.33333333333331</ele><time>2026-03-28T13:31:26.75Z</time></trkpt><trkpt lat="45.5989938" lon="10.7792065"><ele>231.66666666666666</ele><time>2026-03-28T13:31:27.75Z</time></trkpt><trkpt lat="45.5988865" lon="10.7789852"><ele>232.0</ele><time>2026-03-28T13:31:28.75Z</time></trkpt><trkpt lat="45.5987784" lon="10.7787631"><ele>232.0</ele><time>2026-03-28T13:31:29.75Z</time></trkpt><trkpt lat="45.5986678" lon="10.778539"><ele>232.0</ele><time>2026-03-28T13:31:30.751Z</time></trkpt><trkpt lat="45.5985546" lon="10.7783043"><ele>232.0</ele><time>2026-03-28T13:31:31.751Z</time></trkpt><trkpt lat="45.5984398" lon="10.7780558"><ele>232.0</ele><time>2026-03-28T13:31:32.75Z</time></trkpt><trkpt lat="45.5983191" lon="10.7777879"><ele>232.0</ele><time>2026-03-28T13:31:33.75Z</time></trkpt><trkpt lat="45.5981975" lon="10.7775009"><ele>232.0</ele><time>2026-03-28T13:31:34.75Z</time></trkpt><trkpt lat="45.598087" lon="10.7772062"><ele>232.0</ele><time>2026-03-28T13:31:35.751Z</time></trkpt><trkpt lat="45.597983" lon="10.7769049"><ele>232.5</ele><time>2026-03-28T13:31:36.75Z</time></trkpt><trkpt lat="45.597883" lon="10.776603"><ele>233.0</ele><time>2026-03-28T13:31:37.75Z</time></trkpt><trkpt lat="45.5977833" lon="10.7762992"><ele>230.5</ele><time>2026-03-28T13:31:38.75Z</time></trkpt><trkpt lat="45.5976834" lon="10.7759955"><ele>228.0</ele><time>2026-03-28T13:31:39.75Z</time></trkpt><trkpt lat="45.5975907" lon="10.7757057"><ele>228.0</ele><time>2026-03-28T13:31:40.75Z</time></trkpt><trkpt lat="45.5975062" lon="10.7754341"><ele>228.0</ele><time>2026-03-28T13:31:41.75Z</time></trkpt><trkpt lat="45.5974266" lon="10.77518"><ele>228.0</ele><time>2026-03-28T13:31:42.75Z</time></trkpt><trkpt lat="45.5973512" lon="10.7749431"><ele>228.0</ele><time>2026-03-28T13:31:43.751Z</time></trkpt><trkpt lat="45.5972808" lon="10.7747246"><ele>228.0</ele><time>2026-03-28T13:31:44.75Z</time></trkpt><trkpt lat="45.5972256" lon="10.7745174"><ele>228.0</ele><time>2026-03-28T13:31:45.75Z</time></trkpt><trkpt lat="45.5971948" lon="10.7743141"><ele>228.0</ele><time>2026-03-28T13:31:46.75Z</time></trkpt><trkpt lat="45.5971858" lon="10.7741376"><ele>228.0</ele><time>2026-03-28T13:31:47.75Z</time></trkpt><trkpt lat="45.5971558" lon="10.7740022"><ele>228.0</ele><time>2026-03-28T13:31:48.75Z</time></trkpt><trkpt lat="45.5970964" lon="10.7739228"><ele>228.0</ele><time>2026-03-28T13:31:49.751Z</time></trkpt><trkpt lat="45.5970269" lon="10.7738909"><ele>228.0</ele><time>2026-03-28T13:31:50.75Z</time></trkpt><trkpt lat="45.5969493" lon="10.7739114"><ele>227.0</ele><time>2026-03-28T13:31:51.751Z</time></trkpt><trkpt lat="45.5968721" lon="10.7739841"><ele>226.0</ele><time>2026-03-28T13:31:52.751Z</time></trkpt><trkpt lat="45.5967832" lon="10.7740932"><ele>225.0</ele><time>2026-03-28T13:31:53.751Z</time></trkpt><trkpt lat="45.5966426" lon="10.7742002"><ele>224.0</ele><time>2026-03-28T13:31:54.75Z</time></trkpt><trkpt lat="45.5964693" lon="10.7743305"><ele>224.0</ele><time>2026-03-28T13:31:55.751Z</time></trkpt><trkpt lat="45.5962992" lon="10.7745216"><ele>224.0</ele><time>2026-03-28T13:31:56.75Z</time></trkpt><trkpt lat="45.5961436" lon="10.7747553"><ele>224.0</ele><time>2026-03-28T13:31:57.75Z</time></trkpt><trkpt lat="45.5959915" lon="10.7749908"><ele>223.66666666666669</ele><time>2026-03-28T13:31:58.751Z</time></trkpt><trkpt lat="45.5958117" lon="10.7751723"><ele>223.33333333333331</ele><time>2026-03-28T13:31:59.75Z</time></trkpt><trkpt lat="45.5956245" lon="10.7753084"><ele>223.0</ele><time>2026-03-28T13:32:00.752Z</time></trkpt><trkpt lat="45.5954581" lon="10.775443"><ele>224.0</ele><time>2026-03-28T13:32:01.751Z</time></trkpt><trkpt lat="45.5953053" lon="10.7755766"><ele>225.0</ele><time>2026-03-28T13:32:02.75Z</time></trkpt><trkpt lat="45.5951624" lon="10.7757063"><ele>226.0</ele><time>2026-03-28T13:32:03.75Z</time></trkpt><trkpt lat="45.5950361" lon="10.7758334"><ele>226.0</ele><time>2026-03-28T13:32:04.751Z</time></trkpt><trkpt lat="45.5949312" lon="10.7759332"><ele>226.00000000000003</ele><time>2026-03-28T13:32:05.751Z</time></trkpt><trkpt lat="45.5948427" lon="10.7760066"><ele>226.00000000000003</ele><time>2026-03-28T13:32:06.75Z</time></trkpt><trkpt lat="45.5947635" lon="10.7760563"><ele>226.0</ele><time>2026-03-28T13:32:07.751Z</time></trkpt><trkpt lat="45.5946872" lon="10.7760982"><ele>226.0</ele><time>2026-03-28T13:32:08.75Z</time></trkpt><trkpt lat="45.5946123" lon="10.7761103"><ele>226.20000000000002</ele><time>2026-03-28T13:32:09.75Z</time></trkpt><trkpt lat="45.5945461" lon="10.7760807"><ele>226.40000000000003</ele><time>2026-03-28T13:32:10.751Z</time></trkpt><trkpt lat="45.5944876" lon="10.7760193"><ele>226.6</ele><time>2026-03-28T13:32:11.751Z</time></trkpt><trkpt lat="45.5944212" lon="10.7759334"><ele>226.8</ele><time>2026-03-28T13:32:12.75Z</time></trkpt><trkpt lat="45.5943409" lon="10.7758215"><ele>227.0</ele><time>2026-03-28T13:32:13.751Z</time></trkpt><trkpt lat="45.5942424" lon="10.7756884"><ele>226.33333333333334</ele><time>2026-03-28T13:32:14.751Z</time></trkpt><trkpt lat="45.5941269" lon="10.7755387"><ele>225.66666666666669</ele><time>2026-03-28T13:32:15.75Z</time></trkpt><trkpt lat="45.594005" lon="10.7753733"><ele>225.0</ele><time>2026-03-28T13:32:16.75Z</time></trkpt><trkpt lat="45.5938799" lon="10.7752003"><ele>224.66666666666669</ele><time>2026-03-28T13:32:17.751Z</time></trkpt><trkpt lat="45.5937622" lon="10.7750422"><ele>224.33333333333334</ele><time>2026-03-28T13:32:18.751Z</time></trkpt><trkpt lat="45.5936469" lon="10.7749006"><ele>224.0</ele><time>2026-03-28T13:32:19.75Z</time></trkpt><trkpt lat="45.5935299" lon="10.7747811"><ele>224.0</ele><time>2026-03-28T13:32:20.75Z</time></trkpt><trkpt lat="45.593399" lon="10.7746819"><ele>224.0</ele><time>2026-03-28T13:32:21.751Z</time></trkpt><trkpt lat="45.5932404" lon="10.7745878"><ele>224.0</ele><time>2026-03-28T13:32:22.751Z</time></trkpt><trkpt lat="45.5930627" lon="10.7744985"><ele>224.0</ele><time>2026-03-28T13:32:23.75Z</time></trkpt><trkpt lat="45.5928722" lon="10.7744042"><ele>224.0</ele><time>2026-03-28T13:32:24.75Z</time></trkpt><trkpt lat="45.5926913" lon="10.7743052"><ele>224.0</ele><time>2026-03-28T13:32:25.751Z</time></trkpt><trkpt lat="45.5925279" lon="10.774214"><ele>224.33333333333334</ele><time>2026-03-28T13:32:26.751Z</time></trkpt><trkpt lat="45.5923745" lon="10.7741221"><ele>224.66666666666669</ele><time>2026-03-28T13:32:27.75Z</time></trkpt><trkpt lat="45.5922251" lon="10.7740347"><ele>225.0</ele><time>2026-03-28T13:32:28.75Z</time></trkpt><trkpt lat="45.5920708" lon="10.7739507"><ele>224.5</ele><time>2026-03-28T13:32:29.75Z</time></trkpt><trkpt lat="45.5919274" lon="10.7738851"><ele>224.0</ele><time>2026-03-28T13:32:30.751Z</time></trkpt><trkpt lat="45.5917947" lon="10.7738171"><ele>223.5</ele><time>2026-03-28T13:32:31.751Z</time></trkpt><trkpt lat="45.5916571" lon="10.7737399"><ele>223.0</ele><time>2026-03-28T13:32:32.75Z</time></trkpt><trkpt lat="45.5915177" lon="10.7736693"><ele>223.0</ele><time>2026-03-28T13:32:33.75Z</time></trkpt><trkpt lat="45.5913877" lon="10.7736006"><ele>223.0</ele><time>2026-03-28T13:32:34.751Z</time></trkpt><trkpt lat="45.5912577" lon="10.7735374"><ele>223.0</ele><time>2026-03-28T13:32:35.751Z</time></trkpt><trkpt lat="45.5911353" lon="10.7734718"><ele>223.0</ele><time>2026-03-28T13:32:36.75Z</time></trkpt><trkpt lat="45.5910237" lon="10.7734056"><ele>222.5</ele><time>2026-03-28T13:32:37.751Z</time></trkpt><trkpt lat="45.5909107" lon="10.7733285"><ele>222.0</ele><time>2026-03-28T13:32:38.751Z</time></trkpt><trkpt lat="45.5908093" lon="10.7732416"><ele>221.5</ele><time>2026-03-28T13:32:39.75Z</time></trkpt><trkpt lat="45.590719" lon="10.7731496"><ele>221.0</ele><time>2026-03-28T13:32:40.75Z</time></trkpt><trkpt lat="45.5906401" lon="10.7730566"><ele>221.00000000000003</ele><time>2026-03-28T13:32:41.751Z</time></trkpt><trkpt lat="45.5905663" lon="10.7729653"><ele>221.0</ele><time>2026-03-28T13:32:42.75Z</time></trkpt><trkpt lat="45.5905075" lon="10.7728793"><ele>221.0</ele><time>2026-03-28T13:32:43.75Z</time></trkpt><trkpt lat="45.5904665" lon="10.7727968"><ele>221.0</ele><time>2026-03-28T13:32:44.75Z</time></trkpt><trkpt lat="45.5904479" lon="10.772647"><ele>221.00000000000003</ele><time>2026-03-28T13:32:46.751Z</time></trkpt><trkpt lat="45.5904701" lon="10.7725581"><ele>221.0</ele><time>2026-03-28T13:32:47.75Z</time></trkpt><trkpt lat="45.5905164" lon="10.7724385"><ele>221.0</ele><time>2026-03-28T13:32:48.75Z</time></trkpt><trkpt lat="45.5905781" lon="10.7723149"><ele>221.00000000000003</ele><time>2026-03-28T13:32:49.75Z</time></trkpt><trkpt lat="45.5906433" lon="10.7722105"><ele>221.00000000000003</ele><time>2026-03-28T13:32:50.751Z</time></trkpt><trkpt lat="45.5907147" lon="10.7720813"><ele>221.0</ele><time>2026-03-28T13:32:51.751Z</time></trkpt><trkpt lat="45.5907767" lon="10.7719397"><ele>221.0</ele><time>2026-03-28T13:32:52.75Z</time></trkpt><trkpt lat="45.5908438" lon="10.7717955"><ele>220.60000000000002</ele><time>2026-03-28T13:32:53.751Z</time></trkpt><trkpt lat="45.590902" lon="10.7716484"><ele>220.20000000000002</ele><time>2026-03-28T13:32:54.751Z</time></trkpt><trkpt lat="45.5909645" lon="10.7714962"><ele>219.79999999999998</ele><time>2026-03-28T13:32:55.751Z</time></trkpt><trkpt lat="45.591022" lon="10.7713696"><ele>219.39999999999998</ele><time>2026-03-28T13:32:56.751Z</time></trkpt><trkpt lat="45.5910621" lon="10.7712553"><ele>219.0</ele><time>2026-03-28T13:32:57.75Z</time></trkpt><trkpt lat="45.5910717" lon="10.7711419"><ele>219.0</ele><time>2026-03-28T13:32:58.75Z</time></trkpt><trkpt lat="45.5910733" lon="10.7709882"><ele>219.0</ele><time>2026-03-28T13:32:59.751Z</time></trkpt><trkpt lat="45.5910643" lon="10.770814"><ele>219.0</ele><time>2026-03-28T13:33:00.751Z</time></trkpt><trkpt lat="45.5910553" lon="10.7706489"><ele>219.0</ele><time>2026-03-28T13:33:01.751Z</time></trkpt><trkpt lat="45.5910547" lon="10.7704957"><ele>219.0</ele><time>2026-03-28T13:33:02.75Z</time></trkpt><trkpt lat="45.5910613" lon="10.7703374"><ele>219.0</ele><time>2026-03-28T13:33:03.751Z</time></trkpt><trkpt lat="45.5910831" lon="10.7701919"><ele>219.0</ele><time>2026-03-28T13:33:04.75Z</time></trkpt><trkpt lat="45.5911194" lon="10.7700224"><ele>219.0</ele><time>2026-03-28T13:33:05.75Z</time></trkpt><trkpt lat="45.591158" lon="10.7698574"><ele>219.0</ele><time>2026-03-28T13:33:06.751Z</time></trkpt><trkpt lat="45.591199" lon="10.7696995"><ele>219.0</ele><time>2026-03-28T13:33:07.751Z</time></trkpt><trkpt lat="45.5912564" lon="10.7695252"><ele>219.0</ele><time>2026-03-28T13:33:08.75Z</time></trkpt><trkpt lat="45.5913142" lon="10.7693466"><ele>219.0</ele><time>2026-03-28T13:33:09.75Z</time></trkpt><trkpt lat="45.5913705" lon="10.7691673"><ele>218.5</ele><time>2026-03-28T13:33:10.751Z</time></trkpt><trkpt lat="45.5914204" lon="10.7689932"><ele>218.0</ele><time>2026-03-28T13:33:11.751Z</time></trkpt><trkpt lat="45.5914618" lon="10.7688312"><ele>217.5</ele><time>2026-03-28T13:33:12.75Z</time></trkpt><trkpt lat="45.5914941" lon="10.768676"><ele>217.0</ele><time>2026-03-28T13:33:13.75Z</time></trkpt><trkpt lat="45.591518" lon="10.768531"><ele>217.0</ele><time>2026-03-28T13:33:14.75Z</time></trkpt><trkpt lat="45.5915393" lon="10.7684069"><ele>217.0</ele><time>2026-03-28T13:33:15.75Z</time></trkpt><trkpt lat="45.5915489" lon="10.7682867"><ele>217.0</ele><time>2026-03-28T13:33:16.751Z</time></trkpt><trkpt lat="45.5915387" lon="10.7681407"><ele>217.0</ele><time>2026-03-28T13:33:17.75Z</time></trkpt><trkpt lat="45.5915258" lon="10.7679478"><ele>217.0</ele><time>2026-03-28T13:33:18.751Z</time></trkpt><trkpt lat="45.5915173" lon="10.7677633"><ele>217.25</ele><time>2026-03-28T13:33:19.75Z</time></trkpt><trkpt lat="45.5915214" lon="10.7675841"><ele>217.5</ele><time>2026-03-28T13:33:20.75Z</time></trkpt><trkpt lat="45.5915363" lon="10.767404"><ele>217.75</ele><time>2026-03-28T13:33:21.75Z</time></trkpt><trkpt lat="45.5915597" lon="10.7672318"><ele>218.0</ele><time>2026-03-28T13:33:22.751Z</time></trkpt><trkpt lat="45.5915954" lon="10.7670575"><ele>218.0</ele><time>2026-03-28T13:33:23.751Z</time></trkpt><trkpt lat="45.5916466" lon="10.7668854"><ele>218.0</ele><time>2026-03-28T13:33:24.75Z</time></trkpt><trkpt lat="45.5917127" lon="10.766717"><ele>218.0</ele><time>2026-03-28T13:33:25.751Z</time></trkpt><trkpt lat="45.5917818" lon="10.7665532"><ele>218.0</ele><time>2026-03-28T13:33:26.75Z</time></trkpt><trkpt lat="45.5918481" lon="10.766388"><ele>217.5</ele><time>2026-03-28T13:33:27.75Z</time></trkpt><trkpt lat="45.5919109" lon="10.7662382"><ele>217.0</ele><time>2026-03-28T13:33:28.751Z</time></trkpt><trkpt lat="45.5919736" lon="10.7660891"><ele>216.5</ele><time>2026-03-28T13:33:29.751Z</time></trkpt><trkpt lat="45.592038" lon="10.7659438"><ele>216.0</ele><time>2026-03-28T13:33:30.751Z</time></trkpt><trkpt lat="45.5921129" lon="10.7658012"><ele>216.0</ele><time>2026-03-28T13:33:31.75Z</time></trkpt><trkpt lat="45.5921942" lon="10.7656721"><ele>216.0</ele><time>2026-03-28T13:33:32.75Z</time></trkpt><trkpt lat="45.5922644" lon="10.7655633"><ele>216.0</ele><time>2026-03-28T13:33:33.75Z</time></trkpt><trkpt lat="45.5923342" lon="10.7654403"><ele>216.0</ele><time>2026-03-28T13:33:34.75Z</time></trkpt><trkpt lat="45.5924092" lon="10.7653159"><ele>216.16666666666666</ele><time>2026-03-28T13:33:35.751Z</time></trkpt><trkpt lat="45.5924779" lon="10.7651897"><ele>216.33333333333331</ele><time>2026-03-28T13:33:36.75Z</time></trkpt><trkpt lat="45.5925357" lon="10.765068"><ele>216.5</ele><time>2026-03-28T13:33:37.75Z</time></trkpt><trkpt lat="45.592581" lon="10.7649734"><ele>216.66666666666666</ele><time>2026-03-28T13:33:38.75Z</time></trkpt><trkpt lat="45.5926094" lon="10.7648927"><ele>216.83333333333331</ele><time>2026-03-28T13:33:39.751Z</time></trkpt><trkpt lat="45.5926215" lon="10.7647743"><ele>217.0</ele><time>2026-03-28T13:33:41.75Z</time></trkpt><trkpt lat="45.5926111" lon="10.7646688"><ele>216.99999999999997</ele><time>2026-03-28T13:33:46.75Z</time></trkpt><trkpt lat="45.5926345" lon="10.764548"><ele>217.0</ele><time>2026-03-28T13:33:49.751Z</time></trkpt><trkpt lat="45.592713" lon="10.7644259"><ele>217.0</ele><time>2026-03-28T13:33:51.75Z</time></trkpt><trkpt lat="45.5927578" lon="10.7643382"><ele>217.0</ele><time>2026-03-28T13:33:52.751Z</time></trkpt><trkpt lat="45.5928026" lon="10.7642629"><ele>216.99999999999997</ele><time>2026-03-28T13:33:53.751Z</time></trkpt><trkpt lat="45.5928638" lon="10.7641839"><ele>217.0</ele><time>2026-03-28T13:33:54.751Z</time></trkpt><trkpt lat="45.5929325" lon="10.7641057"><ele>216.83333333333331</ele><time>2026-03-28T13:33:55.75Z</time></trkpt><trkpt lat="45.5929982" lon="10.7640366"><ele>216.66666666666666</ele><time>2026-03-28T13:33:56.75Z</time></trkpt><trkpt lat="45.5930484" lon="10.7639776"><ele>216.5</ele><time>2026-03-28T13:33:57.751Z</time></trkpt><trkpt lat="45.5931276" lon="10.7639149"><ele>216.33333333333331</ele><time>2026-03-28T13:33:59.75Z</time></trkpt><trkpt lat="45.5931847" lon="10.7638714"><ele>216.16666666666666</ele><time>2026-03-28T13:34:05.75Z</time></trkpt><trkpt lat="45.5932195" lon="10.7637545"><ele>216.0</ele><time>2026-03-28T13:34:07.751Z</time></trkpt><trkpt lat="45.5932515" lon="10.7636489"><ele>216.0</ele><time>2026-03-28T13:34:08.75Z</time></trkpt><trkpt lat="45.593299" lon="10.7635114"><ele>216.0</ele><time>2026-03-28T13:34:09.751Z</time></trkpt><trkpt lat="45.5933533" lon="10.763362"><ele>216.0</ele><time>2026-03-28T13:34:10.75Z</time></trkpt><trkpt lat="45.5934051" lon="10.7632161"><ele>216.0</ele><time>2026-03-28T13:34:11.75Z</time></trkpt><trkpt lat="45.5934565" lon="10.7630626"><ele>216.0</ele><time>2026-03-28T13:34:12.751Z</time></trkpt><trkpt lat="45.5935087" lon="10.762903"><ele>216.0</ele><time>2026-03-28T13:34:13.75Z</time></trkpt><trkpt lat="45.5935543" lon="10.7627284"><ele>216.0</ele><time>2026-03-28T13:34:14.751Z</time></trkpt><trkpt lat="45.5935901" lon="10.7625315"><ele>216.0</ele><time>2026-03-28T13:34:15.751Z</time></trkpt><trkpt lat="45.5936228" lon="10.7623129"><ele>216.0</ele><time>2026-03-28T13:34:16.751Z</time></trkpt><trkpt lat="45.5936548" lon="10.7620925"><ele>216.0</ele><time>2026-03-28T13:34:17.751Z</time></trkpt><trkpt lat="45.5936792" lon="10.7618934"><ele>216.0</ele><time>2026-03-28T13:34:18.751Z</time></trkpt><trkpt lat="45.5936955" lon="10.7616972"><ele>216.0</ele><time>2026-03-28T13:34:19.751Z</time></trkpt><trkpt lat="45.5937088" lon="10.7615053"><ele>216.0</ele><time>2026-03-28T13:34:20.751Z</time></trkpt><trkpt lat="45.5937097" lon="10.7612985"><ele>216.0</ele><time>2026-03-28T13:34:21.75Z</time></trkpt><trkpt lat="45.5937135" lon="10.7610779"><ele>216.0</ele><time>2026-03-28T13:34:22.75Z</time></trkpt><trkpt lat="45.5937213" lon="10.7608494"><ele>216.0</ele><time>2026-03-28T13:34:23.75Z</time></trkpt><trkpt lat="45.5937255" lon="10.7606168"><ele>216.0</ele><time>2026-03-28T13:34:24.75Z</time></trkpt><trkpt lat="45.5937287" lon="10.7603804"><ele>216.0</ele><time>2026-03-28T13:34:25.751Z</time></trkpt><trkpt lat="45.5937319" lon="10.7601627"><ele>216.66666666666669</ele><time>2026-03-28T13:34:26.751Z</time></trkpt><trkpt lat="45.59374" lon="10.7599254"><ele>217.33333333333334</ele><time>2026-03-28T13:34:27.75Z</time></trkpt><trkpt lat="45.5937507" lon="10.7596893"><ele>218.0</ele><time>2026-03-28T13:34:28.75Z</time></trkpt><trkpt lat="45.5937629" lon="10.7594806"><ele>219.0</ele><time>2026-03-28T13:34:29.752Z</time></trkpt><trkpt lat="45.5937795" lon="10.7592861"><ele>220.0</ele><time>2026-03-28T13:34:30.75Z</time></trkpt><trkpt lat="45.5937967" lon="10.7591077"><ele>221.0</ele><time>2026-03-28T13:34:31.75Z</time></trkpt><trkpt lat="45.5938153" lon="10.7589307"><ele>222.0</ele><time>2026-03-28T13:34:32.75Z</time></trkpt><trkpt lat="45.5938323" lon="10.7587602"><ele>222.0</ele><time>2026-03-28T13:34:33.75Z</time></trkpt><trkpt lat="45.5938484" lon="10.758613"><ele>222.0</ele><time>2026-03-28T13:34:34.751Z</time></trkpt><trkpt lat="45.593877" lon="10.7584896"><ele>222.0</ele><time>2026-03-28T13:34:35.751Z</time></trkpt><trkpt lat="45.5939167" lon="10.7583912"><ele>222.0</ele><time>2026-03-28T13:34:36.752Z</time></trkpt><trkpt lat="45.5939506" lon="10.7582777"><ele>222.0</ele><time>2026-03-28T13:34:37.751Z</time></trkpt><trkpt lat="45.5939866" lon="10.7581322"><ele>221.33333333333331</ele><time>2026-03-28T13:34:38.75Z</time></trkpt><trkpt lat="45.5940335" lon="10.7579518"><ele>220.66666666666666</ele><time>2026-03-28T13:34:39.75Z</time></trkpt><trkpt lat="45.5940974" lon="10.7577315"><ele>220.0</ele><time>2026-03-28T13:34:40.751Z</time></trkpt><trkpt lat="45.5941669" lon="10.7574794"><ele>220.0</ele><time>2026-03-28T13:34:41.751Z</time></trkpt><trkpt lat="45.5942348" lon="10.7572297"><ele>220.0</ele><time>2026-03-28T13:34:42.75Z</time></trkpt><trkpt lat="45.5942938" lon="10.7570111"><ele>220.0</ele><time>2026-03-28T13:34:43.75Z</time></trkpt><trkpt lat="45.5943462" lon="10.7568137"><ele>220.0</ele><time>2026-03-28T13:34:44.751Z</time></trkpt><trkpt lat="45.5943937" lon="10.7566248"><ele>220.0</ele><time>2026-03-28T13:34:45.751Z</time></trkpt><trkpt lat="45.5944423" lon="10.7564129"><ele>220.0</ele><time>2026-03-28T13:34:46.75Z</time></trkpt><trkpt lat="45.5944979" lon="10.7562208"><ele>220.0</ele><time>2026-03-28T13:34:47.75Z</time></trkpt><trkpt lat="45.5945578" lon="10.7560295"><ele>221.25</ele><time>2026-03-28T13:34:48.751Z</time></trkpt><trkpt lat="45.5946239" lon="10.7558414"><ele>222.5</ele><time>2026-03-28T13:34:49.751Z</time></trkpt><trkpt lat="45.594697" lon="10.7556611"><ele>223.75</ele><time>2026-03-28T13:34:50.75Z</time></trkpt><trkpt lat="45.5947694" lon="10.7554811"><ele>225.0</ele><time>2026-03-28T13:34:51.75Z</time></trkpt><trkpt lat="45.5948436" lon="10.7553058"><ele>225.33333333333331</ele><time>2026-03-28T13:34:52.752Z</time></trkpt><trkpt lat="45.5949158" lon="10.7551322"><ele>225.66666666666666</ele><time>2026-03-28T13:34:53.751Z</time></trkpt><trkpt lat="45.594988" lon="10.7549522"><ele>226.0</ele><time>2026-03-28T13:34:54.75Z</time></trkpt><trkpt lat="45.5950647" lon="10.7547327"><ele>226.0</ele><time>2026-03-28T13:34:55.751Z</time></trkpt><trkpt lat="45.5951312" lon="10.7544995"><ele>226.0</ele><time>2026-03-28T13:34:56.751Z</time></trkpt><trkpt lat="45.5951802" lon="10.7542857"><ele>226.0</ele><time>2026-03-28T13:34:57.751Z</time></trkpt><trkpt lat="45.5952261" lon="10.7540808"><ele>226.25</ele><time>2026-03-28T13:34:58.75Z</time></trkpt><trkpt lat="45.595269" lon="10.7538667"><ele>226.5</ele><time>2026-03-28T13:34:59.751Z</time></trkpt><trkpt lat="45.595309" lon="10.7536634"><ele>226.75</ele><time>2026-03-28T13:35:00.751Z</time></trkpt><trkpt lat="45.5953405" lon="10.753496"><ele>227.0</ele><time>2026-03-28T13:35:01.751Z</time></trkpt><trkpt lat="45.5953603" lon="10.7533837"><ele>228.39999999999998</ele><time>2026-03-28T13:35:02.75Z</time></trkpt><trkpt lat="45.5954418" lon="10.7532653"><ele>229.79999999999998</ele><time>2026-03-28T13:35:04.751Z</time></trkpt><trkpt lat="45.5955399" lon="10.7532168"><ele>231.2</ele><time>2026-03-28T13:35:05.751Z</time></trkpt><trkpt lat="45.5956507" lon="10.7531815"><ele>232.6</ele><time>2026-03-28T13:35:06.75Z</time></trkpt><trkpt lat="45.5957471" lon="10.7531513"><ele>234.0</ele><time>2026-03-28T13:35:07.751Z</time></trkpt><trkpt lat="45.5958253" lon="10.7531146"><ele>234.0</ele><time>2026-03-28T13:35:08.75Z</time></trkpt><trkpt lat="45.5958954" lon="10.7530242"><ele>233.99999999999997</ele><time>2026-03-28T13:35:10.75Z</time></trkpt><trkpt lat="45.5958529" lon="10.7529085"><ele>233.99999999999997</ele><time>2026-03-28T13:35:12.751Z</time></trkpt><trkpt lat="45.5957728" lon="10.7528387"><ele>234.0</ele><time>2026-03-28T13:35:13.751Z</time></trkpt><trkpt lat="45.595715" lon="10.7527961"><ele>234.0</ele><time>2026-03-28T13:35:14.75Z</time></trkpt><trkpt lat="45.5956259" lon="10.7527166"><ele>233.66666666666666</ele><time>2026-03-28T13:35:16.75Z</time></trkpt><trkpt lat="45.5955678" lon="10.7526696"><ele>233.33333333333331</ele><time>2026-03-28T13:35:17.75Z</time></trkpt><trkpt lat="45.5955127" lon="10.7526232"><ele>233.0</ele><time>2026-03-28T13:35:18.751Z</time></trkpt><trkpt lat="45.5954743" lon="10.7525443"><ele>232.66666666666666</ele><time>2026-03-28T13:35:20.751Z</time></trkpt><trkpt lat="45.5954235" lon="10.7524279"><ele>232.33333333333331</ele><time>2026-03-28T13:35:22.75Z</time></trkpt><trkpt lat="45.5953669" lon="10.7523614"><ele>232.0</ele><time>2026-03-28T13:35:23.75Z</time></trkpt><trkpt lat="45.5952882" lon="10.7522887"><ele>231.25</ele><time>2026-03-28T13:35:24.751Z</time></trkpt><trkpt lat="45.5951776" lon="10.7521949"><ele>230.5</ele><time>2026-03-28T13:35:25.75Z</time></trkpt><trkpt lat="45.5950511" lon="10.7520821"><ele>229.75</ele><time>2026-03-28T13:35:26.75Z</time></trkpt><trkpt lat="45.594914" lon="10.7519474"><ele>229.0</ele><time>2026-03-28T13:35:27.751Z</time></trkpt><trkpt lat="45.5947702" lon="10.7518011"><ele>229.0</ele><time>2026-03-28T13:35:28.75Z</time></trkpt><trkpt lat="45.5946243" lon="10.7516536"><ele>229.0</ele><time>2026-03-28T13:35:29.751Z</time></trkpt><trkpt lat="45.594491" lon="10.7515208"><ele>229.0</ele><time>2026-03-28T13:35:30.75Z</time></trkpt><trkpt lat="45.5943635" lon="10.7513918"><ele>228.0</ele><time>2026-03-28T13:35:31.751Z</time></trkpt><trkpt lat="45.5942311" lon="10.7512582"><ele>227.0</ele><time>2026-03-28T13:35:32.751Z</time></trkpt><trkpt lat="45.5940969" lon="10.7511218"><ele>226.0</ele><time>2026-03-28T13:35:33.75Z</time></trkpt><trkpt lat="45.5939587" lon="10.7509788"><ele>226.0</ele><time>2026-03-28T13:35:34.75Z</time></trkpt><trkpt lat="45.5938197" lon="10.7508341"><ele>226.0</ele><time>2026-03-28T13:35:35.751Z</time></trkpt><trkpt lat="45.5936821" lon="10.7506943"><ele>226.0</ele><time>2026-03-28T13:35:36.75Z</time></trkpt><trkpt lat="45.5935402" lon="10.750554"><ele>225.33333333333331</ele><time>2026-03-28T13:35:37.75Z</time></trkpt><trkpt lat="45.5933933" lon="10.7504261"><ele>224.66666666666669</ele><time>2026-03-28T13:35:38.75Z</time></trkpt><trkpt lat="45.5932366" lon="10.7503045"><ele>224.0</ele><time>2026-03-28T13:35:39.751Z</time></trkpt><trkpt lat="45.5930734" lon="10.7501901"><ele>224.0</ele><time>2026-03-28T13:35:40.75Z</time></trkpt><trkpt lat="45.5929026" lon="10.7500755"><ele>224.0</ele><time>2026-03-28T13:35:41.75Z</time></trkpt><trkpt lat="45.5927488" lon="10.7499671"><ele>224.0</ele><time>2026-03-28T13:35:42.751Z</time></trkpt><trkpt lat="45.5926048" lon="10.7498685"><ele>223.33333333333334</ele><time>2026-03-28T13:35:43.75Z</time></trkpt><trkpt lat="45.5924519" lon="10.7497639"><ele>222.66666666666669</ele><time>2026-03-28T13:35:44.751Z</time></trkpt><trkpt lat="45.5922966" lon="10.7496488"><ele>222.0</ele><time>2026-03-28T13:35:45.751Z</time></trkpt><trkpt lat="45.5921322" lon="10.7495271"><ele>222.0</ele><time>2026-03-28T13:35:46.751Z</time></trkpt><trkpt lat="45.5919633" lon="10.7493911"><ele>222.0</ele><time>2026-03-28T13:35:47.751Z</time></trkpt><trkpt lat="45.5918182" lon="10.7492748"><ele>222.0</ele><time>2026-03-28T13:35:48.75Z</time></trkpt><trkpt lat="45.5916795" lon="10.7491616"><ele>222.0</ele><time>2026-03-28T13:35:49.751Z</time></trkpt><trkpt lat="45.591535" lon="10.7490435"><ele>222.0</ele><time>2026-03-28T13:35:50.75Z</time></trkpt><trkpt lat="45.5914018" lon="10.7489331"><ele>222.0</ele><time>2026-03-28T13:35:51.75Z</time></trkpt><trkpt lat="45.5912869" lon="10.7488341"><ele>222.0</ele><time>2026-03-28T13:35:52.751Z</time></trkpt><trkpt lat="45.591191" lon="10.7487518"><ele>222.0</ele><time>2026-03-28T13:35:53.751Z</time></trkpt><trkpt lat="45.5910978" lon="10.7486772"><ele>222.0</ele><time>2026-03-28T13:35:54.75Z</time></trkpt><trkpt lat="45.5910095" lon="10.7486099"><ele>222.0</ele><time>2026-03-28T13:35:55.751Z</time></trkpt><trkpt lat="45.5909305" lon="10.748548"><ele>222.0</ele><time>2026-03-28T13:35:56.75Z</time></trkpt><trkpt lat="45.5908645" lon="10.7484999"><ele>222.0</ele><time>2026-03-28T13:35:57.75Z</time></trkpt><trkpt lat="45.5907668" lon="10.7484679"><ele>222.0</ele><time>2026-03-28T13:35:59.751Z</time></trkpt><trkpt lat="45.590698" lon="10.7484468"><ele>222.0</ele><time>2026-03-28T13:36:01.75Z</time></trkpt><trkpt lat="45.5906308" lon="10.748396"><ele>222.0</ele><time>2026-03-28T13:36:02.751Z</time></trkpt><trkpt lat="45.5905104" lon="10.7482925"><ele>222.0</ele><time>2026-03-28T13:36:03.75Z</time></trkpt><trkpt lat="45.5903658" lon="10.7481838"><ele>222.0</ele><time>2026-03-28T13:36:04.75Z</time></trkpt><trkpt lat="45.5902109" lon="10.7480794"><ele>222.0</ele><time>2026-03-28T13:36:05.751Z</time></trkpt><trkpt lat="45.5900294" lon="10.747963"><ele>222.0</ele><time>2026-03-28T13:36:06.75Z</time></trkpt><trkpt lat="45.5898303" lon="10.7478412"><ele>222.0</ele><time>2026-03-28T13:36:07.751Z</time></trkpt><trkpt lat="45.5896228" lon="10.7477135"><ele>222.0</ele><time>2026-03-28T13:36:08.75Z</time></trkpt><trkpt lat="45.5894372" lon="10.7476003"><ele>222.0</ele><time>2026-03-28T13:36:09.75Z</time></trkpt><trkpt lat="45.5892628" lon="10.7474928"><ele>221.66666666666669</ele><time>2026-03-28T13:36:10.75Z</time></trkpt><trkpt lat="45.5890993" lon="10.7473931"><ele>221.33333333333334</ele><time>2026-03-28T13:36:11.751Z</time></trkpt><trkpt lat="45.5889485" lon="10.7473011"><ele>221.0</ele><time>2026-03-28T13:36:12.751Z</time></trkpt><trkpt lat="45.5888077" lon="10.7472153"><ele>221.0</ele><time>2026-03-28T13:36:13.75Z</time></trkpt><trkpt lat="45.5886841" lon="10.747139"><ele>221.0</ele><time>2026-03-28T13:36:14.75Z</time></trkpt><trkpt lat="45.5885696" lon="10.7470703"><ele>221.0</ele><time>2026-03-28T13:36:15.75Z</time></trkpt><trkpt lat="45.5884675" lon="10.7470098"><ele>221.0</ele><time>2026-03-28T13:36:16.75Z</time></trkpt><trkpt lat="45.5883906" lon="10.7469583"><ele>221.00000000000003</ele><time>2026-03-28T13:36:17.751Z</time></trkpt><trkpt lat="45.588332" lon="10.7469117"><ele>221.0</ele><time>2026-03-28T13:36:18.75Z</time></trkpt><trkpt lat="45.5882795" lon="10.7468614"><ele>221.0</ele><time>2026-03-28T13:36:19.751Z</time></trkpt><trkpt lat="45.5881921" lon="10.7467282"><ele>221.0</ele><time>2026-03-28T13:36:21.75Z</time></trkpt><trkpt lat="45.5881399" lon="10.7466448"><ele>221.00000000000003</ele><time>2026-03-28T13:36:22.75Z</time></trkpt><trkpt lat="45.588066" lon="10.7465812"><ele>221.0</ele><time>2026-03-28T13:36:23.751Z</time></trkpt><trkpt lat="45.5879978" lon="10.7465538"><ele>221.60000000000002</ele><time>2026-03-28T13:36:24.75Z</time></trkpt><trkpt lat="45.5879272" lon="10.7465699"><ele>222.20000000000002</ele><time>2026-03-28T13:36:25.75Z</time></trkpt><trkpt lat="45.5878664" lon="10.7466393"><ele>222.79999999999998</ele><time>2026-03-28T13:36:26.75Z</time></trkpt><trkpt lat="45.5878166" lon="10.746751"><ele>223.39999999999998</ele><time>2026-03-28T13:36:27.751Z</time></trkpt><trkpt lat="45.587769" lon="10.7468857"><ele>224.0</ele><time>2026-03-28T13:36:28.751Z</time></trkpt><trkpt lat="45.5877022" lon="10.7470195"><ele>224.0</ele><time>2026-03-28T13:36:29.75Z</time></trkpt><trkpt lat="45.5876236" lon="10.7471429"><ele>224.0</ele><time>2026-03-28T13:36:30.751Z</time></trkpt><trkpt lat="45.5875373" lon="10.7472717"><ele>224.0</ele><time>2026-03-28T13:36:31.75Z</time></trkpt><trkpt lat="45.5874536" lon="10.7473891"><ele>224.0</ele><time>2026-03-28T13:36:32.751Z</time></trkpt><trkpt lat="45.5873619" lon="10.7475146"><ele>224.0</ele><time>2026-03-28T13:36:33.751Z</time></trkpt><trkpt lat="45.5872672" lon="10.7476329"><ele>223.99999999999997</ele><time>2026-03-28T13:36:34.75Z</time></trkpt><trkpt lat="45.5871648" lon="10.7477425"><ele>223.99999999999997</ele><time>2026-03-28T13:36:35.75Z</time></trkpt><trkpt lat="45.587092" lon="10.7478155"><ele>224.0</ele><time>2026-03-28T13:36:36.75Z</time></trkpt><trkpt lat="45.587002" lon="10.7478927"><ele>224.0</ele><time>2026-03-28T13:36:38.75Z</time></trkpt><trkpt lat="45.586941" lon="10.7479254"><ele>223.79999999999998</ele><time>2026-03-28T13:36:39.75Z</time></trkpt><trkpt lat="45.5868661" lon="10.7479685"><ele>223.59999999999997</ele><time>2026-03-28T13:36:40.75Z</time></trkpt><trkpt lat="45.5867915" lon="10.7480535"><ele>223.4</ele><time>2026-03-28T13:36:41.751Z</time></trkpt><trkpt lat="45.586708" lon="10.7481629"><ele>223.2</ele><time>2026-03-28T13:36:42.751Z</time></trkpt><trkpt lat="45.5866098" lon="10.7482668"><ele>223.0</ele><time>2026-03-28T13:36:43.751Z</time></trkpt><trkpt lat="45.5864988" lon="10.7483686"><ele>223.0</ele><time>2026-03-28T13:36:44.75Z</time></trkpt><trkpt lat="45.5863909" lon="10.7484757"><ele>223.0</ele><time>2026-03-28T13:36:45.75Z</time></trkpt><trkpt lat="45.5862875" lon="10.7485735"><ele>223.0</ele><time>2026-03-28T13:36:46.75Z</time></trkpt><trkpt lat="45.5861863" lon="10.7486663"><ele>223.0</ele><time>2026-03-28T13:36:47.75Z</time></trkpt><trkpt lat="45.5860921" lon="10.7487566"><ele>222.60000000000002</ele><time>2026-03-28T13:36:48.751Z</time></trkpt><trkpt lat="45.5860027" lon="10.7488408"><ele>222.20000000000002</ele><time>2026-03-28T13:36:49.751Z</time></trkpt><trkpt lat="45.585916" lon="10.7489237"><ele>221.8</ele><time>2026-03-28T13:36:50.75Z</time></trkpt><trkpt lat="45.5858355" lon="10.7489975"><ele>221.4</ele><time>2026-03-28T13:36:51.75Z</time></trkpt><trkpt lat="45.5857594" lon="10.7490604"><ele>221.0</ele><time>2026-03-28T13:36:52.751Z</time></trkpt><trkpt lat="45.5856913" lon="10.7491019"><ele>221.0</ele><time>2026-03-28T13:36:53.751Z</time></trkpt><trkpt lat="45.5855902" lon="10.7490383"><ele>221.00000000000003</ele><time>2026-03-28T13:36:55.751Z</time></trkpt><trkpt lat="45.5855209" lon="10.7489896"><ele>221.00000000000003</ele><time>2026-03-28T13:36:56.75Z</time></trkpt><trkpt lat="45.5854299" lon="10.7489314"><ele>221.0</ele><time>2026-03-28T13:36:57.75Z</time></trkpt><trkpt lat="45.5853212" lon="10.7489128"><ele>221.0</ele><time>2026-03-28T13:36:58.75Z</time></trkpt><trkpt lat="45.5852038" lon="10.7489364"><ele>220.75</ele><time>2026-03-28T13:36:59.751Z</time></trkpt><trkpt lat="45.5850758" lon="10.7490054"><ele>220.5</ele><time>2026-03-28T13:37:00.75Z</time></trkpt><trkpt lat="45.5849534" lon="10.7491133"><ele>220.25</ele><time>2026-03-28T13:37:01.75Z</time></trkpt><trkpt lat="45.5848355" lon="10.7492599"><ele>220.0</ele><time>2026-03-28T13:37:02.75Z</time></trkpt><trkpt lat="45.5847373" lon="10.7494027"><ele>220.0</ele><time>2026-03-28T13:37:03.751Z</time></trkpt><trkpt lat="45.5846546" lon="10.7495001"><ele>220.0</ele><time>2026-03-28T13:37:04.751Z</time></trkpt><trkpt lat="45.5845827" lon="10.7495533"><ele>220.0</ele><time>2026-03-28T13:37:05.75Z</time></trkpt><trkpt lat="45.5845113" lon="10.7495777"><ele>220.0</ele><time>2026-03-28T13:37:06.75Z</time></trkpt><trkpt lat="45.5843878" lon="10.7495677"><ele>220.0</ele><time>2026-03-28T13:37:08.75Z</time></trkpt><trkpt lat="45.5843114" lon="10.7495687"><ele>220.66666666666666</ele><time>2026-03-28T13:37:09.751Z</time></trkpt><trkpt lat="45.5842321" lon="10.7495759"><ele>221.33333333333331</ele><time>2026-03-28T13:37:10.751Z</time></trkpt><trkpt lat="45.5841444" lon="10.7495885"><ele>222.0</ele><time>2026-03-28T13:37:11.751Z</time></trkpt><trkpt lat="45.5840633" lon="10.7495978"><ele>222.66666666666669</ele><time>2026-03-28T13:37:12.751Z</time></trkpt><trkpt lat="45.5839912" lon="10.7495994"><ele>223.33333333333334</ele><time>2026-03-28T13:37:13.75Z</time></trkpt><trkpt lat="45.5838885" lon="10.7495969"><ele>224.0</ele><time>2026-03-28T13:37:15.751Z</time></trkpt><trkpt lat="45.5837826" lon="10.749616"><ele>224.0</ele><time>2026-03-28T13:37:34.75Z</time></trkpt><trkpt lat="45.583691" lon="10.7496222"><ele>224.0</ele><time>2026-03-28T13:37:35.75Z</time></trkpt><trkpt lat="45.5835708" lon="10.7496384"><ele>224.0</ele><time>2026-03-28T13:37:36.75Z</time></trkpt><trkpt lat="45.5834354" lon="10.7496744"><ele>224.0</ele><time>2026-03-28T13:37:37.751Z</time></trkpt><trkpt lat="45.5832984" lon="10.7497114"><ele>224.25</ele><time>2026-03-28T13:37:38.751Z</time></trkpt><trkpt lat="45.5831538" lon="10.7497381"><ele>224.5</ele><time>2026-03-28T13:37:39.75Z</time></trkpt><trkpt lat="45.5830047" lon="10.7497304"><ele>224.75</ele><time>2026-03-28T13:37:40.75Z</time></trkpt><trkpt lat="45.5828599" lon="10.7497104"><ele>225.0</ele><time>2026-03-28T13:37:41.75Z</time></trkpt><trkpt lat="45.5827002" lon="10.7496813"><ele>225.0</ele><time>2026-03-28T13:37:42.751Z</time></trkpt><trkpt lat="45.582518" lon="10.7496365"><ele>225.0</ele><time>2026-03-28T13:37:43.75Z</time></trkpt><trkpt lat="45.5823328" lon="10.7495856"><ele>225.0</ele><time>2026-03-28T13:37:44.75Z</time></trkpt><trkpt lat="45.5821378" lon="10.7495361"><ele>224.0</ele><time>2026-03-28T13:37:45.75Z</time></trkpt><trkpt lat="45.5819618" lon="10.7494917"><ele>223.0</ele><time>2026-03-28T13:37:46.75Z</time></trkpt><trkpt lat="45.5817921" lon="10.7494651"><ele>222.0</ele><time>2026-03-28T13:37:47.75Z</time></trkpt><trkpt lat="45.5816148" lon="10.749446"><ele>222.0</ele><time>2026-03-28T13:37:48.751Z</time></trkpt><trkpt lat="45.5814454" lon="10.749417"><ele>222.0</ele><time>2026-03-28T13:37:49.75Z</time></trkpt><trkpt lat="45.5812904" lon="10.7493807"><ele>222.0</ele><time>2026-03-28T13:37:50.751Z</time></trkpt><trkpt lat="45.5811375" lon="10.749367"><ele>222.33333333333331</ele><time>2026-03-28T13:37:51.751Z</time></trkpt><trkpt lat="45.5809862" lon="10.7493809"><ele>222.66666666666666</ele><time>2026-03-28T13:37:52.75Z</time></trkpt><trkpt lat="45.580832" lon="10.7494289"><ele>223.0</ele><time>2026-03-28T13:37:53.75Z</time></trkpt><trkpt lat="45.5806804" lon="10.7495074"><ele>223.0</ele><time>2026-03-28T13:37:54.751Z</time></trkpt><trkpt lat="45.5805487" lon="10.7495841"><ele>223.0</ele><time>2026-03-28T13:37:55.751Z</time></trkpt><trkpt lat="45.5804343" lon="10.7496441"><ele>223.0</ele><time>2026-03-28T13:37:56.75Z</time></trkpt><trkpt lat="45.5803443" lon="10.7496951"><ele>223.0</ele><time>2026-03-28T13:37:57.751Z</time></trkpt><trkpt lat="45.5802799" lon="10.7497548"><ele>223.0</ele><time>2026-03-28T13:37:58.751Z</time></trkpt><trkpt lat="45.5802364" lon="10.7498374"><ele>224.4</ele><time>2026-03-28T13:37:59.751Z</time></trkpt><trkpt lat="45.5801825" lon="10.7499016"><ele>225.8</ele><time>2026-03-28T13:38:00.75Z</time></trkpt><trkpt lat="45.5801106" lon="10.7499704"><ele>227.2</ele><time>2026-03-28T13:38:01.751Z</time></trkpt><trkpt lat="45.5799797" lon="10.7500258"><ele>228.6</ele><time>2026-03-28T13:38:02.75Z</time></trkpt><trkpt lat="45.5798456" lon="10.7501039"><ele>230.0</ele><time>2026-03-28T13:38:03.75Z</time></trkpt><trkpt lat="45.5796928" lon="10.7501923"><ele>229.66666666666669</ele><time>2026-03-28T13:38:04.751Z</time></trkpt><trkpt lat="45.57955" lon="10.7502832"><ele>229.33333333333331</ele><time>2026-03-28T13:38:05.751Z</time></trkpt><trkpt lat="45.5794011" lon="10.7503786"><ele>229.0</ele><time>2026-03-28T13:38:06.75Z</time></trkpt><trkpt lat="45.5792501" lon="10.7504874"><ele>229.0</ele><time>2026-03-28T13:38:07.751Z</time></trkpt><trkpt lat="45.5791193" lon="10.7505766"><ele>229.0</ele><time>2026-03-28T13:38:08.75Z</time></trkpt><trkpt lat="45.5789948" lon="10.7506681"><ele>229.0</ele><time>2026-03-28T13:38:09.75Z</time></trkpt><trkpt lat="45.5788823" lon="10.7507447"><ele>229.0</ele><time>2026-03-28T13:38:10.75Z</time></trkpt><trkpt lat="45.5787877" lon="10.7508171"><ele>229.0</ele><time>2026-03-28T13:38:11.75Z</time></trkpt><trkpt lat="45.5787087" lon="10.7508753"><ele>228.99999999999997</ele><time>2026-03-28T13:38:12.751Z</time></trkpt><trkpt lat="45.5786522" lon="10.7509208"><ele>228.99999999999997</ele><time>2026-03-28T13:38:13.75Z</time></trkpt><trkpt lat="45.5786004" lon="10.7510199"><ele>229.0</ele><time>2026-03-28T13:38:15.751Z</time></trkpt><trkpt lat="45.5786271" lon="10.7511884"><ele>229.0</ele><time>2026-03-28T13:38:17.75Z</time></trkpt><trkpt lat="45.5786676" lon="10.751307"><ele>227.99999999999997</ele><time>2026-03-28T13:38:18.75Z</time></trkpt><trkpt lat="45.5787082" lon="10.7514376"><ele>227.0</ele><time>2026-03-28T13:38:19.751Z</time></trkpt><trkpt lat="45.578735" lon="10.7515635"><ele>226.0</ele><time>2026-03-28T13:38:20.75Z</time></trkpt><trkpt lat="45.5787552" lon="10.7516766"><ele>225.0</ele><time>2026-03-28T13:38:21.751Z</time></trkpt><trkpt lat="45.5787558" lon="10.7517899"><ele>223.99999999999997</ele><time>2026-03-28T13:38:22.751Z</time></trkpt><trkpt lat="45.5787426" lon="10.75191"><ele>223.0</ele><time>2026-03-28T13:38:23.75Z</time></trkpt><trkpt lat="45.5787297" lon="10.7520175"><ele>222.16666666666666</ele><time>2026-03-28T13:38:24.75Z</time></trkpt><trkpt lat="45.5787103" lon="10.7521411"><ele>221.33333333333331</ele><time>2026-03-28T13:38:25.75Z</time></trkpt><trkpt lat="45.5786924" lon="10.7522736"><ele>220.5</ele><time>2026-03-28T13:38:26.75Z</time></trkpt><trkpt lat="45.5786771" lon="10.7523872"><ele>219.66666666666669</ele><time>2026-03-28T13:38:27.75Z</time></trkpt><trkpt lat="45.5786582" lon="10.7524911"><ele>218.83333333333334</ele><time>2026-03-28T13:38:28.75Z</time></trkpt><trkpt lat="45.5786236" lon="10.7525708"><ele>218.0</ele><time>2026-03-28T13:38:29.751Z</time></trkpt><trkpt lat="45.5785509" lon="10.7526703"><ele>216.75</ele><time>2026-03-28T13:38:31.75Z</time></trkpt><trkpt lat="45.5784963" lon="10.7528257"><ele>215.5</ele><time>2026-03-28T13:38:33.75Z</time></trkpt><trkpt lat="45.5784746" lon="10.7529793"><ele>214.25</ele><time>2026-03-28T13:38:34.75Z</time></trkpt><trkpt lat="45.5784664" lon="10.7531599"><ele>213.0</ele><time>2026-03-28T13:38:35.75Z</time></trkpt><trkpt lat="45.5784585" lon="10.7533319"><ele>213.0</ele><time>2026-03-28T13:38:36.75Z</time></trkpt><trkpt lat="45.5784711" lon="10.7534957"><ele>213.0</ele><time>2026-03-28T13:38:37.751Z</time></trkpt><trkpt lat="45.5785053" lon="10.7536528"><ele>213.0</ele><time>2026-03-28T13:38:38.75Z</time></trkpt><trkpt lat="45.5785493" lon="10.7538011"><ele>213.0</ele><time>2026-03-28T13:38:39.751Z</time></trkpt><trkpt lat="45.5785866" lon="10.7539363"><ele>213.0</ele><time>2026-03-28T13:38:40.751Z</time></trkpt><trkpt lat="45.5786074" lon="10.7540369"><ele>212.2</ele><time>2026-03-28T13:38:41.75Z</time></trkpt><trkpt lat="45.5785872" lon="10.7541495"><ele>211.4</ele><time>2026-03-28T13:38:43.751Z</time></trkpt><trkpt lat="45.5784868" lon="10.7541198"><ele>210.6</ele><time>2026-03-28T13:38:46.75Z</time></trkpt><trkpt lat="45.578415" lon="10.7540618"><ele>209.79999999999998</ele><time>2026-03-28T13:38:47.751Z</time></trkpt><trkpt lat="45.5783252" lon="10.7539955"><ele>209.0</ele><time>2026-03-28T13:38:48.75Z</time></trkpt><trkpt lat="45.5782096" lon="10.7539092"><ele>209.0</ele><time>2026-03-28T13:38:49.75Z</time></trkpt><trkpt lat="45.5780845" lon="10.7538158"><ele>209.0</ele><time>2026-03-28T13:38:50.75Z</time></trkpt><trkpt lat="45.5779706" lon="10.753728"><ele>209.0</ele><time>2026-03-28T13:38:51.75Z</time></trkpt><trkpt lat="45.5778538" lon="10.7536222"><ele>209.0</ele><time>2026-03-28T13:38:52.751Z</time></trkpt><trkpt lat="45.5777341" lon="10.7534972"><ele>209.25</ele><time>2026-03-28T13:38:53.751Z</time></trkpt><trkpt lat="45.5776229" lon="10.7533774"><ele>209.5</ele><time>2026-03-28T13:38:54.751Z</time></trkpt><trkpt lat="45.5775214" lon="10.7532571"><ele>209.75</ele><time>2026-03-28T13:38:55.75Z</time></trkpt><trkpt lat="45.5774236" lon="10.7531206"><ele>210.0</ele><time>2026-03-28T13:38:56.75Z</time></trkpt><trkpt lat="45.5773301" lon="10.752966"><ele>210.0</ele><time>2026-03-28T13:38:57.751Z</time></trkpt><trkpt lat="45.5772507" lon="10.752795"><ele>210.0</ele><time>2026-03-28T13:38:58.751Z</time></trkpt><trkpt lat="45.5771737" lon="10.7526222"><ele>210.0</ele><time>2026-03-28T13:38:59.75Z</time></trkpt><trkpt lat="45.5771015" lon="10.7524667"><ele>210.0</ele><time>2026-03-28T13:39:00.75Z</time></trkpt><trkpt lat="45.5770248" lon="10.7523002"><ele>210.0</ele><time>2026-03-28T13:39:01.75Z</time></trkpt><trkpt lat="45.5769558" lon="10.7521516"><ele>210.0</ele><time>2026-03-28T13:39:02.75Z</time></trkpt><trkpt lat="45.5768909" lon="10.7520148"><ele>210.0</ele><time>2026-03-28T13:39:03.751Z</time></trkpt><trkpt lat="45.5768371" lon="10.7518926"><ele>210.0</ele><time>2026-03-28T13:39:04.75Z</time></trkpt><trkpt lat="45.5767851" lon="10.751794"><ele>210.0</ele><time>2026-03-28T13:39:05.75Z</time></trkpt><trkpt lat="45.5767352" lon="10.7517167"><ele>210.0</ele><time>2026-03-28T13:39:06.75Z</time></trkpt><trkpt lat="45.5766927" lon="10.7516501"><ele>210.0</ele><time>2026-03-28T13:39:07.751Z</time></trkpt><trkpt lat="45.5766279" lon="10.7515508"><ele>210.0</ele><time>2026-03-28T13:39:09.751Z</time></trkpt><trkpt lat="45.5765779" lon="10.7514558"><ele>210.0</ele><time>2026-03-28T13:39:11.751Z</time></trkpt><trkpt lat="45.5765025" lon="10.7513237"><ele>210.0</ele><time>2026-03-28T13:39:13.75Z</time></trkpt><trkpt lat="45.5764552" lon="10.7512461"><ele>210.0</ele><time>2026-03-28T13:39:14.75Z</time></trkpt><trkpt lat="45.5764029" lon="10.7511598"><ele>210.0</ele><time>2026-03-28T13:39:15.75Z</time></trkpt><trkpt lat="45.5763509" lon="10.7510655"><ele>210.0</ele><time>2026-03-28T13:39:16.75Z</time></trkpt><trkpt lat="45.5763056" lon="10.7509739"><ele>210.0</ele><time>2026-03-28T13:39:17.751Z</time></trkpt><trkpt lat="45.5762612" lon="10.7508883"><ele>210.0</ele><time>2026-03-28T13:39:18.751Z</time></trkpt><trkpt lat="45.5762131" lon="10.7508003"><ele>210.0</ele><time>2026-03-28T13:39:19.75Z</time></trkpt><trkpt lat="45.5761544" lon="10.7506915"><ele>210.0</ele><time>2026-03-28T13:39:20.75Z</time></trkpt><trkpt lat="45.5760974" lon="10.750584"><ele>210.0</ele><time>2026-03-28T13:39:21.751Z</time></trkpt><trkpt lat="45.576043" lon="10.7504952"><ele>210.0</ele><time>2026-03-28T13:39:22.751Z</time></trkpt><trkpt lat="45.5759962" lon="10.750414"><ele>210.0</ele><time>2026-03-28T13:39:23.75Z</time></trkpt><trkpt lat="45.5759196" lon="10.7502947"><ele>210.0</ele><time>2026-03-28T13:39:25.75Z</time></trkpt><trkpt lat="45.5758619" lon="10.7502201"><ele>210.0</ele><time>2026-03-28T13:39:27.751Z</time></trkpt><trkpt lat="45.5757951" lon="10.7501336"><ele>210.0</ele><time>2026-03-28T13:39:30.75Z</time></trkpt><trkpt lat="45.5757079" lon="10.750046"><ele>210.0</ele><time>2026-03-28T13:39:32.751Z</time></trkpt><trkpt lat="45.5756079" lon="10.7499584"><ele>210.0</ele><time>2026-03-28T13:39:34.75Z</time></trkpt><trkpt lat="45.5755488" lon="10.7499135"><ele>210.0</ele><time>2026-03-28T13:39:35.751Z</time></trkpt><trkpt lat="45.5754851" lon="10.749868"><ele>210.0</ele><time>2026-03-28T13:39:36.751Z</time></trkpt><trkpt lat="45.5754185" lon="10.7498213"><ele>210.0</ele><time>2026-03-28T13:39:37.751Z</time></trkpt><trkpt lat="45.5753529" lon="10.7497785"><ele>210.0</ele><time>2026-03-28T13:39:38.751Z</time></trkpt><trkpt lat="45.5752982" lon="10.7497337"><ele>209.4</ele><time>2026-03-28T13:39:39.751Z</time></trkpt><trkpt lat="45.5751927" lon="10.7496521"><ele>208.8</ele><time>2026-03-28T13:39:41.751Z</time></trkpt><trkpt lat="45.5750808" lon="10.7495618"><ele>208.2</ele><time>2026-03-28T13:39:43.75Z</time></trkpt><trkpt lat="45.5750225" lon="10.7495117"><ele>207.6</ele><time>2026-03-28T13:39:44.75Z</time></trkpt><trkpt lat="45.5749643" lon="10.749461"><ele>207.0</ele><time>2026-03-28T13:39:45.75Z</time></trkpt><trkpt lat="45.5749073" lon="10.7494089"><ele>206.85714285714286</ele><time>2026-03-28T13:39:46.751Z</time></trkpt><trkpt lat="45.5748489" lon="10.7493626"><ele>206.71428571428572</ele><time>2026-03-28T13:39:47.751Z</time></trkpt><trkpt lat="45.5747926" lon="10.7493158"><ele>206.57142857142856</ele><time>2026-03-28T13:39:48.751Z</time></trkpt><trkpt lat="45.5747346" lon="10.7492725"><ele>206.42857142857144</ele><time>2026-03-28T13:39:49.75Z</time></trkpt><trkpt lat="45.5746789" lon="10.7492269"><ele>206.28571428571428</ele><time>2026-03-28T13:39:50.75Z</time></trkpt><trkpt lat="45.5746237" lon="10.7491829"><ele>206.14285714285714</ele><time>2026-03-28T13:39:51.75Z</time></trkpt><trkpt lat="45.5745158" lon="10.7491019"><ele>206.0</ele><time>2026-03-28T13:39:53.751Z</time></trkpt><trkpt lat="45.5744123" lon="10.7490356"><ele>206.00000000000003</ele><time>2026-03-28T13:39:55.75Z</time></trkpt><trkpt lat="45.5743129" lon="10.7489767"><ele>206.0</ele><time>2026-03-28T13:39:57.751Z</time></trkpt><trkpt lat="45.5742065" lon="10.7489205"><ele>206.0</ele><time>2026-03-28T13:39:59.75Z</time></trkpt><trkpt lat="45.5741448" lon="10.7488822"><ele>206.0</ele><time>2026-03-28T13:40:00.751Z</time></trkpt><trkpt lat="45.5740798" lon="10.7488404"><ele>206.00000000000003</ele><time>2026-03-28T13:40:01.751Z</time></trkpt><trkpt lat="45.574014" lon="10.7487961"><ele>206.0</ele><time>2026-03-28T13:40:02.75Z</time></trkpt><trkpt lat="45.5739483" lon="10.7487441"><ele>206.00000000000003</ele><time>2026-03-28T13:40:03.75Z</time></trkpt><trkpt lat="45.5738858" lon="10.7486813"><ele>206.0</ele><time>2026-03-28T13:40:04.75Z</time></trkpt><trkpt lat="45.5738222" lon="10.7486125"><ele>206.0</ele><time>2026-03-28T13:40:05.751Z</time></trkpt><trkpt lat="45.5737559" lon="10.7485327"><ele>206.0</ele><time>2026-03-28T13:40:06.75Z</time></trkpt><trkpt lat="45.5736858" lon="10.7484486"><ele>206.00000000000003</ele><time>2026-03-28T13:40:07.751Z</time></trkpt><trkpt lat="45.5736114" lon="10.7483547"><ele>206.0</ele><time>2026-03-28T13:40:08.75Z</time></trkpt><trkpt lat="45.573534" lon="10.7482586"><ele>206.16666666666669</ele><time>2026-03-28T13:40:09.751Z</time></trkpt><trkpt lat="45.5734607" lon="10.7481718"><ele>206.33333333333334</ele><time>2026-03-28T13:40:10.751Z</time></trkpt><trkpt lat="45.5733969" lon="10.7480912"><ele>206.5</ele><time>2026-03-28T13:40:11.75Z</time></trkpt><trkpt lat="45.5733454" lon="10.7480319"><ele>206.66666666666669</ele><time>2026-03-28T13:40:12.75Z</time></trkpt><trkpt lat="45.5732398" lon="10.7480415"><ele>206.83333333333334</ele><time>2026-03-28T13:40:14.75Z</time></trkpt><trkpt lat="45.5731713" lon="10.7480918"><ele>207.0</ele><time>2026-03-28T13:40:15.751Z</time></trkpt><trkpt lat="45.5730795" lon="10.7481709"><ele>207.0</ele><time>2026-03-28T13:40:16.75Z</time></trkpt><trkpt lat="45.5729588" lon="10.7482743"><ele>207.0</ele><time>2026-03-28T13:40:17.75Z</time></trkpt><trkpt lat="45.5728238" lon="10.7483926"><ele>207.0</ele><time>2026-03-28T13:40:18.75Z</time></trkpt><trkpt lat="45.5726925" lon="10.7485162"><ele>207.25</ele><time>2026-03-28T13:40:19.75Z</time></trkpt><trkpt lat="45.5725702" lon="10.7486308"><ele>207.5</ele><time>2026-03-28T13:40:20.75Z</time></trkpt><trkpt lat="45.5724524" lon="10.7487326"><ele>207.75</ele><time>2026-03-28T13:40:21.751Z</time></trkpt><trkpt lat="45.5723505" lon="10.7488138"><ele>208.0</ele><time>2026-03-28T13:40:22.75Z</time></trkpt><trkpt lat="45.5722554" lon="10.7488615"><ele>208.0</ele><time>2026-03-28T13:40:23.75Z</time></trkpt><trkpt lat="45.5721633" lon="10.7488757"><ele>208.0</ele><time>2026-03-28T13:40:24.75Z</time></trkpt><trkpt lat="45.5720651" lon="10.7488661"><ele>208.0</ele><time>2026-03-28T13:40:25.75Z</time></trkpt><trkpt lat="45.5719515" lon="10.7488284"><ele>208.0</ele><time>2026-03-28T13:40:26.751Z</time></trkpt><trkpt lat="45.5718356" lon="10.7487733"><ele>208.0</ele><time>2026-03-28T13:40:27.751Z</time></trkpt><trkpt lat="45.5717195" lon="10.7487052"><ele>208.25</ele><time>2026-03-28T13:40:28.75Z</time></trkpt><trkpt lat="45.5716086" lon="10.7486255"><ele>208.5</ele><time>2026-03-28T13:40:29.75Z</time></trkpt><trkpt lat="45.5714815" lon="10.7485217"><ele>208.75</ele><time>2026-03-28T13:40:30.75Z</time></trkpt><trkpt lat="45.5713555" lon="10.7484284"><ele>209.0</ele><time>2026-03-28T13:40:31.751Z</time></trkpt><trkpt lat="45.5712409" lon="10.748342"><ele>208.5</ele><time>2026-03-28T13:40:32.751Z</time></trkpt><trkpt lat="45.5711335" lon="10.748255"><ele>208.0</ele><time>2026-03-28T13:40:33.75Z</time></trkpt><trkpt lat="45.5710268" lon="10.7481573"><ele>207.5</ele><time>2026-03-28T13:40:34.75Z</time></trkpt><trkpt lat="45.5709264" lon="10.7480761"><ele>207.0</ele><time>2026-03-28T13:40:35.751Z</time></trkpt><trkpt lat="45.5708262" lon="10.7480278"><ele>207.0</ele><time>2026-03-28T13:40:36.75Z</time></trkpt><trkpt lat="45.5707388" lon="10.7480222"><ele>207.0</ele><time>2026-03-28T13:40:37.75Z</time></trkpt><trkpt lat="45.5706551" lon="10.748061"><ele>207.0</ele><time>2026-03-28T13:40:38.75Z</time></trkpt><trkpt lat="45.5705755" lon="10.748138"><ele>207.0</ele><time>2026-03-28T13:40:39.752Z</time></trkpt><trkpt lat="45.5704908" lon="10.7482376"><ele>207.0</ele><time>2026-03-28T13:40:40.751Z</time></trkpt><trkpt lat="45.5704039" lon="10.7483603"><ele>211.25</ele><time>2026-03-28T13:40:41.751Z</time></trkpt><trkpt lat="45.570317" lon="10.7485194"><ele>215.5</ele><time>2026-03-28T13:40:42.751Z</time></trkpt><trkpt lat="45.5702315" lon="10.7487027"><ele>219.75</ele><time>2026-03-28T13:40:43.751Z</time></trkpt><trkpt lat="45.570165" lon="10.7488911"><ele>224.0</ele><time>2026-03-28T13:40:44.751Z</time></trkpt><trkpt lat="45.5701159" lon="10.749088"><ele>224.0</ele><time>2026-03-28T13:40:45.751Z</time></trkpt><trkpt lat="45.5700876" lon="10.7493013"><ele>224.0</ele><time>2026-03-28T13:40:46.751Z</time></trkpt><trkpt lat="45.5700819" lon="10.7495044"><ele>224.0</ele><time>2026-03-28T13:40:47.751Z</time></trkpt><trkpt lat="45.5700475" lon="10.7496742"><ele>224.0</ele><time>2026-03-28T13:40:48.751Z</time></trkpt><trkpt lat="45.5700126" lon="10.7498153"><ele>224.42857142857144</ele><time>2026-03-28T13:40:49.751Z</time></trkpt><trkpt lat="45.5699687" lon="10.749923"><ele>224.85714285714286</ele><time>2026-03-28T13:40:50.751Z</time></trkpt><trkpt lat="45.5699325" lon="10.7500106"><ele>225.28571428571428</ele><time>2026-03-28T13:40:51.751Z</time></trkpt><trkpt lat="45.5699005" lon="10.7500985"><ele>225.71428571428572</ele><time>2026-03-28T13:40:52.751Z</time></trkpt><trkpt lat="45.5698634" lon="10.7501842"><ele>226.14285714285717</ele><time>2026-03-28T13:40:53.751Z</time></trkpt><trkpt lat="45.5698255" lon="10.7502643"><ele>226.57142857142858</ele><time>2026-03-28T13:40:54.75Z</time></trkpt><trkpt lat="45.5697627" lon="10.7503343"><ele>227.0</ele><time>2026-03-28T13:40:56.75Z</time></trkpt><trkpt lat="45.569703" lon="10.7502571"><ele>227.0</ele><time>2026-03-28T13:40:59.751Z</time></trkpt><trkpt lat="45.5696688" lon="10.7501258"><ele>227.0</ele><time>2026-03-28T13:41:00.751Z</time></trkpt><trkpt lat="45.5696283" lon="10.7499653"><ele>227.0</ele><time>2026-03-28T13:41:01.75Z</time></trkpt><trkpt lat="45.5695741" lon="10.7497958"><ele>227.0</ele><time>2026-03-28T13:41:02.75Z</time></trkpt><trkpt lat="45.5695212" lon="10.7495739"><ele>226.66666666666669</ele><time>2026-03-28T13:41:03.75Z</time></trkpt><trkpt lat="45.5694792" lon="10.7492936"><ele>226.33333333333331</ele><time>2026-03-28T13:41:04.75Z</time></trkpt><trkpt lat="45.5694466" lon="10.7490415"><ele>226.0</ele><time>2026-03-28T13:41:05.75Z</time></trkpt><trkpt lat="45.5694204" lon="10.7488106"><ele>226.0</ele><time>2026-03-28T13:41:06.75Z</time></trkpt><trkpt lat="45.5694065" lon="10.7486181"><ele>226.00000000000003</ele><time>2026-03-28T13:41:07.751Z</time></trkpt><trkpt lat="45.569404" lon="10.7484789"><ele>226.00000000000003</ele><time>2026-03-28T13:41:08.75Z</time></trkpt><trkpt lat="45.5694044" lon="10.7483716"><ele>226.0</ele><time>2026-03-28T13:41:09.751Z</time></trkpt><trkpt lat="45.5693285" lon="10.7482302"><ele>226.0</ele><time>2026-03-28T13:41:11.75Z</time></trkpt><trkpt lat="45.569252" lon="10.7481594"><ele>226.0</ele><time>2026-03-28T13:41:12.751Z</time></trkpt><trkpt lat="45.5691584" lon="10.7480573"><ele>226.0</ele><time>2026-03-28T13:41:13.751Z</time></trkpt><trkpt lat="45.5690388" lon="10.7479176"><ele>226.0</ele><time>2026-03-28T13:41:14.751Z</time></trkpt><trkpt lat="45.5689176" lon="10.7477596"><ele>226.0</ele><time>2026-03-28T13:41:15.751Z</time></trkpt><trkpt lat="45.5688075" lon="10.7476247"><ele>227.25</ele><time>2026-03-28T13:41:16.751Z</time></trkpt><trkpt lat="45.5686913" lon="10.7475383"><ele>228.5</ele><time>2026-03-28T13:41:17.752Z</time></trkpt><trkpt lat="45.5685715" lon="10.7474763"><ele>229.75</ele><time>2026-03-28T13:41:18.751Z</time></trkpt><trkpt lat="45.5684404" lon="10.7474025"><ele>231.0</ele><time>2026-03-28T13:41:19.752Z</time></trkpt><trkpt lat="45.5683229" lon="10.7473462"><ele>231.0</ele><time>2026-03-28T13:41:20.75Z</time></trkpt><trkpt lat="45.5682167" lon="10.7473313"><ele>231.00000000000003</ele><time>2026-03-28T13:41:21.75Z</time></trkpt><trkpt lat="45.5681278" lon="10.7473235"><ele>231.00000000000003</ele><time>2026-03-28T13:41:22.751Z</time></trkpt><trkpt lat="45.5680374" lon="10.7473227"><ele>231.0</ele><time>2026-03-28T13:41:23.751Z</time></trkpt><trkpt lat="45.5679494" lon="10.7473304"><ele>231.0</ele><time>2026-03-28T13:41:24.751Z</time></trkpt><trkpt lat="45.5678622" lon="10.7473377"><ele>232.0</ele><time>2026-03-28T13:41:25.75Z</time></trkpt><trkpt lat="45.5677689" lon="10.7473489"><ele>233.00000000000003</ele><time>2026-03-28T13:41:26.75Z</time></trkpt><trkpt lat="45.5676689" lon="10.7473612"><ele>234.00000000000003</ele><time>2026-03-28T13:41:27.75Z</time></trkpt><trkpt lat="45.5675729" lon="10.7473683"><ele>235.0</ele><time>2026-03-28T13:41:28.75Z</time></trkpt><trkpt lat="45.567484" lon="10.7473768"><ele>236.0</ele><time>2026-03-28T13:41:29.75Z</time></trkpt><trkpt lat="45.5673881" lon="10.7474008"><ele>236.00000000000003</ele><time>2026-03-28T13:41:30.751Z</time></trkpt><trkpt lat="45.5672902" lon="10.7474217"><ele>236.0</ele><time>2026-03-28T13:41:31.75Z</time></trkpt><trkpt lat="45.567195" lon="10.7474311"><ele>236.0</ele><time>2026-03-28T13:41:32.751Z</time></trkpt><trkpt lat="45.5671031" lon="10.7474282"><ele>236.0</ele><time>2026-03-28T13:41:33.751Z</time></trkpt><trkpt lat="45.5670245" lon="10.747406"><ele>236.00000000000003</ele><time>2026-03-28T13:41:34.75Z</time></trkpt><trkpt lat="45.5669456" lon="10.7473856"><ele>236.0</ele><time>2026-03-28T13:41:35.75Z</time></trkpt><trkpt lat="45.5668826" lon="10.7473926"><ele>238.00000000000003</ele><time>2026-03-28T13:41:36.75Z</time></trkpt><trkpt lat="45.5668093" lon="10.7474103"><ele>240.0</ele><time>2026-03-28T13:41:37.751Z</time></trkpt><trkpt lat="45.5667414" lon="10.7474491"><ele>242.0</ele><time>2026-03-28T13:41:38.75Z</time></trkpt><trkpt lat="45.5666739" lon="10.7474907"><ele>244.0</ele><time>2026-03-28T13:41:39.75Z</time></trkpt><trkpt lat="45.5666068" lon="10.7475399"><ele>246.00000000000003</ele><time>2026-03-28T13:41:40.751Z</time></trkpt><trkpt lat="45.5665386" lon="10.7476034"><ele>248.0</ele><time>2026-03-28T13:41:41.751Z</time></trkpt><trkpt lat="45.5664767" lon="10.7476644"><ele>249.2</ele><time>2026-03-28T13:41:42.75Z</time></trkpt><trkpt lat="45.5664176" lon="10.7477286"><ele>250.4</ele><time>2026-03-28T13:41:43.75Z</time></trkpt><trkpt lat="45.5663602" lon="10.7478857"><ele>251.59999999999997</ele><time>2026-03-28T13:41:45.75Z</time></trkpt><trkpt lat="45.5663578" lon="10.747987"><ele>252.79999999999998</ele><time>2026-03-28T13:41:46.75Z</time></trkpt><trkpt lat="45.5663783" lon="10.7481097"><ele>254.0</ele><time>2026-03-28T13:41:47.75Z</time></trkpt><trkpt lat="45.5664137" lon="10.7482358"><ele>254.0</ele><time>2026-03-28T13:41:48.75Z</time></trkpt><trkpt lat="45.5664546" lon="10.748365"><ele>253.99999999999997</ele><time>2026-03-28T13:41:49.75Z</time></trkpt><trkpt lat="45.5664916" lon="10.748509"><ele>253.99999999999997</ele><time>2026-03-28T13:41:50.75Z</time></trkpt><trkpt lat="45.5665371" lon="10.7486385"><ele>254.0</ele><time>2026-03-28T13:41:51.75Z</time></trkpt><trkpt lat="45.5665882" lon="10.7487615"><ele>254.0</ele><time>2026-03-28T13:41:52.75Z</time></trkpt><trkpt lat="45.5666424" lon="10.7488651"><ele>256.1666666666667</ele><time>2026-03-28T13:41:53.751Z</time></trkpt><trkpt lat="45.566688" lon="10.74897"><ele>258.33333333333337</ele><time>2026-03-28T13:41:54.751Z</time></trkpt><trkpt lat="45.5667265" lon="10.7490809"><ele>260.5</ele><time>2026-03-28T13:41:55.75Z</time></trkpt><trkpt lat="45.5667383" lon="10.749179"><ele>262.6666666666667</ele><time>2026-03-28T13:41:56.75Z</time></trkpt><trkpt lat="45.5667218" lon="10.7493394"><ele>264.8333333333333</ele><time>2026-03-28T13:41:58.75Z</time></trkpt><trkpt lat="45.5666814" lon="10.7494129"><ele>267.0</ele><time>2026-03-28T13:41:59.751Z</time></trkpt><trkpt lat="45.5666305" lon="10.749494"><ele>268.0</ele><time>2026-03-28T13:42:00.75Z</time></trkpt><trkpt lat="45.5665643" lon="10.7495784"><ele>269.0</ele><time>2026-03-28T13:42:01.75Z</time></trkpt><trkpt lat="45.5664899" lon="10.7496605"><ele>270.0</ele><time>2026-03-28T13:42:02.75Z</time></trkpt><trkpt lat="45.5663977" lon="10.7497415"><ele>271.0</ele><time>2026-03-28T13:42:03.751Z</time></trkpt><trkpt lat="45.5663043" lon="10.7498437"><ele>272.0</ele><time>2026-03-28T13:42:04.751Z</time></trkpt><trkpt lat="45.5662029" lon="10.7499506"><ele>272.25</ele><time>2026-03-28T13:42:05.75Z</time></trkpt><trkpt lat="45.5660967" lon="10.7500573"><ele>272.5</ele><time>2026-03-28T13:42:06.751Z</time></trkpt><trkpt lat="45.5659881" lon="10.7501676"><ele>272.75</ele><time>2026-03-28T13:42:07.751Z</time></trkpt><trkpt lat="45.5658856" lon="10.7502694"><ele>273.0</ele><time>2026-03-28T13:42:08.751Z</time></trkpt><trkpt lat="45.5657925" lon="10.7503556"><ele>273.0</ele><time>2026-03-28T13:42:09.75Z</time></trkpt><trkpt lat="45.5657104" lon="10.7504368"><ele>273.0</ele><time>2026-03-28T13:42:10.75Z</time></trkpt><trkpt lat="45.5656301" lon="10.7505077"><ele>273.0</ele><time>2026-03-28T13:42:11.75Z</time></trkpt><trkpt lat="45.5655601" lon="10.7505802"><ele>273.0</ele><time>2026-03-28T13:42:12.75Z</time></trkpt><trkpt lat="45.5654951" lon="10.7506318"><ele>273.0</ele><time>2026-03-28T13:42:13.75Z</time></trkpt><trkpt lat="45.5654238" lon="10.7506842"><ele>273.0</ele><time>2026-03-28T13:42:14.75Z</time></trkpt><trkpt lat="45.5653322" lon="10.7507414"><ele>273.5</ele><time>2026-03-28T13:42:15.75Z</time></trkpt><trkpt lat="45.5652215" lon="10.7508034"><ele>274.0</ele><time>2026-03-28T13:42:16.75Z</time></trkpt><trkpt lat="45.5650989" lon="10.7508663"><ele>274.5</ele><time>2026-03-28T13:42:17.75Z</time></trkpt><trkpt lat="45.564983" lon="10.7509489"><ele>275.0</ele><time>2026-03-28T13:42:18.75Z</time></trkpt><trkpt lat="45.5648953" lon="10.7510715"><ele>275.25</ele><time>2026-03-28T13:42:19.75Z</time></trkpt><trkpt lat="45.5648246" lon="10.7512093"><ele>275.5</ele><time>2026-03-28T13:42:20.75Z</time></trkpt><trkpt lat="45.5647473" lon="10.7513399"><ele>275.75</ele><time>2026-03-28T13:42:21.75Z</time></trkpt><trkpt lat="45.564648" lon="10.7514611"><ele>276.0</ele><time>2026-03-28T13:42:22.75Z</time></trkpt><trkpt lat="45.5645358" lon="10.7515632"><ele>274.25</ele><time>2026-03-28T13:42:23.751Z</time></trkpt><trkpt lat="45.56442" lon="10.7516535"><ele>272.5</ele><time>2026-03-28T13:42:24.751Z</time></trkpt><trkpt lat="45.564299" lon="10.7517341"><ele>270.75</ele><time>2026-03-28T13:42:25.751Z</time></trkpt><trkpt lat="45.5641817" lon="10.7518129"><ele>269.0</ele><time>2026-03-28T13:42:26.751Z</time></trkpt><trkpt lat="45.5640715" lon="10.7518879"><ele>267.4</ele><time>2026-03-28T13:42:27.751Z</time></trkpt><trkpt lat="45.563959" lon="10.7519647"><ele>265.79999999999995</ele><time>2026-03-28T13:42:28.751Z</time></trkpt><trkpt lat="45.5639141" lon="10.7521188"><ele>264.20000000000005</ele><time>2026-03-28T13:42:29.751Z</time></trkpt><trkpt lat="45.5638787" lon="10.7522533"><ele>262.6</ele><time>2026-03-28T13:42:30.751Z</time></trkpt><trkpt lat="45.5638705" lon="10.7524038"><ele>261.0</ele><time>2026-03-28T13:42:31.752Z</time></trkpt><trkpt lat="45.5638945" lon="10.7525697"><ele>260.0</ele><time>2026-03-28T13:42:32.751Z</time></trkpt><trkpt lat="45.5639191" lon="10.7527371"><ele>259.0</ele><time>2026-03-28T13:42:33.751Z</time></trkpt><trkpt lat="45.5639526" lon="10.7529064"><ele>258.0</ele><time>2026-03-28T13:42:34.752Z</time></trkpt><trkpt lat="45.5639756" lon="10.7530223"><ele>257.0</ele><time>2026-03-28T13:42:35.751Z</time></trkpt><trkpt lat="45.5639678" lon="10.7531193"><ele>256.0</ele><time>2026-03-28T13:42:36.751Z</time></trkpt><trkpt lat="45.5638702" lon="10.7531673"><ele>256.0</ele><time>2026-03-28T13:42:38.75Z</time></trkpt><trkpt lat="45.5638299" lon="10.7530203"><ele>256.0</ele><time>2026-03-28T13:42:40.75Z</time></trkpt><trkpt lat="45.5638095" lon="10.7528508"><ele>256.0</ele><time>2026-03-28T13:42:41.75Z</time></trkpt><trkpt lat="45.5637822" lon="10.7527481"><ele>256.0</ele><time>2026-03-28T13:42:42.751Z</time></trkpt><trkpt lat="45.5637664" lon="10.7526382"><ele>256.0</ele><time>2026-03-28T13:42:43.75Z</time></trkpt><trkpt lat="45.5637268" lon="10.7525625"><ele>256.40000000000003</ele><time>2026-03-28T13:42:44.751Z</time></trkpt><trkpt lat="45.5636063" lon="10.7526341"><ele>256.8</ele><time>2026-03-28T13:42:46.75Z</time></trkpt><trkpt lat="45.5635757" lon="10.7527214"><ele>257.20000000000005</ele><time>2026-03-28T13:42:47.75Z</time></trkpt><trkpt lat="45.5636005" lon="10.7528861"><ele>257.6</ele><time>2026-03-28T13:42:48.75Z</time></trkpt><trkpt lat="45.5635931" lon="10.7530072"><ele>258.0</ele><time>2026-03-28T13:42:49.751Z</time></trkpt><trkpt lat="45.5635619" lon="10.7530959"><ele>256.0</ele><time>2026-03-28T13:42:50.751Z</time></trkpt><trkpt lat="45.563504" lon="10.7531456"><ele>254.0</ele><time>2026-03-28T13:42:51.75Z</time></trkpt><trkpt lat="45.5634058" lon="10.753289"><ele>252.0</ele><time>2026-03-28T13:42:53.751Z</time></trkpt><trkpt lat="45.5633308" lon="10.7534206"><ele>250.0</ele><time>2026-03-28T13:42:54.751Z</time></trkpt><trkpt lat="45.5632361" lon="10.7535381"><ele>247.4</ele><time>2026-03-28T13:42:55.751Z</time></trkpt><trkpt lat="45.5631374" lon="10.7536198"><ele>244.8</ele><time>2026-03-28T13:42:56.751Z</time></trkpt><trkpt lat="45.5630329" lon="10.7536837"><ele>242.2</ele><time>2026-03-28T13:42:57.751Z</time></trkpt><trkpt lat="45.5629368" lon="10.7537219"><ele>239.6</ele><time>2026-03-28T13:42:58.751Z</time></trkpt><trkpt lat="45.562841" lon="10.7537219"><ele>237.0</ele><time>2026-03-28T13:42:59.751Z</time></trkpt><trkpt lat="45.5627465" lon="10.7537077"><ele>236.2</ele><time>2026-03-28T13:43:00.751Z</time></trkpt><trkpt lat="45.5626412" lon="10.7536838"><ele>235.39999999999998</ele><time>2026-03-28T13:43:01.751Z</time></trkpt><trkpt lat="45.5625371" lon="10.7536457"><ele>234.60000000000002</ele><time>2026-03-28T13:43:02.75Z</time></trkpt><trkpt lat="45.5624345" lon="10.7536115"><ele>233.8</ele><time>2026-03-28T13:43:03.751Z</time></trkpt><trkpt lat="45.5623341" lon="10.7536019"><ele>233.0</ele><time>2026-03-28T13:43:04.75Z</time></trkpt><trkpt lat="45.5622284" lon="10.753606"><ele>233.0</ele><time>2026-03-28T13:43:05.75Z</time></trkpt><trkpt lat="45.5621283" lon="10.753616"><ele>233.0</ele><time>2026-03-28T13:43:06.75Z</time></trkpt><trkpt lat="45.5620334" lon="10.753625"><ele>233.0</ele><time>2026-03-28T13:43:07.75Z</time></trkpt><trkpt lat="45.5619292" lon="10.7536362"><ele>233.0</ele><time>2026-03-28T13:43:08.75Z</time></trkpt><trkpt lat="45.5618281" lon="10.7536356"><ele>233.0</ele><time>2026-03-28T13:43:09.75Z</time></trkpt><trkpt lat="45.5617287" lon="10.7536275"><ele>232.2</ele><time>2026-03-28T13:43:10.75Z</time></trkpt><trkpt lat="45.5616367" lon="10.7535931"><ele>231.4</ele><time>2026-03-28T13:43:11.75Z</time></trkpt><trkpt lat="45.5615377" lon="10.7535357"><ele>230.59999999999997</ele><time>2026-03-28T13:43:12.75Z</time></trkpt><trkpt lat="45.561444" lon="10.753464"><ele>229.79999999999998</ele><time>2026-03-28T13:43:13.75Z</time></trkpt><trkpt lat="45.5613636" lon="10.7533768"><ele>229.0</ele><time>2026-03-28T13:43:14.751Z</time></trkpt><trkpt lat="45.5612821" lon="10.7533075"><ele>230.16666666666666</ele><time>2026-03-28T13:43:15.751Z</time></trkpt><trkpt lat="45.5611992" lon="10.7532661"><ele>231.33333333333331</ele><time>2026-03-28T13:43:16.751Z</time></trkpt><trkpt lat="45.5611157" lon="10.753232"><ele>232.5</ele><time>2026-03-28T13:43:17.75Z</time></trkpt><trkpt lat="45.5610241" lon="10.7531928"><ele>233.66666666666669</ele><time>2026-03-28T13:43:18.75Z</time></trkpt><trkpt lat="45.5609411" lon="10.7531479"><ele>234.83333333333334</ele><time>2026-03-28T13:43:19.75Z</time></trkpt><trkpt lat="45.5608639" lon="10.7531149"><ele>236.0</ele><time>2026-03-28T13:43:20.75Z</time></trkpt><trkpt lat="45.5607685" lon="10.7530915"><ele>236.0</ele><time>2026-03-28T13:43:21.75Z</time></trkpt><trkpt lat="45.5606733" lon="10.7530857"><ele>236.0</ele><time>2026-03-28T13:43:22.75Z</time></trkpt><trkpt lat="45.5605557" lon="10.7530903"><ele>236.0</ele><time>2026-03-28T13:43:23.751Z</time></trkpt><trkpt lat="45.560443" lon="10.7530801"><ele>236.0</ele><time>2026-03-28T13:43:24.75Z</time></trkpt><trkpt lat="45.560318" lon="10.7530631"><ele>234.75</ele><time>2026-03-28T13:43:25.751Z</time></trkpt><trkpt lat="45.5602063" lon="10.7530378"><ele>233.5</ele><time>2026-03-28T13:43:26.751Z</time></trkpt><trkpt lat="45.5600941" lon="10.7530005"><ele>232.25</ele><time>2026-03-28T13:43:27.751Z</time></trkpt><trkpt lat="45.5599785" lon="10.752945"><ele>231.0</ele><time>2026-03-28T13:43:28.75Z</time></trkpt><trkpt lat="45.5598611" lon="10.7528728"><ele>231.0</ele><time>2026-03-28T13:43:29.751Z</time></trkpt><trkpt lat="45.5597519" lon="10.7527977"><ele>231.00000000000003</ele><time>2026-03-28T13:43:30.751Z</time></trkpt><trkpt lat="45.5596532" lon="10.752726"><ele>231.00000000000003</ele><time>2026-03-28T13:43:31.75Z</time></trkpt><trkpt lat="45.5595648" lon="10.7526544"><ele>231.0</ele><time>2026-03-28T13:43:32.751Z</time></trkpt><trkpt lat="45.5594822" lon="10.7525857"><ele>231.0</ele><time>2026-03-28T13:43:33.75Z</time></trkpt><trkpt lat="45.559393" lon="10.7525086"><ele>232.0</ele><time>2026-03-28T13:43:34.75Z</time></trkpt><trkpt lat="45.5593025" lon="10.7524103"><ele>233.0</ele><time>2026-03-28T13:43:35.75Z</time></trkpt><trkpt lat="45.5592011" lon="10.7523097"><ele>234.0</ele><time>2026-03-28T13:43:36.75Z</time></trkpt><trkpt lat="45.5590938" lon="10.7522077"><ele>235.0</ele><time>2026-03-28T13:43:37.75Z</time></trkpt><trkpt lat="45.5589777" lon="10.7521018"><ele>235.0</ele><time>2026-03-28T13:43:38.75Z</time></trkpt><trkpt lat="45.5588613" lon="10.7519998"><ele>235.0</ele><time>2026-03-28T13:43:39.751Z</time></trkpt><trkpt lat="45.5587528" lon="10.751906"><ele>235.0</ele><time>2026-03-28T13:43:40.751Z</time></trkpt><trkpt lat="45.558661" lon="10.751814"><ele>235.0</ele><time>2026-03-28T13:43:41.751Z</time></trkpt><trkpt lat="45.5585649" lon="10.7517145"><ele>235.75</ele><time>2026-03-28T13:43:42.751Z</time></trkpt><trkpt lat="45.558459" lon="10.7516115"><ele>236.5</ele><time>2026-03-28T13:43:43.752Z</time></trkpt><trkpt lat="45.558343" lon="10.75153"><ele>237.25</ele><time>2026-03-28T13:43:44.751Z</time></trkpt><trkpt lat="45.5582296" lon="10.7514539"><ele>238.0</ele><time>2026-03-28T13:43:45.751Z</time></trkpt><trkpt lat="45.5581139" lon="10.7513951"><ele>238.0</ele><time>2026-03-28T13:43:46.752Z</time></trkpt><trkpt lat="45.5579997" lon="10.7513458"><ele>238.0</ele><time>2026-03-28T13:43:47.751Z</time></trkpt><trkpt lat="45.5578673" lon="10.7513148"><ele>238.0</ele><time>2026-03-28T13:43:48.75Z</time></trkpt><trkpt lat="45.5577421" lon="10.7512852"><ele>238.0</ele><time>2026-03-28T13:43:49.75Z</time></trkpt><trkpt lat="45.5576206" lon="10.7512663"><ele>236.5</ele><time>2026-03-28T13:43:50.75Z</time></trkpt><trkpt lat="45.5575051" lon="10.751264"><ele>235.0</ele><time>2026-03-28T13:43:51.75Z</time></trkpt><trkpt lat="45.557382" lon="10.7512775"><ele>233.5</ele><time>2026-03-28T13:43:52.751Z</time></trkpt><trkpt lat="45.5572568" lon="10.7512917"><ele>232.0</ele><time>2026-03-28T13:43:53.751Z</time></trkpt><trkpt lat="45.5571366" lon="10.7513111"><ele>232.6</ele><time>2026-03-28T13:43:54.751Z</time></trkpt><trkpt lat="45.5570287" lon="10.7513273"><ele>233.2</ele><time>2026-03-28T13:43:55.751Z</time></trkpt><trkpt lat="45.5569261" lon="10.7513463"><ele>233.8</ele><time>2026-03-28T13:43:56.751Z</time></trkpt><trkpt lat="45.556834" lon="10.7513636"><ele>234.4</ele><time>2026-03-28T13:43:57.75Z</time></trkpt><trkpt lat="45.5567362" lon="10.7513834"><ele>235.0</ele><time>2026-03-28T13:43:58.75Z</time></trkpt><trkpt lat="45.5566394" lon="10.7514006"><ele>234.99999999999997</ele><time>2026-03-28T13:43:59.751Z</time></trkpt><trkpt lat="45.5565452" lon="10.7514227"><ele>235.0</ele><time>2026-03-28T13:44:00.751Z</time></trkpt><trkpt lat="45.5564572" lon="10.7514384"><ele>235.0</ele><time>2026-03-28T13:44:01.751Z</time></trkpt><trkpt lat="45.5563853" lon="10.7514556"><ele>235.0</ele><time>2026-03-28T13:44:02.75Z</time></trkpt><trkpt lat="45.5562704" lon="10.7514895"><ele>234.99999999999997</ele><time>2026-03-28T13:44:04.75Z</time></trkpt><trkpt lat="45.5562036" lon="10.751532"><ele>235.0</ele><time>2026-03-28T13:44:07.75Z</time></trkpt><trkpt lat="45.5561478" lon="10.7515865"><ele>235.33333333333331</ele><time>2026-03-28T13:44:14.751Z</time></trkpt><trkpt lat="45.556071" lon="10.7516217"><ele>235.66666666666666</ele><time>2026-03-28T13:44:16.751Z</time></trkpt><trkpt lat="45.5559439" lon="10.7516556"><ele>236.0</ele><time>2026-03-28T13:44:18.751Z</time></trkpt><trkpt lat="45.5558673" lon="10.7516657"><ele>236.33333333333331</ele><time>2026-03-28T13:44:19.751Z</time></trkpt><trkpt lat="45.5557961" lon="10.751661"><ele>236.66666666666666</ele><time>2026-03-28T13:44:20.75Z</time></trkpt><trkpt lat="45.5557265" lon="10.7516441"><ele>237.0</ele><time>2026-03-28T13:44:21.751Z</time></trkpt><trkpt lat="45.5556328" lon="10.7515915"><ele>237.0</ele><time>2026-03-28T13:44:23.75Z</time></trkpt><trkpt lat="45.555582" lon="10.7515343"><ele>237.0</ele><time>2026-03-28T13:44:25.75Z</time></trkpt><trkpt lat="45.555536" lon="10.751449"><ele>237.0</ele><time>2026-03-28T13:44:27.751Z</time></trkpt><trkpt lat="45.5555057" lon="10.7513674"><ele>237.0</ele><time>2026-03-28T13:44:28.75Z</time></trkpt><trkpt lat="45.5554691" lon="10.7512768"><ele>237.0</ele><time>2026-03-28T13:44:29.751Z</time></trkpt><trkpt lat="45.5554271" lon="10.7511495"><ele>237.0</ele><time>2026-03-28T13:44:30.75Z</time></trkpt><trkpt lat="45.5553786" lon="10.7509676"><ele>236.66666666666669</ele><time>2026-03-28T13:44:31.751Z</time></trkpt><trkpt lat="45.5553208" lon="10.7507386"><ele>236.33333333333334</ele><time>2026-03-28T13:44:32.75Z</time></trkpt><trkpt lat="45.5552612" lon="10.7504836"><ele>236.0</ele><time>2026-03-28T13:44:33.752Z</time></trkpt><trkpt lat="45.5551967" lon="10.7502123"><ele>236.0</ele><time>2026-03-28T13:44:34.75Z</time></trkpt><trkpt lat="45.5551375" lon="10.749978"><ele>236.0</ele><time>2026-03-28T13:44:35.751Z</time></trkpt><trkpt lat="45.5550845" lon="10.7497628"><ele>236.0</ele><time>2026-03-28T13:44:36.75Z</time></trkpt><trkpt lat="45.5550422" lon="10.7495837"><ele>236.00000000000003</ele><time>2026-03-28T13:44:37.75Z</time></trkpt><trkpt lat="45.5550082" lon="10.7494292"><ele>236.0</ele><time>2026-03-28T13:44:38.75Z</time></trkpt><trkpt lat="45.5549808" lon="10.7493038"><ele>236.0</ele><time>2026-03-28T13:44:39.751Z</time></trkpt><trkpt lat="45.5549598" lon="10.749205"><ele>236.0</ele><time>2026-03-28T13:44:40.751Z</time></trkpt><trkpt lat="45.5549041" lon="10.7491172"><ele>236.00000000000003</ele><time>2026-03-28T13:44:42.751Z</time></trkpt><trkpt lat="45.5549359" lon="10.7492163"><ele>236.0</ele><time>2026-03-28T13:44:48.751Z</time></trkpt><trkpt lat="45.5549906" lon="10.7493591"><ele>236.0</ele><time>2026-03-28T13:44:50.75Z</time></trkpt><trkpt lat="45.5550112" lon="10.7494802"><ele>236.0</ele><time>2026-03-28T13:44:51.75Z</time></trkpt><trkpt lat="45.5550517" lon="10.7496523"><ele>236.0</ele><time>2026-03-28T13:44:52.75Z</time></trkpt><trkpt lat="45.5551034" lon="10.7498513"><ele>236.0</ele><time>2026-03-28T13:44:53.75Z</time></trkpt><trkpt lat="45.5551603" lon="10.7500752"><ele>236.0</ele><time>2026-03-28T13:44:54.75Z</time></trkpt><trkpt lat="45.5552112" lon="10.750294"><ele>236.0</ele><time>2026-03-28T13:44:55.75Z</time></trkpt><trkpt lat="45.5552606" lon="10.7505024"><ele>236.0</ele><time>2026-03-28T13:44:56.75Z</time></trkpt><trkpt lat="45.5553093" lon="10.7506958"><ele>236.0</ele><time>2026-03-28T13:44:57.75Z</time></trkpt><trkpt lat="45.5553509" lon="10.7508697"><ele>236.00000000000003</ele><time>2026-03-28T13:44:58.75Z</time></trkpt><trkpt lat="45.5553854" lon="10.7510244"><ele>236.00000000000003</ele><time>2026-03-28T13:44:59.75Z</time></trkpt><trkpt lat="45.5554158" lon="10.7511439"><ele>236.0</ele><time>2026-03-28T13:45:00.751Z</time></trkpt><trkpt lat="45.5554804" lon="10.7512511"><ele>236.0</ele><time>2026-03-28T13:45:02.75Z</time></trkpt><trkpt lat="45.5555613" lon="10.7512317"><ele>236.20000000000002</ele><time>2026-03-28T13:45:04.75Z</time></trkpt><trkpt lat="45.555663" lon="10.7511062"><ele>236.40000000000003</ele><time>2026-03-28T13:45:06.75Z</time></trkpt><trkpt lat="45.5557055" lon="10.7510039"><ele>236.6</ele><time>2026-03-28T13:45:07.75Z</time></trkpt><trkpt lat="45.5557285" lon="10.7508821"><ele>236.8</ele><time>2026-03-28T13:45:08.751Z</time></trkpt><trkpt lat="45.5557463" lon="10.7507041"><ele>237.0</ele><time>2026-03-28T13:45:09.751Z</time></trkpt><trkpt lat="45.5557706" lon="10.7504807"><ele>238.33333333333331</ele><time>2026-03-28T13:45:10.75Z</time></trkpt><trkpt lat="45.5558047" lon="10.7502544"><ele>239.66666666666666</ele><time>2026-03-28T13:45:11.75Z</time></trkpt><trkpt lat="45.555847" lon="10.7500457"><ele>241.0</ele><time>2026-03-28T13:45:12.75Z</time></trkpt><trkpt lat="45.5559057" lon="10.7498279"><ele>241.0</ele><time>2026-03-28T13:45:13.75Z</time></trkpt><trkpt lat="45.5559868" lon="10.7495911"><ele>241.0</ele><time>2026-03-28T13:45:14.75Z</time></trkpt><trkpt lat="45.556083" lon="10.7493452"><ele>241.0</ele><time>2026-03-28T13:45:15.75Z</time></trkpt><trkpt lat="45.5561813" lon="10.7490718"><ele>244.0</ele><time>2026-03-28T13:45:16.75Z</time></trkpt><trkpt lat="45.5562677" lon="10.7488055"><ele>247.0</ele><time>2026-03-28T13:45:17.75Z</time></trkpt><trkpt lat="45.5563412" lon="10.748567"><ele>250.0</ele><time>2026-03-28T13:45:18.75Z</time></trkpt><trkpt lat="45.5564037" lon="10.7483387"><ele>250.0</ele><time>2026-03-28T13:45:19.75Z</time></trkpt><trkpt lat="45.5564562" lon="10.7481299"><ele>250.0</ele><time>2026-03-28T13:45:20.751Z</time></trkpt><trkpt lat="45.5565098" lon="10.7479424"><ele>250.0</ele><time>2026-03-28T13:45:21.75Z</time></trkpt><trkpt lat="45.5565732" lon="10.7477725"><ele>250.0</ele><time>2026-03-28T13:45:22.751Z</time></trkpt><trkpt lat="45.5566499" lon="10.7476131"><ele>248.6</ele><time>2026-03-28T13:45:23.751Z</time></trkpt><trkpt lat="45.5567254" lon="10.7474771"><ele>247.2</ele><time>2026-03-28T13:45:24.75Z</time></trkpt><trkpt lat="45.5567948" lon="10.7473451"><ele>245.8</ele><time>2026-03-28T13:45:25.751Z</time></trkpt><trkpt lat="45.5568474" lon="10.7472364"><ele>244.4</ele><time>2026-03-28T13:45:26.751Z</time></trkpt><trkpt lat="45.5568954" lon="10.7471581"><ele>243.0</ele><time>2026-03-28T13:45:27.751Z</time></trkpt><trkpt lat="45.5569526" lon="10.747116"><ele>243.0</ele><time>2026-03-28T13:45:28.75Z</time></trkpt><trkpt lat="45.5570273" lon="10.7470813"><ele>243.0</ele><time>2026-03-28T13:45:29.75Z</time></trkpt><trkpt lat="45.5571113" lon="10.7470307"><ele>243.0</ele><time>2026-03-28T13:45:30.751Z</time></trkpt><trkpt lat="45.5571846" lon="10.7469562"><ele>243.0</ele><time>2026-03-28T13:45:31.751Z</time></trkpt><trkpt lat="45.5572559" lon="10.7468783"><ele>243.0</ele><time>2026-03-28T13:45:32.751Z</time></trkpt><trkpt lat="45.5573257" lon="10.7467654"><ele>244.60000000000002</ele><time>2026-03-28T13:45:33.75Z</time></trkpt><trkpt lat="45.5574002" lon="10.7466419"><ele>246.20000000000002</ele><time>2026-03-28T13:45:34.75Z</time></trkpt><trkpt lat="45.5574632" lon="10.7465292"><ele>247.8</ele><time>2026-03-28T13:45:35.75Z</time></trkpt><trkpt lat="45.5575155" lon="10.7464266"><ele>249.4</ele><time>2026-03-28T13:45:36.75Z</time></trkpt><trkpt lat="45.557555" lon="10.7463241"><ele>251.0</ele><time>2026-03-28T13:45:37.75Z</time></trkpt><trkpt lat="45.5575848" lon="10.746236"><ele>250.99999999999997</ele><time>2026-03-28T13:45:38.75Z</time></trkpt><trkpt lat="45.5576182" lon="10.7461547"><ele>251.0</ele><time>2026-03-28T13:45:39.751Z</time></trkpt><trkpt lat="45.5576566" lon="10.7460746"><ele>250.99999999999997</ele><time>2026-03-28T13:45:40.751Z</time></trkpt><trkpt lat="45.5577051" lon="10.7460051"><ele>250.99999999999997</ele><time>2026-03-28T13:45:41.751Z</time></trkpt><trkpt lat="45.5577589" lon="10.7459408"><ele>251.0</ele><time>2026-03-28T13:45:42.751Z</time></trkpt><trkpt lat="45.5578175" lon="10.7458868"><ele>250.99999999999997</ele><time>2026-03-28T13:45:43.751Z</time></trkpt><trkpt lat="45.5578763" lon="10.7458402"><ele>250.99999999999997</ele><time>2026-03-28T13:45:44.75Z</time></trkpt><trkpt lat="45.5579863" lon="10.7457428"><ele>252.0</ele><time>2026-03-28T13:45:46.751Z</time></trkpt><trkpt lat="45.5580581" lon="10.7456768"><ele>253.00000000000003</ele><time>2026-03-28T13:45:47.75Z</time></trkpt><trkpt lat="45.55814" lon="10.7456075"><ele>254.00000000000003</ele><time>2026-03-28T13:45:48.751Z</time></trkpt><trkpt lat="45.5582288" lon="10.7455625"><ele>255.0</ele><time>2026-03-28T13:45:49.751Z</time></trkpt><trkpt lat="45.5583256" lon="10.7455276"><ele>256.0</ele><time>2026-03-28T13:45:50.751Z</time></trkpt><trkpt lat="45.5584317" lon="10.7454896"><ele>256.0</ele><time>2026-03-28T13:45:51.751Z</time></trkpt><trkpt lat="45.5585575" lon="10.7454454"><ele>256.0</ele><time>2026-03-28T13:45:52.75Z</time></trkpt><trkpt lat="45.5586697" lon="10.7454158"><ele>256.0</ele><time>2026-03-28T13:45:53.75Z</time></trkpt><trkpt lat="45.5587736" lon="10.7453937"><ele>256.0</ele><time>2026-03-28T13:45:54.751Z</time></trkpt><trkpt lat="45.5588797" lon="10.745361"><ele>255.25</ele><time>2026-03-28T13:45:55.75Z</time></trkpt><trkpt lat="45.5589938" lon="10.7453131"><ele>254.5</ele><time>2026-03-28T13:45:56.75Z</time></trkpt><trkpt lat="45.5591128" lon="10.7452501"><ele>253.75</ele><time>2026-03-28T13:45:57.75Z</time></trkpt><trkpt lat="45.559228" lon="10.7451777"><ele>253.0</ele><time>2026-03-28T13:45:58.751Z</time></trkpt><trkpt lat="45.5593372" lon="10.7451079"><ele>253.0</ele><time>2026-03-28T13:45:59.751Z</time></trkpt><trkpt lat="45.5594392" lon="10.7450388"><ele>253.0</ele><time>2026-03-28T13:46:00.751Z</time></trkpt><trkpt lat="45.5595406" lon="10.7449722"><ele>253.0</ele><time>2026-03-28T13:46:01.75Z</time></trkpt><trkpt lat="45.559646" lon="10.7449039"><ele>253.0</ele><time>2026-03-28T13:46:02.75Z</time></trkpt><trkpt lat="45.5597466" lon="10.7448282"><ele>253.25</ele><time>2026-03-28T13:46:03.75Z</time></trkpt><trkpt lat="45.5598492" lon="10.7447324"><ele>253.5</ele><time>2026-03-28T13:46:04.75Z</time></trkpt><trkpt lat="45.5599447" lon="10.7446314"><ele>253.75</ele><time>2026-03-28T13:46:05.751Z</time></trkpt><trkpt lat="45.5600355" lon="10.7445367"><ele>254.0</ele><time>2026-03-28T13:46:06.751Z</time></trkpt><trkpt lat="45.5601188" lon="10.7444347"><ele>253.39999999999998</ele><time>2026-03-28T13:46:07.75Z</time></trkpt><trkpt lat="45.5601996" lon="10.7443279"><ele>252.79999999999998</ele><time>2026-03-28T13:46:08.75Z</time></trkpt><trkpt lat="45.560279" lon="10.7442249"><ele>252.20000000000002</ele><time>2026-03-28T13:46:09.751Z</time></trkpt><trkpt lat="45.560359" lon="10.744113"><ele>251.60000000000002</ele><time>2026-03-28T13:46:10.751Z</time></trkpt><trkpt lat="45.5604389" lon="10.7439974"><ele>251.0</ele><time>2026-03-28T13:46:11.75Z</time></trkpt><trkpt lat="45.5605172" lon="10.7438915"><ele>250.5</ele><time>2026-03-28T13:46:12.751Z</time></trkpt><trkpt lat="45.5606076" lon="10.7437889"><ele>250.0</ele><time>2026-03-28T13:46:13.752Z</time></trkpt><trkpt lat="45.5607009" lon="10.7436915"><ele>249.5</ele><time>2026-03-28T13:46:14.75Z</time></trkpt><trkpt lat="45.5607983" lon="10.7436028"><ele>249.0</ele><time>2026-03-28T13:46:15.75Z</time></trkpt><trkpt lat="45.5608991" lon="10.7435346"><ele>249.0</ele><time>2026-03-28T13:46:16.75Z</time></trkpt><trkpt lat="45.5610033" lon="10.7434829"><ele>248.99999999999997</ele><time>2026-03-28T13:46:17.751Z</time></trkpt><trkpt lat="45.5611162" lon="10.7434329"><ele>248.99999999999997</ele><time>2026-03-28T13:46:18.751Z</time></trkpt><trkpt lat="45.5612239" lon="10.7433975"><ele>249.0</ele><time>2026-03-28T13:46:19.75Z</time></trkpt><trkpt lat="45.5613254" lon="10.7433754"><ele>249.0</ele><time>2026-03-28T13:46:20.75Z</time></trkpt><trkpt lat="45.5614218" lon="10.743357"><ele>248.2</ele><time>2026-03-28T13:46:21.75Z</time></trkpt><trkpt lat="45.561515" lon="10.7433353"><ele>247.39999999999998</ele><time>2026-03-28T13:46:22.75Z</time></trkpt><trkpt lat="45.5616181" lon="10.7433084"><ele>246.6</ele><time>2026-03-28T13:46:23.75Z</time></trkpt><trkpt lat="45.5617222" lon="10.7432854"><ele>245.8</ele><time>2026-03-28T13:46:24.75Z</time></trkpt><trkpt lat="45.5618288" lon="10.74326"><ele>245.0</ele><time>2026-03-28T13:46:25.75Z</time></trkpt><trkpt lat="45.5619359" lon="10.7432333"><ele>244.25</ele><time>2026-03-28T13:46:26.75Z</time></trkpt><trkpt lat="45.5620465" lon="10.7432067"><ele>243.5</ele><time>2026-03-28T13:46:27.751Z</time></trkpt><trkpt lat="45.5621587" lon="10.7431742"><ele>242.75</ele><time>2026-03-28T13:46:28.75Z</time></trkpt><trkpt lat="45.5622769" lon="10.7431518"><ele>242.0</ele><time>2026-03-28T13:46:29.75Z</time></trkpt><trkpt lat="45.5623898" lon="10.7431285"><ele>242.0</ele><time>2026-03-28T13:46:30.75Z</time></trkpt><trkpt lat="45.562495" lon="10.7430923"><ele>242.0</ele><time>2026-03-28T13:46:31.75Z</time></trkpt><trkpt lat="45.5626072" lon="10.7430419"><ele>242.0</ele><time>2026-03-28T13:46:32.75Z</time></trkpt><trkpt lat="45.5627166" lon="10.7429773"><ele>242.0</ele><time>2026-03-28T13:46:33.75Z</time></trkpt><trkpt lat="45.5628275" lon="10.7429048"><ele>241.2</ele><time>2026-03-28T13:46:34.75Z</time></trkpt><trkpt lat="45.5629314" lon="10.7428244"><ele>240.39999999999998</ele><time>2026-03-28T13:46:35.751Z</time></trkpt><trkpt lat="45.5630278" lon="10.7427539"><ele>239.60000000000002</ele><time>2026-03-28T13:46:36.751Z</time></trkpt><trkpt lat="45.5631164" lon="10.7426912"><ele>238.8</ele><time>2026-03-28T13:46:37.751Z</time></trkpt><trkpt lat="45.5632007" lon="10.7426353"><ele>238.0</ele><time>2026-03-28T13:46:38.75Z</time></trkpt><trkpt lat="45.5632831" lon="10.7426023"><ele>237.99999999999997</ele><time>2026-03-28T13:46:39.75Z</time></trkpt><trkpt lat="45.5633514" lon="10.7426033"><ele>238.0</ele><time>2026-03-28T13:46:40.751Z</time></trkpt><trkpt lat="45.5634156" lon="10.7426682"><ele>238.0</ele><time>2026-03-28T13:46:42.75Z</time></trkpt><trkpt lat="45.5634329" lon="10.7427963"><ele>238.0</ele><time>2026-03-28T13:46:44.75Z</time></trkpt><trkpt lat="45.563408" lon="10.7428829"><ele>237.99999999999997</ele><time>2026-03-28T13:46:45.75Z</time></trkpt><trkpt lat="45.5633722" lon="10.7430226"><ele>238.0</ele><time>2026-03-28T13:46:46.751Z</time></trkpt><trkpt lat="45.563338" lon="10.7431734"><ele>238.2</ele><time>2026-03-28T13:46:47.751Z</time></trkpt><trkpt lat="45.5633178" lon="10.7433149"><ele>238.4</ele><time>2026-03-28T13:46:48.751Z</time></trkpt><trkpt lat="45.5633179" lon="10.7434564"><ele>238.59999999999997</ele><time>2026-03-28T13:46:49.75Z</time></trkpt><trkpt lat="45.5633243" lon="10.7435979"><ele>238.79999999999998</ele><time>2026-03-28T13:46:50.75Z</time></trkpt><trkpt lat="45.5633283" lon="10.7437488"><ele>239.0</ele><time>2026-03-28T13:46:51.75Z</time></trkpt><trkpt lat="45.5633411" lon="10.7439054"><ele>239.0</ele><time>2026-03-28T13:46:52.75Z</time></trkpt><trkpt lat="45.5633714" lon="10.7440359"><ele>238.99999999999997</ele><time>2026-03-28T13:46:53.751Z</time></trkpt><trkpt lat="45.5634203" lon="10.7441144"><ele>238.99999999999997</ele><time>2026-03-28T13:46:54.751Z</time></trkpt><trkpt lat="45.5634867" lon="10.7441677"><ele>239.0</ele><time>2026-03-28T13:46:55.75Z</time></trkpt><trkpt lat="45.5635787" lon="10.7442128"><ele>239.0</ele><time>2026-03-28T13:46:56.751Z</time></trkpt><trkpt lat="45.5636937" lon="10.744257"><ele>239.0</ele><time>2026-03-28T13:46:57.751Z</time></trkpt><trkpt lat="45.5638257" lon="10.7442921"><ele>239.0</ele><time>2026-03-28T13:46:58.751Z</time></trkpt><trkpt lat="45.5639729" lon="10.7443118"><ele>239.0</ele><time>2026-03-28T13:46:59.751Z</time></trkpt><trkpt lat="45.5641338" lon="10.7443157"><ele>239.0</ele><time>2026-03-28T13:47:00.75Z</time></trkpt><trkpt lat="45.564304" lon="10.7443225"><ele>239.0</ele><time>2026-03-28T13:47:01.75Z</time></trkpt><trkpt lat="45.5644752" lon="10.7443286"><ele>239.0</ele><time>2026-03-28T13:47:02.75Z</time></trkpt><trkpt lat="45.5646392" lon="10.7443354"><ele>239.0</ele><time>2026-03-28T13:47:03.75Z</time></trkpt><trkpt lat="45.564789" lon="10.7443482"><ele>240.0</ele><time>2026-03-28T13:47:04.751Z</time></trkpt><trkpt lat="45.5649476" lon="10.7443591"><ele>241.0</ele><time>2026-03-28T13:47:05.751Z</time></trkpt><trkpt lat="45.5651069" lon="10.7443677"><ele>242.0</ele><time>2026-03-28T13:47:06.751Z</time></trkpt><trkpt lat="45.5652669" lon="10.7443594"><ele>242.25</ele><time>2026-03-28T13:47:07.75Z</time></trkpt><trkpt lat="45.5654042" lon="10.7443482"><ele>242.5</ele><time>2026-03-28T13:47:08.75Z</time></trkpt><trkpt lat="45.5655383" lon="10.7443295"><ele>242.75</ele><time>2026-03-28T13:47:09.751Z</time></trkpt><trkpt lat="45.5656602" lon="10.7443065"><ele>243.0</ele><time>2026-03-28T13:47:10.751Z</time></trkpt><trkpt lat="45.5657993" lon="10.7442604"><ele>243.0</ele><time>2026-03-28T13:47:11.75Z</time></trkpt><trkpt lat="45.5659557" lon="10.7442083"><ele>243.0</ele><time>2026-03-28T13:47:12.75Z</time></trkpt><trkpt lat="45.5661195" lon="10.7441608"><ele>243.0</ele><time>2026-03-28T13:47:13.751Z</time></trkpt><trkpt lat="45.5662728" lon="10.7441166"><ele>244.33333333333331</ele><time>2026-03-28T13:47:14.751Z</time></trkpt><trkpt lat="45.5664195" lon="10.7440806"><ele>245.66666666666666</ele><time>2026-03-28T13:47:15.751Z</time></trkpt><trkpt lat="45.5665679" lon="10.7440511"><ele>247.0</ele><time>2026-03-28T13:47:16.751Z</time></trkpt><trkpt lat="45.5667227" lon="10.7440341"><ele>247.0</ele><time>2026-03-28T13:47:17.75Z</time></trkpt><trkpt lat="45.56688" lon="10.7440316"><ele>247.0</ele><time>2026-03-28T13:47:18.75Z</time></trkpt><trkpt lat="45.5670283" lon="10.7440365"><ele>247.0</ele><time>2026-03-28T13:47:19.75Z</time></trkpt><trkpt lat="45.5671712" lon="10.7440494"><ele>247.0</ele><time>2026-03-28T13:47:20.751Z</time></trkpt><trkpt lat="45.5672961" lon="10.7440865"><ele>247.39999999999998</ele><time>2026-03-28T13:47:21.75Z</time></trkpt><trkpt lat="45.5674056" lon="10.7441312"><ele>247.79999999999998</ele><time>2026-03-28T13:47:22.751Z</time></trkpt><trkpt lat="45.5675127" lon="10.744173"><ele>248.2</ele><time>2026-03-28T13:47:23.751Z</time></trkpt><trkpt lat="45.5676017" lon="10.7442046"><ele>248.6</ele><time>2026-03-28T13:47:24.75Z</time></trkpt><trkpt lat="45.5676731" lon="10.7442359"><ele>249.0</ele><time>2026-03-28T13:47:25.75Z</time></trkpt><trkpt lat="45.5677618" lon="10.7442572"><ele>249.0</ele><time>2026-03-28T13:47:27.75Z</time></trkpt><trkpt lat="45.5678097" lon="10.7441922"><ele>249.0</ele><time>2026-03-28T13:47:30.75Z</time></trkpt><trkpt lat="45.5678004" lon="10.7440871"><ele>249.0</ele><time>2026-03-28T13:47:32.751Z</time></trkpt><trkpt lat="45.5677806" lon="10.7439318"><ele>249.0</ele><time>2026-03-28T13:47:34.75Z</time></trkpt><trkpt lat="45.5677687" lon="10.7438369"><ele>249.0</ele><time>2026-03-28T13:47:35.75Z</time></trkpt><trkpt lat="45.5677552" lon="10.7437314"><ele>249.0</ele><time>2026-03-28T13:47:36.751Z</time></trkpt><trkpt lat="45.5677377" lon="10.7436187"><ele>248.83333333333334</ele><time>2026-03-28T13:47:37.751Z</time></trkpt><trkpt lat="45.5677197" lon="10.7435028"><ele>248.66666666666669</ele><time>2026-03-28T13:47:38.75Z</time></trkpt><trkpt lat="45.5677065" lon="10.7433839"><ele>248.5</ele><time>2026-03-28T13:47:39.75Z</time></trkpt><trkpt lat="45.5676913" lon="10.7432764"><ele>248.33333333333334</ele><time>2026-03-28T13:47:40.751Z</time></trkpt><trkpt lat="45.5676716" lon="10.7431737"><ele>248.16666666666669</ele><time>2026-03-28T13:47:41.75Z</time></trkpt><trkpt lat="45.5676483" lon="10.7430803"><ele>248.0</ele><time>2026-03-28T13:47:42.75Z</time></trkpt><trkpt lat="45.5676134" lon="10.7429275"><ele>248.0</ele><time>2026-03-28T13:47:44.751Z</time></trkpt><trkpt lat="45.567633" lon="10.7427597"><ele>248.0</ele><time>2026-03-28T13:47:46.75Z</time></trkpt><trkpt lat="45.5676572" lon="10.7425788"><ele>248.0</ele><time>2026-03-28T13:47:48.75Z</time></trkpt><trkpt lat="45.5676707" lon="10.7424772"><ele>248.0</ele><time>2026-03-28T13:47:49.751Z</time></trkpt><trkpt lat="45.5676919" lon="10.7423782"><ele>248.0</ele><time>2026-03-28T13:47:50.75Z</time></trkpt><trkpt lat="45.5677176" lon="10.7422877"><ele>247.33333333333334</ele><time>2026-03-28T13:47:51.75Z</time></trkpt><trkpt lat="45.567744" lon="10.7421949"><ele>246.66666666666669</ele><time>2026-03-28T13:47:52.75Z</time></trkpt><trkpt lat="45.5677872" lon="10.7420974"><ele>246.0</ele><time>2026-03-28T13:47:53.75Z</time></trkpt><trkpt lat="45.56784" lon="10.7419974"><ele>245.33333333333331</ele><time>2026-03-28T13:47:54.75Z</time></trkpt><trkpt lat="45.5678929" lon="10.7418993"><ele>244.66666666666666</ele><time>2026-03-28T13:47:55.75Z</time></trkpt><trkpt lat="45.5679448" lon="10.7418044"><ele>244.0</ele><time>2026-03-28T13:47:56.751Z</time></trkpt><trkpt lat="45.5679937" lon="10.7417124"><ele>243.49999999999997</ele><time>2026-03-28T13:47:57.751Z</time></trkpt><trkpt lat="45.568036" lon="10.7416178"><ele>243.0</ele><time>2026-03-28T13:47:58.751Z</time></trkpt><trkpt lat="45.5680615" lon="10.741517"><ele>242.5</ele><time>2026-03-28T13:47:59.75Z</time></trkpt><trkpt lat="45.5680646" lon="10.7414137"><ele>242.0</ele><time>2026-03-28T13:48:00.75Z</time></trkpt><trkpt lat="45.5680584" lon="10.7413018"><ele>241.49999999999997</ele><time>2026-03-28T13:48:01.75Z</time></trkpt><trkpt lat="45.5680382" lon="10.741192"><ele>241.0</ele><time>2026-03-28T13:48:02.75Z</time></trkpt><trkpt lat="45.5680063" lon="10.7410933"><ele>239.33333333333331</ele><time>2026-03-28T13:48:03.75Z</time></trkpt><trkpt lat="45.5679579" lon="10.7409939"><ele>237.66666666666666</ele><time>2026-03-28T13:48:04.752Z</time></trkpt><trkpt lat="45.5678973" lon="10.7409131"><ele>236.0</ele><time>2026-03-28T13:48:05.751Z</time></trkpt><trkpt lat="45.5678244" lon="10.7408349"><ele>234.33333333333331</ele><time>2026-03-28T13:48:06.75Z</time></trkpt><trkpt lat="45.5677621" lon="10.7407867"><ele>232.66666666666666</ele><time>2026-03-28T13:48:07.751Z</time></trkpt><trkpt lat="45.5676957" lon="10.7407421"><ele>231.0</ele><time>2026-03-28T13:48:08.75Z</time></trkpt><trkpt lat="45.5676217" lon="10.7407002"><ele>230.0</ele><time>2026-03-28T13:48:09.75Z</time></trkpt><trkpt lat="45.5675269" lon="10.7406591"><ele>229.0</ele><time>2026-03-28T13:48:10.751Z</time></trkpt><trkpt lat="45.5674096" lon="10.7406176"><ele>228.0</ele><time>2026-03-28T13:48:11.75Z</time></trkpt><trkpt lat="45.567279" lon="10.7405769"><ele>227.0</ele><time>2026-03-28T13:48:12.75Z</time></trkpt><trkpt lat="45.5671538" lon="10.7405473"><ele>227.0</ele><time>2026-03-28T13:48:13.75Z</time></trkpt><trkpt lat="45.5670398" lon="10.7405179"><ele>227.0</ele><time>2026-03-28T13:48:14.75Z</time></trkpt><trkpt lat="45.5669405" lon="10.7404722"><ele>227.0</ele><time>2026-03-28T13:48:15.75Z</time></trkpt><trkpt lat="45.5668485" lon="10.7404086"><ele>227.0</ele><time>2026-03-28T13:48:16.75Z</time></trkpt><trkpt lat="45.5667641" lon="10.7403215"><ele>227.0</ele><time>2026-03-28T13:48:17.751Z</time></trkpt><trkpt lat="45.5667011" lon="10.7402397"><ele>228.2</ele><time>2026-03-28T13:48:18.751Z</time></trkpt><trkpt lat="45.5666348" lon="10.7401281"><ele>229.39999999999998</ele><time>2026-03-28T13:48:19.75Z</time></trkpt><trkpt lat="45.5665743" lon="10.7399925"><ele>230.60000000000002</ele><time>2026-03-28T13:48:20.751Z</time></trkpt><trkpt lat="45.5665166" lon="10.7398461"><ele>231.8</ele><time>2026-03-28T13:48:21.751Z</time></trkpt><trkpt lat="45.5664593" lon="10.7397056"><ele>233.0</ele><time>2026-03-28T13:48:22.751Z</time></trkpt><trkpt lat="45.5664168" lon="10.7395621"><ele>233.00000000000003</ele><time>2026-03-28T13:48:23.75Z</time></trkpt><trkpt lat="45.5663933" lon="10.7394348"><ele>233.0</ele><time>2026-03-28T13:48:24.75Z</time></trkpt><trkpt lat="45.5663779" lon="10.7393225"><ele>233.0</ele><time>2026-03-28T13:48:25.75Z</time></trkpt><trkpt lat="45.5663671" lon="10.7392018"><ele>233.0</ele><time>2026-03-28T13:48:26.75Z</time></trkpt><trkpt lat="45.5663535" lon="10.7390816"><ele>233.00000000000003</ele><time>2026-03-28T13:48:27.751Z</time></trkpt><trkpt lat="45.5663512" lon="10.7389866"><ele>233.0</ele><time>2026-03-28T13:48:28.75Z</time></trkpt><trkpt lat="45.5663753" lon="10.7388735"><ele>234.0</ele><time>2026-03-28T13:48:30.75Z</time></trkpt><trkpt lat="45.5664646" lon="10.7387756"><ele>235.0</ele><time>2026-03-28T13:48:32.75Z</time></trkpt><trkpt lat="45.5665312" lon="10.738693"><ele>236.0</ele><time>2026-03-28T13:48:33.75Z</time></trkpt><trkpt lat="45.5666186" lon="10.7385688"><ele>237.0</ele><time>2026-03-28T13:48:34.75Z</time></trkpt><trkpt lat="45.5667123" lon="10.7384446"><ele>237.0</ele><time>2026-03-28T13:48:35.75Z</time></trkpt><trkpt lat="45.5668043" lon="10.738312"><ele>237.0</ele><time>2026-03-28T13:48:36.751Z</time></trkpt><trkpt lat="45.5668878" lon="10.7381893"><ele>237.0</ele><time>2026-03-28T13:48:37.75Z</time></trkpt><trkpt lat="45.5669664" lon="10.7380708"><ele>237.0</ele><time>2026-03-28T13:48:38.751Z</time></trkpt><trkpt lat="45.5670381" lon="10.7379543"><ele>236.0</ele><time>2026-03-28T13:48:39.752Z</time></trkpt><trkpt lat="45.5671112" lon="10.7378433"><ele>235.0</ele><time>2026-03-28T13:48:40.751Z</time></trkpt><trkpt lat="45.5671908" lon="10.7377224"><ele>234.0</ele><time>2026-03-28T13:48:41.75Z</time></trkpt><trkpt lat="45.5672643" lon="10.7375907"><ele>233.0</ele><time>2026-03-28T13:48:42.75Z</time></trkpt><trkpt lat="45.5673357" lon="10.7374532"><ele>232.25</ele><time>2026-03-28T13:48:43.75Z</time></trkpt><trkpt lat="45.5674101" lon="10.7373231"><ele>231.5</ele><time>2026-03-28T13:48:44.751Z</time></trkpt><trkpt lat="45.5674778" lon="10.7371858"><ele>230.75</ele><time>2026-03-28T13:48:45.751Z</time></trkpt><trkpt lat="45.5675305" lon="10.7370393"><ele>230.0</ele><time>2026-03-28T13:48:46.751Z</time></trkpt><trkpt lat="45.5675609" lon="10.7368826"><ele>229.8</ele><time>2026-03-28T13:48:47.752Z</time></trkpt><trkpt lat="45.5675795" lon="10.7367234"><ele>229.6</ele><time>2026-03-28T13:48:48.75Z</time></trkpt><trkpt lat="45.5675907" lon="10.7365669"><ele>229.39999999999998</ele><time>2026-03-28T13:48:49.75Z</time></trkpt><trkpt lat="45.5675953" lon="10.7364258"><ele>229.2</ele><time>2026-03-28T13:48:50.751Z</time></trkpt><trkpt lat="45.5676121" lon="10.7363305"><ele>229.0</ele><time>2026-03-28T13:48:51.751Z</time></trkpt><trkpt lat="45.5676939" lon="10.7362829"><ele>228.99999999999997</ele><time>2026-03-28T13:48:53.75Z</time></trkpt><trkpt lat="45.5677405" lon="10.7363488"><ele>229.0</ele><time>2026-03-28T13:48:54.751Z</time></trkpt><trkpt lat="45.5677881" lon="10.7364303"><ele>229.0</ele><time>2026-03-28T13:48:55.75Z</time></trkpt><trkpt lat="45.5678793" lon="10.7364788"><ele>229.0</ele><time>2026-03-28T13:48:57.751Z</time></trkpt><trkpt lat="45.5679423" lon="10.7364545"><ele>228.99999999999997</ele><time>2026-03-28T13:49:08.75Z</time></trkpt><trkpt lat="45.5679402" lon="10.7363329"><ele>229.0</ele><time>2026-03-28T13:49:10.75Z</time></trkpt><trkpt lat="45.5678992" lon="10.7362585"><ele>228.99999999999997</ele><time>2026-03-28T13:49:11.751Z</time></trkpt><trkpt lat="45.5678427" lon="10.7361728"><ele>229.0</ele><time>2026-03-28T13:49:12.75Z</time></trkpt><trkpt lat="45.5677958" lon="10.7360764"><ele>229.0</ele><time>2026-03-28T13:49:13.75Z</time></trkpt><trkpt lat="45.5677659" lon="10.7359816"><ele>229.0</ele><time>2026-03-28T13:49:14.75Z</time></trkpt><trkpt lat="45.5677583" lon="10.735891"><ele>228.99999999999997</ele><time>2026-03-28T13:49:15.751Z</time></trkpt><trkpt lat="45.5678279" lon="10.7358308"><ele>229.0</ele><time>2026-03-28T13:49:17.751Z</time></trkpt><trkpt lat="45.5679676" lon="10.7358541"><ele>226.75</ele><time>2026-03-28T13:49:19.751Z</time></trkpt><trkpt lat="45.5680814" lon="10.7358921"><ele>224.5</ele><time>2026-03-28T13:49:20.751Z</time></trkpt><trkpt lat="45.5681976" lon="10.7359377"><ele>222.25</ele><time>2026-03-28T13:49:21.751Z</time></trkpt><trkpt lat="45.5683118" lon="10.7359717"><ele>220.0</ele><time>2026-03-28T13:49:22.751Z</time></trkpt><trkpt lat="45.5684344" lon="10.7359982"><ele>220.0</ele><time>2026-03-28T13:49:23.75Z</time></trkpt><trkpt lat="45.568553" lon="10.736015"><ele>220.0</ele><time>2026-03-28T13:49:24.75Z</time></trkpt><trkpt lat="45.568686" lon="10.7360109"><ele>220.0</ele><time>2026-03-28T13:49:25.75Z</time></trkpt><trkpt lat="45.5688158" lon="10.7360066"><ele>220.0</ele><time>2026-03-28T13:49:26.75Z</time></trkpt><trkpt lat="45.5689366" lon="10.7360142"><ele>219.75</ele><time>2026-03-28T13:49:27.75Z</time></trkpt><trkpt lat="45.5690593" lon="10.7360341"><ele>219.5</ele><time>2026-03-28T13:49:28.75Z</time></trkpt><trkpt lat="45.5691843" lon="10.7360755"><ele>219.25</ele><time>2026-03-28T13:49:29.75Z</time></trkpt><trkpt lat="45.5692974" lon="10.7361227"><ele>219.0</ele><time>2026-03-28T13:49:30.75Z</time></trkpt><trkpt lat="45.5694029" lon="10.7361691"><ele>219.0</ele><time>2026-03-28T13:49:31.751Z</time></trkpt><trkpt lat="45.5695008" lon="10.7362137"><ele>219.0</ele><time>2026-03-28T13:49:32.75Z</time></trkpt><trkpt lat="45.5696134" lon="10.7362441"><ele>219.0</ele><time>2026-03-28T13:49:33.75Z</time></trkpt><trkpt lat="45.5697391" lon="10.7362637"><ele>219.0</ele><time>2026-03-28T13:49:34.75Z</time></trkpt><trkpt lat="45.5698741" lon="10.7362916"><ele>219.0</ele><time>2026-03-28T13:49:35.751Z</time></trkpt><trkpt lat="45.5700206" lon="10.736308"><ele>219.0</ele><time>2026-03-28T13:49:36.75Z</time></trkpt><trkpt lat="45.5701684" lon="10.7363194"><ele>219.0</ele><time>2026-03-28T13:49:37.751Z</time></trkpt><trkpt lat="45.5703011" lon="10.7363289"><ele>219.0</ele><time>2026-03-28T13:49:38.751Z</time></trkpt><trkpt lat="45.5704225" lon="10.7363256"><ele>219.5</ele><time>2026-03-28T13:49:39.751Z</time></trkpt><trkpt lat="45.5705097" lon="10.7363245"><ele>220.0</ele><time>2026-03-28T13:49:40.751Z</time></trkpt><trkpt lat="45.5705789" lon="10.736328"><ele>220.5</ele><time>2026-03-28T13:49:41.751Z</time></trkpt><trkpt lat="45.5706513" lon="10.7363788"><ele>221.0</ele><time>2026-03-28T13:49:43.751Z</time></trkpt><trkpt lat="45.570683" lon="10.7364618"><ele>221.5</ele><time>2026-03-28T13:49:44.751Z</time></trkpt><trkpt lat="45.570718" lon="10.7365781"><ele>222.0</ele><time>2026-03-28T13:49:45.751Z</time></trkpt><trkpt lat="45.5707526" lon="10.7367268"><ele>222.0</ele><time>2026-03-28T13:49:46.751Z</time></trkpt><trkpt lat="45.5707816" lon="10.7368904"><ele>222.0</ele><time>2026-03-28T13:49:47.75Z</time></trkpt><trkpt lat="45.5708044" lon="10.7370505"><ele>222.0</ele><time>2026-03-28T13:49:48.75Z</time></trkpt><trkpt lat="45.5708156" lon="10.7372029"><ele>222.0</ele><time>2026-03-28T13:49:49.751Z</time></trkpt><trkpt lat="45.5708248" lon="10.7373599"><ele>222.0</ele><time>2026-03-28T13:49:50.75Z</time></trkpt><trkpt lat="45.5708345" lon="10.7375182"><ele>222.0</ele><time>2026-03-28T13:49:51.75Z</time></trkpt><trkpt lat="45.5708392" lon="10.7376491"><ele>222.0</ele><time>2026-03-28T13:49:52.75Z</time></trkpt><trkpt lat="45.5708525" lon="10.7377868"><ele>222.0</ele><time>2026-03-28T13:49:53.751Z</time></trkpt><trkpt lat="45.5708663" lon="10.7379116"><ele>222.0</ele><time>2026-03-28T13:49:54.751Z</time></trkpt><trkpt lat="45.5708692" lon="10.7380316"><ele>221.83333333333334</ele><time>2026-03-28T13:49:55.751Z</time></trkpt><trkpt lat="45.5708841" lon="10.7381578"><ele>221.66666666666669</ele><time>2026-03-28T13:49:56.751Z</time></trkpt><trkpt lat="45.5708931" lon="10.7382762"><ele>221.5</ele><time>2026-03-28T13:49:57.751Z</time></trkpt><trkpt lat="45.5708966" lon="10.7383839"><ele>221.33333333333334</ele><time>2026-03-28T13:49:58.751Z</time></trkpt><trkpt lat="45.5709068" lon="10.7384943"><ele>221.16666666666669</ele><time>2026-03-28T13:49:59.751Z</time></trkpt><trkpt lat="45.5709118" lon="10.7385864"><ele>221.0</ele><time>2026-03-28T13:50:00.752Z</time></trkpt><trkpt lat="45.5709229" lon="10.7387535"><ele>221.00000000000003</ele><time>2026-03-28T13:50:02.75Z</time></trkpt><trkpt lat="45.5709234" lon="10.7388483"><ele>221.0</ele><time>2026-03-28T13:50:03.75Z</time></trkpt><trkpt lat="45.5709161" lon="10.7389633"><ele>221.0</ele><time>2026-03-28T13:50:04.752Z</time></trkpt><trkpt lat="45.5709171" lon="10.7390975"><ele>221.0</ele><time>2026-03-28T13:50:05.751Z</time></trkpt><trkpt lat="45.5709224" lon="10.7392278"><ele>221.00000000000003</ele><time>2026-03-28T13:50:06.751Z</time></trkpt><trkpt lat="45.57092" lon="10.7393517"><ele>221.0</ele><time>2026-03-28T13:50:07.751Z</time></trkpt><trkpt lat="45.5709146" lon="10.7394664"><ele>221.0</ele><time>2026-03-28T13:50:08.75Z</time></trkpt><trkpt lat="45.5709054" lon="10.739565"><ele>221.00000000000003</ele><time>2026-03-28T13:50:09.75Z</time></trkpt><trkpt lat="45.5709123" lon="10.7396918"><ele>221.00000000000003</ele><time>2026-03-28T13:50:11.752Z</time></trkpt><trkpt lat="45.5709871" lon="10.7397375"><ele>221.0</ele><time>2026-03-28T13:50:14.751Z</time></trkpt><trkpt lat="45.5710841" lon="10.7396895"><ele>221.0</ele><time>2026-03-28T13:50:16.751Z</time></trkpt><trkpt lat="45.5711918" lon="10.7397082"><ele>217.25</ele><time>2026-03-28T13:50:18.751Z</time></trkpt><trkpt lat="45.5712421" lon="10.7398195"><ele>213.5</ele><time>2026-03-28T13:50:20.751Z</time></trkpt><trkpt lat="45.571243" lon="10.7399917"><ele>209.75</ele><time>2026-03-28T13:50:22.75Z</time></trkpt><trkpt lat="45.5712418" lon="10.7401533"><ele>206.0</ele><time>2026-03-28T13:50:24.751Z</time></trkpt><trkpt lat="45.5712303" lon="10.7403342"><ele>205.50000000000003</ele><time>2026-03-28T13:50:26.751Z</time></trkpt><trkpt lat="45.5712196" lon="10.7404397"><ele>205.0</ele><time>2026-03-28T13:50:27.75Z</time></trkpt><trkpt lat="45.5712211" lon="10.7405571"><ele>204.5</ele><time>2026-03-28T13:50:28.75Z</time></trkpt><trkpt lat="45.5712254" lon="10.7406748"><ele>204.0</ele><time>2026-03-28T13:50:29.751Z</time></trkpt><trkpt lat="45.5712373" lon="10.7407888"><ele>203.50000000000003</ele><time>2026-03-28T13:50:30.751Z</time></trkpt><trkpt lat="45.5712354" lon="10.740892"><ele>203.0</ele><time>2026-03-28T13:50:31.751Z</time></trkpt><trkpt lat="45.5711891" lon="10.7410263"><ele>208.2</ele><time>2026-03-28T13:50:33.75Z</time></trkpt><trkpt lat="45.5710997" lon="10.7411229"><ele>213.4</ele><time>2026-03-28T13:50:35.751Z</time></trkpt><trkpt lat="45.5710301" lon="10.7412589"><ele>218.59999999999997</ele><time>2026-03-28T13:50:37.75Z</time></trkpt><trkpt lat="45.571023" lon="10.7413683"><ele>223.79999999999998</ele><time>2026-03-28T13:50:38.75Z</time></trkpt><trkpt lat="45.5710546" lon="10.7414927"><ele>229.0</ele><time>2026-03-28T13:50:39.75Z</time></trkpt><trkpt lat="45.571078" lon="10.741603"><ele>228.99999999999997</ele><time>2026-03-28T13:50:40.75Z</time></trkpt><trkpt lat="45.5711115" lon="10.7416912"><ele>229.0</ele><time>2026-03-28T13:50:41.751Z</time></trkpt><trkpt lat="45.5711478" lon="10.7418209"><ele>229.0</ele><time>2026-03-28T13:50:43.75Z</time></trkpt><trkpt lat="45.5712178" lon="10.7419155"><ele>229.0</ele><time>2026-03-28T13:50:47.75Z</time></trkpt><trkpt lat="45.5712832" lon="10.7420065"><ele>228.99999999999997</ele><time>2026-03-28T13:50:49.751Z</time></trkpt><trkpt lat="45.571345" lon="10.7420979"><ele>229.0</ele><time>2026-03-28T13:50:51.75Z</time></trkpt><trkpt lat="45.5714023" lon="10.7421864"><ele>225.83333333333331</ele><time>2026-03-28T13:50:53.751Z</time></trkpt><trkpt lat="45.5714693" lon="10.7422734"><ele>222.66666666666666</ele><time>2026-03-28T13:50:55.75Z</time></trkpt><trkpt lat="45.5715248" lon="10.7423253"><ele>219.5</ele><time>2026-03-28T13:50:57.751Z</time></trkpt><trkpt lat="45.5715837" lon="10.7424006"><ele>216.33333333333331</ele><time>2026-03-28T13:51:00.75Z</time></trkpt><trkpt lat="45.5716322" lon="10.7424996"><ele>213.16666666666666</ele><time>2026-03-28T13:51:02.751Z</time></trkpt><trkpt lat="45.5716831" lon="10.7425832"><ele>210.0</ele><time>2026-03-28T13:51:04.75Z</time></trkpt><trkpt lat="45.5717798" lon="10.7425977"><ele>210.0</ele><time>2026-03-28T13:51:06.751Z</time></trkpt><trkpt lat="45.5718478" lon="10.7426075"><ele>210.0</ele><time>2026-03-28T13:51:07.75Z</time></trkpt><trkpt lat="45.5719605" lon="10.7425502"><ele>210.0</ele><time>2026-03-28T13:51:09.75Z</time></trkpt><trkpt lat="45.5720326" lon="10.7425133"><ele>210.0</ele><time>2026-03-28T13:51:10.75Z</time></trkpt><trkpt lat="45.5721004" lon="10.742496"><ele>210.0</ele><time>2026-03-28T13:51:11.75Z</time></trkpt><trkpt lat="45.5721992" lon="10.7424932"><ele>210.0</ele><time>2026-03-28T13:51:13.751Z</time></trkpt><trkpt lat="45.5723038" lon="10.7425445"><ele>209.33333333333334</ele><time>2026-03-28T13:51:15.75Z</time></trkpt><trkpt lat="45.5723644" lon="10.7425903"><ele>208.66666666666669</ele><time>2026-03-28T13:51:16.751Z</time></trkpt><trkpt lat="45.5724269" lon="10.7426436"><ele>208.0</ele><time>2026-03-28T13:51:17.751Z</time></trkpt><trkpt lat="45.572477" lon="10.7427058"><ele>207.33333333333334</ele><time>2026-03-28T13:51:18.75Z</time></trkpt><trkpt lat="45.5725326" lon="10.7427691"><ele>206.66666666666669</ele><time>2026-03-28T13:51:19.75Z</time></trkpt><trkpt lat="45.5726018" lon="10.7428392"><ele>206.0</ele><time>2026-03-28T13:51:20.75Z</time></trkpt><trkpt lat="45.5726719" lon="10.7429143"><ele>205.8</ele><time>2026-03-28T13:51:21.751Z</time></trkpt><trkpt lat="45.5727522" lon="10.742986"><ele>205.60000000000002</ele><time>2026-03-28T13:51:22.751Z</time></trkpt><trkpt lat="45.5728388" lon="10.7430623"><ele>205.4</ele><time>2026-03-28T13:51:23.75Z</time></trkpt><trkpt lat="45.5729197" lon="10.7431406"><ele>205.2</ele><time>2026-03-28T13:51:24.75Z</time></trkpt><trkpt lat="45.573014" lon="10.7432247"><ele>205.0</ele><time>2026-03-28T13:51:25.75Z</time></trkpt><trkpt lat="45.5731006" lon="10.7433219"><ele>205.0</ele><time>2026-03-28T13:51:26.751Z</time></trkpt><trkpt lat="45.5731797" lon="10.7434031"><ele>205.0</ele><time>2026-03-28T13:51:27.751Z</time></trkpt><trkpt lat="45.5732608" lon="10.74348"><ele>205.0</ele><time>2026-03-28T13:51:28.75Z</time></trkpt><trkpt lat="45.5733149" lon="10.7435403"><ele>205.0</ele><time>2026-03-28T13:51:29.75Z</time></trkpt><trkpt lat="45.5733815" lon="10.7436157"><ele>205.0</ele><time>2026-03-28T13:51:30.751Z</time></trkpt><trkpt lat="45.5734545" lon="10.7437211"><ele>204.66666666666666</ele><time>2026-03-28T13:51:31.751Z</time></trkpt><trkpt lat="45.5735306" lon="10.7438208"><ele>204.33333333333331</ele><time>2026-03-28T13:51:32.751Z</time></trkpt><trkpt lat="45.573597" lon="10.7439127"><ele>204.0</ele><time>2026-03-28T13:51:33.75Z</time></trkpt><trkpt lat="45.5736677" lon="10.7439957"><ele>203.66666666666669</ele><time>2026-03-28T13:51:34.75Z</time></trkpt><trkpt lat="45.5737322" lon="10.7440648"><ele>203.33333333333334</ele><time>2026-03-28T13:51:35.751Z</time></trkpt><trkpt lat="45.5737905" lon="10.7441121"><ele>203.0</ele><time>2026-03-28T13:51:36.751Z</time></trkpt><trkpt lat="45.573878" lon="10.7441991"><ele>203.00000000000003</ele><time>2026-03-28T13:51:38.75Z</time></trkpt><trkpt lat="45.5739389" lon="10.7443125"><ele>203.0</ele><time>2026-03-28T13:51:40.751Z</time></trkpt><trkpt lat="45.5739857" lon="10.7443762"><ele>203.0</ele><time>2026-03-28T13:51:41.751Z</time></trkpt><trkpt lat="45.5740386" lon="10.7444268"><ele>203.0</ele><time>2026-03-28T13:51:42.75Z</time></trkpt><trkpt lat="45.5741065" lon="10.7444945"><ele>203.00000000000003</ele><time>2026-03-28T13:51:43.751Z</time></trkpt><trkpt lat="45.5741861" lon="10.744598"><ele>203.0</ele><time>2026-03-28T13:51:44.751Z</time></trkpt><trkpt lat="45.5742873" lon="10.7447363"><ele>203.5</ele><time>2026-03-28T13:51:45.75Z</time></trkpt><trkpt lat="45.574398" lon="10.7448785"><ele>204.0</ele><time>2026-03-28T13:51:46.75Z</time></trkpt><trkpt lat="45.5745083" lon="10.7450121"><ele>204.5</ele><time>2026-03-28T13:51:47.751Z</time></trkpt><trkpt lat="45.5746127" lon="10.7451391"><ele>205.0</ele><time>2026-03-28T13:51:48.751Z</time></trkpt><trkpt lat="45.5747066" lon="10.7452481"><ele>208.8</ele><time>2026-03-28T13:51:49.75Z</time></trkpt><trkpt lat="45.5747875" lon="10.7453464"><ele>212.6</ele><time>2026-03-28T13:51:50.751Z</time></trkpt><trkpt lat="45.5748406" lon="10.7454243"><ele>216.39999999999998</ele><time>2026-03-28T13:51:51.751Z</time></trkpt><trkpt lat="45.5748826" lon="10.7455734"><ele>220.2</ele><time>2026-03-28T13:51:53.75Z</time></trkpt><trkpt lat="45.5749382" lon="10.7457091"><ele>224.0</ele><time>2026-03-28T13:51:55.751Z</time></trkpt><trkpt lat="45.574989" lon="10.7457717"><ele>224.0</ele><time>2026-03-28T13:51:56.751Z</time></trkpt><trkpt lat="45.575066" lon="10.7458415"><ele>224.0</ele><time>2026-03-28T13:51:57.75Z</time></trkpt><trkpt lat="45.5751706" lon="10.7459325"><ele>224.0</ele><time>2026-03-28T13:51:58.751Z</time></trkpt><trkpt lat="45.5752934" lon="10.7460296"><ele>224.0</ele><time>2026-03-28T13:51:59.75Z</time></trkpt><trkpt lat="45.5754209" lon="10.746119"><ele>226.25</ele><time>2026-03-28T13:52:00.75Z</time></trkpt><trkpt lat="45.5755461" lon="10.7461874"><ele>228.5</ele><time>2026-03-28T13:52:01.75Z</time></trkpt><trkpt lat="45.5756729" lon="10.7462391"><ele>230.75</ele><time>2026-03-28T13:52:02.751Z</time></trkpt><trkpt lat="45.5758061" lon="10.7462744"><ele>233.0</ele><time>2026-03-28T13:52:03.75Z</time></trkpt><trkpt lat="45.5759445" lon="10.7462936"><ele>233.0</ele><time>2026-03-28T13:52:04.751Z</time></trkpt><trkpt lat="45.5760708" lon="10.7462912"><ele>233.0</ele><time>2026-03-28T13:52:05.751Z</time></trkpt><trkpt lat="45.5761859" lon="10.7462909"><ele>233.0</ele><time>2026-03-28T13:52:06.75Z</time></trkpt><trkpt lat="45.5762977" lon="10.7462885"><ele>233.0</ele><time>2026-03-28T13:52:07.75Z</time></trkpt><trkpt lat="45.5764094" lon="10.7462775"><ele>233.33333333333334</ele><time>2026-03-28T13:52:08.751Z</time></trkpt><trkpt lat="45.5765078" lon="10.7462882"><ele>233.66666666666669</ele><time>2026-03-28T13:52:09.75Z</time></trkpt><trkpt lat="45.5765816" lon="10.7463342"><ele>234.0</ele><time>2026-03-28T13:52:10.75Z</time></trkpt><trkpt lat="45.5766407" lon="10.7464143"><ele>234.33333333333331</ele><time>2026-03-28T13:52:11.752Z</time></trkpt><trkpt lat="45.5766754" lon="10.7465351"><ele>234.66666666666666</ele><time>2026-03-28T13:52:12.751Z</time></trkpt><trkpt lat="45.5766985" lon="10.7466496"><ele>235.0</ele><time>2026-03-28T13:52:13.75Z</time></trkpt><trkpt lat="45.5767371" lon="10.7467577"><ele>235.0</ele><time>2026-03-28T13:52:14.75Z</time></trkpt><trkpt lat="45.5767973" lon="10.7468376"><ele>235.0</ele><time>2026-03-28T13:52:15.751Z</time></trkpt><trkpt lat="45.5768847" lon="10.7468795"><ele>235.0</ele><time>2026-03-28T13:52:16.75Z</time></trkpt><trkpt lat="45.5769925" lon="10.7468754"><ele>235.0</ele><time>2026-03-28T13:52:17.75Z</time></trkpt><trkpt lat="45.5771161" lon="10.7468404"><ele>235.0</ele><time>2026-03-28T13:52:18.75Z</time></trkpt><trkpt lat="45.5772256" lon="10.7468033"><ele>234.75</ele><time>2026-03-28T13:52:19.751Z</time></trkpt><trkpt lat="45.5773326" lon="10.7467488"><ele>234.5</ele><time>2026-03-28T13:52:20.751Z</time></trkpt><trkpt lat="45.5774507" lon="10.746659"><ele>234.25</ele><time>2026-03-28T13:52:21.75Z</time></trkpt><trkpt lat="45.5775694" lon="10.7465503"><ele>234.0</ele><time>2026-03-28T13:52:22.75Z</time></trkpt><trkpt lat="45.5776846" lon="10.7464392"><ele>234.0</ele><time>2026-03-28T13:52:23.751Z</time></trkpt><trkpt lat="45.5777952" lon="10.7463221"><ele>234.0</ele><time>2026-03-28T13:52:24.751Z</time></trkpt><trkpt lat="45.5779057" lon="10.746212"><ele>234.0</ele><time>2026-03-28T13:52:25.75Z</time></trkpt><trkpt lat="45.5780177" lon="10.746105"><ele>234.0</ele><time>2026-03-28T13:52:26.751Z</time></trkpt><trkpt lat="45.5781306" lon="10.7460072"><ele>232.25</ele><time>2026-03-28T13:52:27.75Z</time></trkpt><trkpt lat="45.5782438" lon="10.7459158"><ele>230.5</ele><time>2026-03-28T13:52:28.75Z</time></trkpt><trkpt lat="45.5783582" lon="10.7458214"><ele>228.75</ele><time>2026-03-28T13:52:29.751Z</time></trkpt><trkpt lat="45.5784693" lon="10.7457241"><ele>227.0</ele><time>2026-03-28T13:52:30.75Z</time></trkpt><trkpt lat="45.5785783" lon="10.7456274"><ele>226.5</ele><time>2026-03-28T13:52:31.75Z</time></trkpt><trkpt lat="45.5786865" lon="10.7455234"><ele>226.0</ele><time>2026-03-28T13:52:32.751Z</time></trkpt><trkpt lat="45.5787958" lon="10.7454004"><ele>225.5</ele><time>2026-03-28T13:52:33.751Z</time></trkpt><trkpt lat="45.5788974" lon="10.7452623"><ele>225.0</ele><time>2026-03-28T13:52:34.751Z</time></trkpt><trkpt lat="45.5789926" lon="10.7451233"><ele>223.75</ele><time>2026-03-28T13:52:35.75Z</time></trkpt><trkpt lat="45.5790757" lon="10.7449736"><ele>222.5</ele><time>2026-03-28T13:52:36.751Z</time></trkpt><trkpt lat="45.5791616" lon="10.74484"><ele>221.25</ele><time>2026-03-28T13:52:37.75Z</time></trkpt><trkpt lat="45.5792413" lon="10.7447447"><ele>220.0</ele><time>2026-03-28T13:52:38.75Z</time></trkpt><trkpt lat="45.5793179" lon="10.7446793"><ele>220.0</ele><time>2026-03-28T13:52:39.751Z</time></trkpt><trkpt lat="45.5793933" lon="10.744653"><ele>220.0</ele><time>2026-03-28T13:52:40.75Z</time></trkpt><trkpt lat="45.5794789" lon="10.7446791"><ele>220.0</ele><time>2026-03-28T13:52:41.75Z</time></trkpt><trkpt lat="45.5795631" lon="10.74474"><ele>220.0</ele><time>2026-03-28T13:52:42.751Z</time></trkpt><trkpt lat="45.579657" lon="10.7448057"><ele>220.0</ele><time>2026-03-28T13:52:43.75Z</time></trkpt><trkpt lat="45.5797567" lon="10.7448771"><ele>219.4</ele><time>2026-03-28T13:52:44.75Z</time></trkpt><trkpt lat="45.5798455" lon="10.7449497"><ele>218.8</ele><time>2026-03-28T13:52:45.75Z</time></trkpt><trkpt lat="45.5799285" lon="10.7450276"><ele>218.2</ele><time>2026-03-28T13:52:46.751Z</time></trkpt><trkpt lat="45.5800084" lon="10.7451069"><ele>217.6</ele><time>2026-03-28T13:52:47.751Z</time></trkpt><trkpt lat="45.5800987" lon="10.7451939"><ele>217.0</ele><time>2026-03-28T13:52:48.751Z</time></trkpt><trkpt lat="45.5802011" lon="10.7452761"><ele>218.39999999999998</ele><time>2026-03-28T13:52:49.751Z</time></trkpt><trkpt lat="45.5803124" lon="10.7453462"><ele>219.79999999999998</ele><time>2026-03-28T13:52:50.75Z</time></trkpt><trkpt lat="45.5804203" lon="10.7453982"><ele>221.2</ele><time>2026-03-28T13:52:51.75Z</time></trkpt><trkpt lat="45.5805247" lon="10.7454347"><ele>222.6</ele><time>2026-03-28T13:52:52.751Z</time></trkpt><trkpt lat="45.5806248" lon="10.7454623"><ele>224.0</ele><time>2026-03-28T13:52:53.751Z</time></trkpt><trkpt lat="45.5807165" lon="10.7454894"><ele>225.79999999999998</ele><time>2026-03-28T13:52:54.75Z</time></trkpt><trkpt lat="45.5808104" lon="10.7455235"><ele>227.59999999999997</ele><time>2026-03-28T13:52:55.75Z</time></trkpt><trkpt lat="45.5809083" lon="10.7455569"><ele>229.4</ele><time>2026-03-28T13:52:56.75Z</time></trkpt><trkpt lat="45.581001" lon="10.7455869"><ele>231.2</ele><time>2026-03-28T13:52:57.751Z</time></trkpt><trkpt lat="45.5810893" lon="10.7456153"><ele>233.0</ele><time>2026-03-28T13:52:58.751Z</time></trkpt><trkpt lat="45.5811818" lon="10.7456407"><ele>230.75</ele><time>2026-03-28T13:52:59.75Z</time></trkpt><trkpt lat="45.5812769" lon="10.7456719"><ele>228.5</ele><time>2026-03-28T13:53:00.75Z</time></trkpt><trkpt lat="45.5813812" lon="10.7457187"><ele>226.25</ele><time>2026-03-28T13:53:01.751Z</time></trkpt><trkpt lat="45.5814959" lon="10.7457696"><ele>224.0</ele><time>2026-03-28T13:53:02.75Z</time></trkpt><trkpt lat="45.5816228" lon="10.7458038"><ele>224.0</ele><time>2026-03-28T13:53:03.75Z</time></trkpt><trkpt lat="45.5817478" lon="10.7458257"><ele>223.99999999999997</ele><time>2026-03-28T13:53:04.75Z</time></trkpt><trkpt lat="45.5818589" lon="10.7458444"><ele>223.99999999999997</ele><time>2026-03-28T13:53:05.75Z</time></trkpt><trkpt lat="45.5819513" lon="10.7458566"><ele>224.0</ele><time>2026-03-28T13:53:06.751Z</time></trkpt><trkpt lat="45.5820481" lon="10.7458688"><ele>224.0</ele><time>2026-03-28T13:53:07.751Z</time></trkpt><trkpt lat="45.5821499" lon="10.745877"><ele>223.79999999999998</ele><time>2026-03-28T13:53:08.75Z</time></trkpt><trkpt lat="45.5822578" lon="10.7458811"><ele>223.59999999999997</ele><time>2026-03-28T13:53:09.751Z</time></trkpt><trkpt lat="45.5823699" lon="10.7458885"><ele>223.4</ele><time>2026-03-28T13:53:10.75Z</time></trkpt><trkpt lat="45.5824807" lon="10.7458989"><ele>223.2</ele><time>2026-03-28T13:53:11.75Z</time></trkpt><trkpt lat="45.5825874" lon="10.7459152"><ele>223.0</ele><time>2026-03-28T13:53:12.751Z</time></trkpt><trkpt lat="45.5826929" lon="10.7459245"><ele>223.0</ele><time>2026-03-28T13:53:13.751Z</time></trkpt><trkpt lat="45.5827967" lon="10.745925"><ele>223.0</ele><time>2026-03-28T13:53:14.751Z</time></trkpt><trkpt lat="45.5828964" lon="10.7459258"><ele>223.0</ele><time>2026-03-28T13:53:15.75Z</time></trkpt><trkpt lat="45.5829911" lon="10.7459222"><ele>223.0</ele><time>2026-03-28T13:53:16.75Z</time></trkpt><trkpt lat="45.583083" lon="10.7459182"><ele>223.0</ele><time>2026-03-28T13:53:17.751Z</time></trkpt><trkpt lat="45.5831706" lon="10.7459152"><ele>223.83333333333331</ele><time>2026-03-28T13:53:18.75Z</time></trkpt><trkpt lat="45.5832536" lon="10.7459116"><ele>224.66666666666666</ele><time>2026-03-28T13:53:19.751Z</time></trkpt><trkpt lat="45.583334" lon="10.7459041"><ele>225.5</ele><time>2026-03-28T13:53:20.751Z</time></trkpt><trkpt lat="45.5834098" lon="10.7459039"><ele>226.33333333333331</ele><time>2026-03-28T13:53:21.75Z</time></trkpt><trkpt lat="45.5834876" lon="10.7459072"><ele>227.16666666666666</ele><time>2026-03-28T13:53:22.751Z</time></trkpt><trkpt lat="45.5835722" lon="10.7459028"><ele>228.0</ele><time>2026-03-28T13:53:23.75Z</time></trkpt><trkpt lat="45.5836631" lon="10.7458953"><ele>229.0</ele><time>2026-03-28T13:53:24.75Z</time></trkpt><trkpt lat="45.583757" lon="10.7458956"><ele>230.0</ele><time>2026-03-28T13:53:25.75Z</time></trkpt><trkpt lat="45.583857" lon="10.7459077"><ele>231.0</ele><time>2026-03-28T13:53:26.75Z</time></trkpt><trkpt lat="45.5839633" lon="10.745915"><ele>232.0</ele><time>2026-03-28T13:53:27.75Z</time></trkpt><trkpt lat="45.5840653" lon="10.7459094"><ele>233.0</ele><time>2026-03-28T13:53:28.751Z</time></trkpt><trkpt lat="45.5841693" lon="10.7458925"><ele>233.0</ele><time>2026-03-28T13:53:29.751Z</time></trkpt><trkpt lat="45.584259" lon="10.7458678"><ele>233.0</ele><time>2026-03-28T13:53:30.75Z</time></trkpt><trkpt lat="45.5843438" lon="10.7458392"><ele>233.0</ele><time>2026-03-28T13:53:31.751Z</time></trkpt><trkpt lat="45.5844298" lon="10.7457996"><ele>233.0</ele><time>2026-03-28T13:53:32.751Z</time></trkpt><trkpt lat="45.5845176" lon="10.74576"><ele>233.0</ele><time>2026-03-28T13:53:33.751Z</time></trkpt><trkpt lat="45.5846069" lon="10.7457225"><ele>233.60000000000002</ele><time>2026-03-28T13:53:34.75Z</time></trkpt><trkpt lat="45.5846839" lon="10.7456684"><ele>234.20000000000002</ele><time>2026-03-28T13:53:35.75Z</time></trkpt><trkpt lat="45.5847632" lon="10.7455928"><ele>234.8</ele><time>2026-03-28T13:53:36.75Z</time></trkpt><trkpt lat="45.5848448" lon="10.7455024"><ele>235.4</ele><time>2026-03-28T13:53:37.751Z</time></trkpt><trkpt lat="45.5849237" lon="10.7454247"><ele>236.0</ele><time>2026-03-28T13:53:38.75Z</time></trkpt><trkpt lat="45.5850054" lon="10.7453689"><ele>236.0</ele><time>2026-03-28T13:53:39.751Z</time></trkpt><trkpt lat="45.5850974" lon="10.7453324"><ele>236.00000000000003</ele><time>2026-03-28T13:53:40.75Z</time></trkpt><trkpt lat="45.5851971" lon="10.7453154"><ele>236.00000000000003</ele><time>2026-03-28T13:53:41.751Z</time></trkpt><trkpt lat="45.5853024" lon="10.7453149"><ele>236.0</ele><time>2026-03-28T13:53:42.75Z</time></trkpt><trkpt lat="45.5853974" lon="10.7453207"><ele>236.0</ele><time>2026-03-28T13:53:43.751Z</time></trkpt><trkpt lat="45.5854867" lon="10.7453405"><ele>236.16666666666669</ele><time>2026-03-28T13:53:44.75Z</time></trkpt><trkpt lat="45.5855792" lon="10.7453484"><ele>236.33333333333334</ele><time>2026-03-28T13:53:45.75Z</time></trkpt><trkpt lat="45.5856556" lon="10.7453525"><ele>236.5</ele><time>2026-03-28T13:53:46.75Z</time></trkpt><trkpt lat="45.5857197" lon="10.7453695"><ele>236.66666666666669</ele><time>2026-03-28T13:53:47.75Z</time></trkpt><trkpt lat="45.5858039" lon="10.7454041"><ele>236.83333333333334</ele><time>2026-03-28T13:53:49.75Z</time></trkpt><trkpt lat="45.585885" lon="10.7454064"><ele>237.0</ele><time>2026-03-28T13:53:59.751Z</time></trkpt><trkpt lat="45.5859623" lon="10.7453997"><ele>237.0</ele><time>2026-03-28T13:54:42.751Z</time></trkpt><trkpt lat="45.5860241" lon="10.7453288"><ele>237.0</ele><time>2026-03-28T13:54:47.75Z</time></trkpt><trkpt lat="45.5860293" lon="10.7452179"><ele>237.0</ele><time>2026-03-28T13:54:48.75Z</time></trkpt><trkpt lat="45.5860178" lon="10.7450987"><ele>237.0</ele><time>2026-03-28T13:54:49.751Z</time></trkpt><trkpt lat="45.586011" lon="10.7449754"><ele>237.0</ele><time>2026-03-28T13:54:50.751Z</time></trkpt><trkpt lat="45.5860021" lon="10.7448353"><ele>237.0</ele><time>2026-03-28T13:54:51.751Z</time></trkpt><trkpt lat="45.5859938" lon="10.7446841"><ele>238.5</ele><time>2026-03-28T13:54:52.75Z</time></trkpt><trkpt lat="45.5859805" lon="10.7445245"><ele>240.0</ele><time>2026-03-28T13:54:53.75Z</time></trkpt><trkpt lat="45.5859648" lon="10.7443633"><ele>241.5</ele><time>2026-03-28T13:54:54.75Z</time></trkpt><trkpt lat="45.5859488" lon="10.7441824"><ele>243.0</ele><time>2026-03-28T13:54:55.75Z</time></trkpt><trkpt lat="45.5859298" lon="10.7440105"><ele>243.2</ele><time>2026-03-28T13:54:56.75Z</time></trkpt><trkpt lat="45.5859129" lon="10.7438417"><ele>243.4</ele><time>2026-03-28T13:54:57.75Z</time></trkpt><trkpt lat="45.5858921" lon="10.7436873"><ele>243.59999999999997</ele><time>2026-03-28T13:54:58.75Z</time></trkpt><trkpt lat="45.5858746" lon="10.7435403"><ele>243.79999999999998</ele><time>2026-03-28T13:54:59.751Z</time></trkpt><trkpt lat="45.5858564" lon="10.7433905"><ele>244.0</ele><time>2026-03-28T13:55:00.751Z</time></trkpt><trkpt lat="45.5858412" lon="10.743225"><ele>243.0</ele><time>2026-03-28T13:55:01.751Z</time></trkpt><trkpt lat="45.5858441" lon="10.74307"><ele>241.99999999999997</ele><time>2026-03-28T13:55:02.752Z</time></trkpt><trkpt lat="45.585854" lon="10.7429254"><ele>240.99999999999997</ele><time>2026-03-28T13:55:03.751Z</time></trkpt><trkpt lat="45.5858655" lon="10.7427853"><ele>240.0</ele><time>2026-03-28T13:55:04.75Z</time></trkpt><trkpt lat="45.5858749" lon="10.7426634"><ele>239.0</ele><time>2026-03-28T13:55:05.75Z</time></trkpt><trkpt lat="45.5858824" lon="10.7425499"><ele>238.16666666666669</ele><time>2026-03-28T13:55:06.751Z</time></trkpt><trkpt lat="45.5858868" lon="10.7424424"><ele>237.33333333333334</ele><time>2026-03-28T13:55:07.751Z</time></trkpt><trkpt lat="45.5858902" lon="10.7423472"><ele>236.5</ele><time>2026-03-28T13:55:08.751Z</time></trkpt><trkpt lat="45.585879" lon="10.7421786"><ele>235.66666666666669</ele><time>2026-03-28T13:55:10.75Z</time></trkpt><trkpt lat="45.5858816" lon="10.7420141"><ele>234.83333333333334</ele><time>2026-03-28T13:55:12.751Z</time></trkpt><trkpt lat="45.5858782" lon="10.741913"><ele>234.0</ele><time>2026-03-28T13:55:13.751Z</time></trkpt><trkpt lat="45.5858612" lon="10.7417814"><ele>232.5</ele><time>2026-03-28T13:55:14.75Z</time></trkpt><trkpt lat="45.5858529" lon="10.7416225"><ele>231.0</ele><time>2026-03-28T13:55:15.751Z</time></trkpt><trkpt lat="45.5858484" lon="10.7414451"><ele>229.5</ele><time>2026-03-28T13:55:16.751Z</time></trkpt><trkpt lat="45.5858393" lon="10.7412491"><ele>228.0</ele><time>2026-03-28T13:55:17.751Z</time></trkpt><trkpt lat="45.5858253" lon="10.7410409"><ele>227.5</ele><time>2026-03-28T13:55:18.75Z</time></trkpt><trkpt lat="45.5858093" lon="10.7408346"><ele>227.0</ele><time>2026-03-28T13:55:19.75Z</time></trkpt><trkpt lat="45.5857915" lon="10.7406446"><ele>226.5</ele><time>2026-03-28T13:55:20.751Z</time></trkpt><trkpt lat="45.5857764" lon="10.7404826"><ele>226.0</ele><time>2026-03-28T13:55:21.751Z</time></trkpt><trkpt lat="45.5857692" lon="10.7403454"><ele>225.99999999999997</ele><time>2026-03-28T13:55:22.75Z</time></trkpt><trkpt lat="45.5857744" lon="10.7402308"><ele>226.0</ele><time>2026-03-28T13:55:23.75Z</time></trkpt><trkpt lat="45.5857915" lon="10.7401416"><ele>226.0</ele><time>2026-03-28T13:55:24.75Z</time></trkpt><trkpt lat="45.5858158" lon="10.7400104"><ele>226.0</ele><time>2026-03-28T13:55:26.75Z</time></trkpt><trkpt lat="45.5857843" lon="10.7398581"><ele>225.99999999999997</ele><time>2026-03-28T13:55:28.75Z</time></trkpt><trkpt lat="45.5857463" lon="10.7397432"><ele>226.0</ele><time>2026-03-28T13:55:29.751Z</time></trkpt><trkpt lat="45.5857206" lon="10.7395806"><ele>226.25</ele><time>2026-03-28T13:55:30.75Z</time></trkpt><trkpt lat="45.5856982" lon="10.7393957"><ele>226.5</ele><time>2026-03-28T13:55:31.75Z</time></trkpt><trkpt lat="45.5856546" lon="10.7391905"><ele>226.75</ele><time>2026-03-28T13:55:32.75Z</time></trkpt><trkpt lat="45.5855887" lon="10.7389743"><ele>227.0</ele><time>2026-03-28T13:55:33.751Z</time></trkpt><trkpt lat="45.5855248" lon="10.7387368"><ele>226.33333333333334</ele><time>2026-03-28T13:55:34.751Z</time></trkpt><trkpt lat="45.5854672" lon="10.7385083"><ele>225.66666666666669</ele><time>2026-03-28T13:55:35.751Z</time></trkpt><trkpt lat="45.5854112" lon="10.7382878"><ele>225.0</ele><time>2026-03-28T13:55:36.75Z</time></trkpt><trkpt lat="45.5853583" lon="10.7380717"><ele>221.33333333333331</ele><time>2026-03-28T13:55:37.75Z</time></trkpt><trkpt lat="45.5853124" lon="10.7378556"><ele>217.66666666666666</ele><time>2026-03-28T13:55:38.75Z</time></trkpt><trkpt lat="45.5852764" lon="10.7376416"><ele>214.0</ele><time>2026-03-28T13:55:39.75Z</time></trkpt><trkpt lat="45.5852499" lon="10.7374284"><ele>213.0</ele><time>2026-03-28T13:55:40.75Z</time></trkpt><trkpt lat="45.5852374" lon="10.7372189"><ele>212.0</ele><time>2026-03-28T13:55:41.751Z</time></trkpt><trkpt lat="45.5852426" lon="10.7370154"><ele>211.0</ele><time>2026-03-28T13:55:42.75Z</time></trkpt><trkpt lat="45.5852673" lon="10.736819"><ele>210.0</ele><time>2026-03-28T13:55:43.75Z</time></trkpt><trkpt lat="45.5853057" lon="10.7366313"><ele>210.75</ele><time>2026-03-28T13:55:44.75Z</time></trkpt><trkpt lat="45.5853493" lon="10.7364481"><ele>211.5</ele><time>2026-03-28T13:55:45.751Z</time></trkpt><trkpt lat="45.5853975" lon="10.7362701"><ele>212.25</ele><time>2026-03-28T13:55:46.75Z</time></trkpt><trkpt lat="45.5854471" lon="10.7360969"><ele>213.0</ele><time>2026-03-28T13:55:47.75Z</time></trkpt><trkpt lat="45.5854944" lon="10.7359285"><ele>213.0</ele><time>2026-03-28T13:55:48.751Z</time></trkpt><trkpt lat="45.5855385" lon="10.7357626"><ele>213.0</ele><time>2026-03-28T13:55:49.751Z</time></trkpt><trkpt lat="45.5855818" lon="10.7356021"><ele>213.0</ele><time>2026-03-28T13:55:50.75Z</time></trkpt><trkpt lat="45.585619" lon="10.7354424"><ele>213.0</ele><time>2026-03-28T13:55:51.75Z</time></trkpt><trkpt lat="45.5856501" lon="10.7352851"><ele>211.8</ele><time>2026-03-28T13:55:52.751Z</time></trkpt><trkpt lat="45.5856749" lon="10.7351307"><ele>210.60000000000002</ele><time>2026-03-28T13:55:53.751Z</time></trkpt><trkpt lat="45.5856916" lon="10.734979"><ele>209.39999999999998</ele><time>2026-03-28T13:55:54.75Z</time></trkpt><trkpt lat="45.5857039" lon="10.7348278"><ele>208.2</ele><time>2026-03-28T13:55:55.75Z</time></trkpt><trkpt lat="45.5857172" lon="10.7346809"><ele>207.0</ele><time>2026-03-28T13:55:56.75Z</time></trkpt><trkpt lat="45.5857295" lon="10.7345324"><ele>205.25</ele><time>2026-03-28T13:55:57.75Z</time></trkpt><trkpt lat="45.585737" lon="10.7343759"><ele>203.5</ele><time>2026-03-28T13:55:58.751Z</time></trkpt><trkpt lat="45.5857423" lon="10.7342146"><ele>201.75</ele><time>2026-03-28T13:55:59.751Z</time></trkpt><trkpt lat="45.5857493" lon="10.7340513"><ele>200.0</ele><time>2026-03-28T13:56:00.75Z</time></trkpt><trkpt lat="45.5857596" lon="10.7338868"><ele>200.0</ele><time>2026-03-28T13:56:01.75Z</time></trkpt><trkpt lat="45.5857671" lon="10.7337253"><ele>200.0</ele><time>2026-03-28T13:56:02.751Z</time></trkpt><trkpt lat="45.5857613" lon="10.7335643"><ele>200.0</ele><time>2026-03-28T13:56:03.75Z</time></trkpt><trkpt lat="45.5857219" lon="10.7334145"><ele>200.0</ele><time>2026-03-28T13:56:04.751Z</time></trkpt><trkpt lat="45.5856519" lon="10.7332944"><ele>200.0</ele><time>2026-03-28T13:56:05.75Z</time></trkpt><trkpt lat="45.5855664" lon="10.7332041"><ele>199.8</ele><time>2026-03-28T13:56:06.75Z</time></trkpt><trkpt lat="45.5854807" lon="10.7331302"><ele>199.6</ele><time>2026-03-28T13:56:07.751Z</time></trkpt><trkpt lat="45.5853921" lon="10.7330598"><ele>199.39999999999998</ele><time>2026-03-28T13:56:08.751Z</time></trkpt><trkpt lat="45.5853101" lon="10.7329849"><ele>199.2</ele><time>2026-03-28T13:56:09.751Z</time></trkpt><trkpt lat="45.5852304" lon="10.7328988"><ele>199.0</ele><time>2026-03-28T13:56:10.75Z</time></trkpt><trkpt lat="45.5851546" lon="10.7327994"><ele>196.2</ele><time>2026-03-28T13:56:11.751Z</time></trkpt><trkpt lat="45.5850888" lon="10.7326869"><ele>193.39999999999998</ele><time>2026-03-28T13:56:12.751Z</time></trkpt><trkpt lat="45.5850355" lon="10.7325682"><ele>190.6</ele><time>2026-03-28T13:56:13.75Z</time></trkpt><trkpt lat="45.5849942" lon="10.7324549"><ele>187.8</ele><time>2026-03-28T13:56:14.75Z</time></trkpt><trkpt lat="45.5849626" lon="10.732338"><ele>185.0</ele><time>2026-03-28T13:56:15.751Z</time></trkpt><trkpt lat="45.584941" lon="10.7322206"><ele>185.0</ele><time>2026-03-28T13:56:16.75Z</time></trkpt><trkpt lat="45.5849295" lon="10.732107"><ele>185.0</ele><time>2026-03-28T13:56:17.75Z</time></trkpt><trkpt lat="45.5849207" lon="10.7320036"><ele>185.0</ele><time>2026-03-28T13:56:18.75Z</time></trkpt><trkpt lat="45.5849018" lon="10.7319146"><ele>185.0</ele><time>2026-03-28T13:56:19.75Z</time></trkpt><trkpt lat="45.5848176" lon="10.7318245"><ele>185.0</ele><time>2026-03-28T13:56:21.751Z</time></trkpt><trkpt lat="45.58473" lon="10.7318991"><ele>185.0</ele><time>2026-03-28T13:56:23.751Z</time></trkpt><trkpt lat="45.5846971" lon="10.7319818"><ele>184.99999999999997</ele><time>2026-03-28T13:56:24.75Z</time></trkpt><trkpt lat="45.5846804" lon="10.7320693"><ele>185.0</ele><time>2026-03-28T13:56:25.75Z</time></trkpt><trkpt lat="45.5846691" lon="10.7321585"><ele>185.0</ele><time>2026-03-28T13:56:26.751Z</time></trkpt><trkpt lat="45.58466" lon="10.7322498"><ele>185.0</ele><time>2026-03-28T13:56:27.751Z</time></trkpt><trkpt lat="45.584651" lon="10.7323415"><ele>185.0</ele><time>2026-03-28T13:56:28.75Z</time></trkpt><trkpt lat="45.5846455" lon="10.7324322"><ele>184.99999999999997</ele><time>2026-03-28T13:56:29.75Z</time></trkpt><trkpt lat="45.5846456" lon="10.7325223"><ele>185.0</ele><time>2026-03-28T13:56:30.75Z</time></trkpt><trkpt lat="45.5846411" lon="10.7326849"><ele>184.2</ele><time>2026-03-28T13:56:32.751Z</time></trkpt><trkpt lat="45.5845665" lon="10.7327564"><ele>183.4</ele><time>2026-03-28T13:56:34.751Z</time></trkpt><trkpt lat="45.5844978" lon="10.7326784"><ele>182.60000000000002</ele><time>2026-03-28T13:56:36.75Z</time></trkpt><trkpt lat="45.5844918" lon="10.7324776"><ele>181.8</ele><time>2026-03-28T13:56:38.75Z</time></trkpt><trkpt lat="45.5844954" lon="10.7323479"><ele>181.0</ele><time>2026-03-28T13:56:39.75Z</time></trkpt><trkpt lat="45.5845026" lon="10.7322058"><ele>181.8</ele><time>2026-03-28T13:56:40.751Z</time></trkpt><trkpt lat="45.5845076" lon="10.7320531"><ele>182.60000000000002</ele><time>2026-03-28T13:56:41.751Z</time></trkpt><trkpt lat="45.5845104" lon="10.7319029"><ele>183.4</ele><time>2026-03-28T13:56:42.75Z</time></trkpt><trkpt lat="45.584515" lon="10.7317535"><ele>184.2</ele><time>2026-03-28T13:56:43.75Z</time></trkpt><trkpt lat="45.5845138" lon="10.7316003"><ele>185.0</ele><time>2026-03-28T13:56:44.75Z</time></trkpt><trkpt lat="45.5844968" lon="10.731446"><ele>178.0</ele><time>2026-03-28T13:56:45.751Z</time></trkpt><trkpt lat="45.5844798" lon="10.7312886"><ele>171.0</ele><time>2026-03-28T13:56:46.751Z</time></trkpt><trkpt lat="45.5844589" lon="10.7311161"><ele>164.0</ele><time>2026-03-28T13:56:47.75Z</time></trkpt><trkpt lat="45.584429" lon="10.7309372"><ele>157.0</ele><time>2026-03-28T13:56:48.75Z</time></trkpt><trkpt lat="45.5844031" lon="10.7307621"><ele>157.0</ele><time>2026-03-28T13:56:49.75Z</time></trkpt><trkpt lat="45.5843884" lon="10.7305894"><ele>157.0</ele><time>2026-03-28T13:56:50.751Z</time></trkpt><trkpt lat="45.5843762" lon="10.7304207"><ele>157.0</ele><time>2026-03-28T13:56:51.75Z</time></trkpt><trkpt lat="45.584358" lon="10.7302545"><ele>157.0</ele><time>2026-03-28T13:56:52.75Z</time></trkpt><trkpt lat="45.5843376" lon="10.7300935"><ele>156.6</ele><time>2026-03-28T13:56:53.75Z</time></trkpt><trkpt lat="45.5843164" lon="10.7299336"><ele>156.2</ele><time>2026-03-28T13:56:54.75Z</time></trkpt><trkpt lat="45.5842955" lon="10.729776"><ele>155.8</ele><time>2026-03-28T13:56:55.751Z</time></trkpt><trkpt lat="45.584275" lon="10.7296194"><ele>155.4</ele><time>2026-03-28T13:56:56.751Z</time></trkpt><trkpt lat="45.584253" lon="10.7294639"><ele>155.0</ele><time>2026-03-28T13:56:57.751Z</time></trkpt><trkpt lat="45.5842268" lon="10.729313"><ele>154.25</ele><time>2026-03-28T13:56:58.75Z</time></trkpt><trkpt lat="45.5842093" lon="10.7291527"><ele>153.5</ele><time>2026-03-28T13:56:59.75Z</time></trkpt><trkpt lat="45.5841737" lon="10.7290023"><ele>152.75</ele><time>2026-03-28T13:57:00.75Z</time></trkpt><trkpt lat="45.5841218" lon="10.7288602"><ele>152.0</ele><time>2026-03-28T13:57:01.751Z</time></trkpt><trkpt lat="45.5840534" lon="10.7287291"><ele>152.0</ele><time>2026-03-28T13:57:02.751Z</time></trkpt><trkpt lat="45.5839722" lon="10.7286158"><ele>152.0</ele><time>2026-03-28T13:57:03.75Z</time></trkpt><trkpt lat="45.5838857" lon="10.7285127"><ele>152.0</ele><time>2026-03-28T13:57:04.751Z</time></trkpt><trkpt lat="45.5838063" lon="10.7284086"><ele>152.0</ele><time>2026-03-28T13:57:05.751Z</time></trkpt><trkpt lat="45.583736" lon="10.7282906"><ele>152.0</ele><time>2026-03-28T13:57:06.75Z</time></trkpt><trkpt lat="45.5836779" lon="10.7281602"><ele>148.4</ele><time>2026-03-28T13:57:07.75Z</time></trkpt><trkpt lat="45.5836359" lon="10.7280166"><ele>144.79999999999998</ele><time>2026-03-28T13:57:08.75Z</time></trkpt><trkpt lat="45.583612" lon="10.727866"><ele>141.2</ele><time>2026-03-28T13:57:09.751Z</time></trkpt><trkpt lat="45.5835934" lon="10.7277205"><ele>137.6</ele><time>2026-03-28T13:57:10.75Z</time></trkpt><trkpt lat="45.5835735" lon="10.7275751"><ele>134.0</ele><time>2026-03-28T13:57:11.751Z</time></trkpt><trkpt lat="45.5835514" lon="10.7274336"><ele>133.4</ele><time>2026-03-28T13:57:12.75Z</time></trkpt><trkpt lat="45.5835333" lon="10.727287"><ele>132.8</ele><time>2026-03-28T13:57:13.75Z</time></trkpt><trkpt lat="45.5835126" lon="10.7271327"><ele>132.2</ele><time>2026-03-28T13:57:14.75Z</time></trkpt><trkpt lat="45.5834914" lon="10.726977"><ele>131.6</ele><time>2026-03-28T13:57:15.75Z</time></trkpt><trkpt lat="45.583471" lon="10.7268228"><ele>131.0</ele><time>2026-03-28T13:57:16.751Z</time></trkpt><trkpt lat="45.5834527" lon="10.7266681"><ele>130.66666666666666</ele><time>2026-03-28T13:57:17.751Z</time></trkpt><trkpt lat="45.583436" lon="10.7265233"><ele>130.33333333333331</ele><time>2026-03-28T13:57:18.751Z</time></trkpt><trkpt lat="45.5834196" lon="10.7263998"><ele>130.0</ele><time>2026-03-28T13:57:19.751Z</time></trkpt><trkpt lat="45.5834008" lon="10.7262956"><ele>129.66666666666666</ele><time>2026-03-28T13:57:20.751Z</time></trkpt><trkpt lat="45.5833862" lon="10.7261968"><ele>129.33333333333334</ele><time>2026-03-28T13:57:21.75Z</time></trkpt><trkpt lat="45.583373" lon="10.7261061"><ele>129.0</ele><time>2026-03-28T13:57:22.751Z</time></trkpt><trkpt lat="45.5833303" lon="10.7259543"><ele>128.8</ele><time>2026-03-28T13:57:24.751Z</time></trkpt><trkpt lat="45.5832699" lon="10.7258385"><ele>128.60000000000002</ele><time>2026-03-28T13:57:26.752Z</time></trkpt><trkpt lat="45.5832036" lon="10.7257187"><ele>128.4</ele><time>2026-03-28T13:57:28.751Z</time></trkpt><trkpt lat="45.5831432" lon="10.7255901"><ele>128.20000000000002</ele><time>2026-03-28T13:57:30.751Z</time></trkpt><trkpt lat="45.5831663" lon="10.7254856"><ele>128.0</ele><time>2026-03-28T13:57:32.751Z</time></trkpt><trkpt lat="45.5832566" lon="10.72547"><ele>127.99999999999999</ele><time>2026-03-28T13:57:34.75Z</time></trkpt><trkpt lat="45.5833308" lon="10.7254616"><ele>128.0</ele><time>2026-03-28T13:57:35.751Z</time></trkpt><trkpt lat="45.5834006" lon="10.7254457"><ele>128.0</ele><time>2026-03-28T13:57:36.751Z</time></trkpt><trkpt lat="45.5834662" lon="10.7254131"><ele>128.0</ele><time>2026-03-28T13:57:37.751Z</time></trkpt><trkpt lat="45.5835245" lon="10.7253622"><ele>127.99999999999999</ele><time>2026-03-28T13:57:38.751Z</time></trkpt><trkpt lat="45.5835705" lon="10.7252725"><ele>128.0</ele><time>2026-03-28T13:57:39.75Z</time></trkpt><trkpt lat="45.583603" lon="10.7251531"><ele>127.5</ele><time>2026-03-28T13:57:40.75Z</time></trkpt><trkpt lat="45.5836337" lon="10.7249954"><ele>127.0</ele><time>2026-03-28T13:57:41.75Z</time></trkpt><trkpt lat="45.5836705" lon="10.7248272"><ele>126.5</ele><time>2026-03-28T13:57:42.751Z</time></trkpt><trkpt lat="45.5837184" lon="10.7246582"><ele>126.0</ele><time>2026-03-28T13:57:43.751Z</time></trkpt><trkpt lat="45.5837821" lon="10.7244987"><ele>127.25</ele><time>2026-03-28T13:57:44.751Z</time></trkpt><trkpt lat="45.58387" lon="10.7243555"><ele>128.5</ele><time>2026-03-28T13:57:45.75Z</time></trkpt><trkpt lat="45.5839689" lon="10.7242194"><ele>129.75</ele><time>2026-03-28T13:57:46.751Z</time></trkpt><trkpt lat="45.5840813" lon="10.7240392"><ele>131.0</ele><time>2026-03-28T13:57:47.75Z</time></trkpt><trkpt lat="45.5842046" lon="10.7238565"><ele>131.0</ele><time>2026-03-28T13:57:48.751Z</time></trkpt><trkpt lat="45.5843161" lon="10.7237187"><ele>131.0</ele><time>2026-03-28T13:57:49.751Z</time></trkpt><trkpt lat="45.5844196" lon="10.7236279"><ele>131.0</ele><time>2026-03-28T13:57:50.75Z</time></trkpt><trkpt lat="45.5845157" lon="10.7235762"><ele>131.0</ele><time>2026-03-28T13:57:51.75Z</time></trkpt><trkpt lat="45.5846046" lon="10.7235644"><ele>134.6</ele><time>2026-03-28T13:57:52.75Z</time></trkpt><trkpt lat="45.5846771" lon="10.7236107"><ele>138.2</ele><time>2026-03-28T13:57:53.751Z</time></trkpt><trkpt lat="45.584737" lon="10.7237072"><ele>141.8</ele><time>2026-03-28T13:57:54.75Z</time></trkpt><trkpt lat="45.5847984" lon="10.7238262"><ele>145.4</ele><time>2026-03-28T13:57:55.751Z</time></trkpt><trkpt lat="45.5848743" lon="10.7239315"><ele>149.0</ele><time>2026-03-28T13:57:56.751Z</time></trkpt><trkpt lat="45.5849532" lon="10.7240165"><ele>149.0</ele><time>2026-03-28T13:57:57.751Z</time></trkpt><trkpt lat="45.5850458" lon="10.7240672"><ele>149.0</ele><time>2026-03-28T13:57:58.75Z</time></trkpt><trkpt lat="45.585151" lon="10.7240777"><ele>149.0</ele><time>2026-03-28T13:57:59.75Z</time></trkpt><trkpt lat="45.5852692" lon="10.7240639"><ele>149.0</ele><time>2026-03-28T13:58:00.75Z</time></trkpt><trkpt lat="45.5853636" lon="10.7240909"><ele>149.0</ele><time>2026-03-28T13:58:01.751Z</time></trkpt><trkpt lat="45.5854688" lon="10.7241628"><ele>150.2</ele><time>2026-03-28T13:58:02.75Z</time></trkpt><trkpt lat="45.5855862" lon="10.7242597"><ele>151.4</ele><time>2026-03-28T13:58:03.75Z</time></trkpt><trkpt lat="45.5856886" lon="10.7243496"><ele>152.6</ele><time>2026-03-28T13:58:04.751Z</time></trkpt><trkpt lat="45.5857857" lon="10.7244043"><ele>153.8</ele><time>2026-03-28T13:58:05.75Z</time></trkpt><trkpt lat="45.5858578" lon="10.724412"><ele>155.0</ele><time>2026-03-28T13:58:06.75Z</time></trkpt><trkpt lat="45.5859339" lon="10.7244498"><ele>155.0</ele><time>2026-03-28T13:58:07.751Z</time></trkpt><trkpt lat="45.5860064" lon="10.7245169"><ele>155.0</ele><time>2026-03-28T13:58:08.751Z</time></trkpt><trkpt lat="45.586098" lon="10.7246138"><ele>155.0</ele><time>2026-03-28T13:58:09.75Z</time></trkpt><trkpt lat="45.5862013" lon="10.7247192"><ele>155.0</ele><time>2026-03-28T13:58:10.75Z</time></trkpt><trkpt lat="45.5863018" lon="10.7247768"><ele>155.0</ele><time>2026-03-28T13:58:11.75Z</time></trkpt><trkpt lat="45.5864367" lon="10.724845"><ele>161.25</ele><time>2026-03-28T13:58:12.75Z</time></trkpt><trkpt lat="45.5865873" lon="10.7249148"><ele>167.5</ele><time>2026-03-28T13:58:13.751Z</time></trkpt><trkpt lat="45.586722" lon="10.7249746"><ele>173.75</ele><time>2026-03-28T13:58:14.751Z</time></trkpt><trkpt lat="45.5868397" lon="10.7250329"><ele>180.0</ele><time>2026-03-28T13:58:15.75Z</time></trkpt><trkpt lat="45.5869411" lon="10.7250877"><ele>180.0</ele><time>2026-03-28T13:58:16.75Z</time></trkpt><trkpt lat="45.5870074" lon="10.7251067"><ele>180.0</ele><time>2026-03-28T13:58:17.75Z</time></trkpt><trkpt lat="45.5870634" lon="10.7250349"><ele>180.0</ele><time>2026-03-28T13:58:19.751Z</time></trkpt><trkpt lat="45.5870969" lon="10.7249045"><ele>180.0</ele><time>2026-03-28T13:58:21.751Z</time></trkpt><trkpt lat="45.5871264" lon="10.7247125"><ele>180.0</ele><time>2026-03-28T13:58:23.751Z</time></trkpt><trkpt lat="45.587137" lon="10.7246205"><ele>180.0</ele><time>2026-03-28T13:58:24.751Z</time></trkpt><trkpt lat="45.587149" lon="10.7245169"><ele>184.2</ele><time>2026-03-28T13:58:25.75Z</time></trkpt><trkpt lat="45.5871682" lon="10.7244008"><ele>188.4</ele><time>2026-03-28T13:58:26.75Z</time></trkpt><trkpt lat="45.5871842" lon="10.7242711"><ele>192.60000000000002</ele><time>2026-03-28T13:58:27.75Z</time></trkpt><trkpt lat="45.5871978" lon="10.7241342"><ele>196.8</ele><time>2026-03-28T13:58:28.751Z</time></trkpt><trkpt lat="45.5872119" lon="10.7239746"><ele>201.0</ele><time>2026-03-28T13:58:29.751Z</time></trkpt><trkpt lat="45.5872225" lon="10.7238247"><ele>201.0</ele><time>2026-03-28T13:58:30.75Z</time></trkpt><trkpt lat="45.5872354" lon="10.7236729"><ele>201.0</ele><time>2026-03-28T13:58:31.75Z</time></trkpt><trkpt lat="45.5872427" lon="10.7235195"><ele>201.0</ele><time>2026-03-28T13:58:32.75Z</time></trkpt><trkpt lat="45.5872421" lon="10.7233589"><ele>201.0</ele><time>2026-03-28T13:58:33.751Z</time></trkpt><trkpt lat="45.5872368" lon="10.7231989"><ele>201.0</ele><time>2026-03-28T13:58:34.75Z</time></trkpt><trkpt lat="45.5872256" lon="10.7230417"><ele>200.83333333333334</ele><time>2026-03-28T13:58:35.75Z</time></trkpt><trkpt lat="45.5872168" lon="10.722896"><ele>200.66666666666669</ele><time>2026-03-28T13:58:36.751Z</time></trkpt><trkpt lat="45.5872092" lon="10.7227595"><ele>200.5</ele><time>2026-03-28T13:58:37.751Z</time></trkpt><trkpt lat="45.5871917" lon="10.722631"><ele>200.33333333333334</ele><time>2026-03-28T13:58:38.751Z</time></trkpt><trkpt lat="45.5871661" lon="10.7225135"><ele>200.16666666666669</ele><time>2026-03-28T13:58:39.751Z</time></trkpt><trkpt lat="45.5871386" lon="10.7224162"><ele>200.0</ele><time>2026-03-28T13:58:40.75Z</time></trkpt><trkpt lat="45.5871047" lon="10.7223343"><ele>195.4</ele><time>2026-03-28T13:58:41.75Z</time></trkpt><trkpt lat="45.5870073" lon="10.7222593"><ele>190.8</ele><time>2026-03-28T13:58:43.751Z</time></trkpt><trkpt lat="45.5869035" lon="10.7222637"><ele>186.2</ele><time>2026-03-28T13:58:45.75Z</time></trkpt><trkpt lat="45.5868335" lon="10.7222751"><ele>181.6</ele><time>2026-03-28T13:58:46.75Z</time></trkpt><trkpt lat="45.5867689" lon="10.7222879"><ele>177.0</ele><time>2026-03-28T13:58:47.75Z</time></trkpt><trkpt lat="45.5866655" lon="10.7223095"><ele>177.0</ele><time>2026-03-28T13:58:49.751Z</time></trkpt><trkpt lat="45.586599" lon="10.722292"><ele>177.0</ele><time>2026-03-28T13:58:52.75Z</time></trkpt><trkpt lat="45.5865617" lon="10.7221507"><ele>177.0</ele><time>2026-03-28T13:58:56.751Z</time></trkpt><trkpt lat="45.5865106" lon="10.7219648"><ele>177.0</ele><time>2026-03-28T13:58:58.75Z</time></trkpt><trkpt lat="45.5864871" lon="10.721843"><ele>177.0</ele><time>2026-03-28T13:58:59.75Z</time></trkpt><trkpt lat="45.5864688" lon="10.7216987"><ele>177.5</ele><time>2026-03-28T13:59:00.75Z</time></trkpt><trkpt lat="45.5864568" lon="10.7215314"><ele>178.0</ele><time>2026-03-28T13:59:01.751Z</time></trkpt><trkpt lat="45.5864467" lon="10.7213496"><ele>178.5</ele><time>2026-03-28T13:59:02.751Z</time></trkpt><trkpt lat="45.5864347" lon="10.721182"><ele>179.0</ele><time>2026-03-28T13:59:03.75Z</time></trkpt><trkpt lat="45.5864154" lon="10.7210115"><ele>179.75</ele><time>2026-03-28T13:59:04.75Z</time></trkpt><trkpt lat="45.5863991" lon="10.7208412"><ele>180.5</ele><time>2026-03-28T13:59:05.75Z</time></trkpt><trkpt lat="45.5863931" lon="10.7206881"><ele>181.25</ele><time>2026-03-28T13:59:06.751Z</time></trkpt><trkpt lat="45.5863914" lon="10.7205258"><ele>182.0</ele><time>2026-03-28T13:59:07.751Z</time></trkpt><trkpt lat="45.586386" lon="10.7203488"><ele>182.5</ele><time>2026-03-28T13:59:08.751Z</time></trkpt><trkpt lat="45.5863828" lon="10.7201531"><ele>183.0</ele><time>2026-03-28T13:59:09.751Z</time></trkpt><trkpt lat="45.5863767" lon="10.7199779"><ele>183.5</ele><time>2026-03-28T13:59:10.751Z</time></trkpt><trkpt lat="45.5863696" lon="10.7198142"><ele>184.0</ele><time>2026-03-28T13:59:11.75Z</time></trkpt><trkpt lat="45.5863665" lon="10.7196682"><ele>184.0</ele><time>2026-03-28T13:59:12.75Z</time></trkpt><trkpt lat="45.5863623" lon="10.7195363"><ele>184.0</ele><time>2026-03-28T13:59:13.75Z</time></trkpt><trkpt lat="45.5863579" lon="10.7194267"><ele>184.0</ele><time>2026-03-28T13:59:14.751Z</time></trkpt><trkpt lat="45.5863121" lon="10.7193127"><ele>184.0</ele><time>2026-03-28T13:59:16.751Z</time></trkpt><trkpt lat="45.5861714" lon="10.7192817"><ele>184.0</ele><time>2026-03-28T13:59:18.75Z</time></trkpt><trkpt lat="45.5860702" lon="10.7192841"><ele>181.25</ele><time>2026-03-28T13:59:19.75Z</time></trkpt><trkpt lat="45.5859541" lon="10.7192832"><ele>178.5</ele><time>2026-03-28T13:59:20.751Z</time></trkpt><trkpt lat="45.5858407" lon="10.7192811"><ele>175.75</ele><time>2026-03-28T13:59:21.751Z</time></trkpt><trkpt lat="45.5857315" lon="10.7192459"><ele>173.0</ele><time>2026-03-28T13:59:22.751Z</time></trkpt><trkpt lat="45.5856308" lon="10.7191752"><ele>173.0</ele><time>2026-03-28T13:59:23.75Z</time></trkpt><trkpt lat="45.5855588" lon="10.7191019"><ele>173.0</ele><time>2026-03-28T13:59:24.751Z</time></trkpt><trkpt lat="45.5855213" lon="10.7190093"><ele>173.0</ele><time>2026-03-28T13:59:25.75Z</time></trkpt><trkpt lat="45.5855053" lon="10.7188972"><ele>173.0</ele><time>2026-03-28T13:59:26.75Z</time></trkpt><trkpt lat="45.5854543" lon="10.7188096"><ele>173.0</ele><time>2026-03-28T13:59:27.75Z</time></trkpt><trkpt lat="45.5853837" lon="10.7187485"><ele>173.0</ele><time>2026-03-28T13:59:28.75Z</time></trkpt><trkpt lat="45.5853067" lon="10.7187121"><ele>169.6</ele><time>2026-03-28T13:59:29.751Z</time></trkpt><trkpt lat="45.5852154" lon="10.7187524"><ele>166.20000000000002</ele><time>2026-03-28T13:59:30.751Z</time></trkpt><trkpt lat="45.5851101" lon="10.71878"><ele>162.8</ele><time>2026-03-28T13:59:31.751Z</time></trkpt><trkpt lat="45.5849998" lon="10.7187835"><ele>159.4</ele><time>2026-03-28T13:59:32.751Z</time></trkpt><trkpt lat="45.5848948" lon="10.7187417"><ele>156.0</ele><time>2026-03-28T13:59:33.75Z</time></trkpt><trkpt lat="45.5847968" lon="10.7186615"><ele>157.5</ele><time>2026-03-28T13:59:34.751Z</time></trkpt><trkpt lat="45.5847046" lon="10.7185537"><ele>159.0</ele><time>2026-03-28T13:59:35.75Z</time></trkpt><trkpt lat="45.5846297" lon="10.7184209"><ele>160.5</ele><time>2026-03-28T13:59:36.75Z</time></trkpt><trkpt lat="45.5845598" lon="10.7182731"><ele>162.0</ele><time>2026-03-28T13:59:37.75Z</time></trkpt><trkpt lat="45.5844915" lon="10.7181258"><ele>156.0</ele><time>2026-03-28T13:59:38.75Z</time></trkpt><trkpt lat="45.5844206" lon="10.7179781"><ele>150.0</ele><time>2026-03-28T13:59:39.75Z</time></trkpt><trkpt lat="45.5843459" lon="10.7178269"><ele>144.0</ele><time>2026-03-28T13:59:40.751Z</time></trkpt><trkpt lat="45.5842787" lon="10.7176783"><ele>138.0</ele><time>2026-03-28T13:59:41.75Z</time></trkpt><trkpt lat="45.5842146" lon="10.7175366"><ele>138.0</ele><time>2026-03-28T13:59:42.751Z</time></trkpt><trkpt lat="45.5841528" lon="10.7173932"><ele>138.0</ele><time>2026-03-28T13:59:43.75Z</time></trkpt><trkpt lat="45.5840935" lon="10.7172499"><ele>138.0</ele><time>2026-03-28T13:59:44.75Z</time></trkpt><trkpt lat="45.5840381" lon="10.7171029"><ele>138.0</ele><time>2026-03-28T13:59:45.751Z</time></trkpt><trkpt lat="45.5839877" lon="10.7169539"><ele>137.6</ele><time>2026-03-28T13:59:46.75Z</time></trkpt><trkpt lat="45.5839374" lon="10.7168224"><ele>137.20000000000002</ele><time>2026-03-28T13:59:47.75Z</time></trkpt><trkpt lat="45.5838855" lon="10.7167102"><ele>136.8</ele><time>2026-03-28T13:59:48.751Z</time></trkpt><trkpt lat="45.5838243" lon="10.7166272"><ele>136.4</ele><time>2026-03-28T13:59:49.75Z</time></trkpt><trkpt lat="45.5837407" lon="10.7165919"><ele>136.0</ele><time>2026-03-28T13:59:50.75Z</time></trkpt><trkpt lat="45.5836263" lon="10.7165898"><ele>130.75</ele><time>2026-03-28T13:59:51.75Z</time></trkpt><trkpt lat="45.5834979" lon="10.7166136"><ele>125.5</ele><time>2026-03-28T13:59:52.751Z</time></trkpt><trkpt lat="45.5833716" lon="10.7166389"><ele>120.25</ele><time>2026-03-28T13:59:53.751Z</time></trkpt><trkpt lat="45.5832373" lon="10.7166535"><ele>115.0</ele><time>2026-03-28T13:59:54.75Z</time></trkpt><trkpt lat="45.5830953" lon="10.7166577"><ele>115.0</ele><time>2026-03-28T13:59:55.75Z</time></trkpt><trkpt lat="45.5829522" lon="10.7166525"><ele>115.0</ele><time>2026-03-28T13:59:56.751Z</time></trkpt><trkpt lat="45.5828074" lon="10.7166443"><ele>115.0</ele><time>2026-03-28T13:59:57.751Z</time></trkpt><trkpt lat="45.5826596" lon="10.7166386"><ele>115.0</ele><time>2026-03-28T13:59:58.75Z</time></trkpt><trkpt lat="45.5825114" lon="10.7166271"><ele>112.75</ele><time>2026-03-28T13:59:59.751Z</time></trkpt><trkpt lat="45.5823675" lon="10.7165913"><ele>110.5</ele><time>2026-03-28T14:00:00.75Z</time></trkpt><trkpt lat="45.5822277" lon="10.7165508"><ele>108.25</ele><time>2026-03-28T14:00:01.75Z</time></trkpt><trkpt lat="45.5820878" lon="10.7165387"><ele>106.0</ele><time>2026-03-28T14:00:02.75Z</time></trkpt><trkpt lat="45.5819427" lon="10.7165627"><ele>105.0</ele><time>2026-03-28T14:00:03.75Z</time></trkpt><trkpt lat="45.5817943" lon="10.7166126"><ele>104.0</ele><time>2026-03-28T14:00:04.751Z</time></trkpt><trkpt lat="45.5816545" lon="10.7166533"><ele>103.0</ele><time>2026-03-28T14:00:05.751Z</time></trkpt><trkpt lat="45.581515" lon="10.7166738"><ele>102.0</ele><time>2026-03-28T14:00:06.75Z</time></trkpt><trkpt lat="45.5813738" lon="10.716685"><ele>102.0</ele><time>2026-03-28T14:00:07.75Z</time></trkpt><trkpt lat="45.5812423" lon="10.7166641"><ele>102.0</ele><time>2026-03-28T14:00:08.75Z</time></trkpt><trkpt lat="45.5811092" lon="10.7166123"><ele>102.0</ele><time>2026-03-28T14:00:09.75Z</time></trkpt><trkpt lat="45.5809743" lon="10.7165807"><ele>102.0</ele><time>2026-03-28T14:00:10.751Z</time></trkpt><trkpt lat="45.5808478" lon="10.7165959"><ele>100.6</ele><time>2026-03-28T14:00:11.751Z</time></trkpt><trkpt lat="45.5807218" lon="10.7166515"><ele>99.19999999999999</ele><time>2026-03-28T14:00:12.75Z</time></trkpt><trkpt lat="45.580604" lon="10.716691"><ele>97.8</ele><time>2026-03-28T14:00:13.751Z</time></trkpt><trkpt lat="45.5805011" lon="10.7166894"><ele>96.4</ele><time>2026-03-28T14:00:14.751Z</time></trkpt><trkpt lat="45.580418" lon="10.716652"><ele>95.0</ele><time>2026-03-28T14:00:15.751Z</time></trkpt><trkpt lat="45.5803461" lon="10.7165216"><ele>94.5</ele><time>2026-03-28T14:00:17.75Z</time></trkpt><trkpt lat="45.5803373" lon="10.716384"><ele>94.0</ele><time>2026-03-28T14:00:18.75Z</time></trkpt><trkpt lat="45.5803321" lon="10.7161908"><ele>93.5</ele><time>2026-03-28T14:00:19.75Z</time></trkpt><trkpt lat="45.5803237" lon="10.715969"><ele>93.0</ele><time>2026-03-28T14:00:20.751Z</time></trkpt><trkpt lat="45.5803147" lon="10.7157275"><ele>92.33333333333333</ele><time>2026-03-28T14:00:21.751Z</time></trkpt><trkpt lat="45.5802997" lon="10.7154848"><ele>91.66666666666666</ele><time>2026-03-28T14:00:22.751Z</time></trkpt><trkpt lat="45.5802678" lon="10.715262"><ele>91.0</ele><time>2026-03-28T14:00:23.75Z</time></trkpt><trkpt lat="45.5802388" lon="10.7150506"><ele>90.66666666666666</ele><time>2026-03-28T14:00:24.75Z</time></trkpt><trkpt lat="45.580209" lon="10.7148445"><ele>90.33333333333333</ele><time>2026-03-28T14:00:25.75Z</time></trkpt><trkpt lat="45.5801741" lon="10.7146233"><ele>90.0</ele><time>2026-03-28T14:00:26.75Z</time></trkpt><trkpt lat="45.5801395" lon="10.7143973"><ele>90.66666666666667</ele><time>2026-03-28T14:00:27.751Z</time></trkpt><trkpt lat="45.5800945" lon="10.7141685"><ele>91.33333333333334</ele><time>2026-03-28T14:00:28.75Z</time></trkpt><trkpt lat="45.5800387" lon="10.7139377"><ele>92.0</ele><time>2026-03-28T14:00:29.752Z</time></trkpt><trkpt lat="45.5799838" lon="10.7137056"><ele>92.33333333333334</ele><time>2026-03-28T14:00:30.751Z</time></trkpt><trkpt lat="45.5799406" lon="10.713482"><ele>92.66666666666667</ele><time>2026-03-28T14:00:31.752Z</time></trkpt><trkpt lat="45.5799058" lon="10.7132772"><ele>93.0</ele><time>2026-03-28T14:00:32.75Z</time></trkpt><trkpt lat="45.5798752" lon="10.71308"><ele>93.0</ele><time>2026-03-28T14:00:33.75Z</time></trkpt><trkpt lat="45.5798418" lon="10.712881"><ele>93.0</ele><time>2026-03-28T14:00:34.75Z</time></trkpt><trkpt lat="45.5798055" lon="10.7126868"><ele>93.0</ele><time>2026-03-28T14:00:35.751Z</time></trkpt><trkpt lat="45.5797715" lon="10.7124972"><ele>93.0</ele><time>2026-03-28T14:00:36.75Z</time></trkpt><trkpt lat="45.5797357" lon="10.71231"><ele>93.75</ele><time>2026-03-28T14:00:37.751Z</time></trkpt><trkpt lat="45.5797014" lon="10.7121203"><ele>94.5</ele><time>2026-03-28T14:00:38.75Z</time></trkpt><trkpt lat="45.5796707" lon="10.7119418"><ele>95.25</ele><time>2026-03-28T14:00:39.751Z</time></trkpt><trkpt lat="45.5796452" lon="10.7117642"><ele>96.0</ele><time>2026-03-28T14:00:40.751Z</time></trkpt><trkpt lat="45.5796225" lon="10.711582"><ele>96.75</ele><time>2026-03-28T14:00:41.75Z</time></trkpt><trkpt lat="45.5796007" lon="10.7113991"><ele>97.5</ele><time>2026-03-28T14:00:42.751Z</time></trkpt><trkpt lat="45.5795815" lon="10.7112137"><ele>98.25</ele><time>2026-03-28T14:00:43.75Z</time></trkpt><trkpt lat="45.5795611" lon="10.7110263"><ele>99.0</ele><time>2026-03-28T14:00:44.75Z</time></trkpt><trkpt lat="45.5795338" lon="10.7108466"><ele>97.75</ele><time>2026-03-28T14:00:45.75Z</time></trkpt><trkpt lat="45.579505" lon="10.710671"><ele>96.5</ele><time>2026-03-28T14:00:46.751Z</time></trkpt><trkpt lat="45.5794713" lon="10.7105058"><ele>95.25</ele><time>2026-03-28T14:00:47.75Z</time></trkpt><trkpt lat="45.5794322" lon="10.7103553"><ele>94.0</ele><time>2026-03-28T14:00:48.75Z</time></trkpt><trkpt lat="45.5793916" lon="10.7102196"><ele>94.0</ele><time>2026-03-28T14:00:49.75Z</time></trkpt><trkpt lat="45.5793492" lon="10.7100936"><ele>94.0</ele><time>2026-03-28T14:00:50.751Z</time></trkpt><trkpt lat="45.5792941" lon="10.7099713"><ele>94.0</ele><time>2026-03-28T14:00:51.751Z</time></trkpt><trkpt lat="45.579236" lon="10.7098739"><ele>94.0</ele><time>2026-03-28T14:00:52.75Z</time></trkpt><trkpt lat="45.5791862" lon="10.7098079"><ele>94.0</ele><time>2026-03-28T14:00:53.75Z</time></trkpt><trkpt lat="45.5791267" lon="10.7096763"><ele>94.0</ele><time>2026-03-28T14:00:55.75Z</time></trkpt><trkpt lat="45.5792043" lon="10.7096215"><ele>94.0</ele><time>2026-03-28T14:00:58.751Z</time></trkpt><trkpt lat="45.5793458" lon="10.7096839"><ele>94.0</ele><time>2026-03-28T14:01:00.75Z</time></trkpt><trkpt lat="45.5794409" lon="10.7097102"><ele>94.0</ele><time>2026-03-28T14:01:01.75Z</time></trkpt><trkpt lat="45.5795446" lon="10.7097343"><ele>94.0</ele><time>2026-03-28T14:01:02.752Z</time></trkpt><trkpt lat="45.5796475" lon="10.7097587"><ele>95.6</ele><time>2026-03-28T14:01:03.75Z</time></trkpt><trkpt lat="45.5797522" lon="10.7097796"><ele>97.2</ele><time>2026-03-28T14:01:04.75Z</time></trkpt><trkpt lat="45.5798592" lon="10.7097936"><ele>98.8</ele><time>2026-03-28T14:01:05.751Z</time></trkpt><trkpt lat="45.5799694" lon="10.7097985"><ele>100.39999999999999</ele><time>2026-03-28T14:01:06.75Z</time></trkpt><trkpt lat="45.5800723" lon="10.7097983"><ele>102.0</ele><time>2026-03-28T14:01:07.75Z</time></trkpt><trkpt lat="45.5801576" lon="10.7098063"><ele>102.0</ele><time>2026-03-28T14:01:08.75Z</time></trkpt><trkpt lat="45.5802354" lon="10.7098136"><ele>102.0</ele><time>2026-03-28T14:01:09.751Z</time></trkpt><trkpt lat="45.5803165" lon="10.7098186"><ele>102.0</ele><time>2026-03-28T14:01:10.751Z</time></trkpt><trkpt lat="45.5803989" lon="10.7098336"><ele>102.0</ele><time>2026-03-28T14:01:11.75Z</time></trkpt><trkpt lat="45.5804856" lon="10.7098731"><ele>102.0</ele><time>2026-03-28T14:01:12.75Z</time></trkpt><trkpt lat="45.580577" lon="10.7099352"><ele>102.0</ele><time>2026-03-28T14:01:13.75Z</time></trkpt><trkpt lat="45.5806703" lon="10.7100002"><ele>103.39999999999999</ele><time>2026-03-28T14:01:14.75Z</time></trkpt><trkpt lat="45.5807683" lon="10.7100687"><ele>104.8</ele><time>2026-03-28T14:01:15.75Z</time></trkpt><trkpt lat="45.5808704" lon="10.7101308"><ele>106.2</ele><time>2026-03-28T14:01:16.751Z</time></trkpt><trkpt lat="45.5809729" lon="10.7101753"><ele>107.6</ele><time>2026-03-28T14:01:17.751Z</time></trkpt><trkpt lat="45.5810629" lon="10.7102034"><ele>109.0</ele><time>2026-03-28T14:01:18.75Z</time></trkpt><trkpt lat="45.5811535" lon="10.7102241"><ele>111.0</ele><time>2026-03-28T14:01:19.751Z</time></trkpt><trkpt lat="45.5812512" lon="10.7102397"><ele>113.0</ele><time>2026-03-28T14:01:20.75Z</time></trkpt><trkpt lat="45.5813535" lon="10.7102544"><ele>115.0</ele><time>2026-03-28T14:01:21.75Z</time></trkpt><trkpt lat="45.581457" lon="10.7102729"><ele>117.0</ele><time>2026-03-28T14:01:22.75Z</time></trkpt><trkpt lat="45.5815658" lon="10.7102936"><ele>119.0</ele><time>2026-03-28T14:01:23.751Z</time></trkpt><trkpt lat="45.581689" lon="10.7103228"><ele>119.0</ele><time>2026-03-28T14:01:24.75Z</time></trkpt><trkpt lat="45.5818241" lon="10.7103558"><ele>119.0</ele><time>2026-03-28T14:01:25.75Z</time></trkpt><trkpt lat="45.5819763" lon="10.7103953"><ele>119.0</ele><time>2026-03-28T14:01:26.751Z</time></trkpt><trkpt lat="45.5821257" lon="10.7104282"><ele>119.0</ele><time>2026-03-28T14:01:27.75Z</time></trkpt><trkpt lat="45.582284" lon="10.7104503"><ele>122.33333333333333</ele><time>2026-03-28T14:01:28.75Z</time></trkpt><trkpt lat="45.5824489" lon="10.7104585"><ele>125.66666666666666</ele><time>2026-03-28T14:01:29.75Z</time></trkpt><trkpt lat="45.5826136" lon="10.7104609"><ele>129.0</ele><time>2026-03-28T14:01:30.751Z</time></trkpt><trkpt lat="45.5827793" lon="10.7104576"><ele>132.66666666666666</ele><time>2026-03-28T14:01:31.751Z</time></trkpt><trkpt lat="45.5829417" lon="10.7104371"><ele>136.33333333333331</ele><time>2026-03-28T14:01:32.75Z</time></trkpt><trkpt lat="45.5831074" lon="10.7104049"><ele>140.0</ele><time>2026-03-28T14:01:33.75Z</time></trkpt><trkpt lat="45.5832743" lon="10.7103659"><ele>140.0</ele><time>2026-03-28T14:01:34.751Z</time></trkpt><trkpt lat="45.5834419" lon="10.7103341"><ele>140.0</ele><time>2026-03-28T14:01:35.75Z</time></trkpt><trkpt lat="45.5836094" lon="10.7103206"><ele>140.0</ele><time>2026-03-28T14:01:36.751Z</time></trkpt><trkpt lat="45.5837859" lon="10.7103308"><ele>143.33333333333331</ele><time>2026-03-28T14:01:37.75Z</time></trkpt><trkpt lat="45.5839772" lon="10.7103608"><ele>146.66666666666666</ele><time>2026-03-28T14:01:38.75Z</time></trkpt><trkpt lat="45.5841687" lon="10.7104096"><ele>150.0</ele><time>2026-03-28T14:01:39.75Z</time></trkpt><trkpt lat="45.584356" lon="10.7104691"><ele>154.66666666666666</ele><time>2026-03-28T14:01:40.751Z</time></trkpt><trkpt lat="45.584534" lon="10.7105297"><ele>159.33333333333331</ele><time>2026-03-28T14:01:41.751Z</time></trkpt><trkpt lat="45.5847076" lon="10.7105861"><ele>164.0</ele><time>2026-03-28T14:01:42.75Z</time></trkpt><trkpt lat="45.5848843" lon="10.7106281"><ele>164.0</ele><time>2026-03-28T14:01:43.75Z</time></trkpt><trkpt lat="45.5850599" lon="10.7106427"><ele>164.0</ele><time>2026-03-28T14:01:44.75Z</time></trkpt><trkpt lat="45.5852387" lon="10.7106339"><ele>164.0</ele><time>2026-03-28T14:01:45.751Z</time></trkpt><trkpt lat="45.5854188" lon="10.7105888"><ele>170.0</ele><time>2026-03-28T14:01:46.751Z</time></trkpt><trkpt lat="45.5856001" lon="10.7105121"><ele>176.0</ele><time>2026-03-28T14:01:47.75Z</time></trkpt><trkpt lat="45.5857823" lon="10.7104297"><ele>182.0</ele><time>2026-03-28T14:01:48.75Z</time></trkpt><trkpt lat="45.5859583" lon="10.7104034"><ele>182.0</ele><time>2026-03-28T14:01:49.751Z</time></trkpt><trkpt lat="45.5861425" lon="10.7103714"><ele>182.0</ele><time>2026-03-28T14:01:50.749Z</time></trkpt><trkpt lat="45.5863692" lon="10.7104286"><ele>182.0</ele><time>2026-03-28T14:01:51.749Z</time></trkpt><trkpt lat="45.586548" lon="10.7104092"><ele>183.5</ele><time>2026-03-28T14:01:52.75Z</time></trkpt><trkpt lat="45.5867151" lon="10.7103651"><ele>185.0</ele><time>2026-03-28T14:01:53.75Z</time></trkpt><trkpt lat="45.5868541" lon="10.7103011"><ele>186.5</ele><time>2026-03-28T14:01:54.75Z</time></trkpt><trkpt lat="45.5869781" lon="10.7102323"><ele>188.0</ele><time>2026-03-28T14:01:55.749Z</time></trkpt><trkpt lat="45.58708" lon="10.7101893"><ele>190.83333333333331</ele><time>2026-03-28T14:01:56.749Z</time></trkpt><trkpt lat="45.5871641" lon="10.7101748"><ele>193.66666666666666</ele><time>2026-03-28T14:01:57.75Z</time></trkpt><trkpt lat="45.5872266" lon="10.7101954"><ele>196.5</ele><time>2026-03-28T14:01:58.749Z</time></trkpt><trkpt lat="45.5872554" lon="10.710326"><ele>199.33333333333331</ele><time>2026-03-28T14:02:00.75Z</time></trkpt><trkpt lat="45.5872227" lon="10.7104082"><ele>202.16666666666666</ele><time>2026-03-28T14:02:01.75Z</time></trkpt><trkpt lat="45.5871647" lon="10.7104726"><ele>205.0</ele><time>2026-03-28T14:02:02.749Z</time></trkpt><trkpt lat="45.5870952" lon="10.7105333"><ele>207.49999999999997</ele><time>2026-03-28T14:02:03.749Z</time></trkpt><trkpt lat="45.5870497" lon="10.7106302"><ele>210.0</ele><time>2026-03-28T14:02:04.749Z</time></trkpt><trkpt lat="45.5870459" lon="10.7107229"><ele>212.5</ele><time>2026-03-28T14:02:05.75Z</time></trkpt><trkpt lat="45.5871168" lon="10.7107936"><ele>215.0</ele><time>2026-03-28T14:02:07.749Z</time></trkpt><trkpt lat="45.5872353" lon="10.7107719"><ele>217.49999999999997</ele><time>2026-03-28T14:02:09.75Z</time></trkpt><trkpt lat="45.5872844" lon="10.7107075"><ele>220.0</ele><time>2026-03-28T14:02:11.749Z</time></trkpt><trkpt lat="45.5872096" lon="10.7107508"><ele>219.99999999999997</ele><time>2026-03-28T14:02:17.749Z</time></trkpt><trkpt lat="45.5871233" lon="10.7107843"><ele>220.0</ele><time>2026-03-28T14:02:19.749Z</time></trkpt><trkpt lat="45.5870583" lon="10.710801"><ele>220.0</ele><time>2026-03-28T14:02:20.75Z</time></trkpt><trkpt lat="45.5869858" lon="10.7108431"><ele>220.0</ele><time>2026-03-28T14:02:21.749Z</time></trkpt><trkpt lat="45.5869146" lon="10.7109218"><ele>219.99999999999997</ele><time>2026-03-28T14:02:22.749Z</time></trkpt><trkpt lat="45.5868159" lon="10.7110132"><ele>220.0</ele><time>2026-03-28T14:02:23.75Z</time></trkpt><trkpt lat="45.5867197" lon="10.7110915"><ele>217.8</ele><time>2026-03-28T14:02:24.749Z</time></trkpt><trkpt lat="45.5866666" lon="10.7111889"><ele>215.6</ele><time>2026-03-28T14:02:25.749Z</time></trkpt><trkpt lat="45.5866509" lon="10.7113"><ele>213.39999999999998</ele><time>2026-03-28T14:02:26.75Z</time></trkpt><trkpt lat="45.5866621" lon="10.7114224"><ele>211.2</ele><time>2026-03-28T14:02:27.75Z</time></trkpt><trkpt lat="45.5867177" lon="10.7115469"><ele>209.0</ele><time>2026-03-28T14:02:28.749Z</time></trkpt><trkpt lat="45.5867951" lon="10.7116997"><ele>209.0</ele><time>2026-03-28T14:02:29.75Z</time></trkpt><trkpt lat="45.5869019" lon="10.7118928"><ele>209.0</ele><time>2026-03-28T14:02:30.749Z</time></trkpt><trkpt lat="45.5870232" lon="10.7121058"><ele>209.0</ele><time>2026-03-28T14:02:31.75Z</time></trkpt><trkpt lat="45.5871175" lon="10.7122785"><ele>214.0</ele><time>2026-03-28T14:02:32.75Z</time></trkpt><trkpt lat="45.5871854" lon="10.7124408"><ele>219.0</ele><time>2026-03-28T14:02:33.749Z</time></trkpt><trkpt lat="45.5872447" lon="10.71261"><ele>224.0</ele><time>2026-03-28T14:02:34.75Z</time></trkpt><trkpt lat="45.5873073" lon="10.7127927"><ele>229.0</ele><time>2026-03-28T14:02:35.749Z</time></trkpt><trkpt lat="45.5873768" lon="10.7130123"><ele>229.0</ele><time>2026-03-28T14:02:36.749Z</time></trkpt><trkpt lat="45.5874408" lon="10.7132538"><ele>229.0</ele><time>2026-03-28T14:02:37.749Z</time></trkpt><trkpt lat="45.5875006" lon="10.7135039"><ele>229.0</ele><time>2026-03-28T14:02:38.75Z</time></trkpt><trkpt lat="45.5875513" lon="10.7137239"><ele>229.25</ele><time>2026-03-28T14:02:39.749Z</time></trkpt><trkpt lat="45.5875915" lon="10.7139112"><ele>229.5</ele><time>2026-03-28T14:02:40.75Z</time></trkpt><trkpt lat="45.587638" lon="10.7140705"><ele>229.75</ele><time>2026-03-28T14:02:41.749Z</time></trkpt><trkpt lat="45.5877029" lon="10.7141801"><ele>230.0</ele><time>2026-03-28T14:02:42.75Z</time></trkpt><trkpt lat="45.5877685" lon="10.7143026"><ele>229.25</ele><time>2026-03-28T14:02:43.75Z</time></trkpt><trkpt lat="45.5878234" lon="10.7144653"><ele>228.5</ele><time>2026-03-28T14:02:44.749Z</time></trkpt><trkpt lat="45.5878822" lon="10.7146486"><ele>227.75</ele><time>2026-03-28T14:02:45.749Z</time></trkpt><trkpt lat="45.5879602" lon="10.714802"><ele>227.0</ele><time>2026-03-28T14:02:46.75Z</time></trkpt><trkpt lat="45.588062" lon="10.7149313"><ele>233.0</ele><time>2026-03-28T14:02:47.749Z</time></trkpt><trkpt lat="45.5881749" lon="10.7150633"><ele>239.0</ele><time>2026-03-28T14:02:48.749Z</time></trkpt><trkpt lat="45.5882615" lon="10.7152404"><ele>245.0</ele><time>2026-03-28T14:02:49.749Z</time></trkpt><trkpt lat="45.5883292" lon="10.7154507"><ele>245.0</ele><time>2026-03-28T14:02:50.75Z</time></trkpt><trkpt lat="45.5883905" lon="10.7156818"><ele>245.0</ele><time>2026-03-28T14:02:51.749Z</time></trkpt><trkpt lat="45.5884689" lon="10.7159099"><ele>245.0</ele><time>2026-03-28T14:02:52.749Z</time></trkpt><trkpt lat="45.5885218" lon="10.716114"><ele>244.2</ele><time>2026-03-28T14:02:53.75Z</time></trkpt><trkpt lat="45.5885706" lon="10.7162813"><ele>243.4</ele><time>2026-03-28T14:02:54.75Z</time></trkpt><trkpt lat="45.5886239" lon="10.7164175"><ele>242.60000000000002</ele><time>2026-03-28T14:02:55.749Z</time></trkpt><trkpt lat="45.5886908" lon="10.716518"><ele>241.8</ele><time>2026-03-28T14:02:56.749Z</time></trkpt><trkpt lat="45.5887619" lon="10.7166077"><ele>241.0</ele><time>2026-03-28T14:02:57.75Z</time></trkpt><trkpt lat="45.5888183" lon="10.7167103"><ele>243.25</ele><time>2026-03-28T14:02:58.749Z</time></trkpt><trkpt lat="45.5888643" lon="10.7168363"><ele>245.5</ele><time>2026-03-28T14:02:59.749Z</time></trkpt><trkpt lat="45.5889086" lon="10.7169798"><ele>247.75</ele><time>2026-03-28T14:03:00.75Z</time></trkpt><trkpt lat="45.588955" lon="10.717139"><ele>250.0</ele><time>2026-03-28T14:03:01.75Z</time></trkpt><trkpt lat="45.5890019" lon="10.7173018"><ele>249.99999999999997</ele><time>2026-03-28T14:03:02.75Z</time></trkpt><trkpt lat="45.5890456" lon="10.7174428"><ele>250.0</ele><time>2026-03-28T14:03:03.75Z</time></trkpt><trkpt lat="45.5890927" lon="10.717555"><ele>250.0</ele><time>2026-03-28T14:03:04.75Z</time></trkpt><trkpt lat="45.5891442" lon="10.7176305"><ele>250.0</ele><time>2026-03-28T14:03:05.75Z</time></trkpt><trkpt lat="45.5892006" lon="10.7176744"><ele>249.99999999999997</ele><time>2026-03-28T14:03:06.749Z</time></trkpt><trkpt lat="45.5892733" lon="10.717707"><ele>250.0</ele><time>2026-03-28T14:03:07.749Z</time></trkpt><trkpt lat="45.5893635" lon="10.7177265"><ele>250.0</ele><time>2026-03-28T14:03:08.75Z</time></trkpt><trkpt lat="45.5894622" lon="10.7177227"><ele>250.0</ele><time>2026-03-28T14:03:09.749Z</time></trkpt><trkpt lat="45.5895675" lon="10.7177051"><ele>250.0</ele><time>2026-03-28T14:03:10.75Z</time></trkpt><trkpt lat="45.5896799" lon="10.7176812"><ele>250.0</ele><time>2026-03-28T14:03:11.75Z</time></trkpt><trkpt lat="45.589791" lon="10.7176485"><ele>250.0</ele><time>2026-03-28T14:03:12.75Z</time></trkpt><trkpt lat="45.5899023" lon="10.717614"><ele>250.6</ele><time>2026-03-28T14:03:13.75Z</time></trkpt><trkpt lat="45.5900094" lon="10.7176204"><ele>251.2</ele><time>2026-03-28T14:03:14.749Z</time></trkpt><trkpt lat="45.5900929" lon="10.7176614"><ele>251.8</ele><time>2026-03-28T14:03:15.749Z</time></trkpt><trkpt lat="45.5901768" lon="10.7177568"><ele>252.4</ele><time>2026-03-28T14:03:17.75Z</time></trkpt><trkpt lat="45.590245" lon="10.7178629"><ele>253.0</ele><time>2026-03-28T14:03:19.749Z</time></trkpt><trkpt lat="45.5902895" lon="10.7179394"><ele>253.0</ele><time>2026-03-28T14:03:20.749Z</time></trkpt><trkpt lat="45.5903335" lon="10.7180338"><ele>253.0</ele><time>2026-03-28T14:03:21.749Z</time></trkpt><trkpt lat="45.5903864" lon="10.7181374"><ele>253.0</ele><time>2026-03-28T14:03:22.75Z</time></trkpt><trkpt lat="45.5904482" lon="10.7182586"><ele>253.0</ele><time>2026-03-28T14:03:23.75Z</time></trkpt><trkpt lat="45.5905024" lon="10.7183953"><ele>253.0</ele><time>2026-03-28T14:03:24.749Z</time></trkpt><trkpt lat="45.5905486" lon="10.7185206"><ele>254.33333333333331</ele><time>2026-03-28T14:03:25.75Z</time></trkpt><trkpt lat="45.5905882" lon="10.7186411"><ele>255.66666666666666</ele><time>2026-03-28T14:03:26.749Z</time></trkpt><trkpt lat="45.5906344" lon="10.7187371"><ele>257.0</ele><time>2026-03-28T14:03:27.75Z</time></trkpt><trkpt lat="45.5906798" lon="10.7188038"><ele>258.3333333333333</ele><time>2026-03-28T14:03:28.749Z</time></trkpt><trkpt lat="45.5907365" lon="10.7188923"><ele>259.6666666666667</ele><time>2026-03-28T14:03:29.749Z</time></trkpt><trkpt lat="45.5908028" lon="10.7189633"><ele>261.0</ele><time>2026-03-28T14:03:30.75Z</time></trkpt><trkpt lat="45.5908843" lon="10.7190299"><ele>261.0</ele><time>2026-03-28T14:03:31.75Z</time></trkpt><trkpt lat="45.5909777" lon="10.7190854"><ele>261.0</ele><time>2026-03-28T14:03:32.75Z</time></trkpt><trkpt lat="45.5910717" lon="10.7191606"><ele>261.0</ele><time>2026-03-28T14:03:33.749Z</time></trkpt><trkpt lat="45.5911503" lon="10.7192518"><ele>261.0</ele><time>2026-03-28T14:03:34.749Z</time></trkpt><trkpt lat="45.591234" lon="10.7193529"><ele>261.0</ele><time>2026-03-28T14:03:35.75Z</time></trkpt><trkpt lat="45.5913162" lon="10.7194549"><ele>261.0</ele><time>2026-03-28T14:03:36.749Z</time></trkpt><trkpt lat="45.5913945" lon="10.7195444"><ele>261.0</ele><time>2026-03-28T14:03:37.749Z</time></trkpt><trkpt lat="45.5914751" lon="10.7196359"><ele>261.0</ele><time>2026-03-28T14:03:38.749Z</time></trkpt><trkpt lat="45.5915525" lon="10.7197237"><ele>261.0</ele><time>2026-03-28T14:03:39.749Z</time></trkpt><trkpt lat="45.5916228" lon="10.7198104"><ele>261.0</ele><time>2026-03-28T14:03:40.749Z</time></trkpt><trkpt lat="45.5916878" lon="10.7198939"><ele>261.0</ele><time>2026-03-28T14:03:41.749Z</time></trkpt><trkpt lat="45.5917462" lon="10.7199714"><ele>261.0</ele><time>2026-03-28T14:03:42.749Z</time></trkpt><trkpt lat="45.5917994" lon="10.7200452"><ele>261.0</ele><time>2026-03-28T14:03:43.75Z</time></trkpt><trkpt lat="45.5918451" lon="10.7201131"><ele>261.0</ele><time>2026-03-28T14:03:44.75Z</time></trkpt><trkpt lat="45.5918905" lon="10.7201765"><ele>261.0</ele><time>2026-03-28T14:03:45.75Z</time></trkpt><trkpt lat="45.591937" lon="10.7202374"><ele>261.0</ele><time>2026-03-28T14:03:46.749Z</time></trkpt><trkpt lat="45.5920238" lon="10.7203609"><ele>261.3333333333333</ele><time>2026-03-28T14:03:48.749Z</time></trkpt><trkpt lat="45.5920782" lon="10.7204347"><ele>261.6666666666667</ele><time>2026-03-28T14:03:49.75Z</time></trkpt><trkpt lat="45.5921382" lon="10.7205082"><ele>262.0</ele><time>2026-03-28T14:03:50.749Z</time></trkpt><trkpt lat="45.592204" lon="10.7205822"><ele>262.33333333333337</ele><time>2026-03-28T14:03:51.749Z</time></trkpt><trkpt lat="45.5922789" lon="10.7206572"><ele>262.6666666666667</ele><time>2026-03-28T14:03:52.749Z</time></trkpt><trkpt lat="45.5923601" lon="10.720731"><ele>263.0</ele><time>2026-03-28T14:03:53.749Z</time></trkpt><trkpt lat="45.5924545" lon="10.7207944"><ele>263.0</ele><time>2026-03-28T14:03:54.75Z</time></trkpt><trkpt lat="45.592551" lon="10.7208486"><ele>263.0</ele><time>2026-03-28T14:03:55.749Z</time></trkpt><trkpt lat="45.5926489" lon="10.7209079"><ele>263.0</ele><time>2026-03-28T14:03:56.75Z</time></trkpt><trkpt lat="45.5927405" lon="10.7209861"><ele>263.0</ele><time>2026-03-28T14:03:57.75Z</time></trkpt><trkpt lat="45.592831" lon="10.72107"><ele>263.0</ele><time>2026-03-28T14:03:58.749Z</time></trkpt><trkpt lat="45.5929154" lon="10.7212294"><ele>265.0</ele><time>2026-03-28T14:03:59.749Z</time></trkpt><trkpt lat="45.5929939" lon="10.7213909"><ele>267.0</ele><time>2026-03-28T14:04:00.749Z</time></trkpt><trkpt lat="45.5930919" lon="10.7215789"><ele>269.0</ele><time>2026-03-28T14:04:01.75Z</time></trkpt><trkpt lat="45.5931939" lon="10.7217799"><ele>266.6666666666667</ele><time>2026-03-28T14:04:02.749Z</time></trkpt><trkpt lat="45.593302" lon="10.721983"><ele>264.3333333333333</ele><time>2026-03-28T14:04:03.75Z</time></trkpt><trkpt lat="45.5934071" lon="10.7222032"><ele>262.0</ele><time>2026-03-28T14:04:04.749Z</time></trkpt><trkpt lat="45.5935081" lon="10.7224022"><ele>262.0</ele><time>2026-03-28T14:04:05.749Z</time></trkpt><trkpt lat="45.5936049" lon="10.7225793"><ele>262.0</ele><time>2026-03-28T14:04:06.749Z</time></trkpt><trkpt lat="45.5936956" lon="10.7227658"><ele>262.0</ele><time>2026-03-28T14:04:07.75Z</time></trkpt><trkpt lat="45.5937864" lon="10.7229558"><ele>261.0</ele><time>2026-03-28T14:04:08.749Z</time></trkpt><trkpt lat="45.5938705" lon="10.7231292"><ele>260.0</ele><time>2026-03-28T14:04:09.749Z</time></trkpt><trkpt lat="45.5939595" lon="10.7232869"><ele>259.0</ele><time>2026-03-28T14:04:10.749Z</time></trkpt><trkpt lat="45.59405" lon="10.7234255"><ele>258.0</ele><time>2026-03-28T14:04:11.749Z</time></trkpt><trkpt lat="45.5941455" lon="10.7235517"><ele>258.0</ele><time>2026-03-28T14:04:12.75Z</time></trkpt><trkpt lat="45.5942311" lon="10.7236447"><ele>258.0</ele><time>2026-03-28T14:04:13.75Z</time></trkpt><trkpt lat="45.5943155" lon="10.7237163"><ele>258.0</ele><time>2026-03-28T14:04:14.749Z</time></trkpt><trkpt lat="45.5944018" lon="10.723759"><ele>258.0</ele><time>2026-03-28T14:04:15.75Z</time></trkpt><trkpt lat="45.5944776" lon="10.723794"><ele>258.0</ele><time>2026-03-28T14:04:16.75Z</time></trkpt><trkpt lat="45.594536" lon="10.7238293"><ele>258.0</ele><time>2026-03-28T14:04:17.75Z</time></trkpt><trkpt lat="45.5945923" lon="10.723926"><ele>258.25</ele><time>2026-03-28T14:04:19.749Z</time></trkpt><trkpt lat="45.594609" lon="10.7241291"><ele>258.5</ele><time>2026-03-28T14:04:21.749Z</time></trkpt><trkpt lat="45.5946238" lon="10.7242752"><ele>258.75</ele><time>2026-03-28T14:04:22.749Z</time></trkpt><trkpt lat="45.5946418" lon="10.7244515"><ele>259.0</ele><time>2026-03-28T14:04:23.749Z</time></trkpt><trkpt lat="45.5946641" lon="10.7246509"><ele>258.0</ele><time>2026-03-28T14:04:24.75Z</time></trkpt><trkpt lat="45.594696" lon="10.7248619"><ele>257.0</ele><time>2026-03-28T14:04:25.75Z</time></trkpt><trkpt lat="45.594735" lon="10.725069"><ele>256.0</ele><time>2026-03-28T14:04:26.75Z</time></trkpt><trkpt lat="45.5947722" lon="10.7252689"><ele>255.0</ele><time>2026-03-28T14:04:27.749Z</time></trkpt><trkpt lat="45.5948081" lon="10.7254625"><ele>254.25</ele><time>2026-03-28T14:04:28.749Z</time></trkpt><trkpt lat="45.5948403" lon="10.725649"><ele>253.5</ele><time>2026-03-28T14:04:29.749Z</time></trkpt><trkpt lat="45.5948677" lon="10.7258272"><ele>252.75</ele><time>2026-03-28T14:04:30.749Z</time></trkpt><trkpt lat="45.5948958" lon="10.7260021"><ele>252.0</ele><time>2026-03-28T14:04:31.749Z</time></trkpt><trkpt lat="45.5949268" lon="10.7261674"><ele>251.8</ele><time>2026-03-28T14:04:32.749Z</time></trkpt><trkpt lat="45.5949638" lon="10.7263258"><ele>251.6</ele><time>2026-03-28T14:04:33.749Z</time></trkpt><trkpt lat="45.5950074" lon="10.7264719"><ele>251.40000000000003</ele><time>2026-03-28T14:04:34.75Z</time></trkpt><trkpt lat="45.5950436" lon="10.7266048"><ele>251.20000000000002</ele><time>2026-03-28T14:04:35.75Z</time></trkpt><trkpt lat="45.5950763" lon="10.7267431"><ele>251.0</ele><time>2026-03-28T14:04:36.749Z</time></trkpt><trkpt lat="45.5951004" lon="10.7268849"><ele>250.66666666666669</ele><time>2026-03-28T14:04:37.75Z</time></trkpt><trkpt lat="45.5951174" lon="10.7270204"><ele>250.33333333333334</ele><time>2026-03-28T14:04:38.75Z</time></trkpt><trkpt lat="45.5951402" lon="10.7271305"><ele>250.0</ele><time>2026-03-28T14:04:39.75Z</time></trkpt><trkpt lat="45.5951668" lon="10.7272327"><ele>249.66666666666669</ele><time>2026-03-28T14:04:40.75Z</time></trkpt><trkpt lat="45.5952002" lon="10.7273346"><ele>249.33333333333334</ele><time>2026-03-28T14:04:41.749Z</time></trkpt><trkpt lat="45.5952429" lon="10.7274267"><ele>249.0</ele><time>2026-03-28T14:04:42.749Z</time></trkpt><trkpt lat="45.5952892" lon="10.7275098"><ele>249.33333333333334</ele><time>2026-03-28T14:04:43.749Z</time></trkpt><trkpt lat="45.5953438" lon="10.7276051"><ele>249.66666666666669</ele><time>2026-03-28T14:04:44.75Z</time></trkpt><trkpt lat="45.5953973" lon="10.7277065"><ele>250.0</ele><time>2026-03-28T14:04:45.75Z</time></trkpt><trkpt lat="45.5954469" lon="10.7278155"><ele>250.33333333333334</ele><time>2026-03-28T14:04:46.75Z</time></trkpt><trkpt lat="45.5954882" lon="10.727931"><ele>250.66666666666669</ele><time>2026-03-28T14:04:47.75Z</time></trkpt><trkpt lat="45.5955116" lon="10.728044"><ele>251.0</ele><time>2026-03-28T14:04:48.75Z</time></trkpt><trkpt lat="45.5955153" lon="10.7281545"><ele>251.33333333333334</ele><time>2026-03-28T14:04:49.75Z</time></trkpt><trkpt lat="45.5955076" lon="10.7282697"><ele>251.66666666666669</ele><time>2026-03-28T14:04:50.75Z</time></trkpt><trkpt lat="45.5954946" lon="10.728382"><ele>252.0</ele><time>2026-03-28T14:04:51.749Z</time></trkpt><trkpt lat="45.5954913" lon="10.7285031"><ele>252.33333333333331</ele><time>2026-03-28T14:04:52.749Z</time></trkpt><trkpt lat="45.5954966" lon="10.728623"><ele>252.66666666666666</ele><time>2026-03-28T14:04:53.749Z</time></trkpt><trkpt lat="45.5955035" lon="10.7287407"><ele>253.0</ele><time>2026-03-28T14:04:54.75Z</time></trkpt><trkpt lat="45.5955109" lon="10.7288604"><ele>252.8</ele><time>2026-03-28T14:04:55.749Z</time></trkpt><trkpt lat="45.5955141" lon="10.728985"><ele>252.60000000000002</ele><time>2026-03-28T14:04:56.75Z</time></trkpt><trkpt lat="45.5955135" lon="10.7291186"><ele>252.39999999999998</ele><time>2026-03-28T14:04:57.749Z</time></trkpt><trkpt lat="45.5955046" lon="10.7292507"><ele>252.2</ele><time>2026-03-28T14:04:58.749Z</time></trkpt><trkpt lat="45.5954899" lon="10.7293825"><ele>252.0</ele><time>2026-03-28T14:04:59.75Z</time></trkpt><trkpt lat="45.5954776" lon="10.729517"><ele>252.0</ele><time>2026-03-28T14:05:00.75Z</time></trkpt><trkpt lat="45.5954689" lon="10.7296473"><ele>252.0</ele><time>2026-03-28T14:05:01.75Z</time></trkpt><trkpt lat="45.5954633" lon="10.7297766"><ele>252.0</ele><time>2026-03-28T14:05:02.749Z</time></trkpt><trkpt lat="45.5954655" lon="10.7299009"><ele>252.0</ele><time>2026-03-28T14:05:03.749Z</time></trkpt><trkpt lat="45.5954737" lon="10.7300097"><ele>252.0</ele><time>2026-03-28T14:05:04.75Z</time></trkpt><trkpt lat="45.5954868" lon="10.7301116"><ele>252.0</ele><time>2026-03-28T14:05:05.75Z</time></trkpt><trkpt lat="45.5954985" lon="10.7302654"><ele>252.33333333333334</ele><time>2026-03-28T14:05:07.751Z</time></trkpt><trkpt lat="45.5955207" lon="10.7304246"><ele>252.66666666666669</ele><time>2026-03-28T14:05:09.749Z</time></trkpt><trkpt lat="45.5955478" lon="10.7305207"><ele>253.0</ele><time>2026-03-28T14:05:11.749Z</time></trkpt><trkpt lat="45.5955868" lon="10.7306177"><ele>253.33333333333334</ele><time>2026-03-28T14:05:14.749Z</time></trkpt><trkpt lat="45.5956217" lon="10.7307355"><ele>253.66666666666669</ele><time>2026-03-28T14:05:17.749Z</time></trkpt><trkpt lat="45.5956299" lon="10.7308325"><ele>254.0</ele><time>2026-03-28T14:05:18.749Z</time></trkpt><trkpt lat="45.5956292" lon="10.7309377"><ele>254.39999999999998</ele><time>2026-03-28T14:05:19.749Z</time></trkpt><trkpt lat="45.5956251" lon="10.7310754"><ele>254.79999999999998</ele><time>2026-03-28T14:05:20.751Z</time></trkpt><trkpt lat="45.5956258" lon="10.7312043"><ele>255.20000000000002</ele><time>2026-03-28T14:05:21.749Z</time></trkpt><trkpt lat="45.5956199" lon="10.7313149"><ele>255.60000000000002</ele><time>2026-03-28T14:05:22.749Z</time></trkpt><trkpt lat="45.595613" lon="10.7314428"><ele>256.0</ele><time>2026-03-28T14:05:24.749Z</time></trkpt><trkpt lat="45.5956521" lon="10.7313038"><ele>256.0</ele><time>2026-03-28T14:05:29.749Z</time></trkpt><trkpt lat="45.5956415" lon="10.7311631"><ele>256.0</ele><time>2026-03-28T14:05:30.749Z</time></trkpt><trkpt lat="45.595631" lon="10.7310005"><ele>256.0</ele><time>2026-03-28T14:05:31.749Z</time></trkpt><trkpt lat="45.5956205" lon="10.7308467"><ele>256.0</ele><time>2026-03-28T14:05:32.75Z</time></trkpt><trkpt lat="45.5956116" lon="10.7307236"><ele>256.0</ele><time>2026-03-28T14:05:33.75Z</time></trkpt><trkpt lat="45.5956052" lon="10.7306332"><ele>255.66666666666666</ele><time>2026-03-28T14:05:34.749Z</time></trkpt><trkpt lat="45.5956434" lon="10.7305377"><ele>255.33333333333331</ele><time>2026-03-28T14:05:36.749Z</time></trkpt><trkpt lat="45.5957308" lon="10.7304596"><ele>255.0</ele><time>2026-03-28T14:05:38.749Z</time></trkpt><trkpt lat="45.5957897" lon="10.7304154"><ele>254.66666666666669</ele><time>2026-03-28T14:05:39.749Z</time></trkpt><trkpt lat="45.5958608" lon="10.7303704"><ele>254.33333333333334</ele><time>2026-03-28T14:05:40.749Z</time></trkpt><trkpt lat="45.595932" lon="10.7303394"><ele>254.0</ele><time>2026-03-28T14:05:41.749Z</time></trkpt><trkpt lat="45.5960572" lon="10.7303353"><ele>254.00000000000003</ele><time>2026-03-28T14:05:43.749Z</time></trkpt><trkpt lat="45.5961264" lon="10.730339"><ele>254.0</ele><time>2026-03-28T14:05:44.75Z</time></trkpt><trkpt lat="45.5962041" lon="10.7303144"><ele>254.0</ele><time>2026-03-28T14:05:45.75Z</time></trkpt><trkpt lat="45.5962827" lon="10.7302829"><ele>254.0</ele><time>2026-03-28T14:05:46.749Z</time></trkpt><trkpt lat="45.5963659" lon="10.7302528"><ele>254.00000000000003</ele><time>2026-03-28T14:05:47.749Z</time></trkpt><trkpt lat="45.5964474" lon="10.7302217"><ele>254.0</ele><time>2026-03-28T14:05:48.749Z</time></trkpt><trkpt lat="45.5965322" lon="10.7301838"><ele>255.33333333333334</ele><time>2026-03-28T14:05:49.749Z</time></trkpt><trkpt lat="45.5966207" lon="10.7301395"><ele>256.6666666666667</ele><time>2026-03-28T14:05:50.75Z</time></trkpt><trkpt lat="45.5967124" lon="10.7300943"><ele>258.0</ele><time>2026-03-28T14:05:51.75Z</time></trkpt><trkpt lat="45.5967879" lon="10.7300691"><ele>259.3333333333333</ele><time>2026-03-28T14:05:52.749Z</time></trkpt><trkpt lat="45.596869" lon="10.7300487"><ele>260.66666666666663</ele><time>2026-03-28T14:05:53.749Z</time></trkpt><trkpt lat="45.5969513" lon="10.7300506"><ele>262.0</ele><time>2026-03-28T14:05:54.749Z</time></trkpt><trkpt lat="45.5970294" lon="10.7300562"><ele>263.3333333333333</ele><time>2026-03-28T14:05:55.75Z</time></trkpt><trkpt lat="45.5971018" lon="10.7300537"><ele>264.66666666666663</ele><time>2026-03-28T14:05:56.749Z</time></trkpt><trkpt lat="45.5971781" lon="10.7300322"><ele>266.0</ele><time>2026-03-28T14:05:57.75Z</time></trkpt><trkpt lat="45.5972587" lon="10.7300153"><ele>267.3333333333333</ele><time>2026-03-28T14:05:58.749Z</time></trkpt><trkpt lat="45.5973367" lon="10.7299557"><ele>268.6666666666667</ele><time>2026-03-28T14:05:59.749Z</time></trkpt><trkpt lat="45.5974128" lon="10.729921"><ele>270.0</ele><time>2026-03-28T14:06:00.749Z</time></trkpt><trkpt lat="45.5975059" lon="10.729859"><ele>270.0</ele><time>2026-03-28T14:06:02.75Z</time></trkpt><trkpt lat="45.5975506" lon="10.7297786"><ele>270.0</ele><time>2026-03-28T14:06:03.749Z</time></trkpt><trkpt lat="45.5976441" lon="10.7297112"><ele>270.0</ele><time>2026-03-28T14:06:05.75Z</time></trkpt><trkpt lat="45.5977672" lon="10.7296819"><ele>270.0</ele><time>2026-03-28T14:06:07.749Z</time></trkpt><trkpt lat="45.5978349" lon="10.7296792"><ele>270.0</ele><time>2026-03-28T14:06:08.75Z</time></trkpt><trkpt lat="45.5979292" lon="10.7296604"><ele>270.5</ele><time>2026-03-28T14:06:09.749Z</time></trkpt><trkpt lat="45.5980088" lon="10.7296363"><ele>271.0</ele><time>2026-03-28T14:06:10.749Z</time></trkpt><trkpt lat="45.5980828" lon="10.729589"><ele>271.5</ele><time>2026-03-28T14:06:11.749Z</time></trkpt><trkpt lat="45.5981546" lon="10.7295253"><ele>272.0</ele><time>2026-03-28T14:06:12.749Z</time></trkpt><trkpt lat="45.5982341" lon="10.7294643"><ele>272.5</ele><time>2026-03-28T14:06:13.75Z</time></trkpt><trkpt lat="45.5983121" lon="10.729406"><ele>273.0</ele><time>2026-03-28T14:06:14.75Z</time></trkpt><trkpt lat="45.5983847" lon="10.7293477"><ele>273.3333333333333</ele><time>2026-03-28T14:06:15.75Z</time></trkpt><trkpt lat="45.5984527" lon="10.7292891"><ele>273.6666666666667</ele><time>2026-03-28T14:06:16.749Z</time></trkpt><trkpt lat="45.5985499" lon="10.7291761"><ele>274.0</ele><time>2026-03-28T14:06:18.749Z</time></trkpt><trkpt lat="45.5985795" lon="10.7290949"><ele>274.33333333333337</ele><time>2026-03-28T14:06:19.749Z</time></trkpt><trkpt lat="45.598599" lon="10.7289912"><ele>274.6666666666667</ele><time>2026-03-28T14:06:20.749Z</time></trkpt><trkpt lat="45.5986112" lon="10.7288642"><ele>275.0</ele><time>2026-03-28T14:06:21.75Z</time></trkpt><trkpt lat="45.5986207" lon="10.7287201"><ele>275.0</ele><time>2026-03-28T14:06:22.75Z</time></trkpt><trkpt lat="45.5986302" lon="10.7285781"><ele>275.0</ele><time>2026-03-28T14:06:23.749Z</time></trkpt><trkpt lat="45.5986409" lon="10.7284729"><ele>275.0</ele><time>2026-03-28T14:06:24.749Z</time></trkpt><trkpt lat="45.5986716" lon="10.7283328"><ele>275.0</ele><time>2026-03-28T14:06:26.749Z</time></trkpt><trkpt lat="45.5987431" lon="10.7282178"><ele>275.0</ele><time>2026-03-28T14:06:28.75Z</time></trkpt><trkpt lat="45.5987976" lon="10.7281649"><ele>276.5</ele><time>2026-03-28T14:06:29.749Z</time></trkpt><trkpt lat="45.598862" lon="10.7281164"><ele>278.0</ele><time>2026-03-28T14:06:30.749Z</time></trkpt><trkpt lat="45.5989557" lon="10.7280473"><ele>279.5</ele><time>2026-03-28T14:06:32.749Z</time></trkpt><trkpt lat="45.5990258" lon="10.7280838"><ele>281.0</ele><time>2026-03-28T14:06:35.749Z</time></trkpt><trkpt lat="45.5990561" lon="10.7281931"><ele>282.5</ele><time>2026-03-28T14:06:37.75Z</time></trkpt><trkpt lat="45.5990791" lon="10.7282929"><ele>284.0</ele><time>2026-03-28T14:06:38.749Z</time></trkpt><trkpt lat="45.5991119" lon="10.7284029"><ele>284.0</ele><time>2026-03-28T14:06:39.749Z</time></trkpt><trkpt lat="45.5991558" lon="10.7285228"><ele>284.0</ele><time>2026-03-28T14:06:40.749Z</time></trkpt><trkpt lat="45.5991957" lon="10.7286445"><ele>284.0</ele><time>2026-03-28T14:06:41.75Z</time></trkpt><trkpt lat="45.5992408" lon="10.7287669"><ele>284.0</ele><time>2026-03-28T14:06:42.749Z</time></trkpt><trkpt lat="45.5992813" lon="10.7288799"><ele>284.0</ele><time>2026-03-28T14:06:43.749Z</time></trkpt><trkpt lat="45.5993166" lon="10.7289803"><ele>284.1666666666667</ele><time>2026-03-28T14:06:44.749Z</time></trkpt><trkpt lat="45.5993531" lon="10.729082"><ele>284.33333333333337</ele><time>2026-03-28T14:06:45.75Z</time></trkpt><trkpt lat="45.5993929" lon="10.7291883"><ele>284.5</ele><time>2026-03-28T14:06:46.75Z</time></trkpt><trkpt lat="45.5994246" lon="10.729302"><ele>284.6666666666667</ele><time>2026-03-28T14:06:47.75Z</time></trkpt><trkpt lat="45.5994493" lon="10.7294156"><ele>284.8333333333333</ele><time>2026-03-28T14:06:48.75Z</time></trkpt><trkpt lat="45.5994671" lon="10.7295271"><ele>285.0</ele><time>2026-03-28T14:06:49.749Z</time></trkpt><trkpt lat="45.5994839" lon="10.729632"><ele>286.4</ele><time>2026-03-28T14:06:50.75Z</time></trkpt><trkpt lat="45.5995584" lon="10.7297562"><ele>287.8</ele><time>2026-03-28T14:06:52.749Z</time></trkpt><trkpt lat="45.5996872" lon="10.7297695"><ele>289.2</ele><time>2026-03-28T14:06:54.749Z</time></trkpt><trkpt lat="45.5997579" lon="10.7297577"><ele>290.6</ele><time>2026-03-28T14:06:55.749Z</time></trkpt><trkpt lat="45.5998515" lon="10.7297494"><ele>292.0</ele><time>2026-03-28T14:06:57.749Z</time></trkpt><trkpt lat="45.5999241" lon="10.7297353"><ele>292.0</ele><time>2026-03-28T14:06:59.749Z</time></trkpt><trkpt lat="45.5999941" lon="10.7297292"><ele>292.0</ele><time>2026-03-28T14:07:02.75Z</time></trkpt><trkpt lat="45.6000837" lon="10.7296572"><ele>292.0</ele><time>2026-03-28T14:07:20.75Z</time></trkpt><trkpt lat="45.6001908" lon="10.7295701"><ele>292.0</ele><time>2026-03-28T14:07:22.75Z</time></trkpt><trkpt lat="45.6002634" lon="10.7295263"><ele>292.0</ele><time>2026-03-28T14:07:23.749Z</time></trkpt><trkpt lat="45.6003479" lon="10.7294816"><ele>293.25</ele><time>2026-03-28T14:07:24.749Z</time></trkpt><trkpt lat="45.600454" lon="10.729426"><ele>294.5</ele><time>2026-03-28T14:07:25.75Z</time></trkpt><trkpt lat="45.6005682" lon="10.7293674"><ele>295.75</ele><time>2026-03-28T14:07:26.749Z</time></trkpt><trkpt lat="45.6006836" lon="10.7293056"><ele>297.0</ele><time>2026-03-28T14:07:27.749Z</time></trkpt><trkpt lat="45.6007953" lon="10.7292418"><ele>297.0</ele><time>2026-03-28T14:07:28.749Z</time></trkpt><trkpt lat="45.6009027" lon="10.729177"><ele>297.0</ele><time>2026-03-28T14:07:29.75Z</time></trkpt><trkpt lat="45.6010041" lon="10.7291044"><ele>297.0</ele><time>2026-03-28T14:07:30.75Z</time></trkpt><trkpt lat="45.6011025" lon="10.7290232"><ele>297.0</ele><time>2026-03-28T14:07:31.749Z</time></trkpt><trkpt lat="45.6011955" lon="10.728936"><ele>298.4</ele><time>2026-03-28T14:07:32.75Z</time></trkpt><trkpt lat="45.6012795" lon="10.7288394"><ele>299.79999999999995</ele><time>2026-03-28T14:07:33.75Z</time></trkpt><trkpt lat="45.6013517" lon="10.7287356"><ele>301.2</ele><time>2026-03-28T14:07:34.749Z</time></trkpt><trkpt lat="45.6014172" lon="10.7286461"><ele>302.59999999999997</ele><time>2026-03-28T14:07:35.749Z</time></trkpt><trkpt lat="45.6015013" lon="10.7285658"><ele>304.0</ele><time>2026-03-28T14:07:36.749Z</time></trkpt><trkpt lat="45.6016019" lon="10.7285095"><ele>304.0</ele><time>2026-03-28T14:07:37.749Z</time></trkpt><trkpt lat="45.6017221" lon="10.7284735"><ele>304.0</ele><time>2026-03-28T14:07:38.749Z</time></trkpt><trkpt lat="45.6018533" lon="10.7284346"><ele>304.0</ele><time>2026-03-28T14:07:39.749Z</time></trkpt><trkpt lat="45.6019894" lon="10.7283845"><ele>304.0</ele><time>2026-03-28T14:07:40.749Z</time></trkpt><trkpt lat="45.6021257" lon="10.728326"><ele>305.5</ele><time>2026-03-28T14:07:41.749Z</time></trkpt><trkpt lat="45.6022604" lon="10.7282631"><ele>307.0</ele><time>2026-03-28T14:07:42.749Z</time></trkpt><trkpt lat="45.6023953" lon="10.7281983"><ele>308.5</ele><time>2026-03-28T14:07:43.75Z</time></trkpt><trkpt lat="45.6025302" lon="10.7281319"><ele>310.0</ele><time>2026-03-28T14:07:44.749Z</time></trkpt><trkpt lat="45.6026661" lon="10.728056"><ele>310.0</ele><time>2026-03-28T14:07:45.75Z</time></trkpt><trkpt lat="45.6028036" lon="10.7279764"><ele>310.0</ele><time>2026-03-28T14:07:46.75Z</time></trkpt><trkpt lat="45.6029417" lon="10.7278977"><ele>310.0</ele><time>2026-03-28T14:07:47.75Z</time></trkpt><trkpt lat="45.6030781" lon="10.7278146"><ele>310.0</ele><time>2026-03-28T14:07:48.75Z</time></trkpt><trkpt lat="45.6032166" lon="10.7277362"><ele>309.75</ele><time>2026-03-28T14:07:49.75Z</time></trkpt><trkpt lat="45.6033605" lon="10.7276612"><ele>309.5</ele><time>2026-03-28T14:07:50.75Z</time></trkpt><trkpt lat="45.6035072" lon="10.727599"><ele>309.25</ele><time>2026-03-28T14:07:51.75Z</time></trkpt><trkpt lat="45.603643" lon="10.7275589"><ele>309.0</ele><time>2026-03-28T14:07:52.75Z</time></trkpt><trkpt lat="45.6037724" lon="10.727526"><ele>310.25</ele><time>2026-03-28T14:07:53.75Z</time></trkpt><trkpt lat="45.6039031" lon="10.7274944"><ele>311.5</ele><time>2026-03-28T14:07:54.749Z</time></trkpt><trkpt lat="45.6040346" lon="10.7274543"><ele>312.75</ele><time>2026-03-28T14:07:55.749Z</time></trkpt><trkpt lat="45.6041657" lon="10.7274025"><ele>314.0</ele><time>2026-03-28T14:07:56.75Z</time></trkpt><trkpt lat="45.6042987" lon="10.7273472"><ele>314.0</ele><time>2026-03-28T14:07:57.749Z</time></trkpt><trkpt lat="45.6044345" lon="10.7273009"><ele>314.0</ele><time>2026-03-28T14:07:58.75Z</time></trkpt><trkpt lat="45.6045698" lon="10.7272718"><ele>314.0</ele><time>2026-03-28T14:07:59.75Z</time></trkpt><trkpt lat="45.6046979" lon="10.7272723"><ele>314.0</ele><time>2026-03-28T14:08:00.749Z</time></trkpt><trkpt lat="45.6048183" lon="10.7272875"><ele>314.0</ele><time>2026-03-28T14:08:01.75Z</time></trkpt><trkpt lat="45.604931" lon="10.7272976"><ele>314.0</ele><time>2026-03-28T14:08:02.75Z</time></trkpt><trkpt lat="45.6050381" lon="10.727307"><ele>314.0</ele><time>2026-03-28T14:08:03.749Z</time></trkpt><trkpt lat="45.6051398" lon="10.7273186"><ele>314.0</ele><time>2026-03-28T14:08:04.75Z</time></trkpt><trkpt lat="45.605239" lon="10.7273296"><ele>314.0</ele><time>2026-03-28T14:08:05.75Z</time></trkpt><trkpt lat="45.605329" lon="10.727337"><ele>313.83333333333337</ele><time>2026-03-28T14:08:06.749Z</time></trkpt><trkpt lat="45.6054152" lon="10.7273448"><ele>313.6666666666667</ele><time>2026-03-28T14:08:07.75Z</time></trkpt><trkpt lat="45.6054927" lon="10.7273504"><ele>313.5</ele><time>2026-03-28T14:08:08.75Z</time></trkpt><trkpt lat="45.6055689" lon="10.7273496"><ele>313.3333333333333</ele><time>2026-03-28T14:08:09.75Z</time></trkpt><trkpt lat="45.6056502" lon="10.727343"><ele>313.16666666666663</ele><time>2026-03-28T14:08:10.75Z</time></trkpt><trkpt lat="45.6057365" lon="10.7273376"><ele>313.0</ele><time>2026-03-28T14:08:11.749Z</time></trkpt><trkpt lat="45.6058305" lon="10.7273246"><ele>313.0</ele><time>2026-03-28T14:08:12.749Z</time></trkpt><trkpt lat="45.6059272" lon="10.7272995"><ele>313.0</ele><time>2026-03-28T14:08:13.749Z</time></trkpt><trkpt lat="45.6060239" lon="10.7272579"><ele>313.0</ele><time>2026-03-28T14:08:14.75Z</time></trkpt><trkpt lat="45.60612" lon="10.7272021"><ele>313.0</ele><time>2026-03-28T14:08:15.75Z</time></trkpt><trkpt lat="45.6062027" lon="10.7271345"><ele>313.0</ele><time>2026-03-28T14:08:16.749Z</time></trkpt><trkpt lat="45.606283" lon="10.7270696"><ele>313.5</ele><time>2026-03-28T14:08:17.749Z</time></trkpt><trkpt lat="45.6063575" lon="10.7270145"><ele>314.0</ele><time>2026-03-28T14:08:18.749Z</time></trkpt><trkpt lat="45.6064238" lon="10.7269627"><ele>314.5</ele><time>2026-03-28T14:08:19.749Z</time></trkpt><trkpt lat="45.6064824" lon="10.7269196"><ele>315.0</ele><time>2026-03-28T14:08:20.749Z</time></trkpt><trkpt lat="45.6065613" lon="10.7268926"><ele>315.5</ele><time>2026-03-28T14:08:22.75Z</time></trkpt><trkpt lat="45.6066227" lon="10.7269521"><ele>316.0</ele><time>2026-03-28T14:08:26.75Z</time></trkpt><trkpt lat="45.6066255" lon="10.7270548"><ele>316.0</ele><time>2026-03-28T14:08:28.749Z</time></trkpt><trkpt lat="45.6066003" lon="10.7272391"><ele>316.0</ele><time>2026-03-28T14:08:30.749Z</time></trkpt><trkpt lat="45.6065807" lon="10.7273469"><ele>316.0</ele><time>2026-03-28T14:08:31.749Z</time></trkpt><trkpt lat="45.606552" lon="10.7274638"><ele>316.0</ele><time>2026-03-28T14:08:32.749Z</time></trkpt><trkpt lat="45.606512" lon="10.7275915"><ele>316.0</ele><time>2026-03-28T14:08:33.749Z</time></trkpt><trkpt lat="45.606475" lon="10.7277215"><ele>315.0</ele><time>2026-03-28T14:08:34.75Z</time></trkpt><trkpt lat="45.6064391" lon="10.727846"><ele>314.0</ele><time>2026-03-28T14:08:35.75Z</time></trkpt><trkpt lat="45.6064043" lon="10.7279656"><ele>313.0</ele><time>2026-03-28T14:08:36.749Z</time></trkpt><trkpt lat="45.6063739" lon="10.728074"><ele>312.0</ele><time>2026-03-28T14:08:37.749Z</time></trkpt><trkpt lat="45.6063491" lon="10.7281708"><ele>311.0</ele><time>2026-03-28T14:08:38.749Z</time></trkpt><trkpt lat="45.6063427" lon="10.7282608"><ele>310.0</ele><time>2026-03-28T14:08:39.749Z</time></trkpt><trkpt lat="45.6063744" lon="10.7284249"><ele>310.0</ele><time>2026-03-28T14:08:41.75Z</time></trkpt><trkpt lat="45.6064069" lon="10.7285042"><ele>310.0</ele><time>2026-03-28T14:08:42.749Z</time></trkpt><trkpt lat="45.6064382" lon="10.7285968"><ele>310.0</ele><time>2026-03-28T14:08:43.75Z</time></trkpt><trkpt lat="45.6064738" lon="10.7286958"><ele>310.0</ele><time>2026-03-28T14:08:44.749Z</time></trkpt><trkpt lat="45.6065144" lon="10.7288045"><ele>310.0</ele><time>2026-03-28T14:08:45.749Z</time></trkpt><trkpt lat="45.6065572" lon="10.7289193"><ele>310.0</ele><time>2026-03-28T14:08:46.749Z</time></trkpt><trkpt lat="45.6066039" lon="10.7290421"><ele>309.6</ele><time>2026-03-28T14:08:47.75Z</time></trkpt><trkpt lat="45.6066491" lon="10.7291659"><ele>309.2</ele><time>2026-03-28T14:08:48.749Z</time></trkpt><trkpt lat="45.6066945" lon="10.7292936"><ele>308.8</ele><time>2026-03-28T14:08:49.75Z</time></trkpt><trkpt lat="45.6067275" lon="10.7294429"><ele>308.4</ele><time>2026-03-28T14:08:50.75Z</time></trkpt><trkpt lat="45.6067414" lon="10.729615"><ele>308.0</ele><time>2026-03-28T14:08:51.749Z</time></trkpt><trkpt lat="45.6067432" lon="10.7298176"><ele>306.33333333333337</ele><time>2026-03-28T14:08:52.749Z</time></trkpt><trkpt lat="45.6067385" lon="10.7300404"><ele>304.6666666666667</ele><time>2026-03-28T14:08:53.749Z</time></trkpt><trkpt lat="45.6067418" lon="10.73028"><ele>303.0</ele><time>2026-03-28T14:08:54.749Z</time></trkpt><trkpt lat="45.6067539" lon="10.7305223"><ele>301.3333333333333</ele><time>2026-03-28T14:08:55.749Z</time></trkpt><trkpt lat="45.6067625" lon="10.7307783"><ele>299.66666666666663</ele><time>2026-03-28T14:08:56.75Z</time></trkpt><trkpt lat="45.6067655" lon="10.7310208"><ele>298.0</ele><time>2026-03-28T14:08:57.75Z</time></trkpt><trkpt lat="45.6067738" lon="10.7312565"><ele>297.0</ele><time>2026-03-28T14:08:58.75Z</time></trkpt><trkpt lat="45.6067776" lon="10.7315013"><ele>296.0</ele><time>2026-03-28T14:08:59.75Z</time></trkpt><trkpt lat="45.6067766" lon="10.73175"><ele>295.0</ele><time>2026-03-28T14:09:00.749Z</time></trkpt><trkpt lat="45.6067618" lon="10.7320062"><ele>295.0</ele><time>2026-03-28T14:09:01.75Z</time></trkpt><trkpt lat="45.6067277" lon="10.732268"><ele>295.0</ele><time>2026-03-28T14:09:02.75Z</time></trkpt><trkpt lat="45.6066552" lon="10.7325202"><ele>295.0</ele><time>2026-03-28T14:09:03.75Z</time></trkpt><trkpt lat="45.6065534" lon="10.7327499"><ele>297.0</ele><time>2026-03-28T14:09:04.75Z</time></trkpt><trkpt lat="45.6064188" lon="10.7329459"><ele>299.0</ele><time>2026-03-28T14:09:05.75Z</time></trkpt><trkpt lat="45.6062517" lon="10.7331363"><ele>301.0</ele><time>2026-03-28T14:09:06.749Z</time></trkpt><trkpt lat="45.6060641" lon="10.7333438"><ele>299.0</ele><time>2026-03-28T14:09:07.75Z</time></trkpt><trkpt lat="45.6058724" lon="10.7335547"><ele>297.0</ele><time>2026-03-28T14:09:08.75Z</time></trkpt><trkpt lat="45.6056985" lon="10.7337415"><ele>297.0</ele><time>2026-03-28T14:09:09.749Z</time></trkpt><trkpt lat="45.6055529" lon="10.7339039"><ele>297.0</ele><time>2026-03-28T14:09:10.749Z</time></trkpt><trkpt lat="45.6054242" lon="10.7340421"><ele>297.0</ele><time>2026-03-28T14:09:11.749Z</time></trkpt><trkpt lat="45.6053125" lon="10.7341592"><ele>295.75</ele><time>2026-03-28T14:09:12.75Z</time></trkpt><trkpt lat="45.6052113" lon="10.7342679"><ele>294.5</ele><time>2026-03-28T14:09:13.75Z</time></trkpt><trkpt lat="45.6051185" lon="10.7343686"><ele>293.25</ele><time>2026-03-28T14:09:14.75Z</time></trkpt><trkpt lat="45.605031" lon="10.7344626"><ele>292.0</ele><time>2026-03-28T14:09:15.75Z</time></trkpt><trkpt lat="45.6049483" lon="10.734554"><ele>292.0</ele><time>2026-03-28T14:09:16.749Z</time></trkpt><trkpt lat="45.6048682" lon="10.7346425"><ele>292.0</ele><time>2026-03-28T14:09:17.75Z</time></trkpt><trkpt lat="45.6047857" lon="10.7347351"><ele>292.0</ele><time>2026-03-28T14:09:18.749Z</time></trkpt><trkpt lat="45.6047012" lon="10.7348315"><ele>292.0</ele><time>2026-03-28T14:09:19.749Z</time></trkpt><trkpt lat="45.604619" lon="10.7349222"><ele>292.0</ele><time>2026-03-28T14:09:20.75Z</time></trkpt><trkpt lat="45.6045419" lon="10.7350056"><ele>292.0</ele><time>2026-03-28T14:09:21.75Z</time></trkpt><trkpt lat="45.6044755" lon="10.7350778"><ele>292.0</ele><time>2026-03-28T14:09:22.749Z</time></trkpt><trkpt lat="45.6043917" lon="10.7351654"><ele>292.0</ele><time>2026-03-28T14:09:24.749Z</time></trkpt><trkpt lat="45.6043896" lon="10.7352616"><ele>292.0</ele><time>2026-03-28T14:09:27.749Z</time></trkpt><trkpt lat="45.6044544" lon="10.7351508"><ele>292.0</ele><time>2026-03-28T14:09:44.75Z</time></trkpt><trkpt lat="45.6045076" lon="10.7350992"><ele>292.0</ele><time>2026-03-28T14:09:45.75Z</time></trkpt><trkpt lat="45.6045778" lon="10.7350295"><ele>292.0</ele><time>2026-03-28T14:09:46.75Z</time></trkpt><trkpt lat="45.6046603" lon="10.7349352"><ele>292.0</ele><time>2026-03-28T14:09:47.749Z</time></trkpt><trkpt lat="45.6047555" lon="10.7348349"><ele>292.0</ele><time>2026-03-28T14:09:48.749Z</time></trkpt><trkpt lat="45.604858" lon="10.7347244"><ele>292.0</ele><time>2026-03-28T14:09:49.75Z</time></trkpt><trkpt lat="45.6049669" lon="10.7346079"><ele>292.0</ele><time>2026-03-28T14:09:50.75Z</time></trkpt><trkpt lat="45.6050813" lon="10.7344879"><ele>292.0</ele><time>2026-03-28T14:09:51.75Z</time></trkpt><trkpt lat="45.6051858" lon="10.7343737"><ele>292.0</ele><time>2026-03-28T14:09:52.749Z</time></trkpt><trkpt lat="45.6052849" lon="10.7342672"><ele>292.0</ele><time>2026-03-28T14:09:53.749Z</time></trkpt><trkpt lat="45.6053783" lon="10.7341673"><ele>293.0</ele><time>2026-03-28T14:09:54.75Z</time></trkpt><trkpt lat="45.6054674" lon="10.734073"><ele>294.0</ele><time>2026-03-28T14:09:55.75Z</time></trkpt><trkpt lat="45.6055499" lon="10.7339852"><ele>295.0</ele><time>2026-03-28T14:09:56.749Z</time></trkpt><trkpt lat="45.6056325" lon="10.7338968"><ele>296.0</ele><time>2026-03-28T14:09:57.75Z</time></trkpt><trkpt lat="45.6057117" lon="10.7338126"><ele>297.0</ele><time>2026-03-28T14:09:58.75Z</time></trkpt><trkpt lat="45.6057798" lon="10.7337384"><ele>297.0</ele><time>2026-03-28T14:09:59.749Z</time></trkpt><trkpt lat="45.6058333" lon="10.7336879"><ele>297.0</ele><time>2026-03-28T14:10:00.749Z</time></trkpt><trkpt lat="45.6059192" lon="10.733692"><ele>297.0</ele><time>2026-03-28T14:10:02.749Z</time></trkpt><trkpt lat="45.6059675" lon="10.7337739"><ele>297.0</ele><time>2026-03-28T14:10:04.75Z</time></trkpt><trkpt lat="45.6059753" lon="10.7339092"><ele>297.0</ele><time>2026-03-28T14:10:06.75Z</time></trkpt><trkpt lat="45.6058988" lon="10.7340486"><ele>297.0</ele><time>2026-03-28T14:10:08.749Z</time></trkpt><trkpt lat="45.6058371" lon="10.734117"><ele>297.0</ele><time>2026-03-28T14:10:09.749Z</time></trkpt><trkpt lat="45.6057847" lon="10.7341831"><ele>297.0</ele><time>2026-03-28T14:10:10.75Z</time></trkpt><trkpt lat="45.605732" lon="10.7343018"><ele>297.0</ele><time>2026-03-28T14:10:12.749Z</time></trkpt><trkpt lat="45.6057785" lon="10.7343768"><ele>297.0</ele><time>2026-03-28T14:10:15.75Z</time></trkpt><trkpt lat="45.6058538" lon="10.734387"><ele>297.0</ele><time>2026-03-28T14:10:17.751Z</time></trkpt><trkpt lat="45.6059537" lon="10.7343963"><ele>297.0</ele><time>2026-03-28T14:10:19.749Z</time></trkpt><trkpt lat="45.6060505" lon="10.7344315"><ele>297.0</ele><time>2026-03-28T14:10:21.749Z</time></trkpt><trkpt lat="45.6061512" lon="10.734356"><ele>297.0</ele><time>2026-03-28T14:10:23.75Z</time></trkpt><trkpt lat="45.6061901" lon="10.734277"><ele>297.0</ele><time>2026-03-28T14:10:24.749Z</time></trkpt><trkpt lat="45.6062477" lon="10.7341791"><ele>297.0</ele><time>2026-03-28T14:10:25.75Z</time></trkpt><trkpt lat="45.6063011" lon="10.734084"><ele>297.0</ele><time>2026-03-28T14:10:26.749Z</time></trkpt><trkpt lat="45.6063847" lon="10.7340368"><ele>297.0</ele><time>2026-03-28T14:10:27.749Z</time></trkpt><trkpt lat="45.6064618" lon="10.7339876"><ele>301.2</ele><time>2026-03-28T14:10:28.749Z</time></trkpt><trkpt lat="45.6065469" lon="10.7339394"><ele>305.4</ele><time>2026-03-28T14:10:29.75Z</time></trkpt><trkpt lat="45.6066499" lon="10.7339004"><ele>309.6</ele><time>2026-03-28T14:10:30.75Z</time></trkpt><trkpt lat="45.6067281" lon="10.7338725"><ele>313.8</ele><time>2026-03-28T14:10:31.749Z</time></trkpt><trkpt lat="45.6068099" lon="10.7338293"><ele>318.0</ele><time>2026-03-28T14:10:32.749Z</time></trkpt><trkpt lat="45.6068842" lon="10.7337484"><ele>318.0</ele><time>2026-03-28T14:10:33.75Z</time></trkpt><trkpt lat="45.6069369" lon="10.7336537"><ele>318.0</ele><time>2026-03-28T14:10:34.75Z</time></trkpt><trkpt lat="45.6069861" lon="10.7335424"><ele>318.0</ele><time>2026-03-28T14:10:35.75Z</time></trkpt><trkpt lat="45.6070222" lon="10.7334339"><ele>318.0</ele><time>2026-03-28T14:10:36.749Z</time></trkpt><trkpt lat="45.6070613" lon="10.7333309"><ele>318.0</ele><time>2026-03-28T14:10:37.749Z</time></trkpt><trkpt lat="45.6071092" lon="10.7332403"><ele>318.0</ele><time>2026-03-28T14:10:38.749Z</time></trkpt><trkpt lat="45.607169" lon="10.7331629"><ele>318.2</ele><time>2026-03-28T14:10:39.75Z</time></trkpt><trkpt lat="45.6072247" lon="10.7331185"><ele>318.4</ele><time>2026-03-28T14:10:40.75Z</time></trkpt><trkpt lat="45.6073077" lon="10.7330427"><ele>318.59999999999997</ele><time>2026-03-28T14:10:42.75Z</time></trkpt><trkpt lat="45.6073889" lon="10.732948"><ele>318.8</ele><time>2026-03-28T14:10:44.749Z</time></trkpt><trkpt lat="45.6074898" lon="10.7328511"><ele>319.0</ele><time>2026-03-28T14:10:46.75Z</time></trkpt><trkpt lat="45.6075847" lon="10.7327732"><ele>319.0</ele><time>2026-03-28T14:10:48.749Z</time></trkpt><trkpt lat="45.6076443" lon="10.7327092"><ele>319.0</ele><time>2026-03-28T14:10:55.749Z</time></trkpt><trkpt lat="45.6075769" lon="10.7327503"><ele>319.0</ele><time>2026-03-28T14:11:32.749Z</time></trkpt><trkpt lat="45.6074819" lon="10.7328312"><ele>319.0</ele><time>2026-03-28T14:11:34.75Z</time></trkpt><trkpt lat="45.607383" lon="10.7329278"><ele>319.0</ele><time>2026-03-28T14:11:36.749Z</time></trkpt><trkpt lat="45.6072947" lon="10.7330233"><ele>319.0</ele><time>2026-03-28T14:11:38.749Z</time></trkpt><trkpt lat="45.6073247" lon="10.7331243"><ele>319.0</ele><time>2026-03-28T14:11:43.749Z</time></trkpt><trkpt lat="45.6074305" lon="10.7331984"><ele>319.0</ele><time>2026-03-28T14:11:45.749Z</time></trkpt><trkpt lat="45.6074966" lon="10.7332301"><ele>319.0</ele><time>2026-03-28T14:11:46.749Z</time></trkpt><trkpt lat="45.607569" lon="10.7332338"><ele>319.0</ele><time>2026-03-28T14:11:47.749Z</time></trkpt><trkpt lat="45.6076413" lon="10.733216"><ele>319.0</ele><time>2026-03-28T14:11:48.749Z</time></trkpt><trkpt lat="45.6077553" lon="10.7332111"><ele>321.0</ele><time>2026-03-28T14:11:50.749Z</time></trkpt><trkpt lat="45.6078438" lon="10.7333185"><ele>323.0</ele><time>2026-03-28T14:11:52.749Z</time></trkpt><trkpt lat="45.6078825" lon="10.7333997"><ele>325.0</ele><time>2026-03-28T14:11:53.749Z</time></trkpt><trkpt lat="45.6079265" lon="10.733496"><ele>327.0</ele><time>2026-03-28T14:11:54.75Z</time></trkpt><trkpt lat="45.6079554" lon="10.7335815"><ele>329.0</ele><time>2026-03-28T14:11:55.75Z</time></trkpt><trkpt lat="45.6079471" lon="10.7337356"><ele>331.0</ele><time>2026-03-28T14:11:57.75Z</time></trkpt><trkpt lat="45.6078263" lon="10.733845"><ele>332.8</ele><time>2026-03-28T14:11:59.749Z</time></trkpt><trkpt lat="45.6077329" lon="10.7338785"><ele>334.6</ele><time>2026-03-28T14:12:00.749Z</time></trkpt><trkpt lat="45.6076253" lon="10.7339017"><ele>336.4</ele><time>2026-03-28T14:12:01.749Z</time></trkpt><trkpt lat="45.6075108" lon="10.7339271"><ele>338.2</ele><time>2026-03-28T14:12:02.749Z</time></trkpt><trkpt lat="45.6074146" lon="10.7339442"><ele>340.0</ele><time>2026-03-28T14:12:03.75Z</time></trkpt><trkpt lat="45.607335" lon="10.7339677"><ele>340.0</ele><time>2026-03-28T14:12:04.75Z</time></trkpt><trkpt lat="45.6072623" lon="10.7340175"><ele>340.0</ele><time>2026-03-28T14:12:05.75Z</time></trkpt><trkpt lat="45.6072025" lon="10.7340854"><ele>340.0</ele><time>2026-03-28T14:12:06.749Z</time></trkpt><trkpt lat="45.6071346" lon="10.7341731"><ele>340.0</ele><time>2026-03-28T14:12:08.749Z</time></trkpt><trkpt lat="45.6071529" lon="10.7342774"><ele>340.0</ele><time>2026-03-28T14:12:11.749Z</time></trkpt><trkpt lat="45.6072339" lon="10.7342781"><ele>340.0</ele><time>2026-03-28T14:12:13.75Z</time></trkpt><trkpt lat="45.6073721" lon="10.7342498"><ele>340.0</ele><time>2026-03-28T14:12:15.749Z</time></trkpt><trkpt lat="45.6074548" lon="10.7342277"><ele>340.0</ele><time>2026-03-28T14:12:16.749Z</time></trkpt><trkpt lat="45.6075294" lon="10.734207"><ele>340.0</ele><time>2026-03-28T14:12:17.749Z</time></trkpt><trkpt lat="45.6076054" lon="10.7341863"><ele>340.0</ele><time>2026-03-28T14:12:18.751Z</time></trkpt><trkpt lat="45.6076851" lon="10.7341687"><ele>340.0</ele><time>2026-03-28T14:12:19.75Z</time></trkpt><trkpt lat="45.6077582" lon="10.7341449"><ele>340.0</ele><time>2026-03-28T14:12:20.749Z</time></trkpt><trkpt lat="45.6078223" lon="10.7341219"><ele>341.4</ele><time>2026-03-28T14:12:21.749Z</time></trkpt><trkpt lat="45.6079353" lon="10.7340774"><ele>342.8</ele><time>2026-03-28T14:12:23.75Z</time></trkpt><trkpt lat="45.608038" lon="10.734044"><ele>344.20000000000005</ele><time>2026-03-28T14:12:25.75Z</time></trkpt><trkpt lat="45.6081423" lon="10.7340089"><ele>345.6</ele><time>2026-03-28T14:12:27.749Z</time></trkpt><trkpt lat="45.6082584" lon="10.7339923"><ele>347.0</ele><time>2026-03-28T14:12:29.749Z</time></trkpt><trkpt lat="45.6083241" lon="10.7340103"><ele>347.0</ele><time>2026-03-28T14:12:30.749Z</time></trkpt><trkpt lat="45.6083917" lon="10.7340279"><ele>347.0</ele><time>2026-03-28T14:12:31.749Z</time></trkpt><trkpt lat="45.6084583" lon="10.7340358"><ele>347.0</ele><time>2026-03-28T14:12:32.749Z</time></trkpt><trkpt lat="45.608525" lon="10.7340151"><ele>347.0</ele><time>2026-03-28T14:12:33.75Z</time></trkpt><trkpt lat="45.6085924" lon="10.7339586"><ele>347.0</ele><time>2026-03-28T14:12:34.75Z</time></trkpt><trkpt lat="45.6086547" lon="10.7338715"><ele>347.0</ele><time>2026-03-28T14:12:35.75Z</time></trkpt><trkpt lat="45.6087181" lon="10.7337825"><ele>346.83333333333337</ele><time>2026-03-28T14:12:36.75Z</time></trkpt><trkpt lat="45.6087881" lon="10.7336917"><ele>346.6666666666667</ele><time>2026-03-28T14:12:37.749Z</time></trkpt><trkpt lat="45.6088624" lon="10.733594"><ele>346.5</ele><time>2026-03-28T14:12:38.749Z</time></trkpt><trkpt lat="45.6089247" lon="10.7335079"><ele>346.3333333333333</ele><time>2026-03-28T14:12:39.75Z</time></trkpt><trkpt lat="45.6089766" lon="10.7334255"><ele>346.16666666666663</ele><time>2026-03-28T14:12:40.749Z</time></trkpt><trkpt lat="45.6090231" lon="10.7333449"><ele>346.0</ele><time>2026-03-28T14:12:41.749Z</time></trkpt><trkpt lat="45.6090862" lon="10.7332567"><ele>346.0</ele><time>2026-03-28T14:12:42.75Z</time></trkpt><trkpt lat="45.6091642" lon="10.7331532"><ele>346.0</ele><time>2026-03-28T14:12:43.75Z</time></trkpt><trkpt lat="45.6092338" lon="10.7330639"><ele>346.0</ele><time>2026-03-28T14:12:44.75Z</time></trkpt><trkpt lat="45.6093053" lon="10.732969"><ele>346.0</ele><time>2026-03-28T14:12:45.75Z</time></trkpt><trkpt lat="45.6093888" lon="10.7328718"><ele>346.0</ele><time>2026-03-28T14:12:46.75Z</time></trkpt><trkpt lat="45.6094795" lon="10.7327934"><ele>347.0</ele><time>2026-03-28T14:12:47.749Z</time></trkpt><trkpt lat="45.6095701" lon="10.7327157"><ele>348.0</ele><time>2026-03-28T14:12:48.749Z</time></trkpt><trkpt lat="45.6096683" lon="10.7326582"><ele>349.0</ele><time>2026-03-28T14:12:49.749Z</time></trkpt><trkpt lat="45.6097615" lon="10.7326027"><ele>350.0</ele><time>2026-03-28T14:12:50.75Z</time></trkpt><trkpt lat="45.6098509" lon="10.7325578"><ele>351.0</ele><time>2026-03-28T14:12:51.75Z</time></trkpt><trkpt lat="45.6099498" lon="10.7325323"><ele>351.0</ele><time>2026-03-28T14:12:52.749Z</time></trkpt><trkpt lat="45.6100384" lon="10.7325078"><ele>351.0</ele><time>2026-03-28T14:12:53.749Z</time></trkpt><trkpt lat="45.61013" lon="10.7324844"><ele>351.0</ele><time>2026-03-28T14:12:54.749Z</time></trkpt><trkpt lat="45.6102089" lon="10.7324679"><ele>351.0</ele><time>2026-03-28T14:12:55.75Z</time></trkpt><trkpt lat="45.6102877" lon="10.7324803"><ele>351.0</ele><time>2026-03-28T14:12:56.75Z</time></trkpt><trkpt lat="45.6103672" lon="10.7325099"><ele>351.0</ele><time>2026-03-28T14:12:57.75Z</time></trkpt><trkpt lat="45.6104459" lon="10.7325492"><ele>354.0</ele><time>2026-03-28T14:12:58.749Z</time></trkpt><trkpt lat="45.6105346" lon="10.7325941"><ele>357.0</ele><time>2026-03-28T14:12:59.749Z</time></trkpt><trkpt lat="45.6106279" lon="10.7326289"><ele>360.0</ele><time>2026-03-28T14:13:00.75Z</time></trkpt><trkpt lat="45.6107503" lon="10.7326594"><ele>363.0</ele><time>2026-03-28T14:13:01.749Z</time></trkpt><trkpt lat="45.610854" lon="10.732701"><ele>366.0</ele><time>2026-03-28T14:13:02.75Z</time></trkpt><trkpt lat="45.6109306" lon="10.7327428"><ele>368.6</ele><time>2026-03-28T14:13:03.75Z</time></trkpt><trkpt lat="45.6109999" lon="10.7327949"><ele>371.20000000000005</ele><time>2026-03-28T14:13:04.75Z</time></trkpt><trkpt lat="45.6110663" lon="10.7329125"><ele>373.79999999999995</ele><time>2026-03-28T14:13:06.75Z</time></trkpt><trkpt lat="45.6110735" lon="10.7330543"><ele>376.4</ele><time>2026-03-28T14:13:08.749Z</time></trkpt><trkpt lat="45.6110732" lon="10.7332301"><ele>379.0</ele><time>2026-03-28T14:13:10.75Z</time></trkpt><trkpt lat="45.6110855" lon="10.733335"><ele>379.0</ele><time>2026-03-28T14:13:11.75Z</time></trkpt><trkpt lat="45.6110892" lon="10.7335029"><ele>379.0</ele><time>2026-03-28T14:13:13.749Z</time></trkpt><trkpt lat="45.6110944" lon="10.7335972"><ele>379.0</ele><time>2026-03-28T14:13:14.75Z</time></trkpt><trkpt lat="45.6110991" lon="10.7336928"><ele>379.0</ele><time>2026-03-28T14:13:15.751Z</time></trkpt><trkpt lat="45.611104" lon="10.7337936"><ele>379.0</ele><time>2026-03-28T14:13:16.75Z</time></trkpt><trkpt lat="45.6111082" lon="10.7338978"><ele>379.0</ele><time>2026-03-28T14:13:17.749Z</time></trkpt><trkpt lat="45.6111102" lon="10.7339992"><ele>382.4</ele><time>2026-03-28T14:13:18.749Z</time></trkpt><trkpt lat="45.6111126" lon="10.7340918"><ele>385.79999999999995</ele><time>2026-03-28T14:13:19.75Z</time></trkpt><trkpt lat="45.6111111" lon="10.7341825"><ele>389.20000000000005</ele><time>2026-03-28T14:13:20.749Z</time></trkpt><trkpt lat="45.6111175" lon="10.7343411"><ele>392.6</ele><time>2026-03-28T14:13:22.75Z</time></trkpt><trkpt lat="45.611158" lon="10.7344701"><ele>396.0</ele><time>2026-03-28T14:13:24.749Z</time></trkpt><trkpt lat="45.6112367" lon="10.7345848"><ele>400.1666666666667</ele><time>2026-03-28T14:13:26.749Z</time></trkpt><trkpt lat="45.6113197" lon="10.7346389"><ele>404.33333333333337</ele><time>2026-03-28T14:13:28.749Z</time></trkpt><trkpt lat="45.6113906" lon="10.734645"><ele>408.5</ele><time>2026-03-28T14:13:30.75Z</time></trkpt><trkpt lat="45.6114788" lon="10.734653"><ele>412.6666666666667</ele><time>2026-03-28T14:13:33.75Z</time></trkpt><trkpt lat="45.6115811" lon="10.7346725"><ele>416.83333333333337</ele><time>2026-03-28T14:13:35.75Z</time></trkpt><trkpt lat="45.6116485" lon="10.7346789"><ele>421.0</ele><time>2026-03-28T14:13:36.75Z</time></trkpt><trkpt lat="45.6117479" lon="10.7347244"><ele>421.0</ele><time>2026-03-28T14:13:38.749Z</time></trkpt><trkpt lat="45.6118475" lon="10.7348322"><ele>421.0</ele><time>2026-03-28T14:13:40.749Z</time></trkpt><trkpt lat="45.6119312" lon="10.7349196"><ele>421.0</ele><time>2026-03-28T14:13:42.75Z</time></trkpt><trkpt lat="45.6120112" lon="10.7349451"><ele>421.0</ele><time>2026-03-28T14:13:44.749Z</time></trkpt><trkpt lat="45.612077" lon="10.734911"><ele>421.0</ele><time>2026-03-28T14:13:46.75Z</time></trkpt><trkpt lat="45.6121575" lon="10.7348442"><ele>421.1666666666667</ele><time>2026-03-28T14:13:48.75Z</time></trkpt><trkpt lat="45.6122361" lon="10.7348126"><ele>421.33333333333337</ele><time>2026-03-28T14:13:49.75Z</time></trkpt><trkpt lat="45.6123468" lon="10.7347476"><ele>421.5</ele><time>2026-03-28T14:13:51.75Z</time></trkpt><trkpt lat="45.6124162" lon="10.734751"><ele>421.66666666666663</ele><time>2026-03-28T14:13:52.749Z</time></trkpt><trkpt lat="45.6124872" lon="10.7347929"><ele>421.8333333333333</ele><time>2026-03-28T14:13:54.75Z</time></trkpt><trkpt lat="45.6125554" lon="10.7348675"><ele>422.0</ele><time>2026-03-28T14:13:56.75Z</time></trkpt><trkpt lat="45.6126384" lon="10.7349073"><ele>421.99999999999994</ele><time>2026-03-28T14:13:58.749Z</time></trkpt><trkpt lat="45.6127344" lon="10.7349086"><ele>422.0</ele><time>2026-03-28T14:14:00.749Z</time></trkpt><trkpt lat="45.6127975" lon="10.7349163"><ele>422.0</ele><time>2026-03-28T14:14:01.75Z</time></trkpt><trkpt lat="45.6128941" lon="10.7349859"><ele>422.0</ele><time>2026-03-28T14:14:03.749Z</time></trkpt><trkpt lat="45.6129371" lon="10.735056"><ele>421.99999999999994</ele><time>2026-03-28T14:14:04.749Z</time></trkpt><trkpt lat="45.6129935" lon="10.7351526"><ele>422.0</ele><time>2026-03-28T14:14:05.75Z</time></trkpt><trkpt lat="45.6130473" lon="10.7352638"><ele>425.99999999999994</ele><time>2026-03-28T14:14:06.749Z</time></trkpt><trkpt lat="45.6131083" lon="10.7353585"><ele>430.0</ele><time>2026-03-28T14:14:07.749Z</time></trkpt><trkpt lat="45.6131648" lon="10.7354504"><ele>434.0</ele><time>2026-03-28T14:14:08.75Z</time></trkpt><trkpt lat="45.6132121" lon="10.735522"><ele>438.0</ele><time>2026-03-28T14:14:09.75Z</time></trkpt><trkpt lat="45.6132647" lon="10.7356157"><ele>441.99999999999994</ele><time>2026-03-28T14:14:10.749Z</time></trkpt><trkpt lat="45.6133292" lon="10.7357362"><ele>446.0</ele><time>2026-03-28T14:14:11.75Z</time></trkpt><trkpt lat="45.6133841" lon="10.735817"><ele>445.99999999999994</ele><time>2026-03-28T14:14:12.749Z</time></trkpt><trkpt lat="45.6134372" lon="10.7359162"><ele>446.0</ele><time>2026-03-28T14:14:13.749Z</time></trkpt><trkpt lat="45.6135176" lon="10.7359724"><ele>446.0</ele><time>2026-03-28T14:14:14.749Z</time></trkpt><trkpt lat="45.6135999" lon="10.7360459"><ele>446.0</ele><time>2026-03-28T14:14:15.749Z</time></trkpt><trkpt lat="45.6136556" lon="10.7360921"><ele>445.99999999999994</ele><time>2026-03-28T14:14:16.75Z</time></trkpt><trkpt lat="45.6137282" lon="10.736163"><ele>446.0</ele><time>2026-03-28T14:14:17.75Z</time></trkpt><trkpt lat="45.6137913" lon="10.7362147"><ele>448.49999999999994</ele><time>2026-03-28T14:14:18.75Z</time></trkpt><trkpt lat="45.6138579" lon="10.736277"><ele>451.0</ele><time>2026-03-28T14:14:19.749Z</time></trkpt><trkpt lat="45.6139305" lon="10.7363355"><ele>453.5</ele><time>2026-03-28T14:14:20.749Z</time></trkpt><trkpt lat="45.6139953" lon="10.7363837"><ele>456.0</ele><time>2026-03-28T14:14:21.749Z</time></trkpt><trkpt lat="45.6141252" lon="10.7363804"><ele>458.49999999999994</ele><time>2026-03-28T14:14:23.749Z</time></trkpt><trkpt lat="45.6142012" lon="10.7364228"><ele>461.0</ele><time>2026-03-28T14:14:25.75Z</time></trkpt><trkpt lat="45.6142462" lon="10.7365152"><ele>461.0</ele><time>2026-03-28T14:14:27.749Z</time></trkpt><trkpt lat="45.6142649" lon="10.7366145"><ele>461.00000000000006</ele><time>2026-03-28T14:14:28.749Z</time></trkpt><trkpt lat="45.6142444" lon="10.736702"><ele>461.0</ele><time>2026-03-28T14:14:30.749Z</time></trkpt><trkpt lat="45.6142293" lon="10.7367917"><ele>461.0</ele><time>2026-03-28T14:14:36.75Z</time></trkpt><trkpt lat="45.6143235" lon="10.7367813"><ele>461.00000000000006</ele><time>2026-03-28T14:14:39.749Z</time></trkpt><trkpt lat="45.6143896" lon="10.7367842"><ele>461.0</ele><time>2026-03-28T14:14:40.75Z</time></trkpt><trkpt lat="45.6144526" lon="10.7367935"><ele>461.0</ele><time>2026-03-28T14:14:41.749Z</time></trkpt><trkpt lat="45.614546" lon="10.7367777"><ele>458.8333333333333</ele><time>2026-03-28T14:14:43.749Z</time></trkpt><trkpt lat="45.6146471" lon="10.7367055"><ele>456.66666666666663</ele><time>2026-03-28T14:14:45.749Z</time></trkpt><trkpt lat="45.6147104" lon="10.7366579"><ele>454.5</ele><time>2026-03-28T14:14:46.749Z</time></trkpt><trkpt lat="45.6148106" lon="10.736564"><ele>452.33333333333337</ele><time>2026-03-28T14:14:48.749Z</time></trkpt><trkpt lat="45.6148711" lon="10.7365373"><ele>450.1666666666667</ele><time>2026-03-28T14:14:49.749Z</time></trkpt><trkpt lat="45.6149288" lon="10.7364815"><ele>448.0</ele><time>2026-03-28T14:14:50.749Z</time></trkpt><trkpt lat="45.6149876" lon="10.7364288"><ele>448.00000000000006</ele><time>2026-03-28T14:14:51.75Z</time></trkpt><trkpt lat="45.6150419" lon="10.7363619"><ele>448.0</ele><time>2026-03-28T14:14:52.749Z</time></trkpt><trkpt lat="45.6151007" lon="10.7362965"><ele>448.0</ele><time>2026-03-28T14:14:53.749Z</time></trkpt><trkpt lat="45.6151675" lon="10.7362418"><ele>448.0</ele><time>2026-03-28T14:14:54.749Z</time></trkpt><trkpt lat="45.615217" lon="10.7361819"><ele>448.00000000000006</ele><time>2026-03-28T14:14:55.749Z</time></trkpt><trkpt lat="45.6152918" lon="10.7360563"><ele>448.0</ele><time>2026-03-28T14:14:57.75Z</time></trkpt><trkpt lat="45.6153208" lon="10.7359011"><ele>443.59999999999997</ele><time>2026-03-28T14:14:59.75Z</time></trkpt><trkpt lat="45.6154006" lon="10.7357788"><ele>439.19999999999993</ele><time>2026-03-28T14:15:01.75Z</time></trkpt><trkpt lat="45.6155008" lon="10.7357361"><ele>434.8</ele><time>2026-03-28T14:15:03.749Z</time></trkpt><trkpt lat="45.6156176" lon="10.7356877"><ele>430.4</ele><time>2026-03-28T14:15:05.749Z</time></trkpt><trkpt lat="45.6156862" lon="10.7356345"><ele>426.0</ele><time>2026-03-28T14:15:06.75Z</time></trkpt><trkpt lat="45.6157458" lon="10.7355714"><ele>426.0</ele><time>2026-03-28T14:15:07.75Z</time></trkpt><trkpt lat="45.615805" lon="10.7354949"><ele>426.0</ele><time>2026-03-28T14:15:08.75Z</time></trkpt><trkpt lat="45.6158736" lon="10.7353912"><ele>426.0</ele><time>2026-03-28T14:15:09.749Z</time></trkpt><trkpt lat="45.6159505" lon="10.73527"><ele>426.0</ele><time>2026-03-28T14:15:10.749Z</time></trkpt><trkpt lat="45.6160302" lon="10.7351478"><ele>426.0</ele><time>2026-03-28T14:15:11.749Z</time></trkpt><trkpt lat="45.616114" lon="10.7350218"><ele>426.20000000000005</ele><time>2026-03-28T14:15:12.75Z</time></trkpt><trkpt lat="45.616196" lon="10.7348932"><ele>426.40000000000003</ele><time>2026-03-28T14:15:13.749Z</time></trkpt><trkpt lat="45.6162715" lon="10.7347618"><ele>426.6</ele><time>2026-03-28T14:15:14.749Z</time></trkpt><trkpt lat="45.6163448" lon="10.7346579"><ele>426.8</ele><time>2026-03-28T14:15:15.749Z</time></trkpt><trkpt lat="45.6164252" lon="10.7345716"><ele>427.0</ele><time>2026-03-28T14:15:16.75Z</time></trkpt><trkpt lat="45.6164966" lon="10.7344735"><ele>428.25</ele><time>2026-03-28T14:15:17.75Z</time></trkpt><trkpt lat="45.6165512" lon="10.7343408"><ele>429.5</ele><time>2026-03-28T14:15:18.75Z</time></trkpt><trkpt lat="45.6166042" lon="10.7341823"><ele>430.75</ele><time>2026-03-28T14:15:19.749Z</time></trkpt><trkpt lat="45.6166501" lon="10.7340091"><ele>432.0</ele><time>2026-03-28T14:15:20.749Z</time></trkpt><trkpt lat="45.6166828" lon="10.7338475"><ele>432.0</ele><time>2026-03-28T14:15:21.749Z</time></trkpt><trkpt lat="45.6167231" lon="10.7337077"><ele>432.00000000000006</ele><time>2026-03-28T14:15:22.749Z</time></trkpt><trkpt lat="45.616766" lon="10.7335985"><ele>432.00000000000006</ele><time>2026-03-28T14:15:23.749Z</time></trkpt><trkpt lat="45.6168049" lon="10.7334907"><ele>432.0</ele><time>2026-03-28T14:15:24.75Z</time></trkpt><trkpt lat="45.6168426" lon="10.7333787"><ele>432.0</ele><time>2026-03-28T14:15:25.75Z</time></trkpt><trkpt lat="45.6168793" lon="10.7332686"><ele>431.8</ele><time>2026-03-28T14:15:26.75Z</time></trkpt><trkpt lat="45.6169137" lon="10.7331323"><ele>431.6</ele><time>2026-03-28T14:15:27.749Z</time></trkpt><trkpt lat="45.6169431" lon="10.73299"><ele>431.40000000000003</ele><time>2026-03-28T14:15:28.749Z</time></trkpt><trkpt lat="45.6169508" lon="10.7328406"><ele>431.20000000000005</ele><time>2026-03-28T14:15:29.75Z</time></trkpt><trkpt lat="45.6169498" lon="10.7326943"><ele>431.0</ele><time>2026-03-28T14:15:30.75Z</time></trkpt><trkpt lat="45.6169471" lon="10.7325433"><ele>429.4</ele><time>2026-03-28T14:15:31.75Z</time></trkpt><trkpt lat="45.6169378" lon="10.7324303"><ele>427.8</ele><time>2026-03-28T14:15:32.749Z</time></trkpt><trkpt lat="45.6169259" lon="10.7323076"><ele>426.2</ele><time>2026-03-28T14:15:33.749Z</time></trkpt><trkpt lat="45.6169061" lon="10.7321681"><ele>424.59999999999997</ele><time>2026-03-28T14:15:34.75Z</time></trkpt><trkpt lat="45.6168727" lon="10.732029"><ele>423.0</ele><time>2026-03-28T14:15:35.75Z</time></trkpt><trkpt lat="45.6168224" lon="10.7319066"><ele>418.75</ele><time>2026-03-28T14:15:36.749Z</time></trkpt><trkpt lat="45.6167624" lon="10.7317539"><ele>414.5</ele><time>2026-03-28T14:15:37.75Z</time></trkpt><trkpt lat="45.6167053" lon="10.7316184"><ele>410.25</ele><time>2026-03-28T14:15:38.749Z</time></trkpt><trkpt lat="45.61665" lon="10.7314727"><ele>406.0</ele><time>2026-03-28T14:15:39.75Z</time></trkpt><trkpt lat="45.6165838" lon="10.7313468"><ele>406.00000000000006</ele><time>2026-03-28T14:15:40.749Z</time></trkpt><trkpt lat="45.6165029" lon="10.7312501"><ele>406.0</ele><time>2026-03-28T14:15:41.749Z</time></trkpt><trkpt lat="45.6164375" lon="10.7311851"><ele>406.0</ele><time>2026-03-28T14:15:42.749Z</time></trkpt><trkpt lat="45.6163931" lon="10.7311188"><ele>406.0</ele><time>2026-03-28T14:15:43.749Z</time></trkpt><trkpt lat="45.6163476" lon="10.7309371"><ele>406.00000000000006</ele><time>2026-03-28T14:15:45.75Z</time></trkpt><trkpt lat="45.6163169" lon="10.7308553"><ele>406.0</ele><time>2026-03-28T14:15:46.75Z</time></trkpt><trkpt lat="45.6163235" lon="10.7307308"><ele>404.6666666666667</ele><time>2026-03-28T14:15:47.75Z</time></trkpt><trkpt lat="45.6163268" lon="10.7306101"><ele>403.33333333333337</ele><time>2026-03-28T14:15:48.749Z</time></trkpt><trkpt lat="45.6163236" lon="10.7304656"><ele>402.0</ele><time>2026-03-28T14:15:49.749Z</time></trkpt><trkpt lat="45.6163135" lon="10.7303433"><ele>400.66666666666663</ele><time>2026-03-28T14:15:50.75Z</time></trkpt><trkpt lat="45.6163073" lon="10.7302204"><ele>399.3333333333333</ele><time>2026-03-28T14:15:51.75Z</time></trkpt><trkpt lat="45.6162855" lon="10.7301085"><ele>398.0</ele><time>2026-03-28T14:15:52.75Z</time></trkpt><trkpt lat="45.6162469" lon="10.7300059"><ele>397.99999999999994</ele><time>2026-03-28T14:15:53.75Z</time></trkpt><trkpt lat="45.6162045" lon="10.7299086"><ele>398.0</ele><time>2026-03-28T14:15:54.751Z</time></trkpt><trkpt lat="45.6161651" lon="10.7298245"><ele>398.0</ele><time>2026-03-28T14:15:55.75Z</time></trkpt><trkpt lat="45.6161206" lon="10.7297539"><ele>398.0</ele><time>2026-03-28T14:15:56.749Z</time></trkpt><trkpt lat="45.6160617" lon="10.7297014"><ele>397.99999999999994</ele><time>2026-03-28T14:15:57.749Z</time></trkpt><trkpt lat="45.6159954" lon="10.729649"><ele>398.0</ele><time>2026-03-28T14:15:58.749Z</time></trkpt><trkpt lat="45.6158774" lon="10.729603"><ele>394.16666666666663</ele><time>2026-03-28T14:15:59.749Z</time></trkpt><trkpt lat="45.6157862" lon="10.7295682"><ele>390.3333333333333</ele><time>2026-03-28T14:16:00.749Z</time></trkpt><trkpt lat="45.6157021" lon="10.7295554"><ele>386.5</ele><time>2026-03-28T14:16:01.75Z</time></trkpt><trkpt lat="45.6156211" lon="10.7295494"><ele>382.66666666666663</ele><time>2026-03-28T14:16:02.749Z</time></trkpt><trkpt lat="45.6155498" lon="10.729566"><ele>378.8333333333333</ele><time>2026-03-28T14:16:03.75Z</time></trkpt><trkpt lat="45.6154471" lon="10.7296397"><ele>375.0</ele><time>2026-03-28T14:16:05.749Z</time></trkpt><trkpt lat="45.6153674" lon="10.7297833"><ele>375.0</ele><time>2026-03-28T14:16:07.75Z</time></trkpt><trkpt lat="45.6153442" lon="10.7298742"><ele>375.0</ele><time>2026-03-28T14:16:08.749Z</time></trkpt><trkpt lat="45.6153299" lon="10.7299714"><ele>375.0</ele><time>2026-03-28T14:16:09.749Z</time></trkpt><trkpt lat="45.615325" lon="10.7300635"><ele>375.0</ele><time>2026-03-28T14:16:10.75Z</time></trkpt><trkpt lat="45.6153243" lon="10.7301537"><ele>375.0</ele><time>2026-03-28T14:16:11.75Z</time></trkpt><trkpt lat="45.6153153" lon="10.7303112"><ele>375.0</ele><time>2026-03-28T14:16:13.749Z</time></trkpt><trkpt lat="45.6153046" lon="10.7304758"><ele>373.0</ele><time>2026-03-28T14:16:15.75Z</time></trkpt><trkpt lat="45.6152534" lon="10.7305853"><ele>371.0</ele><time>2026-03-28T14:16:17.749Z</time></trkpt><trkpt lat="45.6151828" lon="10.7305271"><ele>369.0</ele><time>2026-03-28T14:16:20.749Z</time></trkpt><trkpt lat="45.6151532" lon="10.7303614"><ele>367.0</ele><time>2026-03-28T14:16:22.75Z</time></trkpt><trkpt lat="45.6151377" lon="10.7302698"><ele>365.0</ele><time>2026-03-28T14:16:23.749Z</time></trkpt><trkpt lat="45.6151199" lon="10.7301767"><ele>363.0</ele><time>2026-03-28T14:16:24.749Z</time></trkpt><trkpt lat="45.6150878" lon="10.7300889"><ele>361.8333333333333</ele><time>2026-03-28T14:16:25.749Z</time></trkpt><trkpt lat="45.6150379" lon="10.7300174"><ele>360.6666666666667</ele><time>2026-03-28T14:16:26.75Z</time></trkpt><trkpt lat="45.6149749" lon="10.7299729"><ele>359.5</ele><time>2026-03-28T14:16:27.75Z</time></trkpt><trkpt lat="45.6149001" lon="10.7299328"><ele>358.33333333333337</ele><time>2026-03-28T14:16:28.75Z</time></trkpt><trkpt lat="45.6148189" lon="10.729881"><ele>357.1666666666667</ele><time>2026-03-28T14:16:29.749Z</time></trkpt><trkpt lat="45.6147351" lon="10.7298155"><ele>356.0</ele><time>2026-03-28T14:16:30.75Z</time></trkpt><trkpt lat="45.6146402" lon="10.729743"><ele>356.0</ele><time>2026-03-28T14:16:31.749Z</time></trkpt><trkpt lat="45.6145409" lon="10.7296666"><ele>356.0</ele><time>2026-03-28T14:16:32.749Z</time></trkpt><trkpt lat="45.6144389" lon="10.7295871"><ele>356.0</ele><time>2026-03-28T14:16:33.749Z</time></trkpt><trkpt lat="45.6143398" lon="10.7295027"><ele>356.0</ele><time>2026-03-28T14:16:34.75Z</time></trkpt><trkpt lat="45.6142418" lon="10.7294173"><ele>353.8</ele><time>2026-03-28T14:16:35.749Z</time></trkpt><trkpt lat="45.6141467" lon="10.7293394"><ele>351.6</ele><time>2026-03-28T14:16:36.749Z</time></trkpt><trkpt lat="45.6140559" lon="10.7292749"><ele>349.4</ele><time>2026-03-28T14:16:37.749Z</time></trkpt><trkpt lat="45.6139755" lon="10.7292072"><ele>347.2</ele><time>2026-03-28T14:16:38.75Z</time></trkpt><trkpt lat="45.6139083" lon="10.7291325"><ele>345.0</ele><time>2026-03-28T14:16:39.75Z</time></trkpt><trkpt lat="45.6138462" lon="10.7290615"><ele>345.0</ele><time>2026-03-28T14:16:40.75Z</time></trkpt><trkpt lat="45.6137793" lon="10.7290127"><ele>345.0</ele><time>2026-03-28T14:16:41.75Z</time></trkpt><trkpt lat="45.6136925" lon="10.7289378"><ele>345.0</ele><time>2026-03-28T14:16:43.75Z</time></trkpt><trkpt lat="45.6136473" lon="10.7288129"><ele>345.0</ele><time>2026-03-28T14:16:47.749Z</time></trkpt><trkpt lat="45.6136628" lon="10.7287232"><ele>345.0</ele><time>2026-03-28T14:16:48.749Z</time></trkpt><trkpt lat="45.6137098" lon="10.7286152"><ele>345.0</ele><time>2026-03-28T14:16:49.75Z</time></trkpt><trkpt lat="45.6137779" lon="10.7285196"><ele>346.4</ele><time>2026-03-28T14:16:50.75Z</time></trkpt><trkpt lat="45.6138471" lon="10.728406"><ele>347.8</ele><time>2026-03-28T14:16:51.75Z</time></trkpt><trkpt lat="45.6139003" lon="10.7282695"><ele>349.20000000000005</ele><time>2026-03-28T14:16:52.749Z</time></trkpt><trkpt lat="45.6139273" lon="10.7281397"><ele>350.6</ele><time>2026-03-28T14:16:53.749Z</time></trkpt><trkpt lat="45.6139311" lon="10.7280262"><ele>352.0</ele><time>2026-03-28T14:16:54.749Z</time></trkpt><trkpt lat="45.6139146" lon="10.7279348"><ele>352.0</ele><time>2026-03-28T14:16:55.75Z</time></trkpt><trkpt lat="45.6138745" lon="10.7278348"><ele>352.0</ele><time>2026-03-28T14:16:56.749Z</time></trkpt><trkpt lat="45.6138162" lon="10.7277214"><ele>352.0</ele><time>2026-03-28T14:16:57.749Z</time></trkpt><trkpt lat="45.613747" lon="10.7276271"><ele>352.0</ele><time>2026-03-28T14:16:58.749Z</time></trkpt><trkpt lat="45.6136655" lon="10.7275717"><ele>352.0</ele><time>2026-03-28T14:16:59.75Z</time></trkpt><trkpt lat="45.6135738" lon="10.7275341"><ele>352.75</ele><time>2026-03-28T14:17:00.75Z</time></trkpt><trkpt lat="45.6134722" lon="10.7275152"><ele>353.5</ele><time>2026-03-28T14:17:01.749Z</time></trkpt><trkpt lat="45.6133588" lon="10.7275326"><ele>354.25</ele><time>2026-03-28T14:17:02.749Z</time></trkpt><trkpt lat="45.6132257" lon="10.7275505"><ele>355.0</ele><time>2026-03-28T14:17:03.749Z</time></trkpt><trkpt lat="45.613081" lon="10.7275325"><ele>355.0</ele><time>2026-03-28T14:17:04.75Z</time></trkpt><trkpt lat="45.6129595" lon="10.7274711"><ele>355.0</ele><time>2026-03-28T14:17:05.75Z</time></trkpt><trkpt lat="45.6128562" lon="10.7273772"><ele>355.0</ele><time>2026-03-28T14:17:06.75Z</time></trkpt><trkpt lat="45.612772" lon="10.7272899"><ele>355.0</ele><time>2026-03-28T14:17:07.749Z</time></trkpt><trkpt lat="45.6127064" lon="10.7271993"><ele>355.0</ele><time>2026-03-28T14:17:08.749Z</time></trkpt><trkpt lat="45.6126641" lon="10.7270872"><ele>356.5</ele><time>2026-03-28T14:17:09.749Z</time></trkpt><trkpt lat="45.6126125" lon="10.7269696"><ele>358.0</ele><time>2026-03-28T14:17:10.75Z</time></trkpt><trkpt lat="45.6125407" lon="10.7268376"><ele>359.5</ele><time>2026-03-28T14:17:11.749Z</time></trkpt><trkpt lat="45.6124495" lon="10.726696"><ele>361.0</ele><time>2026-03-28T14:17:12.75Z</time></trkpt><trkpt lat="45.6123508" lon="10.726552"><ele>362.4</ele><time>2026-03-28T14:17:13.75Z</time></trkpt><trkpt lat="45.6122526" lon="10.7264296"><ele>363.8</ele><time>2026-03-28T14:17:14.75Z</time></trkpt><trkpt lat="45.6121813" lon="10.7263103"><ele>365.2</ele><time>2026-03-28T14:17:15.749Z</time></trkpt><trkpt lat="45.6121339" lon="10.7261944"><ele>366.59999999999997</ele><time>2026-03-28T14:17:16.749Z</time></trkpt><trkpt lat="45.6121113" lon="10.72608"><ele>368.0</ele><time>2026-03-28T14:17:17.75Z</time></trkpt><trkpt lat="45.6121234" lon="10.7259617"><ele>369.0</ele><time>2026-03-28T14:17:18.749Z</time></trkpt><trkpt lat="45.6121661" lon="10.7258687"><ele>370.0</ele><time>2026-03-28T14:17:19.749Z</time></trkpt><trkpt lat="45.6122345" lon="10.7257963"><ele>371.0</ele><time>2026-03-28T14:17:20.75Z</time></trkpt><trkpt lat="45.6123138" lon="10.7257265"><ele>372.0</ele><time>2026-03-28T14:17:21.75Z</time></trkpt><trkpt lat="45.612387" lon="10.7256254"><ele>373.0</ele><time>2026-03-28T14:17:22.749Z</time></trkpt><trkpt lat="45.612459" lon="10.7255115"><ele>373.0</ele><time>2026-03-28T14:17:23.749Z</time></trkpt><trkpt lat="45.6125493" lon="10.725405"><ele>373.0</ele><time>2026-03-28T14:17:24.75Z</time></trkpt><trkpt lat="45.6126552" lon="10.7253062"><ele>373.0</ele><time>2026-03-28T14:17:25.75Z</time></trkpt><trkpt lat="45.6127514" lon="10.7251793"><ele>373.0</ele><time>2026-03-28T14:17:26.75Z</time></trkpt><trkpt lat="45.6128172" lon="10.7250585"><ele>372.0</ele><time>2026-03-28T14:17:27.749Z</time></trkpt><trkpt lat="45.6128538" lon="10.7249384"><ele>371.0</ele><time>2026-03-28T14:17:28.75Z</time></trkpt><trkpt lat="45.6128502" lon="10.7248436"><ele>370.0</ele><time>2026-03-28T14:17:29.75Z</time></trkpt><trkpt lat="45.6127488" lon="10.7247334"><ele>369.0</ele><time>2026-03-28T14:17:31.75Z</time></trkpt><trkpt lat="45.6126641" lon="10.7246988"><ele>368.0</ele><time>2026-03-28T14:17:32.75Z</time></trkpt><trkpt lat="45.6125634" lon="10.7246859"><ele>368.0</ele><time>2026-03-28T14:17:33.75Z</time></trkpt><trkpt lat="45.6124512" lon="10.7246819"><ele>368.0</ele><time>2026-03-28T14:17:34.749Z</time></trkpt><trkpt lat="45.6123476" lon="10.7246773"><ele>368.0</ele><time>2026-03-28T14:17:35.749Z</time></trkpt><trkpt lat="45.6122521" lon="10.7246741"><ele>368.0</ele><time>2026-03-28T14:17:36.75Z</time></trkpt><trkpt lat="45.6121536" lon="10.7246949"><ele>368.0</ele><time>2026-03-28T14:17:37.75Z</time></trkpt><trkpt lat="45.6120485" lon="10.7247412"><ele>365.0</ele><time>2026-03-28T14:17:38.75Z</time></trkpt><trkpt lat="45.6119378" lon="10.7247909"><ele>362.0</ele><time>2026-03-28T14:17:39.75Z</time></trkpt><trkpt lat="45.6118216" lon="10.7248401"><ele>359.0</ele><time>2026-03-28T14:17:40.749Z</time></trkpt><trkpt lat="45.6117107" lon="10.724889"><ele>356.0</ele><time>2026-03-28T14:17:41.749Z</time></trkpt><trkpt lat="45.6116066" lon="10.7249384"><ele>356.0</ele><time>2026-03-28T14:17:42.75Z</time></trkpt><trkpt lat="45.6115071" lon="10.724985"><ele>356.0</ele><time>2026-03-28T14:17:43.75Z</time></trkpt><trkpt lat="45.6114196" lon="10.7250158"><ele>356.0</ele><time>2026-03-28T14:17:44.75Z</time></trkpt><trkpt lat="45.6113516" lon="10.72503"><ele>356.0</ele><time>2026-03-28T14:17:45.75Z</time></trkpt><trkpt lat="45.6112689" lon="10.725043"><ele>356.0</ele><time>2026-03-28T14:17:48.75Z</time></trkpt><trkpt lat="45.6111747" lon="10.7250786"><ele>356.0</ele><time>2026-03-28T14:17:50.749Z</time></trkpt><trkpt lat="45.6110943" lon="10.7251247"><ele>354.5</ele><time>2026-03-28T14:17:51.75Z</time></trkpt><trkpt lat="45.6109908" lon="10.7251792"><ele>353.0</ele><time>2026-03-28T14:17:52.749Z</time></trkpt><trkpt lat="45.6108481" lon="10.7252245"><ele>351.5</ele><time>2026-03-28T14:17:53.75Z</time></trkpt><trkpt lat="45.6106745" lon="10.7252311"><ele>350.0</ele><time>2026-03-28T14:17:54.749Z</time></trkpt><trkpt lat="45.61048" lon="10.725199"><ele>347.6666666666667</ele><time>2026-03-28T14:17:55.749Z</time></trkpt><trkpt lat="45.6102677" lon="10.7251455"><ele>345.3333333333333</ele><time>2026-03-28T14:17:56.75Z</time></trkpt><trkpt lat="45.610052" lon="10.7251114"><ele>343.0</ele><time>2026-03-28T14:17:57.75Z</time></trkpt><trkpt lat="45.6098467" lon="10.7251106"><ele>343.0</ele><time>2026-03-28T14:17:58.75Z</time></trkpt><trkpt lat="45.6096462" lon="10.7251279"><ele>343.0</ele><time>2026-03-28T14:17:59.749Z</time></trkpt><trkpt lat="45.6094604" lon="10.7251474"><ele>343.0</ele><time>2026-03-28T14:18:00.75Z</time></trkpt><trkpt lat="45.6092857" lon="10.7251671"><ele>341.0</ele><time>2026-03-28T14:18:01.749Z</time></trkpt><trkpt lat="45.6091255" lon="10.7251931"><ele>339.0</ele><time>2026-03-28T14:18:02.75Z</time></trkpt><trkpt lat="45.608974" lon="10.7252168"><ele>337.0</ele><time>2026-03-28T14:18:03.749Z</time></trkpt><trkpt lat="45.6088323" lon="10.7252386"><ele>336.40000000000003</ele><time>2026-03-28T14:18:04.749Z</time></trkpt><trkpt lat="45.608714" lon="10.7252573"><ele>335.8</ele><time>2026-03-28T14:18:05.75Z</time></trkpt><trkpt lat="45.6086125" lon="10.7252841"><ele>335.2</ele><time>2026-03-28T14:18:06.75Z</time></trkpt><trkpt lat="45.6085251" lon="10.7253351"><ele>334.6</ele><time>2026-03-28T14:18:07.75Z</time></trkpt><trkpt lat="45.6084714" lon="10.7254151"><ele>334.0</ele><time>2026-03-28T14:18:08.749Z</time></trkpt><trkpt lat="45.6084519" lon="10.7255071"><ele>334.0</ele><time>2026-03-28T14:18:09.749Z</time></trkpt><trkpt lat="45.6084595" lon="10.7255983"><ele>334.0</ele><time>2026-03-28T14:18:10.75Z</time></trkpt><trkpt lat="45.6084887" lon="10.7256895"><ele>334.0</ele><time>2026-03-28T14:18:11.749Z</time></trkpt><trkpt lat="45.6085358" lon="10.7257561"><ele>334.0</ele><time>2026-03-28T14:18:12.751Z</time></trkpt><trkpt lat="45.6086044" lon="10.7257847"><ele>334.0</ele><time>2026-03-28T14:18:13.75Z</time></trkpt><trkpt lat="45.6086679" lon="10.7257774"><ele>334.0</ele><time>2026-03-28T14:18:14.75Z</time></trkpt><trkpt lat="45.60873" lon="10.7257504"><ele>334.0</ele><time>2026-03-28T14:18:15.749Z</time></trkpt><trkpt lat="45.6088408" lon="10.7256556"><ele>334.0</ele><time>2026-03-28T14:18:17.749Z</time></trkpt><trkpt lat="45.6088998" lon="10.7256215"><ele>334.0</ele><time>2026-03-28T14:18:18.75Z</time></trkpt><trkpt lat="45.6089925" lon="10.7256827"><ele>334.0</ele><time>2026-03-28T14:18:20.749Z</time></trkpt><trkpt lat="45.6089431" lon="10.725793"><ele>334.0</ele><time>2026-03-28T14:18:22.749Z</time></trkpt><trkpt lat="45.6088837" lon="10.7258276"><ele>334.0</ele><time>2026-03-28T14:18:23.75Z</time></trkpt><trkpt lat="45.6087951" lon="10.7258791"><ele>334.0</ele><time>2026-03-28T14:18:24.75Z</time></trkpt><trkpt lat="45.6086966" lon="10.7259289"><ele>333.25</ele><time>2026-03-28T14:18:25.75Z</time></trkpt><trkpt lat="45.6085844" lon="10.7259936"><ele>332.5</ele><time>2026-03-28T14:18:26.75Z</time></trkpt><trkpt lat="45.608467" lon="10.726071"><ele>331.75</ele><time>2026-03-28T14:18:27.749Z</time></trkpt><trkpt lat="45.6083418" lon="10.7261425"><ele>331.0</ele><time>2026-03-28T14:18:28.749Z</time></trkpt><trkpt lat="45.6082136" lon="10.7262069"><ele>329.0</ele><time>2026-03-28T14:18:29.75Z</time></trkpt><trkpt lat="45.6080844" lon="10.7262621"><ele>327.0</ele><time>2026-03-28T14:18:30.75Z</time></trkpt><trkpt lat="45.6079515" lon="10.7262924"><ele>325.0</ele><time>2026-03-28T14:18:31.749Z</time></trkpt><trkpt lat="45.6078198" lon="10.7263057"><ele>323.0</ele><time>2026-03-28T14:18:32.75Z</time></trkpt><trkpt lat="45.6076951" lon="10.7263166"><ele>322.2</ele><time>2026-03-28T14:18:33.749Z</time></trkpt><trkpt lat="45.6075829" lon="10.7263213"><ele>321.4</ele><time>2026-03-28T14:18:34.749Z</time></trkpt><trkpt lat="45.6074846" lon="10.7263281"><ele>320.59999999999997</ele><time>2026-03-28T14:18:35.749Z</time></trkpt><trkpt lat="45.6073971" lon="10.7263348"><ele>319.79999999999995</ele><time>2026-03-28T14:18:36.751Z</time></trkpt><trkpt lat="45.6073231" lon="10.7263423"><ele>319.0</ele><time>2026-03-28T14:18:37.75Z</time></trkpt><trkpt lat="45.6072152" lon="10.7263599"><ele>319.0</ele><time>2026-03-28T14:18:39.749Z</time></trkpt><trkpt lat="45.6071199" lon="10.7263794"><ele>319.0</ele><time>2026-03-28T14:18:41.75Z</time></trkpt><trkpt lat="45.607049" lon="10.7264016"><ele>319.0</ele><time>2026-03-28T14:18:42.75Z</time></trkpt><trkpt lat="45.6069645" lon="10.726447"><ele>319.0</ele><time>2026-03-28T14:18:43.749Z</time></trkpt><trkpt lat="45.6068876" lon="10.7265188"><ele>319.0</ele><time>2026-03-28T14:18:44.749Z</time></trkpt><trkpt lat="45.6068304" lon="10.7265811"><ele>319.0</ele><time>2026-03-28T14:18:45.751Z</time></trkpt><trkpt lat="45.6067626" lon="10.7265914"><ele>318.66666666666663</ele><time>2026-03-28T14:18:47.75Z</time></trkpt><trkpt lat="45.6067516" lon="10.7264954"><ele>318.3333333333333</ele><time>2026-03-28T14:18:49.749Z</time></trkpt><trkpt lat="45.6067484" lon="10.7264014"><ele>318.0</ele><time>2026-03-28T14:18:50.749Z</time></trkpt><trkpt lat="45.6067449" lon="10.7262828"><ele>317.6666666666667</ele><time>2026-03-28T14:18:51.749Z</time></trkpt><trkpt lat="45.6067383" lon="10.7261543"><ele>317.33333333333337</ele><time>2026-03-28T14:18:52.75Z</time></trkpt><trkpt lat="45.6067259" lon="10.7260238"><ele>317.0</ele><time>2026-03-28T14:18:53.749Z</time></trkpt><trkpt lat="45.6067236" lon="10.725878"><ele>316.6666666666667</ele><time>2026-03-28T14:18:54.749Z</time></trkpt><trkpt lat="45.6067148" lon="10.7257468"><ele>316.33333333333337</ele><time>2026-03-28T14:18:55.75Z</time></trkpt><trkpt lat="45.6067094" lon="10.7256338"><ele>316.0</ele><time>2026-03-28T14:18:56.75Z</time></trkpt><trkpt lat="45.6066973" lon="10.7255419"><ele>315.6666666666667</ele><time>2026-03-28T14:18:57.75Z</time></trkpt><trkpt lat="45.6066855" lon="10.7254157"><ele>315.3333333333333</ele><time>2026-03-28T14:18:59.75Z</time></trkpt><trkpt lat="45.6066768" lon="10.725282"><ele>315.0</ele><time>2026-03-28T14:19:01.749Z</time></trkpt><trkpt lat="45.6066527" lon="10.725193"><ele>315.0</ele><time>2026-03-28T14:19:12.749Z</time></trkpt><trkpt lat="45.6066893" lon="10.7252982"><ele>315.0</ele><time>2026-03-28T14:19:53.749Z</time></trkpt><trkpt lat="45.6066996" lon="10.7255191"><ele>315.0</ele><time>2026-03-28T14:19:55.75Z</time></trkpt><trkpt lat="45.6067071" lon="10.7256581"><ele>315.0</ele><time>2026-03-28T14:19:56.75Z</time></trkpt><trkpt lat="45.6067192" lon="10.7258013"><ele>315.0</ele><time>2026-03-28T14:19:57.75Z</time></trkpt><trkpt lat="45.606727" lon="10.7259394"><ele>315.3333333333333</ele><time>2026-03-28T14:19:58.75Z</time></trkpt><trkpt lat="45.6067312" lon="10.7260688"><ele>315.6666666666667</ele><time>2026-03-28T14:19:59.75Z</time></trkpt><trkpt lat="45.60673" lon="10.7261882"><ele>316.0</ele><time>2026-03-28T14:20:00.75Z</time></trkpt><trkpt lat="45.6067482" lon="10.7262989"><ele>316.33333333333337</ele><time>2026-03-28T14:20:01.75Z</time></trkpt><trkpt lat="45.6067518" lon="10.7263928"><ele>316.6666666666667</ele><time>2026-03-28T14:20:02.75Z</time></trkpt><trkpt lat="45.6067499" lon="10.7265545"><ele>317.0</ele><time>2026-03-28T14:20:04.749Z</time></trkpt><trkpt lat="45.6067306" lon="10.7266522"><ele>317.0</ele><time>2026-03-28T14:20:07.749Z</time></trkpt><trkpt lat="45.606682" lon="10.726736"><ele>317.0</ele><time>2026-03-28T14:20:10.749Z</time></trkpt><trkpt lat="45.6066168" lon="10.7267717"><ele>317.0</ele><time>2026-03-28T14:20:31.749Z</time></trkpt><trkpt lat="45.6065544" lon="10.7268361"><ele>317.0</ele><time>2026-03-28T14:20:35.749Z</time></trkpt><trkpt lat="45.6064868" lon="10.7268264"><ele>317.0</ele><time>2026-03-28T14:21:04.749Z</time></trkpt><trkpt lat="45.6064804" lon="10.7269164"><ele>316.0</ele><time>2026-03-28T14:25:08.748Z</time></trkpt></trkseg><trkseg><trkpt lat="45.6065562" lon="10.7268843"><ele>317.0</ele><time>2026-03-28T15:02:30.749Z</time></trkpt><trkpt lat="45.6066048" lon="10.7267948"><ele>317.0</ele><time>2026-03-28T15:02:41.75Z</time></trkpt><trkpt lat="45.6065722" lon="10.726697"><ele>317.0</ele><time>2026-03-28T15:02:44.749Z</time></trkpt><trkpt lat="45.6065359" lon="10.7265138"><ele>317.0</ele><time>2026-03-28T15:02:46.749Z</time></trkpt><trkpt lat="45.6065275" lon="10.7263979"><ele>317.0</ele><time>2026-03-28T15:02:47.75Z</time></trkpt><trkpt lat="45.6065154" lon="10.72627"><ele>317.0</ele><time>2026-03-28T15:02:48.749Z</time></trkpt><trkpt lat="45.6064916" lon="10.7261254"><ele>317.0</ele><time>2026-03-28T15:02:49.749Z</time></trkpt><trkpt lat="45.6064635" lon="10.7259732"><ele>317.0</ele><time>2026-03-28T15:02:50.75Z</time></trkpt><trkpt lat="45.6064461" lon="10.7258127"><ele>317.0</ele><time>2026-03-28T15:02:51.749Z</time></trkpt><trkpt lat="45.6064439" lon="10.7256352"><ele>316.5</ele><time>2026-03-28T15:02:52.749Z</time></trkpt><trkpt lat="45.6064535" lon="10.7254521"><ele>316.0</ele><time>2026-03-28T15:02:53.75Z</time></trkpt><trkpt lat="45.6064774" lon="10.7252789"><ele>315.5</ele><time>2026-03-28T15:02:54.749Z</time></trkpt><trkpt lat="45.6065137" lon="10.7251192"><ele>315.0</ele><time>2026-03-28T15:02:55.749Z</time></trkpt><trkpt lat="45.6065623" lon="10.7249585"><ele>313.75</ele><time>2026-03-28T15:02:56.749Z</time></trkpt><trkpt lat="45.6066203" lon="10.7247909"><ele>312.5</ele><time>2026-03-28T15:02:57.749Z</time></trkpt><trkpt lat="45.6066875" lon="10.7246233"><ele>311.25</ele><time>2026-03-28T15:02:58.749Z</time></trkpt><trkpt lat="45.6067577" lon="10.7244648"><ele>310.0</ele><time>2026-03-28T15:02:59.749Z</time></trkpt><trkpt lat="45.6068231" lon="10.7243162"><ele>308.6</ele><time>2026-03-28T15:03:00.749Z</time></trkpt><trkpt lat="45.6068762" lon="10.7241814"><ele>307.2</ele><time>2026-03-28T15:03:01.749Z</time></trkpt><trkpt lat="45.606913" lon="10.7240484"><ele>305.8</ele><time>2026-03-28T15:03:02.749Z</time></trkpt><trkpt lat="45.606928" lon="10.7239036"><ele>304.4</ele><time>2026-03-28T15:03:03.75Z</time></trkpt><trkpt lat="45.6069128" lon="10.7237611"><ele>303.0</ele><time>2026-03-28T15:03:04.75Z</time></trkpt><trkpt lat="45.6068837" lon="10.7236381"><ele>302.8571428571429</ele><time>2026-03-28T15:03:05.75Z</time></trkpt><trkpt lat="45.6068588" lon="10.7235253"><ele>302.7142857142857</ele><time>2026-03-28T15:03:06.749Z</time></trkpt><trkpt lat="45.6068377" lon="10.7234189"><ele>302.57142857142856</ele><time>2026-03-28T15:03:07.751Z</time></trkpt><trkpt lat="45.6067956" lon="10.7233326"><ele>302.42857142857144</ele><time>2026-03-28T15:03:08.75Z</time></trkpt><trkpt lat="45.6067369" lon="10.7232672"><ele>302.2857142857143</ele><time>2026-03-28T15:03:09.75Z</time></trkpt><trkpt lat="45.6066781" lon="10.7232292"><ele>302.14285714285717</ele><time>2026-03-28T15:03:10.75Z</time></trkpt><trkpt lat="45.6066205" lon="10.7231923"><ele>302.0</ele><time>2026-03-28T15:03:11.75Z</time></trkpt><trkpt lat="45.6065239" lon="10.7231068"><ele>302.0</ele><time>2026-03-28T15:03:13.749Z</time></trkpt><trkpt lat="45.6064632" lon="10.7230424"><ele>302.0</ele><time>2026-03-28T15:03:15.75Z</time></trkpt><trkpt lat="45.6064133" lon="10.7229857"><ele>302.0</ele><time>2026-03-28T15:03:17.75Z</time></trkpt><trkpt lat="45.6063575" lon="10.722933"><ele>302.0</ele><time>2026-03-28T15:03:19.749Z</time></trkpt><trkpt lat="45.6062786" lon="10.7228549"><ele>302.0</ele><time>2026-03-28T15:03:21.75Z</time></trkpt><trkpt lat="45.6061697" lon="10.7227842"><ele>302.0</ele><time>2026-03-28T15:03:23.75Z</time></trkpt><trkpt lat="45.6060814" lon="10.7227347"><ele>301.42857142857144</ele><time>2026-03-28T15:03:25.749Z</time></trkpt><trkpt lat="45.6060157" lon="10.7226976"><ele>300.8571428571429</ele><time>2026-03-28T15:03:27.749Z</time></trkpt><trkpt lat="45.6059417" lon="10.7226769"><ele>300.2857142857143</ele><time>2026-03-28T15:03:36.749Z</time></trkpt><trkpt lat="45.6058775" lon="10.7226762"><ele>299.7142857142857</ele><time>2026-03-28T15:03:38.749Z</time></trkpt><trkpt lat="45.6058097" lon="10.7226909"><ele>299.1428571428571</ele><time>2026-03-28T15:03:46.75Z</time></trkpt><trkpt lat="45.6058697" lon="10.7227471"><ele>298.57142857142856</ele><time>2026-03-28T15:03:50.75Z</time></trkpt><trkpt lat="45.6059354" lon="10.7227625"><ele>298.0</ele><time>2026-03-28T15:03:51.75Z</time></trkpt><trkpt lat="45.606023" lon="10.7227913"><ele>298.0</ele><time>2026-03-28T15:03:52.749Z</time></trkpt><trkpt lat="45.6061303" lon="10.7228392"><ele>298.0</ele><time>2026-03-28T15:03:53.749Z</time></trkpt><trkpt lat="45.6062547" lon="10.722911"><ele>298.0</ele><time>2026-03-28T15:03:54.749Z</time></trkpt><trkpt lat="45.6063592" lon="10.7230164"><ele>298.0</ele><time>2026-03-28T15:03:55.749Z</time></trkpt><trkpt lat="45.6064412" lon="10.7231361"><ele>298.8</ele><time>2026-03-28T15:03:56.75Z</time></trkpt><trkpt lat="45.6065057" lon="10.7232606"><ele>299.6</ele><time>2026-03-28T15:03:57.75Z</time></trkpt><trkpt lat="45.6065497" lon="10.7233813"><ele>300.4</ele><time>2026-03-28T15:03:58.749Z</time></trkpt><trkpt lat="45.6065975" lon="10.7234754"><ele>301.2</ele><time>2026-03-28T15:03:59.75Z</time></trkpt><trkpt lat="45.6066627" lon="10.7235274"><ele>302.0</ele><time>2026-03-28T15:04:00.749Z</time></trkpt><trkpt lat="45.6067752" lon="10.7235051"><ele>302.0</ele><time>2026-03-28T15:04:02.75Z</time></trkpt><trkpt lat="45.6068323" lon="10.7233525"><ele>302.0</ele><time>2026-03-28T15:04:04.749Z</time></trkpt><trkpt lat="45.6068329" lon="10.7232438"><ele>302.0</ele><time>2026-03-28T15:04:05.749Z</time></trkpt><trkpt lat="45.6068219" lon="10.7231263"><ele>302.0</ele><time>2026-03-28T15:04:06.75Z</time></trkpt><trkpt lat="45.6067919" lon="10.7230024"><ele>302.0</ele><time>2026-03-28T15:04:07.749Z</time></trkpt><trkpt lat="45.6067259" lon="10.7228843"><ele>302.0</ele><time>2026-03-28T15:04:08.75Z</time></trkpt><trkpt lat="45.6066411" lon="10.7227922"><ele>302.0</ele><time>2026-03-28T15:04:09.75Z</time></trkpt><trkpt lat="45.6065419" lon="10.7227064"><ele>302.0</ele><time>2026-03-28T15:04:10.749Z</time></trkpt><trkpt lat="45.6064344" lon="10.722619"><ele>302.0</ele><time>2026-03-28T15:04:11.749Z</time></trkpt><trkpt lat="45.6063202" lon="10.7225558"><ele>304.5</ele><time>2026-03-28T15:04:12.75Z</time></trkpt><trkpt lat="45.6062013" lon="10.7225215"><ele>307.0</ele><time>2026-03-28T15:04:13.75Z</time></trkpt><trkpt lat="45.606081" lon="10.722502"><ele>309.5</ele><time>2026-03-28T15:04:14.75Z</time></trkpt><trkpt lat="45.6059671" lon="10.7224672"><ele>312.0</ele><time>2026-03-28T15:04:15.75Z</time></trkpt><trkpt lat="45.6058537" lon="10.7224392"><ele>312.6</ele><time>2026-03-28T15:04:16.75Z</time></trkpt><trkpt lat="45.6057423" lon="10.7224128"><ele>313.2</ele><time>2026-03-28T15:04:17.75Z</time></trkpt><trkpt lat="45.6056325" lon="10.7223862"><ele>313.8</ele><time>2026-03-28T15:04:18.75Z</time></trkpt><trkpt lat="45.6055258" lon="10.7223658"><ele>314.4</ele><time>2026-03-28T15:04:19.749Z</time></trkpt><trkpt lat="45.6054418" lon="10.7223294"><ele>315.0</ele><time>2026-03-28T15:04:20.749Z</time></trkpt><trkpt lat="45.6053823" lon="10.7222738"><ele>315.0</ele><time>2026-03-28T15:04:21.75Z</time></trkpt><trkpt lat="45.6053432" lon="10.7221884"><ele>315.0</ele><time>2026-03-28T15:04:22.75Z</time></trkpt><trkpt lat="45.605314" lon="10.7220901"><ele>315.0</ele><time>2026-03-28T15:04:23.749Z</time></trkpt><trkpt lat="45.6052872" lon="10.7219743"><ele>315.0</ele><time>2026-03-28T15:04:24.749Z</time></trkpt><trkpt lat="45.6052815" lon="10.7218809"><ele>315.0</ele><time>2026-03-28T15:04:25.749Z</time></trkpt><trkpt lat="45.6053438" lon="10.721722"><ele>315.0</ele><time>2026-03-28T15:04:27.75Z</time></trkpt><trkpt lat="45.6054037" lon="10.7216218"><ele>317.6</ele><time>2026-03-28T15:04:28.75Z</time></trkpt><trkpt lat="45.6054811" lon="10.7214992"><ele>320.2</ele><time>2026-03-28T15:04:29.749Z</time></trkpt><trkpt lat="45.6055637" lon="10.7213961"><ele>322.79999999999995</ele><time>2026-03-28T15:04:30.749Z</time></trkpt><trkpt lat="45.6056578" lon="10.7213634"><ele>325.4</ele><time>2026-03-28T15:04:31.75Z</time></trkpt><trkpt lat="45.6057806" lon="10.7213192"><ele>328.0</ele><time>2026-03-28T15:04:32.749Z</time></trkpt><trkpt lat="45.6058994" lon="10.7212536"><ele>328.0</ele><time>2026-03-28T15:04:33.749Z</time></trkpt><trkpt lat="45.605994" lon="10.7211606"><ele>328.0</ele><time>2026-03-28T15:04:34.75Z</time></trkpt><trkpt lat="45.60606" lon="10.7210432"><ele>328.0</ele><time>2026-03-28T15:04:35.75Z</time></trkpt><trkpt lat="45.6061057" lon="10.7208905"><ele>328.0</ele><time>2026-03-28T15:04:36.749Z</time></trkpt><trkpt lat="45.6061395" lon="10.7207177"><ele>329.59999999999997</ele><time>2026-03-28T15:04:37.75Z</time></trkpt><trkpt lat="45.606187" lon="10.7205451"><ele>331.2</ele><time>2026-03-28T15:04:38.749Z</time></trkpt><trkpt lat="45.6062571" lon="10.7203998"><ele>332.8</ele><time>2026-03-28T15:04:39.75Z</time></trkpt><trkpt lat="45.6063297" lon="10.7203051"><ele>334.4</ele><time>2026-03-28T15:04:40.75Z</time></trkpt><trkpt lat="45.6063782" lon="10.7202447"><ele>336.0</ele><time>2026-03-28T15:04:41.749Z</time></trkpt><trkpt lat="45.6064464" lon="10.7201889"><ele>337.0</ele><time>2026-03-28T15:04:45.749Z</time></trkpt><trkpt lat="45.606532" lon="10.7201097"><ele>338.0</ele><time>2026-03-28T15:04:47.749Z</time></trkpt><trkpt lat="45.6066013" lon="10.7200339"><ele>339.0</ele><time>2026-03-28T15:04:49.749Z</time></trkpt><trkpt lat="45.6066618" lon="10.7199737"><ele>340.0</ele><time>2026-03-28T15:04:51.75Z</time></trkpt><trkpt lat="45.6067124" lon="10.719914"><ele>341.0</ele><time>2026-03-28T15:04:53.749Z</time></trkpt><trkpt lat="45.6067458" lon="10.7197703"><ele>342.0</ele><time>2026-03-28T15:04:55.749Z</time></trkpt><trkpt lat="45.6067528" lon="10.7196464"><ele>342.0</ele><time>2026-03-28T15:04:57.75Z</time></trkpt><trkpt lat="45.6067252" lon="10.7195187"><ele>342.0</ele><time>2026-03-28T15:05:00.749Z</time></trkpt><trkpt lat="45.6066763" lon="10.7194169"><ele>342.0</ele><time>2026-03-28T15:05:03.75Z</time></trkpt><trkpt lat="45.6066423" lon="10.719338"><ele>342.0</ele><time>2026-03-28T15:05:11.749Z</time></trkpt><trkpt lat="45.6066746" lon="10.719212"><ele>342.0</ele><time>2026-03-28T15:05:32.749Z</time></trkpt><trkpt lat="45.606723" lon="10.7191191"><ele>342.0</ele><time>2026-03-28T15:05:34.75Z</time></trkpt><trkpt lat="45.6068292" lon="10.7190256"><ele>342.6666666666667</ele><time>2026-03-28T15:05:36.75Z</time></trkpt><trkpt lat="45.6068929" lon="10.7189643"><ele>343.3333333333333</ele><time>2026-03-28T15:05:37.75Z</time></trkpt><trkpt lat="45.6069586" lon="10.7188957"><ele>344.0</ele><time>2026-03-28T15:05:38.751Z</time></trkpt><trkpt lat="45.6070405" lon="10.7188228"><ele>344.66666666666663</ele><time>2026-03-28T15:05:39.749Z</time></trkpt><trkpt lat="45.6071262" lon="10.7187551"><ele>345.3333333333333</ele><time>2026-03-28T15:05:40.75Z</time></trkpt><trkpt lat="45.6072013" lon="10.7186937"><ele>346.0</ele><time>2026-03-28T15:05:41.749Z</time></trkpt><trkpt lat="45.6072706" lon="10.71864"><ele>348.8333333333333</ele><time>2026-03-28T15:05:42.749Z</time></trkpt><trkpt lat="45.607349" lon="10.718535"><ele>351.66666666666663</ele><time>2026-03-28T15:05:44.749Z</time></trkpt><trkpt lat="45.6074017" lon="10.7184196"><ele>354.5</ele><time>2026-03-28T15:05:46.75Z</time></trkpt><trkpt lat="45.6073581" lon="10.7184962"><ele>357.3333333333333</ele><time>2026-03-28T15:05:54.749Z</time></trkpt><trkpt lat="45.6073142" lon="10.7185657"><ele>360.1666666666667</ele><time>2026-03-28T15:05:57.749Z</time></trkpt><trkpt lat="45.6072921" lon="10.7184711"><ele>363.0</ele><time>2026-03-28T15:06:00.749Z</time></trkpt><trkpt lat="45.6073024" lon="10.7183396"><ele>363.0</ele><time>2026-03-28T15:06:02.75Z</time></trkpt><trkpt lat="45.6072732" lon="10.7181353"><ele>363.0</ele><time>2026-03-28T15:06:04.75Z</time></trkpt><trkpt lat="45.6072556" lon="10.7180155"><ele>363.0</ele><time>2026-03-28T15:06:05.75Z</time></trkpt><trkpt lat="45.6072437" lon="10.7179019"><ele>363.0</ele><time>2026-03-28T15:06:06.75Z</time></trkpt><trkpt lat="45.6072275" lon="10.7177776"><ele>363.0</ele><time>2026-03-28T15:06:07.75Z</time></trkpt><trkpt lat="45.6072283" lon="10.7176498"><ele>362.6666666666667</ele><time>2026-03-28T15:06:08.749Z</time></trkpt><trkpt lat="45.6072321" lon="10.7175302"><ele>362.3333333333333</ele><time>2026-03-28T15:06:09.749Z</time></trkpt><trkpt lat="45.6072382" lon="10.7174098"><ele>362.0</ele><time>2026-03-28T15:06:10.749Z</time></trkpt><trkpt lat="45.6072453" lon="10.717308"><ele>361.66666666666663</ele><time>2026-03-28T15:06:11.75Z</time></trkpt><trkpt lat="45.607255" lon="10.7172137"><ele>361.3333333333333</ele><time>2026-03-28T15:06:12.749Z</time></trkpt><trkpt lat="45.6073107" lon="10.7171335"><ele>361.0</ele><time>2026-03-28T15:06:14.75Z</time></trkpt><trkpt lat="45.6073791" lon="10.717126"><ele>361.0</ele><time>2026-03-28T15:06:16.749Z</time></trkpt><trkpt lat="45.6074691" lon="10.7171255"><ele>361.0</ele><time>2026-03-28T15:06:18.749Z</time></trkpt><trkpt lat="45.6075533" lon="10.7171141"><ele>361.0</ele><time>2026-03-28T15:06:20.749Z</time></trkpt><trkpt lat="45.6076851" lon="10.7171301"><ele>361.0</ele><time>2026-03-28T15:06:22.75Z</time></trkpt><trkpt lat="45.6077556" lon="10.7171374"><ele>361.0</ele><time>2026-03-28T15:06:23.749Z</time></trkpt><trkpt lat="45.6078399" lon="10.7171382"><ele>363.0</ele><time>2026-03-28T15:06:24.75Z</time></trkpt><trkpt lat="45.6079202" lon="10.7171455"><ele>365.0</ele><time>2026-03-28T15:06:25.749Z</time></trkpt><trkpt lat="45.6079943" lon="10.7171513"><ele>367.0</ele><time>2026-03-28T15:06:26.749Z</time></trkpt><trkpt lat="45.6080652" lon="10.7171563"><ele>369.0</ele><time>2026-03-28T15:06:27.75Z</time></trkpt><trkpt lat="45.6081373" lon="10.7171406"><ele>371.0</ele><time>2026-03-28T15:06:28.749Z</time></trkpt><trkpt lat="45.608208" lon="10.7171407"><ele>373.0</ele><time>2026-03-28T15:06:29.75Z</time></trkpt><trkpt lat="45.6082727" lon="10.717141"><ele>375.0</ele><time>2026-03-28T15:06:30.75Z</time></trkpt><trkpt lat="45.6083399" lon="10.7171388"><ele>375.0</ele><time>2026-03-28T15:06:31.749Z</time></trkpt><trkpt lat="45.6084594" lon="10.7171727"><ele>375.0</ele><time>2026-03-28T15:06:33.749Z</time></trkpt><trkpt lat="45.6085832" lon="10.7171809"><ele>375.0</ele><time>2026-03-28T15:06:35.749Z</time></trkpt><trkpt lat="45.6086508" lon="10.7171532"><ele>375.0</ele><time>2026-03-28T15:06:36.75Z</time></trkpt><trkpt lat="45.6087306" lon="10.7171021"><ele>375.0</ele><time>2026-03-28T15:06:37.749Z</time></trkpt><trkpt lat="45.6088194" lon="10.7170471"><ele>375.8333333333333</ele><time>2026-03-28T15:06:38.749Z</time></trkpt><trkpt lat="45.6088988" lon="10.7169981"><ele>376.6666666666667</ele><time>2026-03-28T15:06:39.75Z</time></trkpt><trkpt lat="45.6089893" lon="10.7169426"><ele>377.5</ele><time>2026-03-28T15:06:40.75Z</time></trkpt><trkpt lat="45.6090735" lon="10.7168922"><ele>378.33333333333337</ele><time>2026-03-28T15:06:41.75Z</time></trkpt><trkpt lat="45.6091552" lon="10.7168618"><ele>379.1666666666667</ele><time>2026-03-28T15:06:42.749Z</time></trkpt><trkpt lat="45.6092421" lon="10.7168482"><ele>380.0</ele><time>2026-03-28T15:06:43.749Z</time></trkpt><trkpt lat="45.6093431" lon="10.716812"><ele>380.0</ele><time>2026-03-28T15:06:44.749Z</time></trkpt><trkpt lat="45.6094521" lon="10.716765"><ele>380.0</ele><time>2026-03-28T15:06:45.75Z</time></trkpt><trkpt lat="45.6095652" lon="10.716728"><ele>380.0</ele><time>2026-03-28T15:06:46.75Z</time></trkpt><trkpt lat="45.6096662" lon="10.7166996"><ele>380.0</ele><time>2026-03-28T15:06:47.749Z</time></trkpt><trkpt lat="45.6097737" lon="10.7166761"><ele>380.0</ele><time>2026-03-28T15:06:48.75Z</time></trkpt><trkpt lat="45.6098841" lon="10.7166509"><ele>383.4</ele><time>2026-03-28T15:06:49.75Z</time></trkpt><trkpt lat="45.6099858" lon="10.7166164"><ele>386.8</ele><time>2026-03-28T15:06:50.749Z</time></trkpt><trkpt lat="45.6100833" lon="10.7165723"><ele>390.20000000000005</ele><time>2026-03-28T15:06:51.75Z</time></trkpt><trkpt lat="45.6101743" lon="10.7165347"><ele>393.6</ele><time>2026-03-28T15:06:52.751Z</time></trkpt><trkpt lat="45.6102691" lon="10.7164914"><ele>397.0</ele><time>2026-03-28T15:06:53.749Z</time></trkpt><trkpt lat="45.6103629" lon="10.7164513"><ele>399.0</ele><time>2026-03-28T15:06:54.749Z</time></trkpt><trkpt lat="45.6104535" lon="10.7164113"><ele>401.0</ele><time>2026-03-28T15:06:55.75Z</time></trkpt><trkpt lat="45.6105539" lon="10.7163688"><ele>403.0</ele><time>2026-03-28T15:06:56.75Z</time></trkpt><trkpt lat="45.6106617" lon="10.7163368"><ele>405.0</ele><time>2026-03-28T15:06:57.749Z</time></trkpt><trkpt lat="45.6107733" lon="10.7163058"><ele>407.0</ele><time>2026-03-28T15:06:58.749Z</time></trkpt><trkpt lat="45.6108869" lon="10.7162694"><ele>407.0</ele><time>2026-03-28T15:06:59.75Z</time></trkpt><trkpt lat="45.6109995" lon="10.7162397"><ele>407.0</ele><time>2026-03-28T15:07:00.749Z</time></trkpt><trkpt lat="45.6111062" lon="10.7162073"><ele>407.0</ele><time>2026-03-28T15:07:01.75Z</time></trkpt><trkpt lat="45.6112152" lon="10.716172"><ele>407.0</ele><time>2026-03-28T15:07:02.75Z</time></trkpt><trkpt lat="45.611326" lon="10.7161287"><ele>408.8</ele><time>2026-03-28T15:07:03.749Z</time></trkpt><trkpt lat="45.6114315" lon="10.7160856"><ele>410.6</ele><time>2026-03-28T15:07:04.749Z</time></trkpt><trkpt lat="45.6115229" lon="10.7160387"><ele>412.40000000000003</ele><time>2026-03-28T15:07:05.75Z</time></trkpt><trkpt lat="45.6116067" lon="10.716"><ele>414.20000000000005</ele><time>2026-03-28T15:07:06.75Z</time></trkpt><trkpt lat="45.6116952" lon="10.7159672"><ele>416.0</ele><time>2026-03-28T15:07:07.749Z</time></trkpt><trkpt lat="45.6117844" lon="10.7159403"><ele>412.66666666666663</ele><time>2026-03-28T15:07:08.751Z</time></trkpt><trkpt lat="45.6118726" lon="10.7158966"><ele>409.3333333333333</ele><time>2026-03-28T15:07:09.749Z</time></trkpt><trkpt lat="45.6119589" lon="10.7158601"><ele>406.0</ele><time>2026-03-28T15:07:10.749Z</time></trkpt><trkpt lat="45.6120308" lon="10.715838"><ele>402.66666666666663</ele><time>2026-03-28T15:07:11.749Z</time></trkpt><trkpt lat="45.6121015" lon="10.7158424"><ele>399.3333333333333</ele><time>2026-03-28T15:07:12.75Z</time></trkpt><trkpt lat="45.6121757" lon="10.7158644"><ele>396.0</ele><time>2026-03-28T15:07:13.749Z</time></trkpt><trkpt lat="45.6122741" lon="10.7159196"><ele>395.6</ele><time>2026-03-28T15:07:14.749Z</time></trkpt><trkpt lat="45.6123916" lon="10.7159696"><ele>395.20000000000005</ele><time>2026-03-28T15:07:15.75Z</time></trkpt><trkpt lat="45.612486" lon="10.7159989"><ele>394.79999999999995</ele><time>2026-03-28T15:07:16.749Z</time></trkpt><trkpt lat="45.6125758" lon="10.7159949"><ele>394.4</ele><time>2026-03-28T15:07:17.749Z</time></trkpt><trkpt lat="45.6126655" lon="10.7159653"><ele>394.0</ele><time>2026-03-28T15:07:18.75Z</time></trkpt><trkpt lat="45.6127451" lon="10.7159369"><ele>394.00000000000006</ele><time>2026-03-28T15:07:19.749Z</time></trkpt><trkpt lat="45.6128186" lon="10.7159382"><ele>394.0</ele><time>2026-03-28T15:07:20.75Z</time></trkpt><trkpt lat="45.6128814" lon="10.715958"><ele>394.0</ele><time>2026-03-28T15:07:21.75Z</time></trkpt><trkpt lat="45.6129842" lon="10.7160759"><ele>394.0</ele><time>2026-03-28T15:07:23.749Z</time></trkpt><trkpt lat="45.613039" lon="10.7161317"><ele>394.00000000000006</ele><time>2026-03-28T15:07:24.749Z</time></trkpt><trkpt lat="45.6131041" lon="10.7161643"><ele>394.0</ele><time>2026-03-28T15:07:25.75Z</time></trkpt><trkpt lat="45.6131821" lon="10.7161654"><ele>393.33333333333337</ele><time>2026-03-28T15:07:26.75Z</time></trkpt><trkpt lat="45.6132665" lon="10.7161595"><ele>392.6666666666667</ele><time>2026-03-28T15:07:27.749Z</time></trkpt><trkpt lat="45.6133442" lon="10.7161318"><ele>392.0</ele><time>2026-03-28T15:07:28.749Z</time></trkpt><trkpt lat="45.6134112" lon="10.7160959"><ele>391.33333333333337</ele><time>2026-03-28T15:07:29.75Z</time></trkpt><trkpt lat="45.6134726" lon="10.7160683"><ele>390.6666666666667</ele><time>2026-03-28T15:07:30.749Z</time></trkpt><trkpt lat="45.6135324" lon="10.7160399"><ele>390.0</ele><time>2026-03-28T15:07:31.749Z</time></trkpt><trkpt lat="45.613642" lon="10.7160382"><ele>390.3333333333333</ele><time>2026-03-28T15:07:33.75Z</time></trkpt><trkpt lat="45.61372" lon="10.7160493"><ele>390.66666666666663</ele><time>2026-03-28T15:07:34.749Z</time></trkpt><trkpt lat="45.613806" lon="10.716064"><ele>391.0</ele><time>2026-03-28T15:07:35.749Z</time></trkpt><trkpt lat="45.6138914" lon="10.7160859"><ele>391.3333333333333</ele><time>2026-03-28T15:07:36.749Z</time></trkpt><trkpt lat="45.6139787" lon="10.7161209"><ele>391.66666666666663</ele><time>2026-03-28T15:07:37.749Z</time></trkpt><trkpt lat="45.6140546" lon="10.7161513"><ele>392.0</ele><time>2026-03-28T15:07:38.749Z</time></trkpt><trkpt lat="45.6141174" lon="10.7161862"><ele>391.8333333333333</ele><time>2026-03-28T15:07:39.75Z</time></trkpt><trkpt lat="45.6141968" lon="10.7162111"><ele>391.66666666666663</ele><time>2026-03-28T15:07:41.75Z</time></trkpt><trkpt lat="45.6142929" lon="10.7162028"><ele>391.5</ele><time>2026-03-28T15:07:44.75Z</time></trkpt><trkpt lat="45.6143965" lon="10.7161613"><ele>391.33333333333337</ele><time>2026-03-28T15:07:46.75Z</time></trkpt><trkpt lat="45.6144583" lon="10.716132"><ele>391.1666666666667</ele><time>2026-03-28T15:07:47.749Z</time></trkpt><trkpt lat="45.6145263" lon="10.7161053"><ele>391.0</ele><time>2026-03-28T15:07:48.749Z</time></trkpt><trkpt lat="45.6146409" lon="10.7160582"><ele>391.0</ele><time>2026-03-28T15:07:50.749Z</time></trkpt><trkpt lat="45.6147487" lon="10.7159897"><ele>391.0</ele><time>2026-03-28T15:07:52.75Z</time></trkpt><trkpt lat="45.6148054" lon="10.7159474"><ele>391.0</ele><time>2026-03-28T15:07:53.75Z</time></trkpt><trkpt lat="45.6149014" lon="10.7158482"><ele>391.0</ele><time>2026-03-28T15:07:55.749Z</time></trkpt><trkpt lat="45.6149928" lon="10.7157521"><ele>391.0</ele><time>2026-03-28T15:07:57.749Z</time></trkpt><trkpt lat="45.615087" lon="10.7156628"><ele>391.0</ele><time>2026-03-28T15:07:59.749Z</time></trkpt><trkpt lat="45.6151624" lon="10.7156005"><ele>391.0</ele><time>2026-03-28T15:08:01.75Z</time></trkpt><trkpt lat="45.615233" lon="10.7155665"><ele>391.0</ele><time>2026-03-28T15:08:05.749Z</time></trkpt><trkpt lat="45.6153368" lon="10.7155187"><ele>391.0</ele><time>2026-03-28T15:08:08.749Z</time></trkpt><trkpt lat="45.6154392" lon="10.715441"><ele>391.0</ele><time>2026-03-28T15:08:10.75Z</time></trkpt><trkpt lat="45.6154959" lon="10.7153923"><ele>391.85714285714283</ele><time>2026-03-28T15:08:11.75Z</time></trkpt><trkpt lat="45.615552" lon="10.7153249"><ele>392.7142857142857</ele><time>2026-03-28T15:08:12.749Z</time></trkpt><trkpt lat="45.6156041" lon="10.7152665"><ele>393.57142857142856</ele><time>2026-03-28T15:08:13.75Z</time></trkpt><trkpt lat="45.6156707" lon="10.7151678"><ele>394.42857142857144</ele><time>2026-03-28T15:08:15.749Z</time></trkpt><trkpt lat="45.6156698" lon="10.7152752"><ele>395.2857142857143</ele><time>2026-03-28T15:16:46.749Z</time></trkpt><trkpt lat="45.6156647" lon="10.7153664"><ele>396.1428571428571</ele><time>2026-03-28T15:17:15.749Z</time></trkpt><trkpt lat="45.615643" lon="10.7152803"><ele>397.0</ele><time>2026-03-28T15:18:11.748Z</time></trkpt><trkpt lat="45.6155726" lon="10.715308"><ele>397.0</ele><time>2026-03-28T15:18:16.748Z</time></trkpt><trkpt lat="45.6155158" lon="10.7153661"><ele>397.0</ele><time>2026-03-28T15:18:34.749Z</time></trkpt><trkpt lat="45.6154477" lon="10.7154148"><ele>397.0</ele><time>2026-03-28T15:18:37.749Z</time></trkpt><trkpt lat="45.6153795" lon="10.715452"><ele>397.0</ele><time>2026-03-28T15:18:41.749Z</time></trkpt><trkpt lat="45.6153368" lon="10.7155267"><ele>397.0</ele><time>2026-03-28T15:20:04.748Z</time></trkpt><trkpt lat="45.615281" lon="10.7156087"><ele>397.0</ele><time>2026-03-28T15:20:07.749Z</time></trkpt><trkpt lat="45.6152256" lon="10.7156765"><ele>397.0</ele><time>2026-03-28T15:20:10.748Z</time></trkpt><trkpt lat="45.6151483" lon="10.7157277"><ele>396.00000000000006</ele><time>2026-03-28T15:20:12.748Z</time></trkpt><trkpt lat="45.6150469" lon="10.7157821"><ele>395.0</ele><time>2026-03-28T15:20:14.749Z</time></trkpt><trkpt lat="45.6149823" lon="10.7158165"><ele>394.0</ele><time>2026-03-28T15:20:16.748Z</time></trkpt><trkpt lat="45.6149097" lon="10.7158165"><ele>393.0</ele><time>2026-03-28T15:20:28.748Z</time></trkpt><trkpt lat="45.6148389" lon="10.7158901"><ele>392.00000000000006</ele><time>2026-03-28T15:20:31.748Z</time></trkpt><trkpt lat="45.614762" lon="10.7159658"><ele>391.0</ele><time>2026-03-28T15:20:34.749Z</time></trkpt><trkpt lat="45.6146843" lon="10.7160147"><ele>391.0</ele><time>2026-03-28T15:20:36.748Z</time></trkpt><trkpt lat="45.6145779" lon="10.7160675"><ele>391.0</ele><time>2026-03-28T15:20:38.749Z</time></trkpt><trkpt lat="45.6144791" lon="10.7161056"><ele>391.0</ele><time>2026-03-28T15:20:40.749Z</time></trkpt><trkpt lat="45.6143842" lon="10.7161382"><ele>391.0</ele><time>2026-03-28T15:20:42.749Z</time></trkpt><trkpt lat="45.6143175" lon="10.7161624"><ele>391.0</ele><time>2026-03-28T15:20:44.748Z</time></trkpt><trkpt lat="45.6142332" lon="10.716188"><ele>391.1666666666667</ele><time>2026-03-28T15:20:47.749Z</time></trkpt><trkpt lat="45.6141449" lon="10.7161802"><ele>391.33333333333337</ele><time>2026-03-28T15:20:50.748Z</time></trkpt><trkpt lat="45.6140724" lon="10.7161488"><ele>391.5</ele><time>2026-03-28T15:20:52.749Z</time></trkpt><trkpt lat="45.6139936" lon="10.7161054"><ele>391.66666666666663</ele><time>2026-03-28T15:20:54.749Z</time></trkpt><trkpt lat="45.6138948" lon="10.7160752"><ele>391.8333333333333</ele><time>2026-03-28T15:20:56.748Z</time></trkpt><trkpt lat="45.6138096" lon="10.7160521"><ele>392.0</ele><time>2026-03-28T15:20:58.749Z</time></trkpt><trkpt lat="45.6137367" lon="10.7160386"><ele>391.99999999999994</ele><time>2026-03-28T15:21:00.748Z</time></trkpt><trkpt lat="45.6136639" lon="10.7160253"><ele>392.0</ele><time>2026-03-28T15:21:02.748Z</time></trkpt><trkpt lat="45.6135808" lon="10.7160142"><ele>392.0</ele><time>2026-03-28T15:21:04.749Z</time></trkpt><trkpt lat="45.6135038" lon="10.7160291"><ele>392.0</ele><time>2026-03-28T15:21:06.748Z</time></trkpt><trkpt lat="45.6133855" lon="10.7160971"><ele>391.99999999999994</ele><time>2026-03-28T15:21:08.748Z</time></trkpt><trkpt lat="45.6133189" lon="10.7161257"><ele>392.0</ele><time>2026-03-28T15:21:09.748Z</time></trkpt><trkpt lat="45.6132499" lon="10.7161471"><ele>391.6</ele><time>2026-03-28T15:21:10.749Z</time></trkpt><trkpt lat="45.6131813" lon="10.7161672"><ele>391.20000000000005</ele><time>2026-03-28T15:21:11.748Z</time></trkpt><trkpt lat="45.613116" lon="10.7161676"><ele>390.8</ele><time>2026-03-28T15:21:12.749Z</time></trkpt><trkpt lat="45.613021" lon="10.7161025"><ele>390.4</ele><time>2026-03-28T15:21:14.748Z</time></trkpt><trkpt lat="45.6129412" lon="10.715989"><ele>390.0</ele><time>2026-03-28T15:21:16.748Z</time></trkpt><trkpt lat="45.6128476" lon="10.7159273"><ele>390.8</ele><time>2026-03-28T15:21:18.749Z</time></trkpt><trkpt lat="45.6127345" lon="10.7159246"><ele>391.6</ele><time>2026-03-28T15:21:20.748Z</time></trkpt><trkpt lat="45.6126215" lon="10.7159707"><ele>392.4</ele><time>2026-03-28T15:21:22.748Z</time></trkpt><trkpt lat="45.6124985" lon="10.7159856"><ele>393.2</ele><time>2026-03-28T15:21:24.749Z</time></trkpt><trkpt lat="45.6124341" lon="10.7159765"><ele>394.0</ele><time>2026-03-28T15:21:25.749Z</time></trkpt><trkpt lat="45.6123695" lon="10.7159465"><ele>394.0</ele><time>2026-03-28T15:21:26.748Z</time></trkpt><trkpt lat="45.6123034" lon="10.7159063"><ele>394.0</ele><time>2026-03-28T15:21:27.749Z</time></trkpt><trkpt lat="45.6122014" lon="10.7158494"><ele>394.0</ele><time>2026-03-28T15:21:29.748Z</time></trkpt><trkpt lat="45.6121113" lon="10.7158154"><ele>394.0</ele><time>2026-03-28T15:21:31.748Z</time></trkpt><trkpt lat="45.6120153" lon="10.7158188"><ele>394.0</ele><time>2026-03-28T15:21:33.749Z</time></trkpt><trkpt lat="45.6119015" lon="10.7158725"><ele>394.2857142857143</ele><time>2026-03-28T15:21:35.749Z</time></trkpt><trkpt lat="45.6118347" lon="10.7159005"><ele>394.57142857142856</ele><time>2026-03-28T15:21:36.749Z</time></trkpt><trkpt lat="45.6117673" lon="10.7159236"><ele>394.8571428571429</ele><time>2026-03-28T15:21:37.748Z</time></trkpt><trkpt lat="45.611694" lon="10.7159447"><ele>395.1428571428571</ele><time>2026-03-28T15:21:38.748Z</time></trkpt><trkpt lat="45.6116283" lon="10.7159733"><ele>395.4285714285714</ele><time>2026-03-28T15:21:39.748Z</time></trkpt><trkpt lat="45.6115599" lon="10.7160042"><ele>395.7142857142857</ele><time>2026-03-28T15:21:40.748Z</time></trkpt><trkpt lat="45.6114894" lon="10.7160389"><ele>396.0</ele><time>2026-03-28T15:21:41.749Z</time></trkpt><trkpt lat="45.6114185" lon="10.7160749"><ele>397.8333333333333</ele><time>2026-03-28T15:21:42.749Z</time></trkpt><trkpt lat="45.6113417" lon="10.7161086"><ele>399.66666666666663</ele><time>2026-03-28T15:21:43.748Z</time></trkpt><trkpt lat="45.6112545" lon="10.7161404"><ele>401.5</ele><time>2026-03-28T15:21:44.748Z</time></trkpt><trkpt lat="45.6111682" lon="10.7161743"><ele>403.3333333333333</ele><time>2026-03-28T15:21:45.749Z</time></trkpt><trkpt lat="45.6110858" lon="10.7162045"><ele>405.16666666666663</ele><time>2026-03-28T15:21:46.748Z</time></trkpt><trkpt lat="45.6110045" lon="10.7162252"><ele>407.0</ele><time>2026-03-28T15:21:47.748Z</time></trkpt><trkpt lat="45.6109132" lon="10.7162501"><ele>406.99999999999994</ele><time>2026-03-28T15:21:48.748Z</time></trkpt><trkpt lat="45.6108277" lon="10.7162774"><ele>407.0</ele><time>2026-03-28T15:21:49.748Z</time></trkpt><trkpt lat="45.6107443" lon="10.7163032"><ele>407.0</ele><time>2026-03-28T15:21:50.748Z</time></trkpt><trkpt lat="45.6106615" lon="10.716327"><ele>407.0</ele><time>2026-03-28T15:21:51.749Z</time></trkpt><trkpt lat="45.6105743" lon="10.7163534"><ele>406.99999999999994</ele><time>2026-03-28T15:21:52.748Z</time></trkpt><trkpt lat="45.6104873" lon="10.7163895"><ele>407.0</ele><time>2026-03-28T15:21:53.749Z</time></trkpt><trkpt lat="45.6103985" lon="10.7164284"><ele>405.0</ele><time>2026-03-28T15:21:54.748Z</time></trkpt><trkpt lat="45.6103105" lon="10.7164687"><ele>403.0</ele><time>2026-03-28T15:21:55.748Z</time></trkpt><trkpt lat="45.6102205" lon="10.7165036"><ele>401.0</ele><time>2026-03-28T15:21:56.748Z</time></trkpt><trkpt lat="45.6101316" lon="10.7165422"><ele>399.0</ele><time>2026-03-28T15:21:57.749Z</time></trkpt><trkpt lat="45.610042" lon="10.7165803"><ele>397.0</ele><time>2026-03-28T15:21:58.749Z</time></trkpt><trkpt lat="45.609954" lon="10.7166132"><ele>397.00000000000006</ele><time>2026-03-28T15:21:59.749Z</time></trkpt><trkpt lat="45.6098639" lon="10.7166365"><ele>397.0</ele><time>2026-03-28T15:22:00.749Z</time></trkpt><trkpt lat="45.6097756" lon="10.7166592"><ele>397.0</ele><time>2026-03-28T15:22:01.748Z</time></trkpt><trkpt lat="45.6096912" lon="10.7166723"><ele>397.0</ele><time>2026-03-28T15:22:02.748Z</time></trkpt><trkpt lat="45.60961" lon="10.7166924"><ele>397.00000000000006</ele><time>2026-03-28T15:22:03.749Z</time></trkpt><trkpt lat="45.6095236" lon="10.7167165"><ele>397.0</ele><time>2026-03-28T15:22:04.749Z</time></trkpt><trkpt lat="45.6094451" lon="10.7167427"><ele>396.00000000000006</ele><time>2026-03-28T15:22:05.748Z</time></trkpt><trkpt lat="45.6093701" lon="10.7167689"><ele>395.0</ele><time>2026-03-28T15:22:06.748Z</time></trkpt><trkpt lat="45.6092978" lon="10.716798"><ele>394.0</ele><time>2026-03-28T15:22:07.748Z</time></trkpt><trkpt lat="45.6092347" lon="10.7168181"><ele>393.0</ele><time>2026-03-28T15:22:08.748Z</time></trkpt><trkpt lat="45.6091224" lon="10.7168526"><ele>392.00000000000006</ele><time>2026-03-28T15:22:10.748Z</time></trkpt><trkpt lat="45.6090247" lon="10.7168983"><ele>391.0</ele><time>2026-03-28T15:22:12.749Z</time></trkpt><trkpt lat="45.6089427" lon="10.7169523"><ele>391.00000000000006</ele><time>2026-03-28T15:22:14.748Z</time></trkpt><trkpt lat="45.6088865" lon="10.7169954"><ele>391.0</ele><time>2026-03-28T15:22:45.748Z</time></trkpt><trkpt lat="45.6088175" lon="10.7170374"><ele>391.0</ele><time>2026-03-28T15:22:47.748Z</time></trkpt><trkpt lat="45.6087266" lon="10.7171014"><ele>391.0</ele><time>2026-03-28T15:22:49.749Z</time></trkpt><trkpt lat="45.6086529" lon="10.7171482"><ele>391.00000000000006</ele><time>2026-03-28T15:22:51.748Z</time></trkpt><trkpt lat="45.6085757" lon="10.7171811"><ele>391.0</ele><time>2026-03-28T15:22:53.749Z</time></trkpt><trkpt lat="45.6084841" lon="10.7171847"><ele>388.33333333333337</ele><time>2026-03-28T15:22:55.748Z</time></trkpt><trkpt lat="45.6083926" lon="10.7171759"><ele>385.6666666666667</ele><time>2026-03-28T15:22:57.748Z</time></trkpt><trkpt lat="45.6083112" lon="10.7171659"><ele>383.0</ele><time>2026-03-28T15:22:59.749Z</time></trkpt><trkpt lat="45.6082386" lon="10.7171415"><ele>380.33333333333337</ele><time>2026-03-28T15:23:01.749Z</time></trkpt><trkpt lat="45.6081641" lon="10.7171186"><ele>377.6666666666667</ele><time>2026-03-28T15:23:03.749Z</time></trkpt><trkpt lat="45.6080749" lon="10.7171131"><ele>375.0</ele><time>2026-03-28T15:23:05.749Z</time></trkpt><trkpt lat="45.6079871" lon="10.7171148"><ele>375.0</ele><time>2026-03-28T15:23:07.748Z</time></trkpt><trkpt lat="45.60788" lon="10.7171091"><ele>375.0</ele><time>2026-03-28T15:23:09.748Z</time></trkpt><trkpt lat="45.6077909" lon="10.7171139"><ele>375.0</ele><time>2026-03-28T15:23:11.748Z</time></trkpt><trkpt lat="45.6076934" lon="10.7171179"><ele>375.0</ele><time>2026-03-28T15:23:13.749Z</time></trkpt><trkpt lat="45.6075926" lon="10.7171131"><ele>375.0</ele><time>2026-03-28T15:23:15.748Z</time></trkpt><trkpt lat="45.6075091" lon="10.7171084"><ele>372.6666666666667</ele><time>2026-03-28T15:23:17.749Z</time></trkpt><trkpt lat="45.6074459" lon="10.7171098"><ele>370.3333333333333</ele><time>2026-03-28T15:23:19.748Z</time></trkpt><trkpt lat="45.6073667" lon="10.7170969"><ele>368.0</ele><time>2026-03-28T15:23:22.749Z</time></trkpt><trkpt lat="45.6072882" lon="10.7170892"><ele>365.66666666666663</ele><time>2026-03-28T15:23:25.749Z</time></trkpt><trkpt lat="45.6072552" lon="10.7172006"><ele>363.3333333333333</ele><time>2026-03-28T15:23:28.748Z</time></trkpt><trkpt lat="45.6072464" lon="10.7173175"><ele>361.0</ele><time>2026-03-28T15:23:30.749Z</time></trkpt><trkpt lat="45.6072397" lon="10.7174456"><ele>361.0</ele><time>2026-03-28T15:23:32.749Z</time></trkpt><trkpt lat="45.6072305" lon="10.7175805"><ele>361.0</ele><time>2026-03-28T15:23:34.748Z</time></trkpt><trkpt lat="45.6072281" lon="10.7177043"><ele>361.0</ele><time>2026-03-28T15:23:36.749Z</time></trkpt><trkpt lat="45.6072393" lon="10.7178653"><ele>361.0</ele><time>2026-03-28T15:23:38.749Z</time></trkpt><trkpt lat="45.6072434" lon="10.7179654"><ele>361.0</ele><time>2026-03-28T15:23:39.749Z</time></trkpt><trkpt lat="45.6072558" lon="10.7180568"><ele>361.0</ele><time>2026-03-28T15:23:40.748Z</time></trkpt><trkpt lat="45.607273" lon="10.7181565"><ele>361.20000000000005</ele><time>2026-03-28T15:23:41.749Z</time></trkpt><trkpt lat="45.607283" lon="10.71825"><ele>361.40000000000003</ele><time>2026-03-28T15:23:42.749Z</time></trkpt><trkpt lat="45.6073053" lon="10.7184223"><ele>361.6</ele><time>2026-03-28T15:23:44.749Z</time></trkpt><trkpt lat="45.6072692" lon="10.718564"><ele>361.8</ele><time>2026-03-28T15:23:46.749Z</time></trkpt><trkpt lat="45.6071879" lon="10.7186653"><ele>362.0</ele><time>2026-03-28T15:23:48.749Z</time></trkpt><trkpt lat="45.6071232" lon="10.7187172"><ele>362.0</ele><time>2026-03-28T15:23:49.749Z</time></trkpt><trkpt lat="45.6070496" lon="10.7187835"><ele>362.0</ele><time>2026-03-28T15:23:50.748Z</time></trkpt><trkpt lat="45.6069829" lon="10.7188443"><ele>362.0</ele><time>2026-03-28T15:23:51.748Z</time></trkpt><trkpt lat="45.6069234" lon="10.7189075"><ele>362.0</ele><time>2026-03-28T15:23:52.748Z</time></trkpt><trkpt lat="45.6068667" lon="10.7189632"><ele>362.0</ele><time>2026-03-28T15:23:53.749Z</time></trkpt><trkpt lat="45.6068142" lon="10.7190165"><ele>362.0</ele><time>2026-03-28T15:23:54.75Z</time></trkpt><trkpt lat="45.6067295" lon="10.7191091"><ele>359.33333333333337</ele><time>2026-03-28T15:23:56.748Z</time></trkpt><trkpt lat="45.6066751" lon="10.7191944"><ele>356.6666666666667</ele><time>2026-03-28T15:23:58.749Z</time></trkpt><trkpt lat="45.6066656" lon="10.7193122"><ele>354.0</ele><time>2026-03-28T15:24:01.748Z</time></trkpt><trkpt lat="45.6066843" lon="10.7194113"><ele>351.3333333333333</ele><time>2026-03-28T15:24:03.748Z</time></trkpt><trkpt lat="45.6067206" lon="10.71952"><ele>348.66666666666663</ele><time>2026-03-28T15:24:05.749Z</time></trkpt><trkpt lat="45.6067469" lon="10.7196606"><ele>346.0</ele><time>2026-03-28T15:24:07.748Z</time></trkpt><trkpt lat="45.6067497" lon="10.7197984"><ele>345.3333333333333</ele><time>2026-03-28T15:24:09.749Z</time></trkpt><trkpt lat="45.6067179" lon="10.7198953"><ele>344.66666666666663</ele><time>2026-03-28T15:24:12.748Z</time></trkpt><trkpt lat="45.6066155" lon="10.7200035"><ele>344.0</ele><time>2026-03-28T15:25:29.742Z</time></trkpt><trkpt lat="45.6065529" lon="10.7200605"><ele>343.3333333333333</ele><time>2026-03-28T15:25:30.746Z</time></trkpt><trkpt lat="45.6064825" lon="10.7201233"><ele>342.6666666666667</ele><time>2026-03-28T15:25:31.749Z</time></trkpt><trkpt lat="45.6064094" lon="10.7201937"><ele>342.0</ele><time>2026-03-28T15:25:32.742Z</time></trkpt><trkpt lat="45.6063439" lon="10.7202627"><ele>341.0</ele><time>2026-03-28T15:25:33.751Z</time></trkpt><trkpt lat="45.6062822" lon="10.7203372"><ele>340.0</ele><time>2026-03-28T15:25:34.753Z</time></trkpt><trkpt lat="45.6062304" lon="10.7204203"><ele>339.0</ele><time>2026-03-28T15:25:35.743Z</time></trkpt><trkpt lat="45.606184" lon="10.7205206"><ele>338.0</ele><time>2026-03-28T15:25:36.753Z</time></trkpt><trkpt lat="45.6061447" lon="10.7206505"><ele>337.0</ele><time>2026-03-28T15:25:37.752Z</time></trkpt><trkpt lat="45.6061142" lon="10.7207943"><ele>336.0</ele><time>2026-03-28T15:25:38.755Z</time></trkpt><trkpt lat="45.6060804" lon="10.720932"><ele>334.8333333333333</ele><time>2026-03-28T15:25:39.743Z</time></trkpt><trkpt lat="45.6060423" lon="10.7210431"><ele>333.6666666666667</ele><time>2026-03-28T15:25:40.744Z</time></trkpt><trkpt lat="45.6059951" lon="10.7211369"><ele>332.5</ele><time>2026-03-28T15:25:41.75Z</time></trkpt><trkpt lat="45.6059297" lon="10.7211959"><ele>331.33333333333337</ele><time>2026-03-28T15:25:42.749Z</time></trkpt><trkpt lat="45.6058532" lon="10.7212415"><ele>330.1666666666667</ele><time>2026-03-28T15:25:43.751Z</time></trkpt><trkpt lat="45.6057694" lon="10.721274"><ele>329.0</ele><time>2026-03-28T15:25:44.751Z</time></trkpt><trkpt lat="45.6056815" lon="10.721301"><ele>328.83333333333337</ele><time>2026-03-28T15:25:45.752Z</time></trkpt><trkpt lat="45.6055961" lon="10.7213332"><ele>328.6666666666667</ele><time>2026-03-28T15:25:46.748Z</time></trkpt><trkpt lat="45.6055197" lon="10.7214021"><ele>328.5</ele><time>2026-03-28T15:25:47.748Z</time></trkpt><trkpt lat="45.6054516" lon="10.7215002"><ele>328.3333333333333</ele><time>2026-03-28T15:25:48.742Z</time></trkpt><trkpt lat="45.6053904" lon="10.7216001"><ele>328.16666666666663</ele><time>2026-03-28T15:25:49.753Z</time></trkpt><trkpt lat="45.6053353" lon="10.7216789"><ele>328.0</ele><time>2026-03-28T15:25:50.754Z</time></trkpt><trkpt lat="45.6052877" lon="10.7217561"><ele>326.8333333333333</ele><time>2026-03-28T15:25:51.742Z</time></trkpt><trkpt lat="45.6052684" lon="10.7218458"><ele>325.66666666666663</ele><time>2026-03-28T15:25:52.754Z</time></trkpt><trkpt lat="45.6052724" lon="10.7219563"><ele>324.5</ele><time>2026-03-28T15:25:53.743Z</time></trkpt><trkpt lat="45.6052922" lon="10.7220801"><ele>323.3333333333333</ele><time>2026-03-28T15:25:54.745Z</time></trkpt><trkpt lat="45.6053182" lon="10.7222013"><ele>322.1666666666667</ele><time>2026-03-28T15:25:55.754Z</time></trkpt><trkpt lat="45.6053658" lon="10.722293"><ele>321.0</ele><time>2026-03-28T15:25:56.752Z</time></trkpt><trkpt lat="45.6054426" lon="10.7223493"><ele>319.5</ele><time>2026-03-28T15:25:57.751Z</time></trkpt><trkpt lat="45.6055442" lon="10.7223732"><ele>318.0</ele><time>2026-03-28T15:25:58.75Z</time></trkpt><trkpt lat="45.6056593" lon="10.7224002"><ele>316.5</ele><time>2026-03-28T15:25:59.753Z</time></trkpt><trkpt lat="45.6057859" lon="10.7224416"><ele>315.0</ele><time>2026-03-28T15:26:00.755Z</time></trkpt><trkpt lat="45.6059204" lon="10.7224791"><ele>315.0</ele><time>2026-03-28T15:26:01.746Z</time></trkpt><trkpt lat="45.6060546" lon="10.7225052"><ele>315.0</ele><time>2026-03-28T15:26:02.746Z</time></trkpt><trkpt lat="45.6061911" lon="10.7225319"><ele>315.0</ele><time>2026-03-28T15:26:03.744Z</time></trkpt><trkpt lat="45.6063228" lon="10.7225776"><ele>315.0</ele><time>2026-03-28T15:26:04.753Z</time></trkpt><trkpt lat="45.6064467" lon="10.7226549"><ele>312.4</ele><time>2026-03-28T15:26:05.745Z</time></trkpt><trkpt lat="45.6065555" lon="10.722737"><ele>309.8</ele><time>2026-03-28T15:26:06.754Z</time></trkpt><trkpt lat="45.6066453" lon="10.7228193"><ele>307.2</ele><time>2026-03-28T15:26:07.744Z</time></trkpt><trkpt lat="45.6066991" lon="10.7229111"><ele>304.6</ele><time>2026-03-28T15:26:08.75Z</time></trkpt><trkpt lat="45.6067263" lon="10.723013"><ele>302.0</ele><time>2026-03-28T15:26:09.742Z</time></trkpt><trkpt lat="45.606717" lon="10.7231042"><ele>302.0</ele><time>2026-03-28T15:26:10.753Z</time></trkpt><trkpt lat="45.6066291" lon="10.7231824"><ele>302.0</ele><time>2026-03-28T15:26:12.753Z</time></trkpt><trkpt lat="45.6065634" lon="10.7231548"><ele>302.0</ele><time>2026-03-28T15:26:13.745Z</time></trkpt><trkpt lat="45.606491" lon="10.7230866"><ele>302.0</ele><time>2026-03-28T15:26:14.753Z</time></trkpt><trkpt lat="45.6064033" lon="10.7229877"><ele>302.0</ele><time>2026-03-28T15:26:15.743Z</time></trkpt><trkpt lat="45.606288" lon="10.7228744"><ele>300.6666666666667</ele><time>2026-03-28T15:26:16.744Z</time></trkpt><trkpt lat="45.6061419" lon="10.7227847"><ele>299.3333333333333</ele><time>2026-03-28T15:26:17.753Z</time></trkpt><trkpt lat="45.6059732" lon="10.7227266"><ele>298.0</ele><time>2026-03-28T15:26:18.749Z</time></trkpt><trkpt lat="45.6057906" lon="10.7227024"><ele>298.0</ele><time>2026-03-28T15:26:19.753Z</time></trkpt><trkpt lat="45.6056003" lon="10.7227162"><ele>298.0</ele><time>2026-03-28T15:26:20.741Z</time></trkpt><trkpt lat="45.6054106" lon="10.722767"><ele>298.0</ele><time>2026-03-28T15:26:21.744Z</time></trkpt><trkpt lat="45.6052328" lon="10.7228281"><ele>296.66666666666663</ele><time>2026-03-28T15:26:22.752Z</time></trkpt><trkpt lat="45.6050634" lon="10.7228821"><ele>295.3333333333333</ele><time>2026-03-28T15:26:23.749Z</time></trkpt><trkpt lat="45.6048874" lon="10.7229147"><ele>294.0</ele><time>2026-03-28T15:26:24.755Z</time></trkpt><trkpt lat="45.6047061" lon="10.7229331"><ele>294.0</ele><time>2026-03-28T15:26:25.743Z</time></trkpt><trkpt lat="45.6045245" lon="10.7229058"><ele>294.0</ele><time>2026-03-28T15:26:26.752Z</time></trkpt><trkpt lat="45.604338" lon="10.7228678"><ele>294.0</ele><time>2026-03-28T15:26:27.75Z</time></trkpt><trkpt lat="45.6041516" lon="10.7228114"><ele>294.6666666666667</ele><time>2026-03-28T15:26:28.747Z</time></trkpt><trkpt lat="45.6039605" lon="10.7227681"><ele>295.33333333333337</ele><time>2026-03-28T15:26:29.75Z</time></trkpt><trkpt lat="45.6037716" lon="10.7227144"><ele>296.0</ele><time>2026-03-28T15:26:30.75Z</time></trkpt><trkpt lat="45.6035816" lon="10.7226554"><ele>296.0</ele><time>2026-03-28T15:26:31.745Z</time></trkpt><trkpt lat="45.6033983" lon="10.7225985"><ele>296.0</ele><time>2026-03-28T15:26:32.75Z</time></trkpt><trkpt lat="45.6032201" lon="10.7225692"><ele>296.0</ele><time>2026-03-28T15:26:33.75Z</time></trkpt><trkpt lat="45.603053" lon="10.7225565"><ele>296.0</ele><time>2026-03-28T15:26:34.75Z</time></trkpt><trkpt lat="45.602901" lon="10.7225541"><ele>296.0</ele><time>2026-03-28T15:26:35.75Z</time></trkpt><trkpt lat="45.602761" lon="10.7225586"><ele>296.0</ele><time>2026-03-28T15:26:36.75Z</time></trkpt><trkpt lat="45.602631" lon="10.7225467"><ele>296.0</ele><time>2026-03-28T15:26:37.75Z</time></trkpt><trkpt lat="45.6025093" lon="10.722504"><ele>294.75</ele><time>2026-03-28T15:26:38.75Z</time></trkpt><trkpt lat="45.602407" lon="10.7224139"><ele>293.5</ele><time>2026-03-28T15:26:39.75Z</time></trkpt><trkpt lat="45.6022949" lon="10.722361"><ele>292.25</ele><time>2026-03-28T15:26:40.751Z</time></trkpt><trkpt lat="45.6021652" lon="10.7223401"><ele>291.0</ele><time>2026-03-28T15:26:41.75Z</time></trkpt><trkpt lat="45.6020323" lon="10.7223001"><ele>290.25</ele><time>2026-03-28T15:26:42.75Z</time></trkpt><trkpt lat="45.6019043" lon="10.7222206"><ele>289.5</ele><time>2026-03-28T15:26:43.75Z</time></trkpt><trkpt lat="45.6017891" lon="10.7221002"><ele>288.75</ele><time>2026-03-28T15:26:44.75Z</time></trkpt><trkpt lat="45.6016876" lon="10.7219425"><ele>288.0</ele><time>2026-03-28T15:26:45.75Z</time></trkpt><trkpt lat="45.6016034" lon="10.7217593"><ele>288.0</ele><time>2026-03-28T15:26:46.75Z</time></trkpt><trkpt lat="45.6015125" lon="10.7215654"><ele>288.0</ele><time>2026-03-28T15:26:47.75Z</time></trkpt><trkpt lat="45.6014154" lon="10.7213763"><ele>288.0</ele><time>2026-03-28T15:26:48.75Z</time></trkpt><trkpt lat="45.6013106" lon="10.7211935"><ele>286.6666666666667</ele><time>2026-03-28T15:26:49.75Z</time></trkpt><trkpt lat="45.6011922" lon="10.7210296"><ele>285.33333333333337</ele><time>2026-03-28T15:26:50.75Z</time></trkpt><trkpt lat="45.6010578" lon="10.7208935"><ele>284.0</ele><time>2026-03-28T15:26:51.75Z</time></trkpt><trkpt lat="45.6009115" lon="10.7207797"><ele>284.0</ele><time>2026-03-28T15:26:52.75Z</time></trkpt><trkpt lat="45.6007546" lon="10.7206742"><ele>284.0</ele><time>2026-03-28T15:26:53.75Z</time></trkpt><trkpt lat="45.6006032" lon="10.7205703"><ele>284.0</ele><time>2026-03-28T15:26:54.75Z</time></trkpt><trkpt lat="45.60046" lon="10.7204572"><ele>284.0</ele><time>2026-03-28T15:26:55.75Z</time></trkpt><trkpt lat="45.6003136" lon="10.72033"><ele>284.0</ele><time>2026-03-28T15:26:56.75Z</time></trkpt><trkpt lat="45.6001747" lon="10.720184"><ele>284.0</ele><time>2026-03-28T15:26:57.75Z</time></trkpt><trkpt lat="45.6000455" lon="10.7200315"><ele>284.0</ele><time>2026-03-28T15:26:58.75Z</time></trkpt><trkpt lat="45.5999282" lon="10.719881"><ele>284.0</ele><time>2026-03-28T15:26:59.75Z</time></trkpt><trkpt lat="45.5998167" lon="10.7197068"><ele>284.0</ele><time>2026-03-28T15:27:00.75Z</time></trkpt><trkpt lat="45.5997139" lon="10.7195059"><ele>285.0</ele><time>2026-03-28T15:27:01.751Z</time></trkpt><trkpt lat="45.599618" lon="10.7192882"><ele>286.0</ele><time>2026-03-28T15:27:02.75Z</time></trkpt><trkpt lat="45.5995217" lon="10.7190603"><ele>287.0</ele><time>2026-03-28T15:27:03.75Z</time></trkpt><trkpt lat="45.5994202" lon="10.7188264"><ele>284.0</ele><time>2026-03-28T15:27:04.75Z</time></trkpt><trkpt lat="45.5992987" lon="10.7186054"><ele>281.0</ele><time>2026-03-28T15:27:05.751Z</time></trkpt><trkpt lat="45.5991532" lon="10.7184063"><ele>278.0</ele><time>2026-03-28T15:27:06.75Z</time></trkpt><trkpt lat="45.5989981" lon="10.7182178"><ele>277.6666666666667</ele><time>2026-03-28T15:27:07.75Z</time></trkpt><trkpt lat="45.5988386" lon="10.7180366"><ele>277.3333333333333</ele><time>2026-03-28T15:27:08.75Z</time></trkpt><trkpt lat="45.5986769" lon="10.7178693"><ele>277.0</ele><time>2026-03-28T15:27:09.75Z</time></trkpt><trkpt lat="45.5985032" lon="10.7177406"><ele>278.3333333333333</ele><time>2026-03-28T15:27:10.75Z</time></trkpt><trkpt lat="45.5983166" lon="10.7176432"><ele>279.6666666666667</ele><time>2026-03-28T15:27:11.75Z</time></trkpt><trkpt lat="45.5981189" lon="10.7175504"><ele>281.0</ele><time>2026-03-28T15:27:12.75Z</time></trkpt><trkpt lat="45.5979122" lon="10.7174541"><ele>279.33333333333337</ele><time>2026-03-28T15:27:13.75Z</time></trkpt><trkpt lat="45.597704" lon="10.7173568"><ele>277.6666666666667</ele><time>2026-03-28T15:27:14.75Z</time></trkpt><trkpt lat="45.5975132" lon="10.7172609"><ele>276.0</ele><time>2026-03-28T15:27:15.75Z</time></trkpt><trkpt lat="45.5973379" lon="10.717157"><ele>276.0</ele><time>2026-03-28T15:27:16.75Z</time></trkpt><trkpt lat="45.5971779" lon="10.7170303"><ele>276.0</ele><time>2026-03-28T15:27:17.75Z</time></trkpt><trkpt lat="45.5970346" lon="10.7168791"><ele>276.0</ele><time>2026-03-28T15:27:18.75Z</time></trkpt><trkpt lat="45.5969035" lon="10.7167181"><ele>277.6666666666667</ele><time>2026-03-28T15:27:19.75Z</time></trkpt><trkpt lat="45.5967777" lon="10.716548"><ele>279.33333333333337</ele><time>2026-03-28T15:27:20.75Z</time></trkpt><trkpt lat="45.5966482" lon="10.7163724"><ele>281.0</ele><time>2026-03-28T15:27:21.75Z</time></trkpt><trkpt lat="45.5965179" lon="10.7161898"><ele>281.33333333333337</ele><time>2026-03-28T15:27:22.75Z</time></trkpt><trkpt lat="45.5963839" lon="10.7160035"><ele>281.6666666666667</ele><time>2026-03-28T15:27:23.75Z</time></trkpt><trkpt lat="45.5962525" lon="10.7158219"><ele>282.0</ele><time>2026-03-28T15:27:24.751Z</time></trkpt><trkpt lat="45.5961301" lon="10.7156463"><ele>283.0</ele><time>2026-03-28T15:27:25.75Z</time></trkpt><trkpt lat="45.5960148" lon="10.7154796"><ele>284.0</ele><time>2026-03-28T15:27:26.75Z</time></trkpt><trkpt lat="45.5959036" lon="10.7153229"><ele>285.0</ele><time>2026-03-28T15:27:27.75Z</time></trkpt><trkpt lat="45.5957997" lon="10.7151715"><ele>286.5</ele><time>2026-03-28T15:27:28.75Z</time></trkpt><trkpt lat="45.595702" lon="10.715026"><ele>288.0</ele><time>2026-03-28T15:27:29.75Z</time></trkpt><trkpt lat="45.5956108" lon="10.7148844"><ele>289.5</ele><time>2026-03-28T15:27:30.75Z</time></trkpt><trkpt lat="45.5955199" lon="10.7147521"><ele>291.0</ele><time>2026-03-28T15:27:31.75Z</time></trkpt><trkpt lat="45.5954339" lon="10.7146268"><ele>291.0</ele><time>2026-03-28T15:27:32.75Z</time></trkpt><trkpt lat="45.5953518" lon="10.7145103"><ele>291.0</ele><time>2026-03-28T15:27:33.75Z</time></trkpt><trkpt lat="45.595269" lon="10.7143958"><ele>291.0</ele><time>2026-03-28T15:27:34.75Z</time></trkpt><trkpt lat="45.5951881" lon="10.7142811"><ele>291.0</ele><time>2026-03-28T15:27:35.75Z</time></trkpt><trkpt lat="45.5951065" lon="10.7141624"><ele>292.0</ele><time>2026-03-28T15:27:36.75Z</time></trkpt><trkpt lat="45.5950229" lon="10.7140481"><ele>293.0</ele><time>2026-03-28T15:27:37.75Z</time></trkpt><trkpt lat="45.5949363" lon="10.7139379"><ele>294.0</ele><time>2026-03-28T15:27:38.75Z</time></trkpt><trkpt lat="45.594842" lon="10.7138459"><ele>295.0</ele><time>2026-03-28T15:27:39.75Z</time></trkpt><trkpt lat="45.5947362" lon="10.7137811"><ele>295.0</ele><time>2026-03-28T15:27:40.75Z</time></trkpt><trkpt lat="45.5946233" lon="10.7137445"><ele>295.0</ele><time>2026-03-28T15:27:41.75Z</time></trkpt><trkpt lat="45.5945115" lon="10.7137049"><ele>295.0</ele><time>2026-03-28T15:27:42.751Z</time></trkpt><trkpt lat="45.5944088" lon="10.7136435"><ele>295.0</ele><time>2026-03-28T15:27:43.75Z</time></trkpt><trkpt lat="45.5943206" lon="10.7135454"><ele>296.25</ele><time>2026-03-28T15:27:44.75Z</time></trkpt><trkpt lat="45.594238" lon="10.7134287"><ele>297.5</ele><time>2026-03-28T15:27:45.75Z</time></trkpt><trkpt lat="45.5941616" lon="10.7132976"><ele>298.75</ele><time>2026-03-28T15:27:46.75Z</time></trkpt><trkpt lat="45.5940999" lon="10.7131505"><ele>300.0</ele><time>2026-03-28T15:27:47.75Z</time></trkpt><trkpt lat="45.5940564" lon="10.7129916"><ele>300.0</ele><time>2026-03-28T15:27:48.75Z</time></trkpt><trkpt lat="45.594007" lon="10.7128321"><ele>300.0</ele><time>2026-03-28T15:27:49.75Z</time></trkpt><trkpt lat="45.5939346" lon="10.7126905"><ele>300.0</ele><time>2026-03-28T15:27:50.75Z</time></trkpt><trkpt lat="45.5938345" lon="10.7125775"><ele>300.0</ele><time>2026-03-28T15:27:51.75Z</time></trkpt><trkpt lat="45.5937123" lon="10.7125044"><ele>296.5</ele><time>2026-03-28T15:27:52.75Z</time></trkpt><trkpt lat="45.5935695" lon="10.7124632"><ele>293.0</ele><time>2026-03-28T15:27:53.75Z</time></trkpt><trkpt lat="45.5934171" lon="10.7124385"><ele>289.5</ele><time>2026-03-28T15:27:54.75Z</time></trkpt><trkpt lat="45.593272" lon="10.7124092"><ele>286.0</ele><time>2026-03-28T15:27:55.75Z</time></trkpt><trkpt lat="45.5931319" lon="10.7123776"><ele>286.0</ele><time>2026-03-28T15:27:56.75Z</time></trkpt><trkpt lat="45.593002" lon="10.7123568"><ele>286.0</ele><time>2026-03-28T15:27:57.75Z</time></trkpt><trkpt lat="45.5928921" lon="10.7123402"><ele>286.0</ele><time>2026-03-28T15:27:58.751Z</time></trkpt><trkpt lat="45.5928109" lon="10.7123081"><ele>286.0</ele><time>2026-03-28T15:27:59.75Z</time></trkpt><trkpt lat="45.592759" lon="10.712166"><ele>286.0</ele><time>2026-03-28T15:28:01.75Z</time></trkpt><trkpt lat="45.5927757" lon="10.7120758"><ele>285.75</ele><time>2026-03-28T15:28:02.75Z</time></trkpt><trkpt lat="45.5927985" lon="10.7119536"><ele>285.5</ele><time>2026-03-28T15:28:03.75Z</time></trkpt><trkpt lat="45.5928276" lon="10.711798"><ele>285.25</ele><time>2026-03-28T15:28:04.75Z</time></trkpt><trkpt lat="45.5928481" lon="10.7116233"><ele>285.0</ele><time>2026-03-28T15:28:05.75Z</time></trkpt><trkpt lat="45.5928582" lon="10.7114234"><ele>284.6666666666667</ele><time>2026-03-28T15:28:06.75Z</time></trkpt><trkpt lat="45.59286" lon="10.7112114"><ele>284.33333333333337</ele><time>2026-03-28T15:28:07.75Z</time></trkpt><trkpt lat="45.5928585" lon="10.7109905"><ele>284.0</ele><time>2026-03-28T15:28:08.75Z</time></trkpt><trkpt lat="45.5928523" lon="10.7107635"><ele>285.33333333333337</ele><time>2026-03-28T15:28:09.75Z</time></trkpt><trkpt lat="45.5928405" lon="10.7105273"><ele>286.6666666666667</ele><time>2026-03-28T15:28:10.75Z</time></trkpt><trkpt lat="45.5928248" lon="10.7102845"><ele>288.0</ele><time>2026-03-28T15:28:11.75Z</time></trkpt><trkpt lat="45.5928114" lon="10.7100408"><ele>292.6666666666667</ele><time>2026-03-28T15:28:12.75Z</time></trkpt><trkpt lat="45.5927988" lon="10.7097966"><ele>297.33333333333337</ele><time>2026-03-28T15:28:13.75Z</time></trkpt><trkpt lat="45.5927869" lon="10.7095505"><ele>302.0</ele><time>2026-03-28T15:28:14.75Z</time></trkpt><trkpt lat="45.5927692" lon="10.7093092"><ele>302.75</ele><time>2026-03-28T15:28:15.75Z</time></trkpt><trkpt lat="45.592752" lon="10.7090741"><ele>303.5</ele><time>2026-03-28T15:28:16.75Z</time></trkpt><trkpt lat="45.5927345" lon="10.7088636"><ele>304.25</ele><time>2026-03-28T15:28:17.75Z</time></trkpt><trkpt lat="45.5927145" lon="10.7086795"><ele>305.0</ele><time>2026-03-28T15:28:18.75Z</time></trkpt><trkpt lat="45.5926854" lon="10.7085228"><ele>305.0</ele><time>2026-03-28T15:28:19.751Z</time></trkpt><trkpt lat="45.5926333" lon="10.7083881"><ele>305.0</ele><time>2026-03-28T15:28:20.75Z</time></trkpt><trkpt lat="45.5925684" lon="10.7082642"><ele>305.0</ele><time>2026-03-28T15:28:21.75Z</time></trkpt><trkpt lat="45.5925104" lon="10.7081262"><ele>305.0</ele><time>2026-03-28T15:28:22.75Z</time></trkpt><trkpt lat="45.5924695" lon="10.7079664"><ele>305.0</ele><time>2026-03-28T15:28:23.75Z</time></trkpt><trkpt lat="45.592443" lon="10.7077838"><ele>305.0</ele><time>2026-03-28T15:28:24.75Z</time></trkpt><trkpt lat="45.5924166" lon="10.7075906"><ele>305.0</ele><time>2026-03-28T15:28:25.75Z</time></trkpt><trkpt lat="45.592355" lon="10.707406"><ele>305.0</ele><time>2026-03-28T15:28:26.75Z</time></trkpt><trkpt lat="45.5922733" lon="10.707223"><ele>305.0</ele><time>2026-03-28T15:28:27.75Z</time></trkpt><trkpt lat="45.5921818" lon="10.7070336"><ele>304.33333333333337</ele><time>2026-03-28T15:28:28.75Z</time></trkpt><trkpt lat="45.5920878" lon="10.7068277"><ele>303.6666666666667</ele><time>2026-03-28T15:28:29.75Z</time></trkpt><trkpt lat="45.5919999" lon="10.7066075"><ele>303.0</ele><time>2026-03-28T15:28:30.75Z</time></trkpt><trkpt lat="45.5919258" lon="10.7063743"><ele>303.0</ele><time>2026-03-28T15:28:31.75Z</time></trkpt><trkpt lat="45.5918632" lon="10.7061317"><ele>303.0</ele><time>2026-03-28T15:28:32.75Z</time></trkpt><trkpt lat="45.5918083" lon="10.7058866"><ele>303.0</ele><time>2026-03-28T15:28:33.75Z</time></trkpt><trkpt lat="45.5917618" lon="10.7056396"><ele>305.0</ele><time>2026-03-28T15:28:34.75Z</time></trkpt><trkpt lat="45.5917271" lon="10.7054089"><ele>307.0</ele><time>2026-03-28T15:28:35.75Z</time></trkpt><trkpt lat="45.5917055" lon="10.7051866"><ele>309.0</ele><time>2026-03-28T15:28:36.75Z</time></trkpt><trkpt lat="45.5916864" lon="10.7049621"><ele>309.6666666666667</ele><time>2026-03-28T15:28:37.75Z</time></trkpt><trkpt lat="45.5916721" lon="10.704733"><ele>310.33333333333337</ele><time>2026-03-28T15:28:38.75Z</time></trkpt><trkpt lat="45.5916685" lon="10.7044976"><ele>311.0</ele><time>2026-03-28T15:28:39.75Z</time></trkpt><trkpt lat="45.5916686" lon="10.7042538"><ele>312.6666666666667</ele><time>2026-03-28T15:28:40.75Z</time></trkpt><trkpt lat="45.5916704" lon="10.7040046"><ele>314.3333333333333</ele><time>2026-03-28T15:28:41.75Z</time></trkpt><trkpt lat="45.5916716" lon="10.7037641"><ele>316.0</ele><time>2026-03-28T15:28:42.75Z</time></trkpt><trkpt lat="45.5916759" lon="10.7035409"><ele>316.3333333333333</ele><time>2026-03-28T15:28:43.75Z</time></trkpt><trkpt lat="45.5916804" lon="10.7033218"><ele>316.6666666666667</ele><time>2026-03-28T15:28:44.75Z</time></trkpt><trkpt lat="45.5916755" lon="10.703104"><ele>317.0</ele><time>2026-03-28T15:28:45.75Z</time></trkpt><trkpt lat="45.5916598" lon="10.7028836"><ele>318.33333333333337</ele><time>2026-03-28T15:28:46.75Z</time></trkpt><trkpt lat="45.5916223" lon="10.7026632"><ele>319.6666666666667</ele><time>2026-03-28T15:28:47.75Z</time></trkpt><trkpt lat="45.5915617" lon="10.7024565"><ele>321.0</ele><time>2026-03-28T15:28:48.75Z</time></trkpt><trkpt lat="45.5914809" lon="10.7022648"><ele>321.0</ele><time>2026-03-28T15:28:49.75Z</time></trkpt><trkpt lat="45.5913847" lon="10.7020838"><ele>321.0</ele><time>2026-03-28T15:28:50.75Z</time></trkpt><trkpt lat="45.5912893" lon="10.7019103"><ele>321.0</ele><time>2026-03-28T15:28:51.75Z</time></trkpt><trkpt lat="45.5912103" lon="10.7017514"><ele>320.40000000000003</ele><time>2026-03-28T15:28:52.75Z</time></trkpt><trkpt lat="45.5911686" lon="10.701594"><ele>319.8</ele><time>2026-03-28T15:28:53.75Z</time></trkpt><trkpt lat="45.5911621" lon="10.7014305"><ele>319.20000000000005</ele><time>2026-03-28T15:28:54.75Z</time></trkpt><trkpt lat="45.5911882" lon="10.701277"><ele>318.6</ele><time>2026-03-28T15:28:55.75Z</time></trkpt><trkpt lat="45.5912505" lon="10.701157"><ele>318.0</ele><time>2026-03-28T15:28:56.75Z</time></trkpt><trkpt lat="45.591342" lon="10.7010506"><ele>318.0</ele><time>2026-03-28T15:28:57.75Z</time></trkpt><trkpt lat="45.5914674" lon="10.7009638"><ele>318.0</ele><time>2026-03-28T15:28:58.75Z</time></trkpt><trkpt lat="45.5916161" lon="10.7008978"><ele>318.0</ele><time>2026-03-28T15:28:59.75Z</time></trkpt><trkpt lat="45.5917861" lon="10.7008517"><ele>318.0</ele><time>2026-03-28T15:29:00.75Z</time></trkpt><trkpt lat="45.5919605" lon="10.7008029"><ele>318.0</ele><time>2026-03-28T15:29:01.75Z</time></trkpt><trkpt lat="45.5921235" lon="10.7007533"><ele>318.0</ele><time>2026-03-28T15:29:02.75Z</time></trkpt><trkpt lat="45.592287" lon="10.7007021"><ele>318.0</ele><time>2026-03-28T15:29:03.75Z</time></trkpt><trkpt lat="45.59247" lon="10.7006788"><ele>318.0</ele><time>2026-03-28T15:29:04.75Z</time></trkpt><trkpt lat="45.5926553" lon="10.7006964"><ele>318.0</ele><time>2026-03-28T15:29:05.75Z</time></trkpt><trkpt lat="45.5928428" lon="10.700729"><ele>318.0</ele><time>2026-03-28T15:29:06.75Z</time></trkpt><trkpt lat="45.5930261" lon="10.7007481"><ele>318.0</ele><time>2026-03-28T15:29:07.75Z</time></trkpt><trkpt lat="45.5932028" lon="10.7007841"><ele>318.0</ele><time>2026-03-28T15:29:08.75Z</time></trkpt><trkpt lat="45.5933823" lon="10.7008303"><ele>318.0</ele><time>2026-03-28T15:29:09.75Z</time></trkpt><trkpt lat="45.5935669" lon="10.7008828"><ele>318.0</ele><time>2026-03-28T15:29:10.75Z</time></trkpt><trkpt lat="45.5937603" lon="10.7009361"><ele>318.0</ele><time>2026-03-28T15:29:11.75Z</time></trkpt><trkpt lat="45.5939524" lon="10.7009795"><ele>313.3333333333333</ele><time>2026-03-28T15:29:12.75Z</time></trkpt><trkpt lat="45.5941362" lon="10.7010228"><ele>308.66666666666663</ele><time>2026-03-28T15:29:13.75Z</time></trkpt><trkpt lat="45.5943138" lon="10.7010589"><ele>304.0</ele><time>2026-03-28T15:29:14.75Z</time></trkpt><trkpt lat="45.5944965" lon="10.7010661"><ele>300.3333333333333</ele><time>2026-03-28T15:29:15.75Z</time></trkpt><trkpt lat="45.5946805" lon="10.7010495"><ele>296.6666666666667</ele><time>2026-03-28T15:29:16.75Z</time></trkpt><trkpt lat="45.5948505" lon="10.7010335"><ele>293.0</ele><time>2026-03-28T15:29:17.75Z</time></trkpt><trkpt lat="45.5950125" lon="10.7010318"><ele>293.0</ele><time>2026-03-28T15:29:18.75Z</time></trkpt><trkpt lat="45.5951679" lon="10.7010531"><ele>293.0</ele><time>2026-03-28T15:29:19.75Z</time></trkpt><trkpt lat="45.5953204" lon="10.7010694"><ele>293.0</ele><time>2026-03-28T15:29:20.75Z</time></trkpt><trkpt lat="45.5954497" lon="10.7011553"><ele>291.25</ele><time>2026-03-28T15:29:21.75Z</time></trkpt><trkpt lat="45.5955927" lon="10.7011818"><ele>289.5</ele><time>2026-03-28T15:29:22.751Z</time></trkpt><trkpt lat="45.5957291" lon="10.7011619"><ele>287.75</ele><time>2026-03-28T15:29:23.75Z</time></trkpt><trkpt lat="45.5958652" lon="10.7011064"><ele>286.0</ele><time>2026-03-28T15:29:24.75Z</time></trkpt><trkpt lat="45.5960037" lon="10.7010451"><ele>286.0</ele><time>2026-03-28T15:29:25.75Z</time></trkpt><trkpt lat="45.5961451" lon="10.7009831"><ele>286.0</ele><time>2026-03-28T15:29:26.75Z</time></trkpt><trkpt lat="45.596292" lon="10.7009309"><ele>286.0</ele><time>2026-03-28T15:29:27.75Z</time></trkpt><trkpt lat="45.59644" lon="10.7008984"><ele>286.0</ele><time>2026-03-28T15:29:28.75Z</time></trkpt><trkpt lat="45.5965875" lon="10.7008959"><ele>286.0</ele><time>2026-03-28T15:29:29.75Z</time></trkpt><trkpt lat="45.5967404" lon="10.7008863"><ele>286.0</ele><time>2026-03-28T15:29:30.75Z</time></trkpt><trkpt lat="45.5968986" lon="10.7008652"><ele>286.0</ele><time>2026-03-28T15:29:31.75Z</time></trkpt><trkpt lat="45.597052" lon="10.7008284"><ele>286.25</ele><time>2026-03-28T15:29:32.75Z</time></trkpt><trkpt lat="45.5971923" lon="10.700776"><ele>286.5</ele><time>2026-03-28T15:29:33.75Z</time></trkpt><trkpt lat="45.5973278" lon="10.7007375"><ele>286.75</ele><time>2026-03-28T15:29:34.75Z</time></trkpt><trkpt lat="45.5974675" lon="10.7007022"><ele>287.0</ele><time>2026-03-28T15:29:35.75Z</time></trkpt><trkpt lat="45.5976021" lon="10.7006681"><ele>287.0</ele><time>2026-03-28T15:29:36.75Z</time></trkpt><trkpt lat="45.5977313" lon="10.7006309"><ele>287.0</ele><time>2026-03-28T15:29:37.75Z</time></trkpt><trkpt lat="45.5978613" lon="10.7005825"><ele>287.0</ele><time>2026-03-28T15:29:38.75Z</time></trkpt><trkpt lat="45.5979925" lon="10.7005101"><ele>287.0</ele><time>2026-03-28T15:29:39.75Z</time></trkpt><trkpt lat="45.5981211" lon="10.7004178"><ele>286.0</ele><time>2026-03-28T15:29:40.75Z</time></trkpt><trkpt lat="45.5982411" lon="10.7003323"><ele>285.0</ele><time>2026-03-28T15:29:41.75Z</time></trkpt><trkpt lat="45.5983542" lon="10.7002793"><ele>284.0</ele><time>2026-03-28T15:29:42.75Z</time></trkpt><trkpt lat="45.5984609" lon="10.7002483"><ele>283.0</ele><time>2026-03-28T15:29:43.751Z</time></trkpt><trkpt lat="45.5985471" lon="10.7002395"><ele>282.0</ele><time>2026-03-28T15:29:44.75Z</time></trkpt><trkpt lat="45.5986243" lon="10.7002106"><ele>282.75</ele><time>2026-03-28T15:29:46.75Z</time></trkpt><trkpt lat="45.5987441" lon="10.7001716"><ele>283.5</ele><time>2026-03-28T15:30:14.75Z</time></trkpt><trkpt lat="45.5988447" lon="10.7001614"><ele>284.25</ele><time>2026-03-28T15:30:15.75Z</time></trkpt><trkpt lat="45.5989779" lon="10.7001467"><ele>285.0</ele><time>2026-03-28T15:30:16.75Z</time></trkpt><trkpt lat="45.5991607" lon="10.7001325"><ele>285.0</ele><time>2026-03-28T15:30:17.75Z</time></trkpt><trkpt lat="45.5993749" lon="10.7001229"><ele>285.0</ele><time>2026-03-28T15:30:18.75Z</time></trkpt><trkpt lat="45.5995948" lon="10.7001095"><ele>285.0</ele><time>2026-03-28T15:30:19.75Z</time></trkpt><trkpt lat="45.5998007" lon="10.7001003"><ele>285.6666666666667</ele><time>2026-03-28T15:30:20.75Z</time></trkpt><trkpt lat="45.5999886" lon="10.7000934"><ele>286.33333333333337</ele><time>2026-03-28T15:30:21.75Z</time></trkpt><trkpt lat="45.6001623" lon="10.7000978"><ele>287.0</ele><time>2026-03-28T15:30:22.75Z</time></trkpt><trkpt lat="45.6003311" lon="10.70013"><ele>285.6666666666667</ele><time>2026-03-28T15:30:23.75Z</time></trkpt><trkpt lat="45.6005056" lon="10.7001683"><ele>284.3333333333333</ele><time>2026-03-28T15:30:24.75Z</time></trkpt><trkpt lat="45.6007044" lon="10.7001645"><ele>283.0</ele><time>2026-03-28T15:30:25.75Z</time></trkpt><trkpt lat="45.6009127" lon="10.7001506"><ele>283.0</ele><time>2026-03-28T15:30:26.75Z</time></trkpt><trkpt lat="45.6011188" lon="10.7001375"><ele>283.0</ele><time>2026-03-28T15:30:27.75Z</time></trkpt><trkpt lat="45.601308" lon="10.7001226"><ele>283.0</ele><time>2026-03-28T15:30:28.75Z</time></trkpt><trkpt lat="45.6014952" lon="10.7001058"><ele>283.0</ele><time>2026-03-28T15:30:29.75Z</time></trkpt><trkpt lat="45.6016816" lon="10.7000878"><ele>283.0</ele><time>2026-03-28T15:30:30.75Z</time></trkpt><trkpt lat="45.601863" lon="10.7000702"><ele>283.0</ele><time>2026-03-28T15:30:31.75Z</time></trkpt><trkpt lat="45.6020439" lon="10.7000486"><ele>283.3333333333333</ele><time>2026-03-28T15:30:32.75Z</time></trkpt><trkpt lat="45.6022219" lon="10.7000253"><ele>283.6666666666667</ele><time>2026-03-28T15:30:33.75Z</time></trkpt><trkpt lat="45.6023983" lon="10.7000046"><ele>284.0</ele><time>2026-03-28T15:30:34.75Z</time></trkpt><trkpt lat="45.6025723" lon="10.6999896"><ele>284.0</ele><time>2026-03-28T15:30:35.75Z</time></trkpt><trkpt lat="45.6027403" lon="10.6999743"><ele>284.0</ele><time>2026-03-28T15:30:36.75Z</time></trkpt><trkpt lat="45.6028954" lon="10.6999592"><ele>284.0</ele><time>2026-03-28T15:30:37.75Z</time></trkpt><trkpt lat="45.6030436" lon="10.6999468"><ele>285.0</ele><time>2026-03-28T15:30:38.75Z</time></trkpt><trkpt lat="45.603194" lon="10.6999347"><ele>286.0</ele><time>2026-03-28T15:30:39.75Z</time></trkpt><trkpt lat="45.603344" lon="10.6999257"><ele>287.0</ele><time>2026-03-28T15:30:40.75Z</time></trkpt><trkpt lat="45.6034996" lon="10.699918"><ele>287.0</ele><time>2026-03-28T15:30:41.75Z</time></trkpt><trkpt lat="45.6036464" lon="10.6999089"><ele>287.0</ele><time>2026-03-28T15:30:42.75Z</time></trkpt><trkpt lat="45.6037713" lon="10.6999028"><ele>287.0</ele><time>2026-03-28T15:30:43.75Z</time></trkpt><trkpt lat="45.6038637" lon="10.6999011"><ele>287.0</ele><time>2026-03-28T15:30:44.75Z</time></trkpt><trkpt lat="45.6039317" lon="10.699896"><ele>287.0</ele><time>2026-03-28T15:30:45.75Z</time></trkpt><trkpt lat="45.6039977" lon="10.699885"><ele>287.25</ele><time>2026-03-28T15:30:47.75Z</time></trkpt><trkpt lat="45.6040872" lon="10.6998598"><ele>287.5</ele><time>2026-03-28T15:31:05.75Z</time></trkpt><trkpt lat="45.6041812" lon="10.6998304"><ele>287.75</ele><time>2026-03-28T15:31:06.75Z</time></trkpt><trkpt lat="45.6043077" lon="10.699776"><ele>288.0</ele><time>2026-03-28T15:31:07.75Z</time></trkpt><trkpt lat="45.6044536" lon="10.6997174"><ele>289.3333333333333</ele><time>2026-03-28T15:31:08.75Z</time></trkpt><trkpt lat="45.6046187" lon="10.6996816"><ele>290.66666666666663</ele><time>2026-03-28T15:31:09.75Z</time></trkpt><trkpt lat="45.6047787" lon="10.699662"><ele>292.0</ele><time>2026-03-28T15:31:10.75Z</time></trkpt><trkpt lat="45.6049191" lon="10.699653"><ele>292.0</ele><time>2026-03-28T15:31:11.75Z</time></trkpt><trkpt lat="45.6050549" lon="10.6996491"><ele>292.0</ele><time>2026-03-28T15:31:12.75Z</time></trkpt><trkpt lat="45.6051939" lon="10.6996706"><ele>292.0</ele><time>2026-03-28T15:31:13.75Z</time></trkpt><trkpt lat="45.6053313" lon="10.6997235"><ele>292.0</ele><time>2026-03-28T15:31:14.75Z</time></trkpt><trkpt lat="45.6054691" lon="10.6998027"><ele>292.75</ele><time>2026-03-28T15:31:15.75Z</time></trkpt><trkpt lat="45.6055991" lon="10.6999037"><ele>293.5</ele><time>2026-03-28T15:31:16.75Z</time></trkpt><trkpt lat="45.6057201" lon="10.6999988"><ele>294.25</ele><time>2026-03-28T15:31:17.75Z</time></trkpt><trkpt lat="45.6058302" lon="10.7000923"><ele>295.0</ele><time>2026-03-28T15:31:18.75Z</time></trkpt><trkpt lat="45.6059327" lon="10.7001842"><ele>295.75</ele><time>2026-03-28T15:31:19.75Z</time></trkpt><trkpt lat="45.6060395" lon="10.7002539"><ele>296.5</ele><time>2026-03-28T15:31:20.75Z</time></trkpt><trkpt lat="45.6061612" lon="10.700306"><ele>297.25</ele><time>2026-03-28T15:31:21.75Z</time></trkpt><trkpt lat="45.6062823" lon="10.7003448"><ele>298.0</ele><time>2026-03-28T15:31:22.75Z</time></trkpt><trkpt lat="45.6063957" lon="10.7003766"><ele>299.0</ele><time>2026-03-28T15:31:23.75Z</time></trkpt><trkpt lat="45.6064969" lon="10.7004035"><ele>300.0</ele><time>2026-03-28T15:31:24.75Z</time></trkpt><trkpt lat="45.6065661" lon="10.7004226"><ele>301.0</ele><time>2026-03-28T15:31:25.75Z</time></trkpt><trkpt lat="45.6066948" lon="10.7004127"><ele>302.0</ele><time>2026-03-28T15:31:27.75Z</time></trkpt><trkpt lat="45.6067471" lon="10.7003569"><ele>303.0</ele><time>2026-03-28T15:31:28.75Z</time></trkpt><trkpt lat="45.6068334" lon="10.7002251"><ele>301.3333333333333</ele><time>2026-03-28T15:31:30.75Z</time></trkpt><trkpt lat="45.6069155" lon="10.7001819"><ele>299.6666666666667</ele><time>2026-03-28T15:31:32.75Z</time></trkpt><trkpt lat="45.6070024" lon="10.7001668"><ele>298.0</ele><time>2026-03-28T15:31:34.75Z</time></trkpt><trkpt lat="45.607072" lon="10.7001546"><ele>296.33333333333337</ele><time>2026-03-28T15:31:35.75Z</time></trkpt><trkpt lat="45.607162" lon="10.7001408"><ele>294.6666666666667</ele><time>2026-03-28T15:31:36.75Z</time></trkpt><trkpt lat="45.6072655" lon="10.7001257"><ele>293.0</ele><time>2026-03-28T15:31:37.751Z</time></trkpt><trkpt lat="45.6073797" lon="10.7001109"><ele>292.6</ele><time>2026-03-28T15:31:38.75Z</time></trkpt><trkpt lat="45.6074968" lon="10.7000833"><ele>292.20000000000005</ele><time>2026-03-28T15:31:39.75Z</time></trkpt><trkpt lat="45.6076175" lon="10.7000319"><ele>291.8</ele><time>2026-03-28T15:31:40.75Z</time></trkpt><trkpt lat="45.6077236" lon="10.6999867"><ele>291.40000000000003</ele><time>2026-03-28T15:31:41.75Z</time></trkpt><trkpt lat="45.6078129" lon="10.6999612"><ele>291.0</ele><time>2026-03-28T15:31:42.75Z</time></trkpt><trkpt lat="45.607885" lon="10.6999415"><ele>290.0</ele><time>2026-03-28T15:31:43.75Z</time></trkpt><trkpt lat="45.6079548" lon="10.6999357"><ele>289.0</ele><time>2026-03-28T15:31:44.75Z</time></trkpt><trkpt lat="45.6080385" lon="10.6999558"><ele>288.0</ele><time>2026-03-28T15:31:45.75Z</time></trkpt><trkpt lat="45.6081466" lon="10.6999991"><ele>287.0</ele><time>2026-03-28T15:31:46.75Z</time></trkpt><trkpt lat="45.6082759" lon="10.7000468"><ele>286.0</ele><time>2026-03-28T15:31:47.75Z</time></trkpt><trkpt lat="45.6084103" lon="10.7000937"><ele>286.0</ele><time>2026-03-28T15:31:48.75Z</time></trkpt><trkpt lat="45.6085235" lon="10.700125"><ele>286.0</ele><time>2026-03-28T15:31:49.75Z</time></trkpt><trkpt lat="45.6086227" lon="10.700149"><ele>286.0</ele><time>2026-03-28T15:31:50.75Z</time></trkpt><trkpt lat="45.6087152" lon="10.7001633"><ele>286.0</ele><time>2026-03-28T15:31:51.75Z</time></trkpt><trkpt lat="45.6088057" lon="10.7001758"><ele>286.0</ele><time>2026-03-28T15:31:52.75Z</time></trkpt><trkpt lat="45.6088937" lon="10.7001804"><ele>284.0</ele><time>2026-03-28T15:31:53.751Z</time></trkpt><trkpt lat="45.6089876" lon="10.7001883"><ele>282.0</ele><time>2026-03-28T15:31:54.75Z</time></trkpt><trkpt lat="45.6090686" lon="10.7002054"><ele>280.0</ele><time>2026-03-28T15:31:55.75Z</time></trkpt><trkpt lat="45.6091459" lon="10.7002097"><ele>278.0</ele><time>2026-03-28T15:31:56.75Z</time></trkpt><trkpt lat="45.6091976" lon="10.7001495"><ele>276.0</ele><time>2026-03-28T15:31:57.75Z</time></trkpt><trkpt lat="45.6091723" lon="10.7000343"><ele>274.0</ele><time>2026-03-28T15:31:59.75Z</time></trkpt><trkpt lat="45.6091015" lon="10.6999932"><ele>274.0</ele><time>2026-03-28T15:32:00.75Z</time></trkpt><trkpt lat="45.6089824" lon="10.6999589"><ele>274.0</ele><time>2026-03-28T15:32:01.75Z</time></trkpt><trkpt lat="45.6088184" lon="10.699906"><ele>274.0</ele><time>2026-03-28T15:32:02.75Z</time></trkpt><trkpt lat="45.6086634" lon="10.6998343"><ele>278.0</ele><time>2026-03-28T15:32:03.75Z</time></trkpt><trkpt lat="45.6085122" lon="10.6997581"><ele>282.0</ele><time>2026-03-28T15:32:04.75Z</time></trkpt><trkpt lat="45.6083671" lon="10.6996782"><ele>286.0</ele><time>2026-03-28T15:32:05.75Z</time></trkpt><trkpt lat="45.608235" lon="10.6995839"><ele>286.0</ele><time>2026-03-28T15:32:06.75Z</time></trkpt><trkpt lat="45.60812" lon="10.6994785"><ele>286.0</ele><time>2026-03-28T15:32:07.75Z</time></trkpt><trkpt lat="45.6079966" lon="10.6994212"><ele>286.0</ele><time>2026-03-28T15:32:08.75Z</time></trkpt><trkpt lat="45.6078656" lon="10.699412"><ele>286.0</ele><time>2026-03-28T15:32:09.75Z</time></trkpt><trkpt lat="45.6077325" lon="10.6993816"><ele>282.25</ele><time>2026-03-28T15:32:10.75Z</time></trkpt><trkpt lat="45.6075994" lon="10.6992984"><ele>278.5</ele><time>2026-03-28T15:32:11.75Z</time></trkpt><trkpt lat="45.6074841" lon="10.6991819"><ele>274.75</ele><time>2026-03-28T15:32:12.751Z</time></trkpt><trkpt lat="45.6073867" lon="10.6990553"><ele>271.0</ele><time>2026-03-28T15:32:13.75Z</time></trkpt><trkpt lat="45.607311" lon="10.6988931"><ele>271.0</ele><time>2026-03-28T15:32:14.75Z</time></trkpt><trkpt lat="45.6072575" lon="10.6987191"><ele>271.0</ele><time>2026-03-28T15:32:15.75Z</time></trkpt><trkpt lat="45.6072085" lon="10.6985499"><ele>271.0</ele><time>2026-03-28T15:32:16.75Z</time></trkpt><trkpt lat="45.6071441" lon="10.6983957"><ele>271.0</ele><time>2026-03-28T15:32:17.75Z</time></trkpt><trkpt lat="45.6070642" lon="10.6982582"><ele>270.0</ele><time>2026-03-28T15:32:18.751Z</time></trkpt><trkpt lat="45.6069737" lon="10.6981253"><ele>269.0</ele><time>2026-03-28T15:32:19.75Z</time></trkpt><trkpt lat="45.6068872" lon="10.6979975"><ele>268.0</ele><time>2026-03-28T15:32:20.75Z</time></trkpt><trkpt lat="45.6068058" lon="10.6978708"><ele>267.0</ele><time>2026-03-28T15:32:21.75Z</time></trkpt><trkpt lat="45.606735" lon="10.6977568"><ele>265.3333333333333</ele><time>2026-03-28T15:32:22.75Z</time></trkpt><trkpt lat="45.6066776" lon="10.6976594"><ele>263.6666666666667</ele><time>2026-03-28T15:32:23.75Z</time></trkpt><trkpt lat="45.6066232" lon="10.6975673"><ele>262.0</ele><time>2026-03-28T15:32:24.75Z</time></trkpt><trkpt lat="45.6065741" lon="10.6974904"><ele>260.33333333333337</ele><time>2026-03-28T15:32:25.75Z</time></trkpt><trkpt lat="45.6065321" lon="10.6974174"><ele>258.6666666666667</ele><time>2026-03-28T15:32:26.75Z</time></trkpt><trkpt lat="45.6064983" lon="10.6973373"><ele>257.0</ele><time>2026-03-28T15:32:27.75Z</time></trkpt><trkpt lat="45.6064739" lon="10.6972403"><ele>257.0</ele><time>2026-03-28T15:32:28.75Z</time></trkpt><trkpt lat="45.6064674" lon="10.697123"><ele>257.0</ele><time>2026-03-28T15:32:29.75Z</time></trkpt><trkpt lat="45.6064717" lon="10.6970213"><ele>257.0</ele><time>2026-03-28T15:32:30.75Z</time></trkpt><trkpt lat="45.6064752" lon="10.6969295"><ele>257.0</ele><time>2026-03-28T15:32:31.75Z</time></trkpt><trkpt lat="45.6064796" lon="10.696839"><ele>257.0</ele><time>2026-03-28T15:32:32.75Z</time></trkpt><trkpt lat="45.606483" lon="10.696747"><ele>257.0</ele><time>2026-03-28T15:32:33.75Z</time></trkpt><trkpt lat="45.6064918" lon="10.6965804"><ele>255.2</ele><time>2026-03-28T15:32:35.75Z</time></trkpt><trkpt lat="45.6064763" lon="10.6964229"><ele>253.39999999999998</ele><time>2026-03-28T15:32:37.75Z</time></trkpt><trkpt lat="45.6063895" lon="10.6962848"><ele>251.60000000000002</ele><time>2026-03-28T15:32:39.75Z</time></trkpt><trkpt lat="45.6063025" lon="10.6962052"><ele>249.8</ele><time>2026-03-28T15:32:40.75Z</time></trkpt><trkpt lat="45.6062173" lon="10.6961294"><ele>248.0</ele><time>2026-03-28T15:32:41.75Z</time></trkpt><trkpt lat="45.6061301" lon="10.6960445"><ele>247.8</ele><time>2026-03-28T15:32:42.75Z</time></trkpt><trkpt lat="45.6060453" lon="10.6959591"><ele>247.60000000000002</ele><time>2026-03-28T15:32:43.75Z</time></trkpt><trkpt lat="45.605967" lon="10.6958725"><ele>247.39999999999998</ele><time>2026-03-28T15:32:44.75Z</time></trkpt><trkpt lat="45.6058921" lon="10.6957837"><ele>247.2</ele><time>2026-03-28T15:32:45.75Z</time></trkpt><trkpt lat="45.6058187" lon="10.6956898"><ele>247.0</ele><time>2026-03-28T15:32:46.75Z</time></trkpt><trkpt lat="45.6057447" lon="10.6955932"><ele>247.0</ele><time>2026-03-28T15:32:47.75Z</time></trkpt><trkpt lat="45.6056748" lon="10.6955046"><ele>247.0</ele><time>2026-03-28T15:32:48.75Z</time></trkpt><trkpt lat="45.6056022" lon="10.6954342"><ele>247.0</ele><time>2026-03-28T15:32:49.75Z</time></trkpt><trkpt lat="45.6055472" lon="10.6953625"><ele>247.0</ele><time>2026-03-28T15:32:50.75Z</time></trkpt><trkpt lat="45.6055862" lon="10.6952247"><ele>247.0</ele><time>2026-03-28T15:32:52.75Z</time></trkpt><trkpt lat="45.6057132" lon="10.6952761"><ele>247.0</ele><time>2026-03-28T15:32:54.75Z</time></trkpt><trkpt lat="45.6058314" lon="10.6953417"><ele>247.0</ele><time>2026-03-28T15:32:55.75Z</time></trkpt><trkpt lat="45.6059799" lon="10.6954356"><ele>247.0</ele><time>2026-03-28T15:32:56.75Z</time></trkpt><trkpt lat="45.6061514" lon="10.695554"><ele>242.33333333333331</ele><time>2026-03-28T15:32:57.75Z</time></trkpt><trkpt lat="45.606311" lon="10.6956732"><ele>237.66666666666669</ele><time>2026-03-28T15:32:58.75Z</time></trkpt><trkpt lat="45.6064694" lon="10.6957692"><ele>233.0</ele><time>2026-03-28T15:32:59.75Z</time></trkpt><trkpt lat="45.6066163" lon="10.6958391"><ele>233.0</ele><time>2026-03-28T15:33:00.75Z</time></trkpt><trkpt lat="45.6067499" lon="10.6959007"><ele>233.0</ele><time>2026-03-28T15:33:01.75Z</time></trkpt><trkpt lat="45.6068668" lon="10.6959848"><ele>233.0</ele><time>2026-03-28T15:33:02.75Z</time></trkpt><trkpt lat="45.6069783" lon="10.6960901"><ele>233.0</ele><time>2026-03-28T15:33:03.75Z</time></trkpt><trkpt lat="45.6070649" lon="10.6961848"><ele>232.25</ele><time>2026-03-28T15:33:04.75Z</time></trkpt><trkpt lat="45.6071445" lon="10.6962393"><ele>231.5</ele><time>2026-03-28T15:33:05.75Z</time></trkpt><trkpt lat="45.6072266" lon="10.6961618"><ele>230.75</ele><time>2026-03-28T15:33:07.75Z</time></trkpt><trkpt lat="45.6071431" lon="10.6959908"><ele>230.0</ele><time>2026-03-28T15:33:09.751Z</time></trkpt><trkpt lat="45.6070445" lon="10.6958519"><ele>231.0</ele><time>2026-03-28T15:33:10.75Z</time></trkpt><trkpt lat="45.6069205" lon="10.6956939"><ele>232.0</ele><time>2026-03-28T15:33:11.75Z</time></trkpt><trkpt lat="45.6067658" lon="10.6955375"><ele>233.0</ele><time>2026-03-28T15:33:12.75Z</time></trkpt><trkpt lat="45.6066034" lon="10.6953801"><ele>226.33333333333334</ele><time>2026-03-28T15:33:13.75Z</time></trkpt><trkpt lat="45.6064478" lon="10.6952327"><ele>219.66666666666669</ele><time>2026-03-28T15:33:14.75Z</time></trkpt><trkpt lat="45.6063065" lon="10.695093"><ele>213.0</ele><time>2026-03-28T15:33:15.75Z</time></trkpt><trkpt lat="45.606177" lon="10.6949509"><ele>217.0</ele><time>2026-03-28T15:33:16.75Z</time></trkpt><trkpt lat="45.6060609" lon="10.6948118"><ele>221.0</ele><time>2026-03-28T15:33:17.75Z</time></trkpt><trkpt lat="45.6059676" lon="10.694695"><ele>225.0</ele><time>2026-03-28T15:33:18.75Z</time></trkpt><trkpt lat="45.6058913" lon="10.6945872"><ele>229.0</ele><time>2026-03-28T15:33:19.75Z</time></trkpt><trkpt lat="45.6058182" lon="10.6944778"><ele>224.25</ele><time>2026-03-28T15:33:20.75Z</time></trkpt><trkpt lat="45.6057454" lon="10.6943698"><ele>219.5</ele><time>2026-03-28T15:33:21.75Z</time></trkpt><trkpt lat="45.6056608" lon="10.6942616"><ele>214.75</ele><time>2026-03-28T15:33:22.75Z</time></trkpt><trkpt lat="45.6055614" lon="10.6941513"><ele>210.0</ele><time>2026-03-28T15:33:23.75Z</time></trkpt><trkpt lat="45.605454" lon="10.6940317"><ele>210.0</ele><time>2026-03-28T15:33:24.75Z</time></trkpt><trkpt lat="45.6053409" lon="10.6939042"><ele>210.0</ele><time>2026-03-28T15:33:25.75Z</time></trkpt><trkpt lat="45.605222" lon="10.6937805"><ele>210.0</ele><time>2026-03-28T15:33:26.75Z</time></trkpt><trkpt lat="45.6050976" lon="10.6936629"><ele>210.0</ele><time>2026-03-28T15:33:27.75Z</time></trkpt><trkpt lat="45.6049696" lon="10.6935358"><ele>209.0</ele><time>2026-03-28T15:33:28.75Z</time></trkpt><trkpt lat="45.6048397" lon="10.6934155"><ele>208.0</ele><time>2026-03-28T15:33:29.75Z</time></trkpt><trkpt lat="45.6047129" lon="10.6933119"><ele>207.0</ele><time>2026-03-28T15:33:30.75Z</time></trkpt><trkpt lat="45.6045917" lon="10.6932107"><ele>206.0</ele><time>2026-03-28T15:33:31.75Z</time></trkpt><trkpt lat="45.6044712" lon="10.6930985"><ele>204.5</ele><time>2026-03-28T15:33:32.75Z</time></trkpt><trkpt lat="45.6043556" lon="10.6929864"><ele>203.0</ele><time>2026-03-28T15:33:33.75Z</time></trkpt><trkpt lat="45.6042458" lon="10.6928707"><ele>201.5</ele><time>2026-03-28T15:33:34.75Z</time></trkpt><trkpt lat="45.6041413" lon="10.6927533"><ele>200.0</ele><time>2026-03-28T15:33:35.75Z</time></trkpt><trkpt lat="45.604046" lon="10.6926337"><ele>200.0</ele><time>2026-03-28T15:33:36.75Z</time></trkpt><trkpt lat="45.6039524" lon="10.6925179"><ele>200.0</ele><time>2026-03-28T15:33:37.75Z</time></trkpt><trkpt lat="45.6038568" lon="10.6924197"><ele>200.0</ele><time>2026-03-28T15:33:38.75Z</time></trkpt><trkpt lat="45.603749" lon="10.692337"><ele>200.0</ele><time>2026-03-28T15:33:39.75Z</time></trkpt><trkpt lat="45.6036361" lon="10.692256"><ele>198.75</ele><time>2026-03-28T15:33:40.75Z</time></trkpt><trkpt lat="45.6035174" lon="10.6921732"><ele>197.5</ele><time>2026-03-28T15:33:41.75Z</time></trkpt><trkpt lat="45.6033945" lon="10.6920811"><ele>196.25</ele><time>2026-03-28T15:33:42.75Z</time></trkpt><trkpt lat="45.6032661" lon="10.6919825"><ele>195.0</ele><time>2026-03-28T15:33:43.75Z</time></trkpt><trkpt lat="45.6031346" lon="10.6918854"><ele>195.0</ele><time>2026-03-28T15:33:44.75Z</time></trkpt><trkpt lat="45.6030018" lon="10.6917874"><ele>195.0</ele><time>2026-03-28T15:33:45.75Z</time></trkpt><trkpt lat="45.6028703" lon="10.6916717"><ele>195.0</ele><time>2026-03-28T15:33:46.75Z</time></trkpt><trkpt lat="45.6027521" lon="10.6915489"><ele>197.25</ele><time>2026-03-28T15:33:47.75Z</time></trkpt><trkpt lat="45.6026425" lon="10.6914141"><ele>199.5</ele><time>2026-03-28T15:33:48.75Z</time></trkpt><trkpt lat="45.60254" lon="10.6912802"><ele>201.75</ele><time>2026-03-28T15:33:49.75Z</time></trkpt><trkpt lat="45.6024216" lon="10.6911681"><ele>204.0</ele><time>2026-03-28T15:33:50.75Z</time></trkpt><trkpt lat="45.6022839" lon="10.691074"><ele>198.66666666666666</ele><time>2026-03-28T15:33:51.75Z</time></trkpt><trkpt lat="45.6021234" lon="10.6909922"><ele>193.33333333333331</ele><time>2026-03-28T15:33:52.75Z</time></trkpt><trkpt lat="45.6019552" lon="10.6909114"><ele>188.0</ele><time>2026-03-28T15:33:53.75Z</time></trkpt><trkpt lat="45.601801" lon="10.6908306"><ele>188.0</ele><time>2026-03-28T15:33:54.75Z</time></trkpt><trkpt lat="45.60165" lon="10.6907591"><ele>188.0</ele><time>2026-03-28T15:33:55.75Z</time></trkpt><trkpt lat="45.6015032" lon="10.6906978"><ele>188.0</ele><time>2026-03-28T15:33:56.75Z</time></trkpt><trkpt lat="45.6013669" lon="10.6906422"><ele>188.0</ele><time>2026-03-28T15:33:57.75Z</time></trkpt><trkpt lat="45.6012491" lon="10.6905922"><ele>188.0</ele><time>2026-03-28T15:33:58.751Z</time></trkpt><trkpt lat="45.6011429" lon="10.6905265"><ele>188.0</ele><time>2026-03-28T15:33:59.75Z</time></trkpt><trkpt lat="45.6010475" lon="10.6904413"><ele>188.0</ele><time>2026-03-28T15:34:00.751Z</time></trkpt><trkpt lat="45.600948" lon="10.6903924"><ele>189.8</ele><time>2026-03-28T15:34:01.751Z</time></trkpt><trkpt lat="45.6008635" lon="10.6903597"><ele>191.60000000000002</ele><time>2026-03-28T15:34:02.75Z</time></trkpt><trkpt lat="45.600798" lon="10.6903269"><ele>193.39999999999998</ele><time>2026-03-28T15:34:03.75Z</time></trkpt><trkpt lat="45.6007697" lon="10.690225"><ele>195.2</ele><time>2026-03-28T15:34:05.75Z</time></trkpt><trkpt lat="45.6008919" lon="10.6901945"><ele>197.0</ele><time>2026-03-28T15:34:07.75Z</time></trkpt><trkpt lat="45.6010141" lon="10.6902129"><ele>186.0</ele><time>2026-03-28T15:34:08.75Z</time></trkpt><trkpt lat="45.6011691" lon="10.6902203"><ele>175.0</ele><time>2026-03-28T15:34:09.75Z</time></trkpt><trkpt lat="45.6013359" lon="10.6902214"><ele>164.0</ele><time>2026-03-28T15:34:10.75Z</time></trkpt><trkpt lat="45.6014987" lon="10.6902247"><ele>164.0</ele><time>2026-03-28T15:34:11.75Z</time></trkpt><trkpt lat="45.6016564" lon="10.690241"><ele>164.0</ele><time>2026-03-28T15:34:12.75Z</time></trkpt><trkpt lat="45.6018085" lon="10.6902575"><ele>164.0</ele><time>2026-03-28T15:34:13.75Z</time></trkpt><trkpt lat="45.6019731" lon="10.6902625"><ele>169.66666666666666</ele><time>2026-03-28T15:34:14.75Z</time></trkpt><trkpt lat="45.6021437" lon="10.6902704"><ele>175.33333333333334</ele><time>2026-03-28T15:34:15.75Z</time></trkpt><trkpt lat="45.6023087" lon="10.6902784"><ele>181.0</ele><time>2026-03-28T15:34:16.75Z</time></trkpt><trkpt lat="45.6024683" lon="10.6902925"><ele>181.0</ele><time>2026-03-28T15:34:17.75Z</time></trkpt><trkpt lat="45.6026264" lon="10.6903126"><ele>181.0</ele><time>2026-03-28T15:34:18.75Z</time></trkpt><trkpt lat="45.6027766" lon="10.6903349"><ele>181.0</ele><time>2026-03-28T15:34:19.75Z</time></trkpt><trkpt lat="45.6029167" lon="10.6903368"><ele>178.75</ele><time>2026-03-28T15:34:20.75Z</time></trkpt><trkpt lat="45.6030604" lon="10.6903181"><ele>176.5</ele><time>2026-03-28T15:34:21.75Z</time></trkpt><trkpt lat="45.603199" lon="10.690303"><ele>174.25</ele><time>2026-03-28T15:34:22.75Z</time></trkpt><trkpt lat="45.6033246" lon="10.6902963"><ele>172.0</ele><time>2026-03-28T15:34:23.75Z</time></trkpt><trkpt lat="45.6034463" lon="10.6902956"><ele>172.0</ele><time>2026-03-28T15:34:24.75Z</time></trkpt><trkpt lat="45.6035587" lon="10.6902965"><ele>172.0</ele><time>2026-03-28T15:34:25.75Z</time></trkpt><trkpt lat="45.6036899" lon="10.6902938"><ele>172.0</ele><time>2026-03-28T15:34:26.75Z</time></trkpt><trkpt lat="45.6038358" lon="10.6902866"><ele>172.0</ele><time>2026-03-28T15:34:27.75Z</time></trkpt><trkpt lat="45.6039759" lon="10.6902852"><ele>170.25</ele><time>2026-03-28T15:34:28.75Z</time></trkpt><trkpt lat="45.6041159" lon="10.6902868"><ele>168.5</ele><time>2026-03-28T15:34:29.75Z</time></trkpt><trkpt lat="45.6042556" lon="10.690297"><ele>166.75</ele><time>2026-03-28T15:34:30.75Z</time></trkpt><trkpt lat="45.6043953" lon="10.6903321"><ele>165.0</ele><time>2026-03-28T15:34:31.75Z</time></trkpt><trkpt lat="45.6045328" lon="10.6903848"><ele>162.0</ele><time>2026-03-28T15:34:32.75Z</time></trkpt><trkpt lat="45.6046669" lon="10.6904347"><ele>159.0</ele><time>2026-03-28T15:34:33.751Z</time></trkpt><trkpt lat="45.6047994" lon="10.6904812"><ele>156.0</ele><time>2026-03-28T15:34:34.75Z</time></trkpt><trkpt lat="45.6049391" lon="10.6905073"><ele>153.0</ele><time>2026-03-28T15:34:35.75Z</time></trkpt><trkpt lat="45.6050897" lon="10.6905176"><ele>153.0</ele><time>2026-03-28T15:34:36.751Z</time></trkpt><trkpt lat="45.6052402" lon="10.6905553"><ele>153.0</ele><time>2026-03-28T15:34:37.75Z</time></trkpt><trkpt lat="45.605389" lon="10.6906204"><ele>153.0</ele><time>2026-03-28T15:34:38.75Z</time></trkpt><trkpt lat="45.6055254" lon="10.6907046"><ele>149.8</ele><time>2026-03-28T15:34:39.75Z</time></trkpt><trkpt lat="45.6056468" lon="10.6908082"><ele>146.60000000000002</ele><time>2026-03-28T15:34:40.75Z</time></trkpt><trkpt lat="45.6057468" lon="10.6909016"><ele>143.39999999999998</ele><time>2026-03-28T15:34:41.75Z</time></trkpt><trkpt lat="45.6058249" lon="10.69098"><ele>140.2</ele><time>2026-03-28T15:34:42.75Z</time></trkpt><trkpt lat="45.6058919" lon="10.6910007"><ele>137.0</ele><time>2026-03-28T15:34:43.75Z</time></trkpt><trkpt lat="45.6059295" lon="10.6908894"><ele>137.0</ele><time>2026-03-28T15:34:45.75Z</time></trkpt><trkpt lat="45.6058888" lon="10.6908066"><ele>137.0</ele><time>2026-03-28T15:34:46.751Z</time></trkpt><trkpt lat="45.6058098" lon="10.6907162"><ele>137.0</ele><time>2026-03-28T15:34:47.75Z</time></trkpt><trkpt lat="45.6057057" lon="10.6905983"><ele>137.0</ele><time>2026-03-28T15:34:48.75Z</time></trkpt><trkpt lat="45.6055879" lon="10.6904509"><ele>137.0</ele><time>2026-03-28T15:34:49.75Z</time></trkpt><trkpt lat="45.6054585" lon="10.6902964"><ele>137.0</ele><time>2026-03-28T15:34:50.75Z</time></trkpt><trkpt lat="45.6053355" lon="10.6901664"><ele>137.0</ele><time>2026-03-28T15:34:51.75Z</time></trkpt><trkpt lat="45.6052133" lon="10.6900486"><ele>136.25</ele><time>2026-03-28T15:34:52.75Z</time></trkpt><trkpt lat="45.605096" lon="10.6899414"><ele>135.5</ele><time>2026-03-28T15:34:53.75Z</time></trkpt><trkpt lat="45.6049752" lon="10.6898333"><ele>134.75</ele><time>2026-03-28T15:34:54.75Z</time></trkpt><trkpt lat="45.6048514" lon="10.6897249"><ele>134.0</ele><time>2026-03-28T15:34:55.75Z</time></trkpt><trkpt lat="45.6047315" lon="10.6896225"><ele>134.0</ele><time>2026-03-28T15:34:56.75Z</time></trkpt><trkpt lat="45.6046187" lon="10.6895334"><ele>134.0</ele><time>2026-03-28T15:34:57.75Z</time></trkpt><trkpt lat="45.6045198" lon="10.6894645"><ele>134.0</ele><time>2026-03-28T15:34:58.75Z</time></trkpt><trkpt lat="45.6044346" lon="10.6894044"><ele>134.0</ele><time>2026-03-28T15:34:59.75Z</time></trkpt><trkpt lat="45.6043848" lon="10.6893219"><ele>134.0</ele><time>2026-03-28T15:35:00.75Z</time></trkpt><trkpt lat="45.60443" lon="10.6892103"><ele>130.5</ele><time>2026-03-28T15:35:02.75Z</time></trkpt><trkpt lat="45.6045145" lon="10.6892153"><ele>127.0</ele><time>2026-03-28T15:35:03.75Z</time></trkpt><trkpt lat="45.6046395" lon="10.6892504"><ele>123.5</ele><time>2026-03-28T15:35:04.75Z</time></trkpt><trkpt lat="45.6047861" lon="10.6892946"><ele>120.0</ele><time>2026-03-28T15:35:05.75Z</time></trkpt><trkpt lat="45.6049348" lon="10.6893091"><ele>120.0</ele><time>2026-03-28T15:35:06.75Z</time></trkpt><trkpt lat="45.6050827" lon="10.6893297"><ele>120.0</ele><time>2026-03-28T15:35:07.75Z</time></trkpt><trkpt lat="45.6052244" lon="10.6893924"><ele>120.0</ele><time>2026-03-28T15:35:08.75Z</time></trkpt><trkpt lat="45.6053623" lon="10.6894689"><ele>120.0</ele><time>2026-03-28T15:35:09.75Z</time></trkpt><trkpt lat="45.6055049" lon="10.6895371"><ele>120.25</ele><time>2026-03-28T15:35:10.75Z</time></trkpt><trkpt lat="45.6056489" lon="10.6896053"><ele>120.5</ele><time>2026-03-28T15:35:11.75Z</time></trkpt><trkpt lat="45.6057866" lon="10.6896837"><ele>120.75</ele><time>2026-03-28T15:35:12.75Z</time></trkpt><trkpt lat="45.6059176" lon="10.6897616"><ele>121.0</ele><time>2026-03-28T15:35:13.75Z</time></trkpt><trkpt lat="45.6060355" lon="10.689847"><ele>121.0</ele><time>2026-03-28T15:35:14.75Z</time></trkpt><trkpt lat="45.6061394" lon="10.689957"><ele>121.0</ele><time>2026-03-28T15:35:15.75Z</time></trkpt><trkpt lat="45.6062301" lon="10.6900698"><ele>121.0</ele><time>2026-03-28T15:35:16.75Z</time></trkpt><trkpt lat="45.6063142" lon="10.6901752"><ele>121.0</ele><time>2026-03-28T15:35:17.75Z</time></trkpt><trkpt lat="45.6064089" lon="10.6902818"><ele>121.19999999999999</ele><time>2026-03-28T15:35:18.75Z</time></trkpt><trkpt lat="45.6065039" lon="10.6903724"><ele>121.39999999999999</ele><time>2026-03-28T15:35:19.75Z</time></trkpt><trkpt lat="45.6066008" lon="10.6904552"><ele>121.6</ele><time>2026-03-28T15:35:20.75Z</time></trkpt><trkpt lat="45.606699" lon="10.6905217"><ele>121.8</ele><time>2026-03-28T15:35:21.75Z</time></trkpt><trkpt lat="45.6067957" lon="10.6905859"><ele>122.0</ele><time>2026-03-28T15:35:22.75Z</time></trkpt><trkpt lat="45.6068883" lon="10.6906445"><ele>122.0</ele><time>2026-03-28T15:35:23.75Z</time></trkpt><trkpt lat="45.6069846" lon="10.6906973"><ele>121.99999999999999</ele><time>2026-03-28T15:35:24.75Z</time></trkpt><trkpt lat="45.6070848" lon="10.6907446"><ele>121.99999999999999</ele><time>2026-03-28T15:35:25.75Z</time></trkpt><trkpt lat="45.6071917" lon="10.6907862"><ele>122.0</ele><time>2026-03-28T15:35:26.75Z</time></trkpt><trkpt lat="45.6073031" lon="10.6908335"><ele>122.0</ele><time>2026-03-28T15:35:27.75Z</time></trkpt><trkpt lat="45.6074166" lon="10.6908812"><ele>119.39999999999999</ele><time>2026-03-28T15:35:28.75Z</time></trkpt><trkpt lat="45.6075277" lon="10.6909249"><ele>116.79999999999998</ele><time>2026-03-28T15:35:29.75Z</time></trkpt><trkpt lat="45.6076356" lon="10.690969"><ele>114.2</ele><time>2026-03-28T15:35:30.75Z</time></trkpt><trkpt lat="45.6077399" lon="10.6910208"><ele>111.6</ele><time>2026-03-28T15:35:31.751Z</time></trkpt><trkpt lat="45.6078396" lon="10.6910798"><ele>109.0</ele><time>2026-03-28T15:35:32.75Z</time></trkpt><trkpt lat="45.6079386" lon="10.6911363"><ele>109.0</ele><time>2026-03-28T15:35:33.75Z</time></trkpt><trkpt lat="45.6080379" lon="10.6911761"><ele>109.0</ele><time>2026-03-28T15:35:34.75Z</time></trkpt><trkpt lat="45.6081451" lon="10.6911983"><ele>109.0</ele><time>2026-03-28T15:35:35.75Z</time></trkpt><trkpt lat="45.608249" lon="10.6912021"><ele>109.0</ele><time>2026-03-28T15:35:36.75Z</time></trkpt><trkpt lat="45.6083521" lon="10.691203"><ele>109.0</ele><time>2026-03-28T15:35:37.75Z</time></trkpt><trkpt lat="45.6084534" lon="10.6912023"><ele>109.00000000000001</ele><time>2026-03-28T15:35:38.75Z</time></trkpt><trkpt lat="45.6085496" lon="10.6911974"><ele>109.0</ele><time>2026-03-28T15:35:39.75Z</time></trkpt><trkpt lat="45.608641" lon="10.6911915"><ele>109.0</ele><time>2026-03-28T15:35:40.75Z</time></trkpt><trkpt lat="45.608728" lon="10.691186"><ele>109.0</ele><time>2026-03-28T15:35:41.75Z</time></trkpt><trkpt lat="45.6088129" lon="10.6911845"><ele>109.00000000000001</ele><time>2026-03-28T15:35:42.75Z</time></trkpt><trkpt lat="45.608902" lon="10.6911803"><ele>109.0</ele><time>2026-03-28T15:35:43.75Z</time></trkpt><trkpt lat="45.6089921" lon="10.6911798"><ele>107.0</ele><time>2026-03-28T15:35:44.75Z</time></trkpt><trkpt lat="45.6090824" lon="10.69118"><ele>105.0</ele><time>2026-03-28T15:35:45.75Z</time></trkpt><trkpt lat="45.6091765" lon="10.6911855"><ele>103.0</ele><time>2026-03-28T15:35:46.75Z</time></trkpt><trkpt lat="45.6092739" lon="10.6911935"><ele>101.0</ele><time>2026-03-28T15:35:47.75Z</time></trkpt><trkpt lat="45.6093748" lon="10.6912039"><ele>99.0</ele><time>2026-03-28T15:35:48.75Z</time></trkpt><trkpt lat="45.6094785" lon="10.6912083"><ele>98.66666666666667</ele><time>2026-03-28T15:35:49.75Z</time></trkpt><trkpt lat="45.6095799" lon="10.6911914"><ele>98.33333333333334</ele><time>2026-03-28T15:35:50.75Z</time></trkpt><trkpt lat="45.6096655" lon="10.6911532"><ele>98.0</ele><time>2026-03-28T15:35:51.75Z</time></trkpt><trkpt lat="45.6097304" lon="10.6911002"><ele>97.66666666666667</ele><time>2026-03-28T15:35:52.75Z</time></trkpt><trkpt lat="45.6097789" lon="10.6910231"><ele>97.33333333333334</ele><time>2026-03-28T15:35:53.75Z</time></trkpt><trkpt lat="45.6098156" lon="10.690923"><ele>97.0</ele><time>2026-03-28T15:35:54.75Z</time></trkpt><trkpt lat="45.6098392" lon="10.6908122"><ele>95.66666666666667</ele><time>2026-03-28T15:35:55.75Z</time></trkpt><trkpt lat="45.6098523" lon="10.6907023"><ele>94.33333333333334</ele><time>2026-03-28T15:35:56.751Z</time></trkpt><trkpt lat="45.6098612" lon="10.6905937"><ele>93.0</ele><time>2026-03-28T15:35:57.75Z</time></trkpt><trkpt lat="45.6098669" lon="10.6904807"><ele>91.66666666666667</ele><time>2026-03-28T15:35:58.75Z</time></trkpt><trkpt lat="45.6098661" lon="10.6903663"><ele>90.33333333333334</ele><time>2026-03-28T15:35:59.75Z</time></trkpt><trkpt lat="45.6098614" lon="10.6902415"><ele>89.0</ele><time>2026-03-28T15:36:00.75Z</time></trkpt><trkpt lat="45.609852" lon="10.6901157"><ele>88.0</ele><time>2026-03-28T15:36:01.75Z</time></trkpt><trkpt lat="45.6098431" lon="10.689991"><ele>87.0</ele><time>2026-03-28T15:36:02.75Z</time></trkpt><trkpt lat="45.6098384" lon="10.689869"><ele>86.0</ele><time>2026-03-28T15:36:03.75Z</time></trkpt><trkpt lat="45.6098333" lon="10.6897496"><ele>85.0</ele><time>2026-03-28T15:36:04.75Z</time></trkpt><trkpt lat="45.6098284" lon="10.6896422"><ele>84.0</ele><time>2026-03-28T15:36:05.75Z</time></trkpt><trkpt lat="45.6098293" lon="10.6895343"><ele>83.0</ele><time>2026-03-28T15:36:06.75Z</time></trkpt><trkpt lat="45.6098373" lon="10.6894292"><ele>82.0</ele><time>2026-03-28T15:36:07.75Z</time></trkpt><trkpt lat="45.6098552" lon="10.6893309"><ele>81.0</ele><time>2026-03-28T15:36:08.75Z</time></trkpt><trkpt lat="45.6098749" lon="10.6892387"><ele>80.0</ele><time>2026-03-28T15:36:09.75Z</time></trkpt><trkpt lat="45.6098954" lon="10.6891466"><ele>79.0</ele><time>2026-03-28T15:36:10.75Z</time></trkpt><trkpt lat="45.6099093" lon="10.6890571"><ele>78.0</ele><time>2026-03-28T15:36:11.75Z</time></trkpt><trkpt lat="45.609928" lon="10.6889062"><ele>77.0</ele><time>2026-03-28T15:36:13.75Z</time></trkpt><trkpt lat="45.6099556" lon="10.6887266"><ele>77.0</ele><time>2026-03-28T15:36:15.75Z</time></trkpt><trkpt lat="45.6099682" lon="10.6886351"><ele>77.0</ele><time>2026-03-28T15:36:16.75Z</time></trkpt><trkpt lat="45.6099868" lon="10.6885098"><ele>77.0</ele><time>2026-03-28T15:36:18.75Z</time></trkpt><trkpt lat="45.6099955" lon="10.6884011"><ele>77.0</ele><time>2026-03-28T15:36:21.75Z</time></trkpt><trkpt lat="45.6099242" lon="10.688363"><ele>77.0</ele><time>2026-03-28T15:36:25.75Z</time></trkpt><trkpt lat="45.6098583" lon="10.68838"><ele>77.0</ele><time>2026-03-28T15:36:27.75Z</time></trkpt><trkpt lat="45.6097839" lon="10.6884145"><ele>76.2</ele><time>2026-03-28T15:36:29.75Z</time></trkpt><trkpt lat="45.6096967" lon="10.6884515"><ele>75.4</ele><time>2026-03-28T15:36:31.751Z</time></trkpt><trkpt lat="45.6096206" lon="10.6884864"><ele>74.6</ele><time>2026-03-28T15:36:37.75Z</time></trkpt><trkpt lat="45.609511" lon="10.6884394"><ele>73.8</ele><time>2026-03-28T15:36:39.75Z</time></trkpt><trkpt lat="45.6094152" lon="10.6883647"><ele>73.0</ele><time>2026-03-28T15:36:41.75Z</time></trkpt><trkpt lat="45.6093304" lon="10.6882926"><ele>73.0</ele><time>2026-03-28T15:36:43.75Z</time></trkpt><trkpt lat="45.6092295" lon="10.6882057"><ele>73.0</ele><time>2026-03-28T15:36:45.75Z</time></trkpt><trkpt lat="45.6091366" lon="10.6881376"><ele>73.0</ele><time>2026-03-28T15:36:47.75Z</time></trkpt><trkpt lat="45.609055" lon="10.6880774"><ele>73.0</ele><time>2026-03-28T15:36:49.75Z</time></trkpt><trkpt lat="45.6089754" lon="10.68802"><ele>73.0</ele><time>2026-03-28T15:36:51.75Z</time></trkpt><trkpt lat="45.608891" lon="10.6879671"><ele>73.0</ele><time>2026-03-28T15:36:53.75Z</time></trkpt><trkpt lat="45.6087909" lon="10.687912"><ele>73.0</ele><time>2026-03-28T15:36:55.75Z</time></trkpt><trkpt lat="45.608678" lon="10.6878604"><ele>73.0</ele><time>2026-03-28T15:36:57.75Z</time></trkpt><trkpt lat="45.6085672" lon="10.6878007"><ele>73.0</ele><time>2026-03-28T15:36:59.75Z</time></trkpt><trkpt lat="45.6085055" lon="10.6877727"><ele>73.0</ele><time>2026-03-28T15:37:00.75Z</time></trkpt><trkpt lat="45.6084395" lon="10.6877474"><ele>73.0</ele><time>2026-03-28T15:37:01.75Z</time></trkpt><trkpt lat="45.6083191" lon="10.6877111"><ele>73.0</ele><time>2026-03-28T15:37:03.75Z</time></trkpt><trkpt lat="45.608253" lon="10.6876885"><ele>73.0</ele><time>2026-03-28T15:37:04.75Z</time></trkpt><trkpt lat="45.6081874" lon="10.6876661"><ele>73.0</ele><time>2026-03-28T15:37:05.75Z</time></trkpt><trkpt lat="45.6080604" lon="10.6876171"><ele>73.0</ele><time>2026-03-28T15:37:07.75Z</time></trkpt><trkpt lat="45.6079843" lon="10.687584"><ele>73.0</ele><time>2026-03-28T15:37:08.75Z</time></trkpt><trkpt lat="45.6079185" lon="10.6875508"><ele>73.0</ele><time>2026-03-28T15:37:09.75Z</time></trkpt><trkpt lat="45.6078606" lon="10.6875146"><ele>73.0</ele><time>2026-03-28T15:37:10.75Z</time></trkpt><trkpt lat="45.6077409" lon="10.6874428"><ele>73.0</ele><time>2026-03-28T15:37:12.75Z</time></trkpt><trkpt lat="45.6076713" lon="10.6873959"><ele>73.0</ele><time>2026-03-28T15:37:13.75Z</time></trkpt><trkpt lat="45.6075869" lon="10.6873438"><ele>73.0</ele><time>2026-03-28T15:37:14.75Z</time></trkpt><trkpt lat="45.607503" lon="10.6872993"><ele>73.28571428571428</ele><time>2026-03-28T15:37:15.75Z</time></trkpt><trkpt lat="45.6074293" lon="10.6872643"><ele>73.57142857142857</ele><time>2026-03-28T15:37:16.75Z</time></trkpt><trkpt lat="45.6073556" lon="10.6872329"><ele>73.85714285714286</ele><time>2026-03-28T15:37:17.75Z</time></trkpt><trkpt lat="45.6072897" lon="10.6872023"><ele>74.14285714285714</ele><time>2026-03-28T15:37:18.75Z</time></trkpt><trkpt lat="45.6072247" lon="10.6871904"><ele>74.42857142857143</ele><time>2026-03-28T15:37:19.75Z</time></trkpt><trkpt lat="45.6071541" lon="10.6871839"><ele>74.71428571428571</ele><time>2026-03-28T15:37:20.75Z</time></trkpt><trkpt lat="45.6070834" lon="10.6871857"><ele>75.0</ele><time>2026-03-28T15:37:21.751Z</time></trkpt><trkpt lat="45.6069993" lon="10.687189"><ele>75.16666666666667</ele><time>2026-03-28T15:37:22.75Z</time></trkpt><trkpt lat="45.6069152" lon="10.6871798"><ele>75.33333333333333</ele><time>2026-03-28T15:37:23.75Z</time></trkpt><trkpt lat="45.6068355" lon="10.6871726"><ele>75.5</ele><time>2026-03-28T15:37:24.75Z</time></trkpt><trkpt lat="45.606762" lon="10.6871674"><ele>75.66666666666666</ele><time>2026-03-28T15:37:25.75Z</time></trkpt><trkpt lat="45.6066471" lon="10.6871582"><ele>75.83333333333333</ele><time>2026-03-28T15:37:27.75Z</time></trkpt><trkpt lat="45.6065829" lon="10.6871574"><ele>76.0</ele><time>2026-03-28T15:37:31.75Z</time></trkpt><trkpt lat="45.606512" lon="10.687138"><ele>76.0</ele><time>2026-03-28T15:37:34.75Z</time></trkpt><trkpt lat="45.6064478" lon="10.6871339"><ele>76.0</ele><time>2026-03-28T15:37:35.75Z</time></trkpt><trkpt lat="45.6063771" lon="10.6871264"><ele>76.0</ele><time>2026-03-28T15:37:36.75Z</time></trkpt><trkpt lat="45.6062995" lon="10.6871213"><ele>76.0</ele><time>2026-03-28T15:37:37.75Z</time></trkpt><trkpt lat="45.6062204" lon="10.6871219"><ele>76.0</ele><time>2026-03-28T15:37:38.75Z</time></trkpt><trkpt lat="45.6061496" lon="10.6871152"><ele>76.0</ele><time>2026-03-28T15:37:39.75Z</time></trkpt><trkpt lat="45.6060336" lon="10.6870792"><ele>75.39999999999999</ele><time>2026-03-28T15:37:41.75Z</time></trkpt><trkpt lat="45.6059885" lon="10.6869668"><ele>74.8</ele><time>2026-03-28T15:37:43.75Z</time></trkpt><trkpt lat="45.6059771" lon="10.6868377"><ele>74.19999999999999</ele><time>2026-03-28T15:37:45.75Z</time></trkpt><trkpt lat="45.6059594" lon="10.6866811"><ele>73.6</ele><time>2026-03-28T15:37:47.75Z</time></trkpt><trkpt lat="45.605957" lon="10.6865486"><ele>73.0</ele><time>2026-03-28T15:37:49.75Z</time></trkpt><trkpt lat="45.6059512" lon="10.6864483"><ele>73.0</ele><time>2026-03-28T15:37:51.75Z</time></trkpt><trkpt lat="45.6059244" lon="10.6863307"><ele>73.0</ele><time>2026-03-28T15:38:01.75Z</time></trkpt><trkpt lat="45.6059374" lon="10.6861964"><ele>73.0</ele><time>2026-03-28T15:38:03.75Z</time></trkpt><trkpt lat="45.6059196" lon="10.6861084"><ele>73.0</ele><time>2026-03-28T15:38:06.75Z</time></trkpt><trkpt lat="45.6058879" lon="10.6859806"><ele>73.0</ele><time>2026-03-28T15:38:08.75Z</time></trkpt><trkpt lat="45.6058717" lon="10.6857758"><ele>68.0</ele><time>2026-03-28T15:38:10.75Z</time></trkpt><trkpt lat="45.6058693" lon="10.6856401"><ele>68.0</ele><time>2026-03-28T15:38:12.75Z</time></trkpt><trkpt lat="45.6058671" lon="10.6855252"><ele>68.0</ele><time>2026-03-28T15:38:18.75Z</time></trkpt><trkpt lat="45.605873" lon="10.6854354"><ele>68.0</ele><time>2026-03-28T15:38:20.75Z</time></trkpt><trkpt lat="45.6058389" lon="10.6853441"><ele>68.0</ele><time>2026-03-28T15:38:24.75Z</time></trkpt></trkseg></trk></gpx>